<?xml version='1.0' encoding='UTF-8'?><gpx version="1.1" creator="JPX - https://github.com/jenetics/jpx" xmlns="http://www.topografix.com/GPX/1/1"><trk><trkseg><trkpt lat="45.05189560692002" lon="9.597776081520166"><ele>59.00000000000001</ele><time>2026-04-09T08:13:45.009Z</time></trkpt><trkpt lat="45.051899257938636" lon="9.597664982507967"><ele>59.0</ele><time>2026-04-09T08:13:47.967Z</time></trkpt><trkpt lat="45.05196233563535" lon="9.59756289308326"><ele>59.0</ele><time>2026-04-09T08:13:49.972Z</time></trkpt><trkpt lat="45.05196054454245" lon="9.597447828226118"><ele>59.0</ele><time>2026-04-09T08:13:52.977Z</time></trkpt><trkpt lat="45.0519576431527" lon="9.597355793002704"><ele>59.00000000000001</ele><time>2026-04-09T08:13:54.98Z</time></trkpt><trkpt lat="45.0519468634602" lon="9.59722197913636"><ele>59.0</ele><time>2026-04-09T08:13:57.984Z</time></trkpt><trkpt lat="45.05195077568343" lon="9.5971148107344"><ele>59.0</ele><time>2026-04-09T08:13:59.986Z</time></trkpt><trkpt lat="45.05200611612367" lon="9.59703843865465"><ele>59.0</ele><time>2026-04-09T08:14:02.989Z</time></trkpt><trkpt lat="45.05208147117844" lon="9.59703173300721"><ele>59.0</ele><time>2026-04-09T08:14:04.99Z</time></trkpt><trkpt lat="45.05215816682018" lon="9.597028801955629"><ele>59.0</ele><time>2026-04-09T08:14:06.991Z</time></trkpt><trkpt lat="45.05222231844036" lon="9.597039837069676"><ele>59.0</ele><time>2026-04-09T08:14:08.993Z</time></trkpt><trkpt lat="45.05228746296702" lon="9.597068521441878"><ele>59.0</ele><time>2026-04-09T08:14:12.994Z</time></trkpt><trkpt lat="45.05233161506341" lon="9.59697780325472"><ele>59.0</ele><time>2026-04-09T08:14:15.996Z</time></trkpt><trkpt lat="45.052321489037574" lon="9.596886948897378"><ele>59.16666666666667</ele><time>2026-04-09T08:14:17.996Z</time></trkpt><trkpt lat="45.05228142782904" lon="9.596777537826785"><ele>59.333333333333336</ele><time>2026-04-09T08:14:19.997Z</time></trkpt><trkpt lat="45.052263551917" lon="9.596678748896336"><ele>59.5</ele><time>2026-04-09T08:14:21.997Z</time></trkpt><trkpt lat="45.05224665339021" lon="9.596572452587308"><ele>59.66666666666667</ele><time>2026-04-09T08:14:23.998Z</time></trkpt><trkpt lat="45.05222270088178" lon="9.59646350966564"><ele>59.833333333333336</ele><time>2026-04-09T08:14:25.998Z</time></trkpt><trkpt lat="45.052206423568364" lon="9.596350900266753"><ele>60.0</ele><time>2026-04-09T08:14:27.999Z</time></trkpt><trkpt lat="45.05218541410992" lon="9.596238398356713"><ele>60.0</ele><time>2026-04-09T08:14:29.999Z</time></trkpt><trkpt lat="45.052169768910574" lon="9.596141440675034"><ele>60.0</ele><time>2026-04-09T08:14:31.999Z</time></trkpt><trkpt lat="45.05214325563973" lon="9.596038860627369"><ele>60.0</ele><time>2026-04-09T08:14:33.999Z</time></trkpt><trkpt lat="45.05212791044389" lon="9.595924049805028"><ele>60.0</ele><time>2026-04-09T08:14:36Z</time></trkpt><trkpt lat="45.05212483887105" lon="9.595809028189366"><ele>60.0</ele><time>2026-04-09T08:14:38Z</time></trkpt><trkpt lat="45.05213094224101" lon="9.595685891853167"><ele>60.0</ele><time>2026-04-09T08:14:40Z</time></trkpt><trkpt lat="45.052127658736225" lon="9.595572920905795"><ele>60.0</ele><time>2026-04-09T08:14:42Z</time></trkpt><trkpt lat="45.05213010619866" lon="9.595452881391783"><ele>60.0</ele><time>2026-04-09T08:14:44Z</time></trkpt><trkpt lat="45.0521322102052" lon="9.595336968305817"><ele>60.0</ele><time>2026-04-09T08:14:46Z</time></trkpt><trkpt lat="45.052124928686105" lon="9.595239863137001"><ele>60.0</ele><time>2026-04-09T08:14:48Z</time></trkpt><trkpt lat="45.052127546017296" lon="9.595132655626461"><ele>60.0</ele><time>2026-04-09T08:14:50Z</time></trkpt><trkpt lat="45.052130337831144" lon="9.595030117306278"><ele>60.0</ele><time>2026-04-09T08:14:52Z</time></trkpt><trkpt lat="45.05212925011743" lon="9.594937286363628"><ele>60.0</ele><time>2026-04-09T08:14:54.001Z</time></trkpt><trkpt lat="45.05213027449236" lon="9.59483933135874"><ele>60.0</ele><time>2026-04-09T08:14:56.001Z</time></trkpt><trkpt lat="45.0521331103397" lon="9.594746438520303"><ele>60.0</ele><time>2026-04-09T08:14:58.001Z</time></trkpt><trkpt lat="45.05212343830946" lon="9.59464750473038"><ele>60.0</ele><time>2026-04-09T08:15:00.001Z</time></trkpt><trkpt lat="45.05212558972609" lon="9.594529600465297"><ele>60.0</ele><time>2026-04-09T08:15:02.001Z</time></trkpt><trkpt lat="45.052132566080715" lon="9.594410657167781"><ele>60.0</ele><time>2026-04-09T08:15:04.001Z</time></trkpt><trkpt lat="45.052136552505" lon="9.594285377155298"><ele>59.8</ele><time>2026-04-09T08:15:06.001Z</time></trkpt><trkpt lat="45.05213470524676" lon="9.59416029137322"><ele>59.6</ele><time>2026-04-09T08:15:08.001Z</time></trkpt><trkpt lat="45.05213966482525" lon="9.594035010627126"><ele>59.400000000000006</ele><time>2026-04-09T08:15:10.001Z</time></trkpt><trkpt lat="45.052144519136505" lon="9.593904612150803"><ele>59.2</ele><time>2026-04-09T08:15:12.001Z</time></trkpt><trkpt lat="45.05214557311439" lon="9.593768942210499"><ele>59.0</ele><time>2026-04-09T08:15:14.001Z</time></trkpt><trkpt lat="45.052146203671825" lon="9.593633333646578"><ele>59.0</ele><time>2026-04-09T08:15:16.001Z</time></trkpt><trkpt lat="45.052149328739986" lon="9.593504917948204"><ele>59.00000000000001</ele><time>2026-04-09T08:15:18.001Z</time></trkpt><trkpt lat="45.0521528269678" lon="9.593369268378941"><ele>59.00000000000001</ele><time>2026-04-09T08:15:20.001Z</time></trkpt><trkpt lat="45.05215415838983" lon="9.593230604403804"><ele>59.0</ele><time>2026-04-09T08:15:22.001Z</time></trkpt><trkpt lat="45.052156243837274" lon="9.593090576734"><ele>59.0</ele><time>2026-04-09T08:15:24.001Z</time></trkpt><trkpt lat="45.052153347950345" lon="9.592953413119302"><ele>59.2</ele><time>2026-04-09T08:15:26.001Z</time></trkpt><trkpt lat="45.0521566331356" lon="9.592810440618795"><ele>59.400000000000006</ele><time>2026-04-09T08:15:28.001Z</time></trkpt><trkpt lat="45.05215393623613" lon="9.592670648566259"><ele>59.6</ele><time>2026-04-09T08:15:30.001Z</time></trkpt><trkpt lat="45.052151665203986" lon="9.592531167938102"><ele>59.8</ele><time>2026-04-09T08:15:32.001Z</time></trkpt><trkpt lat="45.05214077944881" lon="9.592389976953339"><ele>60.0</ele><time>2026-04-09T08:15:34.001Z</time></trkpt><trkpt lat="45.05212708216203" lon="9.592245086860089"><ele>60.0</ele><time>2026-04-09T08:15:36.001Z</time></trkpt><trkpt lat="45.05211705006572" lon="9.592103946731466"><ele>60.0</ele><time>2026-04-09T08:15:38.001Z</time></trkpt><trkpt lat="45.0521002716383" lon="9.591956581109187"><ele>60.0</ele><time>2026-04-09T08:15:40.001Z</time></trkpt><trkpt lat="45.05208295261198" lon="9.591825181417931"><ele>60.0</ele><time>2026-04-09T08:15:42.001Z</time></trkpt><trkpt lat="45.05206751270565" lon="9.591671286106646"><ele>60.0</ele><time>2026-04-09T08:15:44.001Z</time></trkpt><trkpt lat="45.05205350415596" lon="9.591525431074203"><ele>60.4</ele><time>2026-04-09T08:15:46.001Z</time></trkpt><trkpt lat="45.052041052644206" lon="9.591379489598173"><ele>60.8</ele><time>2026-04-09T08:15:48.001Z</time></trkpt><trkpt lat="45.052025746237526" lon="9.591232831623108"><ele>61.2</ele><time>2026-04-09T08:15:50.001Z</time></trkpt><trkpt lat="45.052010995068315" lon="9.591090923697035"><ele>61.6</ele><time>2026-04-09T08:15:52.001Z</time></trkpt><trkpt lat="45.05199755088421" lon="9.590940068127631"><ele>62.0</ele><time>2026-04-09T08:15:54.001Z</time></trkpt><trkpt lat="45.05198110531964" lon="9.59079862447422"><ele>62.0</ele><time>2026-04-09T08:15:56.001Z</time></trkpt><trkpt lat="45.05196953803806" lon="9.59066551886684"><ele>62.0</ele><time>2026-04-09T08:15:58.001Z</time></trkpt><trkpt lat="45.051961329312434" lon="9.590515708652703"><ele>62.0</ele><time>2026-04-09T08:16:00.001Z</time></trkpt><trkpt lat="45.051945993894655" lon="9.590372619188901"><ele>62.0</ele><time>2026-04-09T08:16:02.001Z</time></trkpt><trkpt lat="45.05193281075186" lon="9.590236250484088"><ele>62.0</ele><time>2026-04-09T08:16:04.001Z</time></trkpt><trkpt lat="45.05191723097978" lon="9.590097994771645"><ele>61.8</ele><time>2026-04-09T08:16:06.001Z</time></trkpt><trkpt lat="45.051910589924475" lon="9.589957545975786"><ele>61.6</ele><time>2026-04-09T08:16:08.001Z</time></trkpt><trkpt lat="45.051895749943164" lon="9.589821020727014"><ele>61.39999999999999</ele><time>2026-04-09T08:16:10.001Z</time></trkpt><trkpt lat="45.051879104228966" lon="9.589678738396628"><ele>61.199999999999996</ele><time>2026-04-09T08:16:12.001Z</time></trkpt><trkpt lat="45.05186480623349" lon="9.589537052311078"><ele>61.0</ele><time>2026-04-09T08:16:14.001Z</time></trkpt><trkpt lat="45.05184841596196" lon="9.58940276475425"><ele>61.0</ele><time>2026-04-09T08:16:16.001Z</time></trkpt><trkpt lat="45.05182318038623" lon="9.589261174889135"><ele>60.99999999999999</ele><time>2026-04-09T08:16:18.001Z</time></trkpt><trkpt lat="45.0517906261213" lon="9.589130652025291"><ele>60.99999999999999</ele><time>2026-04-09T08:16:20.001Z</time></trkpt><trkpt lat="45.05174266563691" lon="9.588993081490297"><ele>61.0</ele><time>2026-04-09T08:16:22.001Z</time></trkpt><trkpt lat="45.05170168165407" lon="9.588863106267311"><ele>61.0</ele><time>2026-04-09T08:16:24.001Z</time></trkpt><trkpt lat="45.051654999558146" lon="9.58872814028386"><ele>61.4</ele><time>2026-04-09T08:16:26.001Z</time></trkpt><trkpt lat="45.051596656773576" lon="9.588615499719088"><ele>61.8</ele><time>2026-04-09T08:16:28.001Z</time></trkpt><trkpt lat="45.05152678007872" lon="9.588507653174162"><ele>62.199999999999996</ele><time>2026-04-09T08:16:30.001Z</time></trkpt><trkpt lat="45.051449098881754" lon="9.588408340285445"><ele>62.599999999999994</ele><time>2026-04-09T08:16:32.001Z</time></trkpt><trkpt lat="45.05137869623514" lon="9.588302966814522"><ele>63.0</ele><time>2026-04-09T08:16:34.001Z</time></trkpt><trkpt lat="45.05130780204162" lon="9.588191246280372"><ele>63.0</ele><time>2026-04-09T08:16:36.001Z</time></trkpt><trkpt lat="45.05122895002704" lon="9.588101433200798"><ele>63.0</ele><time>2026-04-09T08:16:38.001Z</time></trkpt><trkpt lat="45.05115008545539" lon="9.588027447409447"><ele>63.0</ele><time>2026-04-09T08:16:40.001Z</time></trkpt><trkpt lat="45.051082900052805" lon="9.587926927101739"><ele>63.0</ele><time>2026-04-09T08:16:42.001Z</time></trkpt><trkpt lat="45.05101472041961" lon="9.587845825228628"><ele>63.0</ele><time>2026-04-09T08:16:44.001Z</time></trkpt><trkpt lat="45.05094711827534" lon="9.58776815856752"><ele>62.8</ele><time>2026-04-09T08:16:46.001Z</time></trkpt><trkpt lat="45.050888903886595" lon="9.58766534684955"><ele>62.599999999999994</ele><time>2026-04-09T08:16:48.001Z</time></trkpt><trkpt lat="45.05082075559422" lon="9.587571798952494"><ele>62.400000000000006</ele><time>2026-04-09T08:16:50.001Z</time></trkpt><trkpt lat="45.05075042474731" lon="9.587483990939083"><ele>62.2</ele><time>2026-04-09T08:16:52.001Z</time></trkpt><trkpt lat="45.050680007719116" lon="9.587394130860586"><ele>62.0</ele><time>2026-04-09T08:16:54.001Z</time></trkpt><trkpt lat="45.050607948887844" lon="9.587304664757864"><ele>62.0</ele><time>2026-04-09T08:16:56.001Z</time></trkpt><trkpt lat="45.050549442948665" lon="9.587208017169777"><ele>62.0</ele><time>2026-04-09T08:16:58.001Z</time></trkpt><trkpt lat="45.05047578794333" lon="9.58711204903143"><ele>62.0</ele><time>2026-04-09T08:17:00.001Z</time></trkpt><trkpt lat="45.050402765450514" lon="9.587023056167359"><ele>62.0</ele><time>2026-04-09T08:17:02.001Z</time></trkpt><trkpt lat="45.050336581027366" lon="9.58691811913555"><ele>62.0</ele><time>2026-04-09T08:17:04.001Z</time></trkpt><trkpt lat="45.0502620941416" lon="9.586818536832727"><ele>61.8</ele><time>2026-04-09T08:17:06.001Z</time></trkpt><trkpt lat="45.05018741748883" lon="9.586718869722935"><ele>61.6</ele><time>2026-04-09T08:17:08.001Z</time></trkpt><trkpt lat="45.05011490373707" lon="9.586617429255353"><ele>61.39999999999999</ele><time>2026-04-09T08:17:10.001Z</time></trkpt><trkpt lat="45.05003455855919" lon="9.586523406196006"><ele>61.199999999999996</ele><time>2026-04-09T08:17:12.001Z</time></trkpt><trkpt lat="45.04995990949102" lon="9.586424930641053"><ele>61.0</ele><time>2026-04-09T08:17:14.001Z</time></trkpt><trkpt lat="45.04988248503865" lon="9.586315374582922"><ele>61.0</ele><time>2026-04-09T08:17:16.001Z</time></trkpt><trkpt lat="45.049801905148364" lon="9.586213216075715"><ele>61.0</ele><time>2026-04-09T08:17:18.001Z</time></trkpt><trkpt lat="45.04972247230566" lon="9.586097522325527"><ele>61.0</ele><time>2026-04-09T08:17:20.001Z</time></trkpt><trkpt lat="45.04964153867399" lon="9.58598252600605"><ele>61.0</ele><time>2026-04-09T08:17:22.001Z</time></trkpt><trkpt lat="45.04957043871092" lon="9.58585444475383"><ele>61.199999999999996</ele><time>2026-04-09T08:17:24.001Z</time></trkpt><trkpt lat="45.049514962197165" lon="9.585705682183484"><ele>61.39999999999999</ele><time>2026-04-09T08:17:26.001Z</time></trkpt><trkpt lat="45.04945170286808" lon="9.58556855486961"><ele>61.6</ele><time>2026-04-09T08:17:28.001Z</time></trkpt><trkpt lat="45.04941847753442" lon="9.58548850885389"><ele>61.8</ele><time>2026-04-09T08:17:29.001Z</time></trkpt><trkpt lat="45.04936555169579" lon="9.585356112488139"><ele>62.0</ele><time>2026-04-09T08:17:31.001Z</time></trkpt><trkpt lat="45.0493325107471" lon="9.58528009920045"><ele>62.2</ele><time>2026-04-09T08:17:32.001Z</time></trkpt><trkpt lat="45.049275151524235" lon="9.585146570280324"><ele>62.400000000000006</ele><time>2026-04-09T08:17:34.001Z</time></trkpt><trkpt lat="45.049243417657976" lon="9.585067773395826"><ele>62.599999999999994</ele><time>2026-04-09T08:17:35.001Z</time></trkpt><trkpt lat="45.04918417349165" lon="9.58492602969745"><ele>62.8</ele><time>2026-04-09T08:17:37.001Z</time></trkpt><trkpt lat="45.04912904095447" lon="9.58478697386432"><ele>63.0</ele><time>2026-04-09T08:17:39.001Z</time></trkpt><trkpt lat="45.04907055772161" lon="9.584648381984215"><ele>62.75</ele><time>2026-04-09T08:17:41.001Z</time></trkpt><trkpt lat="45.0490148408162" lon="9.584507763992667"><ele>62.5</ele><time>2026-04-09T08:17:43.001Z</time></trkpt><trkpt lat="45.04895241100791" lon="9.58436976586351"><ele>62.25</ele><time>2026-04-09T08:17:45.001Z</time></trkpt><trkpt lat="45.04889640705736" lon="9.5842300198967"><ele>62.0</ele><time>2026-04-09T08:17:47.001Z</time></trkpt><trkpt lat="45.048840021865814" lon="9.584092585702365"><ele>62.0</ele><time>2026-04-09T08:17:49.001Z</time></trkpt><trkpt lat="45.04878163091762" lon="9.583955885536401"><ele>62.0</ele><time>2026-04-09T08:17:51.001Z</time></trkpt><trkpt lat="45.04872210511584" lon="9.58381794516807"><ele>62.0</ele><time>2026-04-09T08:17:53.001Z</time></trkpt><trkpt lat="45.048665426638976" lon="9.583684909377528"><ele>62.0</ele><time>2026-04-09T08:17:55.001Z</time></trkpt><trkpt lat="45.048607033972864" lon="9.583545394968716"><ele>62.0</ele><time>2026-04-09T08:17:57.001Z</time></trkpt><trkpt lat="45.04855427290647" lon="9.583412488803807"><ele>62.0</ele><time>2026-04-09T08:17:59.001Z</time></trkpt><trkpt lat="45.04849891570069" lon="9.583276874405867"><ele>62.0</ele><time>2026-04-09T08:18:01.001Z</time></trkpt><trkpt lat="45.04844053057938" lon="9.58313527445302"><ele>62.0</ele><time>2026-04-09T08:18:03.001Z</time></trkpt><trkpt lat="45.04838125544113" lon="9.582996025120508"><ele>62.0</ele><time>2026-04-09T08:18:05.001Z</time></trkpt><trkpt lat="45.04832663313971" lon="9.582861188957256"><ele>62.2</ele><time>2026-04-09T08:18:07.001Z</time></trkpt><trkpt lat="45.04826688617168" lon="9.58272246378295"><ele>62.400000000000006</ele><time>2026-04-09T08:18:09.001Z</time></trkpt><trkpt lat="45.0482084027075" lon="9.582584915239284"><ele>62.599999999999994</ele><time>2026-04-09T08:18:11.001Z</time></trkpt><trkpt lat="45.04815666361106" lon="9.582452756477037"><ele>62.8</ele><time>2026-04-09T08:18:13.001Z</time></trkpt><trkpt lat="45.04809769140512" lon="9.582332527225415"><ele>63.0</ele><time>2026-04-09T08:18:15.001Z</time></trkpt><trkpt lat="45.048037946132865" lon="9.582191180723965"><ele>63.0</ele><time>2026-04-09T08:18:17.001Z</time></trkpt><trkpt lat="45.04798169742346" lon="9.582058936189553"><ele>63.0</ele><time>2026-04-09T08:18:19.001Z</time></trkpt><trkpt lat="45.0479241726685" lon="9.58192565012316"><ele>63.0</ele><time>2026-04-09T08:18:21.001Z</time></trkpt><trkpt lat="45.04786380555769" lon="9.58178511355668"><ele>63.0</ele><time>2026-04-09T08:18:23.001Z</time></trkpt><trkpt lat="45.0478017238166" lon="9.581646405970178"><ele>63.0</ele><time>2026-04-09T08:18:25.001Z</time></trkpt><trkpt lat="45.04774604756743" lon="9.581517722150211"><ele>63.0</ele><time>2026-04-09T08:18:27.001Z</time></trkpt><trkpt lat="45.04769005408348" lon="9.581376223427167"><ele>63.0</ele><time>2026-04-09T08:18:29.001Z</time></trkpt><trkpt lat="45.04763463723725" lon="9.581248078278806"><ele>63.0</ele><time>2026-04-09T08:18:31.001Z</time></trkpt><trkpt lat="45.047577606110025" lon="9.581099694148186"><ele>63.0</ele><time>2026-04-09T08:18:33.001Z</time></trkpt><trkpt lat="45.04751993659005" lon="9.580967890574538"><ele>63.0</ele><time>2026-04-09T08:18:35.001Z</time></trkpt><trkpt lat="45.04746393662653" lon="9.580833789523235"><ele>63.0</ele><time>2026-04-09T08:18:37.001Z</time></trkpt><trkpt lat="45.04740304152746" lon="9.580696306137348"><ele>63.0</ele><time>2026-04-09T08:18:39.001Z</time></trkpt><trkpt lat="45.04734606881977" lon="9.580550792610774"><ele>63.0</ele><time>2026-04-09T08:18:41.001Z</time></trkpt><trkpt lat="45.047288592476164" lon="9.580407135659552"><ele>62.75</ele><time>2026-04-09T08:18:43.001Z</time></trkpt><trkpt lat="45.04723130779125" lon="9.580265471130629"><ele>62.5</ele><time>2026-04-09T08:18:45.001Z</time></trkpt><trkpt lat="45.04717406322552" lon="9.580125458059813"><ele>62.25</ele><time>2026-04-09T08:18:47.001Z</time></trkpt><trkpt lat="45.04711966884513" lon="9.579986349532769"><ele>62.0</ele><time>2026-04-09T08:18:49.001Z</time></trkpt><trkpt lat="45.047058084749644" lon="9.579851014258065"><ele>62.0</ele><time>2026-04-09T08:18:51.001Z</time></trkpt><trkpt lat="45.04700335653943" lon="9.579716479910214"><ele>62.0</ele><time>2026-04-09T08:18:53.001Z</time></trkpt><trkpt lat="45.04694532805946" lon="9.579573461853563"><ele>62.0</ele><time>2026-04-09T08:18:55.001Z</time></trkpt><trkpt lat="45.04688670513132" lon="9.579440833718989"><ele>62.0</ele><time>2026-04-09T08:18:57.001Z</time></trkpt><trkpt lat="45.04683080345365" lon="9.579297366066568"><ele>61.75</ele><time>2026-04-09T08:18:59.001Z</time></trkpt><trkpt lat="45.04678140188607" lon="9.579149828616917"><ele>61.5</ele><time>2026-04-09T08:19:01.001Z</time></trkpt><trkpt lat="45.046727839739916" lon="9.579011975172268"><ele>61.25</ele><time>2026-04-09T08:19:03.001Z</time></trkpt><trkpt lat="45.04668042827425" lon="9.578868128036278"><ele>61.0</ele><time>2026-04-09T08:19:05.001Z</time></trkpt><trkpt lat="45.046632714428966" lon="9.578726322903716"><ele>61.25</ele><time>2026-04-09T08:19:07.001Z</time></trkpt><trkpt lat="45.046588126062844" lon="9.578575779134377"><ele>61.5</ele><time>2026-04-09T08:19:09.001Z</time></trkpt><trkpt lat="45.046541116705434" lon="9.578429571810311"><ele>61.75</ele><time>2026-04-09T08:19:11.001Z</time></trkpt><trkpt lat="45.04649477116369" lon="9.578287110414843"><ele>62.0</ele><time>2026-04-09T08:19:13.001Z</time></trkpt><trkpt lat="45.04644568389984" lon="9.578137884103235"><ele>62.0</ele><time>2026-04-09T08:19:15.001Z</time></trkpt><trkpt lat="45.04640091822741" lon="9.577988429427961"><ele>62.0</ele><time>2026-04-09T08:19:17.001Z</time></trkpt><trkpt lat="45.046359466946996" lon="9.577848209319747"><ele>62.0</ele><time>2026-04-09T08:19:19.001Z</time></trkpt><trkpt lat="45.046312581927424" lon="9.577714708652172"><ele>62.0</ele><time>2026-04-09T08:19:21.001Z</time></trkpt><trkpt lat="45.046261127234374" lon="9.577581031263925"><ele>62.0</ele><time>2026-04-09T08:19:23.001Z</time></trkpt><trkpt lat="45.04621580513535" lon="9.57743455957501"><ele>62.0</ele><time>2026-04-09T08:19:25.001Z</time></trkpt><trkpt lat="45.04617087712168" lon="9.577292741854382"><ele>62.0</ele><time>2026-04-09T08:19:27.001Z</time></trkpt><trkpt lat="45.046118878025624" lon="9.577144318759242"><ele>62.0</ele><time>2026-04-09T08:19:29.001Z</time></trkpt><trkpt lat="45.04606847684639" lon="9.577000128156532"><ele>62.0</ele><time>2026-04-09T08:19:31.001Z</time></trkpt><trkpt lat="45.04601670009938" lon="9.576853056782326"><ele>62.0</ele><time>2026-04-09T08:19:33.001Z</time></trkpt><trkpt lat="45.04597079293685" lon="9.576703724995376"><ele>62.0</ele><time>2026-04-09T08:19:35.001Z</time></trkpt><trkpt lat="45.04591978403043" lon="9.576556556873495"><ele>62.0</ele><time>2026-04-09T08:19:37.001Z</time></trkpt><trkpt lat="45.04587117522503" lon="9.57640955509507"><ele>62.0</ele><time>2026-04-09T08:19:39.001Z</time></trkpt><trkpt lat="45.04582342876077" lon="9.576260397775432"><ele>62.25</ele><time>2026-04-09T08:19:41.001Z</time></trkpt><trkpt lat="45.04577477806641" lon="9.576111205463958"><ele>62.5</ele><time>2026-04-09T08:19:43.001Z</time></trkpt><trkpt lat="45.04572014834134" lon="9.575961420738"><ele>62.75</ele><time>2026-04-09T08:19:45.001Z</time></trkpt><trkpt lat="45.04567394593579" lon="9.575814711349716"><ele>63.0</ele><time>2026-04-09T08:19:47.001Z</time></trkpt><trkpt lat="45.04562488656208" lon="9.575669773539332"><ele>63.0</ele><time>2026-04-09T08:19:49.001Z</time></trkpt><trkpt lat="45.04558104683588" lon="9.575524800600146"><ele>63.0</ele><time>2026-04-09T08:19:51.001Z</time></trkpt><trkpt lat="45.04553985142135" lon="9.57537705950542"><ele>63.0</ele><time>2026-04-09T08:19:53.001Z</time></trkpt><trkpt lat="45.04548667435932" lon="9.575233005808961"><ele>63.0</ele><time>2026-04-09T08:19:55.001Z</time></trkpt><trkpt lat="45.04544211399077" lon="9.57508519885458"><ele>63.25</ele><time>2026-04-09T08:19:57.001Z</time></trkpt><trkpt lat="45.04539456822294" lon="9.574933667202432"><ele>63.5</ele><time>2026-04-09T08:19:59.001Z</time></trkpt><trkpt lat="45.04534355611491" lon="9.574784296321058"><ele>63.75</ele><time>2026-04-09T08:20:01.001Z</time></trkpt><trkpt lat="45.045298429786655" lon="9.574642013083006"><ele>64.0</ele><time>2026-04-09T08:20:03.001Z</time></trkpt><trkpt lat="45.04525852023962" lon="9.574494063263511"><ele>64.5</ele><time>2026-04-09T08:20:05.001Z</time></trkpt><trkpt lat="45.0452062467241" lon="9.574337984037115"><ele>65.0</ele><time>2026-04-09T08:20:07.001Z</time></trkpt><trkpt lat="45.04516733371192" lon="9.574191387486774"><ele>65.5</ele><time>2026-04-09T08:20:09.001Z</time></trkpt><trkpt lat="45.045118827475974" lon="9.574052314760364"><ele>66.0</ele><time>2026-04-09T08:20:11.001Z</time></trkpt><trkpt lat="45.04506720895445" lon="9.573903836323858"><ele>66.0</ele><time>2026-04-09T08:20:13.001Z</time></trkpt><trkpt lat="45.04501877107868" lon="9.573756737854573"><ele>66.0</ele><time>2026-04-09T08:20:15.001Z</time></trkpt><trkpt lat="45.04497307860285" lon="9.573614870638202"><ele>66.0</ele><time>2026-04-09T08:20:17.001Z</time></trkpt><trkpt lat="45.04494446485558" lon="9.573535455433356"><ele>66.0</ele><time>2026-04-09T08:20:18.001Z</time></trkpt><trkpt lat="45.0448964642236" lon="9.57338860064234"><ele>66.0</ele><time>2026-04-09T08:20:20.001Z</time></trkpt><trkpt lat="45.04483626243904" lon="9.573245964752108"><ele>65.39999999999999</ele><time>2026-04-09T08:20:22.001Z</time></trkpt><trkpt lat="45.044782171196495" lon="9.573105590729432"><ele>64.8</ele><time>2026-04-09T08:20:24.001Z</time></trkpt><trkpt lat="45.04475816944966" lon="9.573023106034883"><ele>64.19999999999999</ele><time>2026-04-09T08:20:25.001Z</time></trkpt><trkpt lat="45.04472558507455" lon="9.572867951666305"><ele>63.599999999999994</ele><time>2026-04-09T08:20:27.001Z</time></trkpt><trkpt lat="45.04469696047812" lon="9.572702753167563"><ele>63.0</ele><time>2026-04-09T08:20:29Z</time></trkpt><trkpt lat="45.04469734265404" lon="9.57253667698411"><ele>63.0</ele><time>2026-04-09T08:20:31Z</time></trkpt><trkpt lat="45.044719304388124" lon="9.572373041633016"><ele>63.0</ele><time>2026-04-09T08:20:33Z</time></trkpt><trkpt lat="45.0447318435168" lon="9.572285160239"><ele>63.0</ele><time>2026-04-09T08:20:34Z</time></trkpt><trkpt lat="45.04475336834088" lon="9.572113204460017"><ele>63.0</ele><time>2026-04-09T08:20:36Z</time></trkpt><trkpt lat="45.04476707261353" lon="9.571945258617832"><ele>63.0</ele><time>2026-04-09T08:20:38Z</time></trkpt><trkpt lat="45.04477774783368" lon="9.571856728487026"><ele>63.0</ele><time>2026-04-09T08:20:39Z</time></trkpt><trkpt lat="45.04479386276555" lon="9.571685888077429"><ele>63.0</ele><time>2026-04-09T08:20:41Z</time></trkpt><trkpt lat="45.04480746439103" lon="9.571509180919538"><ele>63.0</ele><time>2026-04-09T08:20:43Z</time></trkpt><trkpt lat="45.044807583847884" lon="9.57134044658762"><ele>63.0</ele><time>2026-04-09T08:20:45Z</time></trkpt><trkpt lat="45.04479610777961" lon="9.571251097795274"><ele>63.0</ele><time>2026-04-09T08:20:46Z</time></trkpt><trkpt lat="45.04477309900038" lon="9.57116415639051"><ele>63.25</ele><time>2026-04-09T08:20:47Z</time></trkpt><trkpt lat="45.044691615402066" lon="9.571017042496651"><ele>63.5</ele><time>2026-04-09T08:20:49Z</time></trkpt><trkpt lat="45.0446108240376" lon="9.570875689599632"><ele>63.75</ele><time>2026-04-09T08:20:51Z</time></trkpt><trkpt lat="45.0445747504603" lon="9.570796376320994"><ele>64.0</ele><time>2026-04-09T08:20:52Z</time></trkpt><trkpt lat="45.044494751906115" lon="9.57065241391317"><ele>64.0</ele><time>2026-04-09T08:20:54Z</time></trkpt><trkpt lat="45.04445124332344" lon="9.570575222919837"><ele>63.99999999999999</ele><time>2026-04-09T08:20:55Z</time></trkpt><trkpt lat="45.04441304742985" lon="9.570502622255011"><ele>64.0</ele><time>2026-04-09T08:20:56Z</time></trkpt><trkpt lat="45.044371737169485" lon="9.570425375229897"><ele>64.0</ele><time>2026-04-09T08:20:57Z</time></trkpt><trkpt lat="45.04433315699409" lon="9.570348248448127"><ele>63.99999999999999</ele><time>2026-04-09T08:20:58Z</time></trkpt><trkpt lat="45.04429282937757" lon="9.570270220131661"><ele>64.0</ele><time>2026-04-09T08:20:59Z</time></trkpt><trkpt lat="45.04424994957324" lon="9.570194100076304"><ele>64.0</ele><time>2026-04-09T08:21:00Z</time></trkpt><trkpt lat="45.04420950021361" lon="9.570117342987773"><ele>64.0</ele><time>2026-04-09T08:21:01Z</time></trkpt><trkpt lat="45.04416858908386" lon="9.570038059565086"><ele>63.99999999999999</ele><time>2026-04-09T08:21:02Z</time></trkpt><trkpt lat="45.044131601910415" lon="9.569965861762455"><ele>64.0</ele><time>2026-04-09T08:21:03Z</time></trkpt><trkpt lat="45.04408789834736" lon="9.569885375158634"><ele>64.0</ele><time>2026-04-09T08:21:04Z</time></trkpt><trkpt lat="45.044050023823694" lon="9.569806559698703"><ele>63.99999999999999</ele><time>2026-04-09T08:21:05Z</time></trkpt><trkpt lat="45.04401381657821" lon="9.56972917113952"><ele>64.0</ele><time>2026-04-09T08:21:06Z</time></trkpt><trkpt lat="45.043978295663734" lon="9.569647039668094"><ele>64.0</ele><time>2026-04-09T08:21:07Z</time></trkpt><trkpt lat="45.04393832399458" lon="9.569567561177214"><ele>63.857142857142854</ele><time>2026-04-09T08:21:08Z</time></trkpt><trkpt lat="45.043900627440365" lon="9.569491695593149"><ele>63.71428571428571</ele><time>2026-04-09T08:21:09Z</time></trkpt><trkpt lat="45.043863533737195" lon="9.569411204185625"><ele>63.57142857142857</ele><time>2026-04-09T08:21:10Z</time></trkpt><trkpt lat="45.043832901254504" lon="9.569332051085956"><ele>63.42857142857143</ele><time>2026-04-09T08:21:11Z</time></trkpt><trkpt lat="45.04378926670286" lon="9.569250834342679"><ele>63.285714285714285</ele><time>2026-04-09T08:21:12Z</time></trkpt><trkpt lat="45.04375164764213" lon="9.56917351724018"><ele>63.14285714285714</ele><time>2026-04-09T08:21:13Z</time></trkpt><trkpt lat="45.04371701853899" lon="9.569096095463308"><ele>63.0</ele><time>2026-04-09T08:21:14Z</time></trkpt><trkpt lat="45.04368084601762" lon="9.56901437752555"><ele>63.0</ele><time>2026-04-09T08:21:15Z</time></trkpt><trkpt lat="45.04364371336209" lon="9.56893893818503"><ele>63.0</ele><time>2026-04-09T08:21:16Z</time></trkpt><trkpt lat="45.043603944320004" lon="9.568864666255667"><ele>63.0</ele><time>2026-04-09T08:21:17Z</time></trkpt><trkpt lat="45.04356514674286" lon="9.568788094875623"><ele>63.0</ele><time>2026-04-09T08:21:18Z</time></trkpt><trkpt lat="45.0435323077015" lon="9.568706084185878"><ele>63.0</ele><time>2026-04-09T08:21:19Z</time></trkpt><trkpt lat="45.04349603867814" lon="9.568629356169147"><ele>63.0</ele><time>2026-04-09T08:21:20Z</time></trkpt><trkpt lat="45.043456614167845" lon="9.568552051920644"><ele>63.0</ele><time>2026-04-09T08:21:21Z</time></trkpt><trkpt lat="45.04342019095688" lon="9.568473702659599"><ele>63.14285714285714</ele><time>2026-04-09T08:21:22Z</time></trkpt><trkpt lat="45.04338361146754" lon="9.568392276093512"><ele>63.285714285714285</ele><time>2026-04-09T08:21:23Z</time></trkpt><trkpt lat="45.04334372228671" lon="9.568316398047097"><ele>63.42857142857143</ele><time>2026-04-09T08:21:24Z</time></trkpt><trkpt lat="45.043302665353686" lon="9.568244328090083"><ele>63.57142857142857</ele><time>2026-04-09T08:21:25Z</time></trkpt><trkpt lat="45.04327004526222" lon="9.568163947075695"><ele>63.71428571428571</ele><time>2026-04-09T08:21:26Z</time></trkpt><trkpt lat="45.04323125161037" lon="9.56809063025223"><ele>63.857142857142854</ele><time>2026-04-09T08:21:27Z</time></trkpt><trkpt lat="45.043195651059975" lon="9.568013659220057"><ele>64.0</ele><time>2026-04-09T08:21:28Z</time></trkpt><trkpt lat="45.04315104017875" lon="9.567934700938213"><ele>64.0</ele><time>2026-04-09T08:21:29Z</time></trkpt><trkpt lat="45.04308025074774" lon="9.567788590194336"><ele>64.0</ele><time>2026-04-09T08:21:31Z</time></trkpt><trkpt lat="45.043042138748476" lon="9.56770800824023"><ele>64.0</ele><time>2026-04-09T08:21:32Z</time></trkpt><trkpt lat="45.0429990642506" lon="9.567630846169449"><ele>64.0</ele><time>2026-04-09T08:21:33Z</time></trkpt><trkpt lat="45.04292567887997" lon="9.567484177835716"><ele>64.0</ele><time>2026-04-09T08:21:35Z</time></trkpt><trkpt lat="45.042882089915366" lon="9.56741538881418"><ele>63.99999999999999</ele><time>2026-04-09T08:21:36Z</time></trkpt><trkpt lat="45.042814437825626" lon="9.56726347304423"><ele>64.0</ele><time>2026-04-09T08:21:38Z</time></trkpt><trkpt lat="45.04277593741142" lon="9.567186971665981"><ele>64.0</ele><time>2026-04-09T08:21:39Z</time></trkpt><trkpt lat="45.04273861949296" lon="9.56710812803155"><ele>64.0</ele><time>2026-04-09T08:21:40Z</time></trkpt><trkpt lat="45.04270245181026" lon="9.567030729715992"><ele>63.99999999999999</ele><time>2026-04-09T08:21:41Z</time></trkpt><trkpt lat="45.042665084609204" lon="9.566952133715475"><ele>64.0</ele><time>2026-04-09T08:21:42Z</time></trkpt><trkpt lat="45.04263473851211" lon="9.566869741208324"><ele>64.0</ele><time>2026-04-09T08:21:43Z</time></trkpt><trkpt lat="45.04259930984747" lon="9.566791983896584"><ele>63.99999999999999</ele><time>2026-04-09T08:21:44Z</time></trkpt><trkpt lat="45.04256432357062" lon="9.566710984534629"><ele>64.0</ele><time>2026-04-09T08:21:45Z</time></trkpt><trkpt lat="45.04253303319149" lon="9.566627869620154"><ele>64.0</ele><time>2026-04-09T08:21:46Z</time></trkpt><trkpt lat="45.042502879102344" lon="9.566545905128084"><ele>63.99999999999999</ele><time>2026-04-09T08:21:47Z</time></trkpt><trkpt lat="45.04246851781178" lon="9.566461211563642"><ele>64.0</ele><time>2026-04-09T08:21:48Z</time></trkpt><trkpt lat="45.0424341861035" lon="9.56638139589612"><ele>64.0</ele><time>2026-04-09T08:21:49Z</time></trkpt><trkpt lat="45.042397660805584" lon="9.566301096105335"><ele>63.99999999999999</ele><time>2026-04-09T08:21:50Z</time></trkpt><trkpt lat="45.04236237665695" lon="9.566208950945283"><ele>64.0</ele><time>2026-04-09T08:21:51Z</time></trkpt><trkpt lat="45.04230747067421" lon="9.566048212545853"><ele>64.0</ele><time>2026-04-09T08:21:53Z</time></trkpt><trkpt lat="45.04227107256396" lon="9.565966441983374"><ele>64.0</ele><time>2026-04-09T08:21:54Z</time></trkpt><trkpt lat="45.0422387672907" lon="9.56588897587354"><ele>63.99999999999999</ele><time>2026-04-09T08:21:55Z</time></trkpt><trkpt lat="45.0422067352916" lon="9.565809572668561"><ele>64.0</ele><time>2026-04-09T08:21:56Z</time></trkpt><trkpt lat="45.04217653716269" lon="9.565731375872918"><ele>64.33333333333333</ele><time>2026-04-09T08:21:57Z</time></trkpt><trkpt lat="45.04214325265634" lon="9.565654943075396"><ele>64.66666666666666</ele><time>2026-04-09T08:21:58Z</time></trkpt><trkpt lat="45.04211297732637" lon="9.565572807790286"><ele>65.0</ele><time>2026-04-09T08:21:59Z</time></trkpt><trkpt lat="45.04207782064877" lon="9.565495459207092"><ele>65.33333333333333</ele><time>2026-04-09T08:22:00Z</time></trkpt><trkpt lat="45.04204676739202" lon="9.56541576120804"><ele>65.66666666666667</ele><time>2026-04-09T08:22:01Z</time></trkpt><trkpt lat="45.04198659136132" lon="9.565262155063897"><ele>66.0</ele><time>2026-04-09T08:22:03Z</time></trkpt><trkpt lat="45.04192583579883" lon="9.565126516884026"><ele>66.16666666666667</ele><time>2026-04-09T08:22:05Z</time></trkpt><trkpt lat="45.04186413621411" lon="9.564979744204923"><ele>66.33333333333333</ele><time>2026-04-09T08:22:07Z</time></trkpt><trkpt lat="45.04182107599163" lon="9.564810268721045"><ele>66.5</ele><time>2026-04-09T08:22:09Z</time></trkpt><trkpt lat="45.0418027535307" lon="9.564722036882154"><ele>66.66666666666666</ele><time>2026-04-09T08:22:10Z</time></trkpt><trkpt lat="45.041784005683915" lon="9.564632629380252"><ele>66.83333333333333</ele><time>2026-04-09T08:22:11Z</time></trkpt><trkpt lat="45.04176309628889" lon="9.564538592112328"><ele>67.0</ele><time>2026-04-09T08:22:12Z</time></trkpt><trkpt lat="45.041743165499874" lon="9.564446675013443"><ele>66.71428571428572</ele><time>2026-04-09T08:22:13Z</time></trkpt><trkpt lat="45.041722239918236" lon="9.564360127888962"><ele>66.42857142857143</ele><time>2026-04-09T08:22:14Z</time></trkpt><trkpt lat="45.04170344613666" lon="9.56426787556406"><ele>66.14285714285714</ele><time>2026-04-09T08:22:15Z</time></trkpt><trkpt lat="45.04168640884077" lon="9.564179737427159"><ele>65.85714285714286</ele><time>2026-04-09T08:22:16Z</time></trkpt><trkpt lat="45.04166152035211" lon="9.564086814966458"><ele>65.57142857142857</ele><time>2026-04-09T08:22:17Z</time></trkpt><trkpt lat="45.04164457371061" lon="9.563994025085183"><ele>65.28571428571429</ele><time>2026-04-09T08:22:18Z</time></trkpt><trkpt lat="45.04162538940809" lon="9.563898435826022"><ele>65.0</ele><time>2026-04-09T08:22:19Z</time></trkpt><trkpt lat="45.04160601496292" lon="9.563812140335154"><ele>65.00000000000001</ele><time>2026-04-09T08:22:20Z</time></trkpt><trkpt lat="45.04158510280864" lon="9.563716551903415"><ele>65.0</ele><time>2026-04-09T08:22:21Z</time></trkpt><trkpt lat="45.04156229526587" lon="9.563630928820883"><ele>65.0</ele><time>2026-04-09T08:22:22Z</time></trkpt><trkpt lat="45.04154324288073" lon="9.563541348562461"><ele>65.0</ele><time>2026-04-09T08:22:23Z</time></trkpt><trkpt lat="45.0415240445662" lon="9.563451739144291"><ele>65.0</ele><time>2026-04-09T08:22:24Z</time></trkpt><trkpt lat="45.0415033831987" lon="9.563356936294673"><ele>65.00000000000001</ele><time>2026-04-09T08:22:25Z</time></trkpt><trkpt lat="45.04148202437347" lon="9.563270019540722"><ele>65.0</ele><time>2026-04-09T08:22:26Z</time></trkpt><trkpt lat="45.04146115824091" lon="9.563181153147394"><ele>64.83333333333334</ele><time>2026-04-09T08:22:27Z</time></trkpt><trkpt lat="45.04144503277565" lon="9.563088511534273"><ele>64.66666666666667</ele><time>2026-04-09T08:22:28Z</time></trkpt><trkpt lat="45.0414202223579" lon="9.56299108112166"><ele>64.5</ele><time>2026-04-09T08:22:29Z</time></trkpt><trkpt lat="45.04138989809333" lon="9.56280980955076"><ele>64.33333333333333</ele><time>2026-04-09T08:22:31Z</time></trkpt><trkpt lat="45.04136613545958" lon="9.562720506032385"><ele>64.16666666666666</ele><time>2026-04-09T08:22:32Z</time></trkpt><trkpt lat="45.041344712400715" lon="9.562626485776262"><ele>64.0</ele><time>2026-04-09T08:22:33Z</time></trkpt><trkpt lat="45.041324346942346" lon="9.56253462327437"><ele>64.0</ele><time>2026-04-09T08:22:34Z</time></trkpt><trkpt lat="45.04130521261664" lon="9.562441671708147"><ele>63.99999999999999</ele><time>2026-04-09T08:22:35Z</time></trkpt><trkpt lat="45.041283489019115" lon="9.562348144841643"><ele>64.0</ele><time>2026-04-09T08:22:36Z</time></trkpt><trkpt lat="45.041265775762476" lon="9.562257364055606"><ele>64.0</ele><time>2026-04-09T08:22:37Z</time></trkpt><trkpt lat="45.04124670019629" lon="9.562165738542797"><ele>63.99999999999999</ele><time>2026-04-09T08:22:38Z</time></trkpt><trkpt lat="45.04122730903788" lon="9.562067650958703"><ele>64.0</ele><time>2026-04-09T08:22:39Z</time></trkpt><trkpt lat="45.041205726451" lon="9.561976939688812"><ele>64.0</ele><time>2026-04-09T08:22:40Z</time></trkpt><trkpt lat="45.041186912244974" lon="9.561884925287888"><ele>64.14285714285714</ele><time>2026-04-09T08:22:41Z</time></trkpt><trkpt lat="45.041165418284024" lon="9.561800483402562"><ele>64.28571428571428</ele><time>2026-04-09T08:22:42Z</time></trkpt><trkpt lat="45.04115014787728" lon="9.561712909450986"><ele>64.42857142857143</ele><time>2026-04-09T08:22:43Z</time></trkpt><trkpt lat="45.041134825958565" lon="9.561621471129865"><ele>64.57142857142857</ele><time>2026-04-09T08:22:44Z</time></trkpt><trkpt lat="45.04110737133512" lon="9.56153647066565"><ele>64.71428571428572</ele><time>2026-04-09T08:22:45Z</time></trkpt><trkpt lat="45.04108490262395" lon="9.561452424994652"><ele>64.85714285714286</ele><time>2026-04-09T08:22:46Z</time></trkpt><trkpt lat="45.041063688630196" lon="9.56136798816738"><ele>65.0</ele><time>2026-04-09T08:22:47Z</time></trkpt><trkpt lat="45.04104099547023" lon="9.561278244187326"><ele>65.00000000000001</ele><time>2026-04-09T08:22:48Z</time></trkpt><trkpt lat="45.04101725594036" lon="9.561189450861166"><ele>65.0</ele><time>2026-04-09T08:22:49Z</time></trkpt><trkpt lat="45.04099824586957" lon="9.561102807420536"><ele>65.0</ele><time>2026-04-09T08:22:50Z</time></trkpt><trkpt lat="45.04097296649951" lon="9.561012698122582"><ele>65.0</ele><time>2026-04-09T08:22:51Z</time></trkpt><trkpt lat="45.04094718271489" lon="9.560927060807634"><ele>65.0</ele><time>2026-04-09T08:22:52Z</time></trkpt><trkpt lat="45.04092583448931" lon="9.56083648547935"><ele>65.00000000000001</ele><time>2026-04-09T08:22:53Z</time></trkpt><trkpt lat="45.04090055677596" lon="9.560745240404758"><ele>65.0</ele><time>2026-04-09T08:22:54Z</time></trkpt><trkpt lat="45.04087865524135" lon="9.560660324754286"><ele>65.0</ele><time>2026-04-09T08:22:55Z</time></trkpt><trkpt lat="45.040850096393285" lon="9.560567610909834"><ele>65.0</ele><time>2026-04-09T08:22:56Z</time></trkpt><trkpt lat="45.040826194675354" lon="9.560481384800529"><ele>65.0</ele><time>2026-04-09T08:22:57Z</time></trkpt><trkpt lat="45.0408026507146" lon="9.560389091093759"><ele>65.0</ele><time>2026-04-09T08:22:58Z</time></trkpt><trkpt lat="45.040783927419604" lon="9.560291892589802"><ele>65.0</ele><time>2026-04-09T08:22:59Z</time></trkpt><trkpt lat="45.040734373673246" lon="9.56012318971951"><ele>65.0</ele><time>2026-04-09T08:23:01Z</time></trkpt><trkpt lat="45.040709525805596" lon="9.560034666450681"><ele>65.28571428571429</ele><time>2026-04-09T08:23:02Z</time></trkpt><trkpt lat="45.04068232380735" lon="9.55994044344443"><ele>65.57142857142857</ele><time>2026-04-09T08:23:03Z</time></trkpt><trkpt lat="45.040658306332816" lon="9.559850581113892"><ele>65.85714285714286</ele><time>2026-04-09T08:23:04Z</time></trkpt><trkpt lat="45.04063475488312" lon="9.559757161284095"><ele>66.14285714285714</ele><time>2026-04-09T08:23:05Z</time></trkpt><trkpt lat="45.040611504165376" lon="9.55966691242268"><ele>66.42857142857143</ele><time>2026-04-09T08:23:06Z</time></trkpt><trkpt lat="45.0405895226965" lon="9.559573364413168"><ele>66.71428571428572</ele><time>2026-04-09T08:23:07Z</time></trkpt><trkpt lat="45.04056472907451" lon="9.559483118082394"><ele>67.0</ele><time>2026-04-09T08:23:08Z</time></trkpt><trkpt lat="45.040544656441476" lon="9.559392958457996"><ele>67.14285714285714</ele><time>2026-04-09T08:23:09Z</time></trkpt><trkpt lat="45.04052855585993" lon="9.559301804863944"><ele>67.28571428571428</ele><time>2026-04-09T08:23:10Z</time></trkpt><trkpt lat="45.04052356862522" lon="9.559205009634374"><ele>67.42857142857142</ele><time>2026-04-09T08:23:11Z</time></trkpt><trkpt lat="45.040530564777136" lon="9.55910519804044"><ele>67.57142857142857</ele><time>2026-04-09T08:23:12Z</time></trkpt><trkpt lat="45.0405458329581" lon="9.559012101552922"><ele>67.71428571428571</ele><time>2026-04-09T08:23:13Z</time></trkpt><trkpt lat="45.04055841620135" lon="9.558915962918118"><ele>67.85714285714285</ele><time>2026-04-09T08:23:14Z</time></trkpt><trkpt lat="45.040568095644915" lon="9.55881260898038"><ele>68.0</ele><time>2026-04-09T08:23:15Z</time></trkpt><trkpt lat="45.04058247571095" lon="9.558714696136233"><ele>67.57142857142857</ele><time>2026-04-09T08:23:16Z</time></trkpt><trkpt lat="45.040597274201346" lon="9.558610769045064"><ele>67.14285714285714</ele><time>2026-04-09T08:23:17Z</time></trkpt><trkpt lat="45.04060199848914" lon="9.558507446489076"><ele>66.71428571428572</ele><time>2026-04-09T08:23:18Z</time></trkpt><trkpt lat="45.04061290380221" lon="9.55840427900377"><ele>66.28571428571428</ele><time>2026-04-09T08:23:19Z</time></trkpt><trkpt lat="45.04062221983197" lon="9.558302651541975"><ele>65.85714285714286</ele><time>2026-04-09T08:23:20Z</time></trkpt><trkpt lat="45.04064597840115" lon="9.55820342736134"><ele>65.42857142857143</ele><time>2026-04-09T08:23:21Z</time></trkpt><trkpt lat="45.04067141828882" lon="9.55810464660933"><ele>65.0</ele><time>2026-04-09T08:23:22Z</time></trkpt><trkpt lat="45.04069141040617" lon="9.558006042806866"><ele>65.00000000000001</ele><time>2026-04-09T08:23:23Z</time></trkpt><trkpt lat="45.04070542370303" lon="9.557900151895149"><ele>65.0</ele><time>2026-04-09T08:23:24Z</time></trkpt><trkpt lat="45.040714860363316" lon="9.557795274697389"><ele>65.0</ele><time>2026-04-09T08:23:25Z</time></trkpt><trkpt lat="45.040724632307935" lon="9.557688347402957"><ele>65.0</ele><time>2026-04-09T08:23:26Z</time></trkpt><trkpt lat="45.04074073607499" lon="9.557591503640305"><ele>65.0</ele><time>2026-04-09T08:23:27Z</time></trkpt><trkpt lat="45.04075575058104" lon="9.557487262611309"><ele>65.00000000000001</ele><time>2026-04-09T08:23:28Z</time></trkpt><trkpt lat="45.040771306516554" lon="9.55738308108203"><ele>65.0</ele><time>2026-04-09T08:23:29Z</time></trkpt><trkpt lat="45.0407828455952" lon="9.557276026604411"><ele>65.0</ele><time>2026-04-09T08:23:30Z</time></trkpt><trkpt lat="45.04079547430066" lon="9.557169942811957"><ele>65.0</ele><time>2026-04-09T08:23:31Z</time></trkpt><trkpt lat="45.04080998026296" lon="9.557065772903231"><ele>65.0</ele><time>2026-04-09T08:23:32Z</time></trkpt><trkpt lat="45.0408284392692" lon="9.556956715603517"><ele>65.0</ele><time>2026-04-09T08:23:33Z</time></trkpt><trkpt lat="45.04083947726189" lon="9.556851477331794"><ele>65.0</ele><time>2026-04-09T08:23:34Z</time></trkpt><trkpt lat="45.040855080409635" lon="9.55674685134574"><ele>65.0</ele><time>2026-04-09T08:23:35Z</time></trkpt><trkpt lat="45.040870573706016" lon="9.55664314153284"><ele>65.0</ele><time>2026-04-09T08:23:36Z</time></trkpt><trkpt lat="45.04088414666923" lon="9.55653438045092"><ele>65.0</ele><time>2026-04-09T08:23:37Z</time></trkpt><trkpt lat="45.04089261123291" lon="9.55643137945136"><ele>65.0</ele><time>2026-04-09T08:23:38Z</time></trkpt><trkpt lat="45.04090192308524" lon="9.556326969115709"><ele>65.0</ele><time>2026-04-09T08:23:39Z</time></trkpt><trkpt lat="45.04091355264837" lon="9.556224636313692"><ele>65.0</ele><time>2026-04-09T08:23:40Z</time></trkpt><trkpt lat="45.04092141989588" lon="9.556119910348258"><ele>65.0</ele><time>2026-04-09T08:23:41Z</time></trkpt><trkpt lat="45.04092706762499" lon="9.556012333067374"><ele>65.5</ele><time>2026-04-09T08:23:42Z</time></trkpt><trkpt lat="45.04093204295448" lon="9.555907670402243"><ele>66.0</ele><time>2026-04-09T08:23:43Z</time></trkpt><trkpt lat="45.0409430393797" lon="9.55579448160374"><ele>66.5</ele><time>2026-04-09T08:23:44Z</time></trkpt><trkpt lat="45.04095080463196" lon="9.555689118851875"><ele>67.0</ele><time>2026-04-09T08:23:45Z</time></trkpt><trkpt lat="45.040958833591084" lon="9.55557798934666"><ele>67.5</ele><time>2026-04-09T08:23:46Z</time></trkpt><trkpt lat="45.04096899647873" lon="9.55546742948801"><ele>68.0</ele><time>2026-04-09T08:23:47Z</time></trkpt><trkpt lat="45.040976144373936" lon="9.555362264064609"><ele>68.16666666666667</ele><time>2026-04-09T08:23:48Z</time></trkpt><trkpt lat="45.040983928405154" lon="9.555247568723075"><ele>68.33333333333334</ele><time>2026-04-09T08:23:49Z</time></trkpt><trkpt lat="45.04098582047691" lon="9.555145036701559"><ele>68.5</ele><time>2026-04-09T08:23:50Z</time></trkpt><trkpt lat="45.040993651052695" lon="9.555035638034935"><ele>68.66666666666667</ele><time>2026-04-09T08:23:51Z</time></trkpt><trkpt lat="45.04099740289954" lon="9.554923551468429"><ele>68.83333333333333</ele><time>2026-04-09T08:23:52Z</time></trkpt><trkpt lat="45.041003899945075" lon="9.554813453628572"><ele>69.0</ele><time>2026-04-09T08:23:53Z</time></trkpt><trkpt lat="45.04100760783834" lon="9.55470043225717"><ele>69.0</ele><time>2026-04-09T08:23:54Z</time></trkpt><trkpt lat="45.04100540704015" lon="9.554591143298993"><ele>69.0</ele><time>2026-04-09T08:23:55Z</time></trkpt><trkpt lat="45.04099091534904" lon="9.554479090484762"><ele>69.0</ele><time>2026-04-09T08:23:56Z</time></trkpt><trkpt lat="45.04097974531825" lon="9.55437221035984"><ele>69.0</ele><time>2026-04-09T08:23:57Z</time></trkpt><trkpt lat="45.04096218930489" lon="9.554263445377844"><ele>69.0</ele><time>2026-04-09T08:23:58Z</time></trkpt><trkpt lat="45.04094696679084" lon="9.554153606445594"><ele>69.0</ele><time>2026-04-09T08:23:59Z</time></trkpt><trkpt lat="45.04093494753885" lon="9.554045160104035"><ele>69.0</ele><time>2026-04-09T08:24:00Z</time></trkpt><trkpt lat="45.04090962876607" lon="9.55392866844366"><ele>69.0</ele><time>2026-04-09T08:24:01Z</time></trkpt><trkpt lat="45.04088625839214" lon="9.553822353945478"><ele>69.0</ele><time>2026-04-09T08:24:02Z</time></trkpt><trkpt lat="45.04086707619236" lon="9.553721897700683"><ele>69.0</ele><time>2026-04-09T08:24:03Z</time></trkpt><trkpt lat="45.0408418331451" lon="9.553617853873098"><ele>69.0</ele><time>2026-04-09T08:24:04Z</time></trkpt><trkpt lat="45.040815160307176" lon="9.553510908555072"><ele>69.0</ele><time>2026-04-09T08:24:05Z</time></trkpt><trkpt lat="45.04078797623978" lon="9.553410145077772"><ele>69.0</ele><time>2026-04-09T08:24:06Z</time></trkpt><trkpt lat="45.040763582204605" lon="9.553310626118874"><ele>69.0</ele><time>2026-04-09T08:24:07Z</time></trkpt><trkpt lat="45.04073897693205" lon="9.553218224863828"><ele>69.0</ele><time>2026-04-09T08:24:08Z</time></trkpt><trkpt lat="45.040721865200474" lon="9.553122872821582"><ele>69.0</ele><time>2026-04-09T08:24:09Z</time></trkpt><trkpt lat="45.04069361882411" lon="9.553023652980519"><ele>69.0</ele><time>2026-04-09T08:24:10Z</time></trkpt><trkpt lat="45.04067148936428" lon="9.552934330914404"><ele>69.0</ele><time>2026-04-09T08:24:11Z</time></trkpt><trkpt lat="45.040637132045575" lon="9.55278260852708"><ele>69.2</ele><time>2026-04-09T08:24:13Z</time></trkpt><trkpt lat="45.04061766488022" lon="9.552678727308004"><ele>69.4</ele><time>2026-04-09T08:24:14Z</time></trkpt><trkpt lat="45.04061497978439" lon="9.55257791175868"><ele>69.6</ele><time>2026-04-09T08:24:15Z</time></trkpt><trkpt lat="45.04058502890193" lon="9.552413889652158"><ele>69.8</ele><time>2026-04-09T08:24:17Z</time></trkpt><trkpt lat="45.040546064920534" lon="9.552266136137455"><ele>70.0</ele><time>2026-04-09T08:24:19Z</time></trkpt><trkpt lat="45.040519439582894" lon="9.55210920961098"><ele>69.8</ele><time>2026-04-09T08:24:21Z</time></trkpt><trkpt lat="45.04051647026809" lon="9.551939263516587"><ele>69.6</ele><time>2026-04-09T08:24:23Z</time></trkpt><trkpt lat="45.04050488346007" lon="9.551848577399285"><ele>69.4</ele><time>2026-04-09T08:24:24Z</time></trkpt><trkpt lat="45.04047323484503" lon="9.551693881072781"><ele>69.2</ele><time>2026-04-09T08:24:26Z</time></trkpt><trkpt lat="45.040445655369524" lon="9.551557493295842"><ele>69.0</ele><time>2026-04-09T08:24:28Z</time></trkpt><trkpt lat="45.040419335347714" lon="9.551416065265817"><ele>69.0</ele><time>2026-04-09T08:24:30Z</time></trkpt><trkpt lat="45.040402448010994" lon="9.551325183944677"><ele>69.0</ele><time>2026-04-09T08:24:31Z</time></trkpt><trkpt lat="45.04038196320539" lon="9.551176681259323"><ele>69.0</ele><time>2026-04-09T08:24:33Z</time></trkpt><trkpt lat="45.0403483395184" lon="9.55101715937864"><ele>69.0</ele><time>2026-04-09T08:24:35Z</time></trkpt><trkpt lat="45.04032361559975" lon="9.550863888218705"><ele>69.0</ele><time>2026-04-09T08:24:37Z</time></trkpt><trkpt lat="45.04030733477111" lon="9.550772904343376"><ele>69.14285714285714</ele><time>2026-04-09T08:24:38Z</time></trkpt><trkpt lat="45.040287810146026" lon="9.550687951054268"><ele>69.28571428571429</ele><time>2026-04-09T08:24:39Z</time></trkpt><trkpt lat="45.040264910874626" lon="9.550520648757868"><ele>69.42857142857143</ele><time>2026-04-09T08:24:41Z</time></trkpt><trkpt lat="45.040251844054175" lon="9.550427224859556"><ele>69.57142857142857</ele><time>2026-04-09T08:24:42Z</time></trkpt><trkpt lat="45.04024127127944" lon="9.550331272835598"><ele>69.71428571428572</ele><time>2026-04-09T08:24:43Z</time></trkpt><trkpt lat="45.040230231962916" lon="9.550240446559684"><ele>69.85714285714286</ele><time>2026-04-09T08:24:44Z</time></trkpt><trkpt lat="45.040201822743306" lon="9.55015931453327"><ele>70.0</ele><time>2026-04-09T08:24:45Z</time></trkpt><trkpt lat="45.04018868030472" lon="9.550062405520505"><ele>70.0</ele><time>2026-04-09T08:24:46Z</time></trkpt><trkpt lat="45.04017815674095" lon="9.549964789209234"><ele>70.0</ele><time>2026-04-09T08:24:47Z</time></trkpt><trkpt lat="45.040163349616364" lon="9.5498715468022"><ele>70.0</ele><time>2026-04-09T08:24:48Z</time></trkpt><trkpt lat="45.04013434452788" lon="9.549715966556995"><ele>70.0</ele><time>2026-04-09T08:24:50Z</time></trkpt><trkpt lat="45.04009916296711" lon="9.5495638748449"><ele>70.0</ele><time>2026-04-09T08:24:52Z</time></trkpt><trkpt lat="45.04005275592702" lon="9.549417614455345"><ele>70.0</ele><time>2026-04-09T08:24:54Z</time></trkpt><trkpt lat="45.039990838179705" lon="9.54927338262607"><ele>70.0</ele><time>2026-04-09T08:24:56Z</time></trkpt><trkpt lat="45.03996022447797" lon="9.549191358886539"><ele>70.0</ele><time>2026-04-09T08:24:57Z</time></trkpt><trkpt lat="45.03992631269547" lon="9.549112344205568"><ele>70.0</ele><time>2026-04-09T08:24:58Z</time></trkpt><trkpt lat="45.039863458905685" lon="9.548983915204893"><ele>70.0</ele><time>2026-04-09T08:25:00Z</time></trkpt><trkpt lat="45.039819962595985" lon="9.548899786301124"><ele>70.0</ele><time>2026-04-09T08:25:01Z</time></trkpt><trkpt lat="45.039752452352694" lon="9.548757113832366"><ele>69.4</ele><time>2026-04-09T08:25:03Z</time></trkpt><trkpt lat="45.039679557124394" lon="9.548619434724852"><ele>68.8</ele><time>2026-04-09T08:25:05Z</time></trkpt><trkpt lat="45.039641761920784" lon="9.548548043485143"><ele>68.2</ele><time>2026-04-09T08:25:06Z</time></trkpt><trkpt lat="45.03957120686996" lon="9.548415898578645"><ele>67.6</ele><time>2026-04-09T08:25:08Z</time></trkpt><trkpt lat="45.039490438185716" lon="9.548288314365502"><ele>67.0</ele><time>2026-04-09T08:25:10Z</time></trkpt><trkpt lat="45.039384038565444" lon="9.548215175978507"><ele>67.0</ele><time>2026-04-09T08:25:12Z</time></trkpt><trkpt lat="45.03926270826145" lon="9.548204992148047"><ele>67.0</ele><time>2026-04-09T08:25:14Z</time></trkpt><trkpt lat="45.039199543033604" lon="9.54820739480335"><ele>67.0</ele><time>2026-04-09T08:25:15Z</time></trkpt><trkpt lat="45.039078758661525" lon="9.548208578671142"><ele>67.0</ele><time>2026-04-09T08:25:17Z</time></trkpt><trkpt lat="45.03896004730832" lon="9.548212646108341"><ele>67.0</ele><time>2026-04-09T08:25:19Z</time></trkpt><trkpt lat="45.038848355856906" lon="9.54821385538889"><ele>67.5</ele><time>2026-04-09T08:25:21Z</time></trkpt><trkpt lat="45.038735268006" lon="9.54821010443158"><ele>68.0</ele><time>2026-04-09T08:25:23Z</time></trkpt><trkpt lat="45.03862069129613" lon="9.548211325655553"><ele>68.5</ele><time>2026-04-09T08:25:25Z</time></trkpt><trkpt lat="45.03850900366891" lon="9.548212996590875"><ele>69.0</ele><time>2026-04-09T08:25:27Z</time></trkpt><trkpt lat="45.038397613154025" lon="9.548209017019044"><ele>69.4</ele><time>2026-04-09T08:25:29Z</time></trkpt><trkpt lat="45.038281048580146" lon="9.548210122513773"><ele>69.80000000000001</ele><time>2026-04-09T08:25:31Z</time></trkpt><trkpt lat="45.03816926503917" lon="9.548207271895263"><ele>70.19999999999999</ele><time>2026-04-09T08:25:33Z</time></trkpt><trkpt lat="45.03805718147517" lon="9.548201705375678"><ele>70.6</ele><time>2026-04-09T08:25:35Z</time></trkpt><trkpt lat="45.03794935930863" lon="9.548203410020639"><ele>71.0</ele><time>2026-04-09T08:25:37Z</time></trkpt><trkpt lat="45.03784335838374" lon="9.548200656580924"><ele>71.0</ele><time>2026-04-09T08:25:39Z</time></trkpt><trkpt lat="45.03773593722642" lon="9.54819778988417"><ele>71.0</ele><time>2026-04-09T08:25:41Z</time></trkpt><trkpt lat="45.03763174553575" lon="9.548194426019396"><ele>71.0</ele><time>2026-04-09T08:25:43Z</time></trkpt><trkpt lat="45.03752777005442" lon="9.5481978596418"><ele>71.0</ele><time>2026-04-09T08:25:45Z</time></trkpt><trkpt lat="45.03741892093746" lon="9.548191032287708"><ele>71.0</ele><time>2026-04-09T08:25:47Z</time></trkpt><trkpt lat="45.037312594677005" lon="9.548199449621192"><ele>70.8</ele><time>2026-04-09T08:25:49Z</time></trkpt><trkpt lat="45.037207255338274" lon="9.548195346233669"><ele>70.6</ele><time>2026-04-09T08:25:51Z</time></trkpt><trkpt lat="45.03709450749663" lon="9.54819786752785"><ele>70.4</ele><time>2026-04-09T08:25:53Z</time></trkpt><trkpt lat="45.03698709477585" lon="9.548196421082611"><ele>70.2</ele><time>2026-04-09T08:25:55Z</time></trkpt><trkpt lat="45.036870330748606" lon="9.548198687755194"><ele>70.0</ele><time>2026-04-09T08:25:57Z</time></trkpt><trkpt lat="45.036758501339435" lon="9.548199559271598"><ele>70.0</ele><time>2026-04-09T08:25:59Z</time></trkpt><trkpt lat="45.03664547647145" lon="9.548197297419485"><ele>70.0</ele><time>2026-04-09T08:26:01Z</time></trkpt><trkpt lat="45.03653547334556" lon="9.548196860599068"><ele>70.0</ele><time>2026-04-09T08:26:03Z</time></trkpt><trkpt lat="45.036427803465116" lon="9.548198772339928"><ele>70.0</ele><time>2026-04-09T08:26:05Z</time></trkpt><trkpt lat="45.036314318457805" lon="9.54819613162234"><ele>70.0</ele><time>2026-04-09T08:26:07Z</time></trkpt><trkpt lat="45.0362042263528" lon="9.548195415305544"><ele>70.0</ele><time>2026-04-09T08:26:09Z</time></trkpt><trkpt lat="45.036096279700345" lon="9.548195134556877"><ele>70.0</ele><time>2026-04-09T08:26:11Z</time></trkpt><trkpt lat="45.035985871367515" lon="9.548193660745573"><ele>70.0</ele><time>2026-04-09T08:26:13Z</time></trkpt><trkpt lat="45.03587419155723" lon="9.548190100772745"><ele>70.0</ele><time>2026-04-09T08:26:15Z</time></trkpt><trkpt lat="45.03576253869055" lon="9.548190138700608"><ele>70.0</ele><time>2026-04-09T08:26:17Z</time></trkpt><trkpt lat="45.03565062153657" lon="9.54818629442122"><ele>70.25</ele><time>2026-04-09T08:26:19Z</time></trkpt><trkpt lat="45.03553518145157" lon="9.548183218552111"><ele>70.5</ele><time>2026-04-09T08:26:21Z</time></trkpt><trkpt lat="45.03541890661267" lon="9.548178394997496"><ele>70.75</ele><time>2026-04-09T08:26:23Z</time></trkpt><trkpt lat="45.03530656676031" lon="9.548177164514904"><ele>71.0</ele><time>2026-04-09T08:26:25Z</time></trkpt><trkpt lat="45.03519224306566" lon="9.548177265092214"><ele>71.0</ele><time>2026-04-09T08:26:27Z</time></trkpt><trkpt lat="45.035077669021" lon="9.548173772297122"><ele>71.0</ele><time>2026-04-09T08:26:29Z</time></trkpt><trkpt lat="45.03496527525094" lon="9.548169001399291"><ele>71.0</ele><time>2026-04-09T08:26:31Z</time></trkpt><trkpt lat="45.03485878484041" lon="9.548169251553178"><ele>71.0</ele><time>2026-04-09T08:26:33Z</time></trkpt><trkpt lat="45.03474413830594" lon="9.548170001559486"><ele>71.0</ele><time>2026-04-09T08:26:35Z</time></trkpt><trkpt lat="45.034633190939104" lon="9.548169394897545"><ele>70.8</ele><time>2026-04-09T08:26:37Z</time></trkpt><trkpt lat="45.03452076644931" lon="9.548170922677283"><ele>70.6</ele><time>2026-04-09T08:26:39Z</time></trkpt><trkpt lat="45.034413238883324" lon="9.548166687588"><ele>70.4</ele><time>2026-04-09T08:26:41Z</time></trkpt><trkpt lat="45.034311173903156" lon="9.54816833803988"><ele>70.2</ele><time>2026-04-09T08:26:43Z</time></trkpt><trkpt lat="45.03420693710525" lon="9.548166085517504"><ele>70.0</ele><time>2026-04-09T08:26:45Z</time></trkpt><trkpt lat="45.034102243789015" lon="9.548166758005777"><ele>70.0</ele><time>2026-04-09T08:26:47Z</time></trkpt><trkpt lat="45.033996516815705" lon="9.54816922181347"><ele>70.0</ele><time>2026-04-09T08:26:49Z</time></trkpt><trkpt lat="45.033893084316155" lon="9.54817930731166"><ele>70.0</ele><time>2026-04-09T08:26:51Z</time></trkpt><trkpt lat="45.03378239283279" lon="9.548195303219297"><ele>70.0</ele><time>2026-04-09T08:26:53Z</time></trkpt><trkpt lat="45.03367205141228" lon="9.548214382888812"><ele>70.0</ele><time>2026-04-09T08:26:55Z</time></trkpt><trkpt lat="45.033563123472064" lon="9.548242189049713"><ele>70.0</ele><time>2026-04-09T08:26:57Z</time></trkpt><trkpt lat="45.03345787581476" lon="9.548269382639976"><ele>70.0</ele><time>2026-04-09T08:26:59Z</time></trkpt><trkpt lat="45.03334592385949" lon="9.54829324747599"><ele>70.0</ele><time>2026-04-09T08:27:01Z</time></trkpt><trkpt lat="45.03324422942865" lon="9.548318525887336"><ele>70.0</ele><time>2026-04-09T08:27:03Z</time></trkpt><trkpt lat="45.03314005560788" lon="9.548341614384839"><ele>70.0</ele><time>2026-04-09T08:27:05Z</time></trkpt><trkpt lat="45.03303629531247" lon="9.548368570702243"><ele>70.0</ele><time>2026-04-09T08:27:07Z</time></trkpt><trkpt lat="45.0329326095877" lon="9.548393562902865"><ele>70.0</ele><time>2026-04-09T08:27:09Z</time></trkpt><trkpt lat="45.032832381105095" lon="9.548427201776141"><ele>70.0</ele><time>2026-04-09T08:27:11Z</time></trkpt><trkpt lat="45.0327276978045" lon="9.548451413380759"><ele>70.0</ele><time>2026-04-09T08:27:13Z</time></trkpt><trkpt lat="45.0326155202099" lon="9.548480027412387"><ele>70.0</ele><time>2026-04-09T08:27:15Z</time></trkpt><trkpt lat="45.03250876885369" lon="9.548503254241988"><ele>70.2</ele><time>2026-04-09T08:27:17Z</time></trkpt><trkpt lat="45.032398038765606" lon="9.54852844817024"><ele>70.4</ele><time>2026-04-09T08:27:19Z</time></trkpt><trkpt lat="45.032293063268185" lon="9.548558837580433"><ele>70.6</ele><time>2026-04-09T08:27:21Z</time></trkpt><trkpt lat="45.03218718746929" lon="9.54858360246524"><ele>70.8</ele><time>2026-04-09T08:27:23Z</time></trkpt><trkpt lat="45.03208322874157" lon="9.548606200051672"><ele>71.0</ele><time>2026-04-09T08:27:25Z</time></trkpt><trkpt lat="45.031980631508226" lon="9.5486340091583"><ele>71.0</ele><time>2026-04-09T08:27:27Z</time></trkpt><trkpt lat="45.03188145273359" lon="9.548655003884448"><ele>71.0</ele><time>2026-04-09T08:27:29Z</time></trkpt><trkpt lat="45.03177710182333" lon="9.548679465256045"><ele>71.0</ele><time>2026-04-09T08:27:31Z</time></trkpt><trkpt lat="45.03167274112832" lon="9.548706863768135"><ele>71.0</ele><time>2026-04-09T08:27:33Z</time></trkpt><trkpt lat="45.03156817035321" lon="9.548734442869664"><ele>71.0</ele><time>2026-04-09T08:27:35Z</time></trkpt><trkpt lat="45.031464590297695" lon="9.54875715056599"><ele>71.0</ele><time>2026-04-09T08:27:37Z</time></trkpt><trkpt lat="45.03135793042189" lon="9.548785211689475"><ele>71.0</ele><time>2026-04-09T08:27:39Z</time></trkpt><trkpt lat="45.03124974413603" lon="9.548808464340574"><ele>71.0</ele><time>2026-04-09T08:27:41Z</time></trkpt><trkpt lat="45.031141284842796" lon="9.548835646352561"><ele>71.0</ele><time>2026-04-09T08:27:43Z</time></trkpt><trkpt lat="45.03104061150295" lon="9.548864249308838"><ele>71.0</ele><time>2026-04-09T08:27:45Z</time></trkpt><trkpt lat="45.03093006444307" lon="9.548880698810207"><ele>71.0</ele><time>2026-04-09T08:27:47Z</time></trkpt><trkpt lat="45.03082186404175" lon="9.548912152056557"><ele>71.0</ele><time>2026-04-09T08:27:49Z</time></trkpt><trkpt lat="45.03071358225469" lon="9.54893500346798"><ele>71.0</ele><time>2026-04-09T08:27:51Z</time></trkpt><trkpt lat="45.03061035879191" lon="9.548958182346688"><ele>71.0</ele><time>2026-04-09T08:27:53Z</time></trkpt><trkpt lat="45.03050731776219" lon="9.548984095959568"><ele>71.0</ele><time>2026-04-09T08:27:55Z</time></trkpt><trkpt lat="45.030398658636116" lon="9.549011353612984"><ele>71.0</ele><time>2026-04-09T08:27:57Z</time></trkpt><trkpt lat="45.030291498353286" lon="9.54903850311752"><ele>71.0</ele><time>2026-04-09T08:27:59Z</time></trkpt><trkpt lat="45.0301821352985" lon="9.549063808693068"><ele>71.0</ele><time>2026-04-09T08:28:01Z</time></trkpt><trkpt lat="45.03007325961795" lon="9.5490888962354"><ele>71.0</ele><time>2026-04-09T08:28:03Z</time></trkpt><trkpt lat="45.02996808756574" lon="9.549116498518217"><ele>71.0</ele><time>2026-04-09T08:28:05Z</time></trkpt><trkpt lat="45.02985756652037" lon="9.549146645584049"><ele>71.2</ele><time>2026-04-09T08:28:07Z</time></trkpt><trkpt lat="45.029748328029044" lon="9.549176149581507"><ele>71.39999999999999</ele><time>2026-04-09T08:28:09Z</time></trkpt><trkpt lat="45.02963930469871" lon="9.549196472645747"><ele>71.6</ele><time>2026-04-09T08:28:11Z</time></trkpt><trkpt lat="45.029534847011696" lon="9.549226769508575"><ele>71.8</ele><time>2026-04-09T08:28:13Z</time></trkpt><trkpt lat="45.0294279248312" lon="9.549249133287542"><ele>72.0</ele><time>2026-04-09T08:28:15Z</time></trkpt><trkpt lat="45.029321670801934" lon="9.549281942321064"><ele>72.0</ele><time>2026-04-09T08:28:17Z</time></trkpt><trkpt lat="45.029211132947275" lon="9.549304137738307"><ele>72.0</ele><time>2026-04-09T08:28:19Z</time></trkpt><trkpt lat="45.02910480628467" lon="9.549333918491879"><ele>72.0</ele><time>2026-04-09T08:28:21Z</time></trkpt><trkpt lat="45.028994224918065" lon="9.549356611370973"><ele>72.0</ele><time>2026-04-09T08:28:23Z</time></trkpt><trkpt lat="45.0288916366741" lon="9.549378887505505"><ele>72.0</ele><time>2026-04-09T08:28:25Z</time></trkpt><trkpt lat="45.02878744265161" lon="9.54940845527057"><ele>72.0</ele><time>2026-04-09T08:28:27Z</time></trkpt><trkpt lat="45.028679575270026" lon="9.549432214319891"><ele>72.0</ele><time>2026-04-09T08:28:29Z</time></trkpt><trkpt lat="45.02857509905196" lon="9.549454823573306"><ele>72.0</ele><time>2026-04-09T08:28:31Z</time></trkpt><trkpt lat="45.02846522765424" lon="9.549486279771203"><ele>72.0</ele><time>2026-04-09T08:28:33Z</time></trkpt><trkpt lat="45.02835962896776" lon="9.54951029927133"><ele>72.0</ele><time>2026-04-09T08:28:35Z</time></trkpt><trkpt lat="45.02825136901737" lon="9.549536569591941"><ele>72.0</ele><time>2026-04-09T08:28:37Z</time></trkpt><trkpt lat="45.02814790524823" lon="9.54956613822547"><ele>72.0</ele><time>2026-04-09T08:28:39Z</time></trkpt><trkpt lat="45.02803452486813" lon="9.549590831640964"><ele>72.0</ele><time>2026-04-09T08:28:41Z</time></trkpt><trkpt lat="45.02792961402512" lon="9.549619065795175"><ele>72.0</ele><time>2026-04-09T08:28:43Z</time></trkpt><trkpt lat="45.02781718056918" lon="9.549642618437112"><ele>72.0</ele><time>2026-04-09T08:28:45Z</time></trkpt><trkpt lat="45.02770701865574" lon="9.549667832223761"><ele>72.0</ele><time>2026-04-09T08:28:47Z</time></trkpt><trkpt lat="45.02760107383941" lon="9.549696438615086"><ele>72.0</ele><time>2026-04-09T08:28:49Z</time></trkpt><trkpt lat="45.02748835091275" lon="9.549721736851552"><ele>72.0</ele><time>2026-04-09T08:28:51Z</time></trkpt><trkpt lat="45.02738296219626" lon="9.54974851727438"><ele>72.0</ele><time>2026-04-09T08:28:53Z</time></trkpt><trkpt lat="45.02728059641448" lon="9.549774764607486"><ele>72.0</ele><time>2026-04-09T08:28:55Z</time></trkpt><trkpt lat="45.027170186143366" lon="9.54980164581636"><ele>72.6</ele><time>2026-04-09T08:28:57Z</time></trkpt><trkpt lat="45.02706415603788" lon="9.54982299627201"><ele>73.2</ele><time>2026-04-09T08:28:59Z</time></trkpt><trkpt lat="45.026957256656" lon="9.549847315050842"><ele>73.8</ele><time>2026-04-09T08:29:01Z</time></trkpt><trkpt lat="45.026853272620855" lon="9.549875456400715"><ele>74.4</ele><time>2026-04-09T08:29:03Z</time></trkpt><trkpt lat="45.026748004328496" lon="9.54990451758874"><ele>75.0</ele><time>2026-04-09T08:29:05Z</time></trkpt><trkpt lat="45.02664029491386" lon="9.54993256662494"><ele>75.0</ele><time>2026-04-09T08:29:07Z</time></trkpt><trkpt lat="45.02652895356965" lon="9.549959133390475"><ele>75.0</ele><time>2026-04-09T08:29:09Z</time></trkpt><trkpt lat="45.02642088295521" lon="9.549989157993771"><ele>75.0</ele><time>2026-04-09T08:29:11Z</time></trkpt><trkpt lat="45.026318110857886" lon="9.550037203582509"><ele>75.0</ele><time>2026-04-09T08:29:13Z</time></trkpt><trkpt lat="45.02619362413158" lon="9.550067772311367"><ele>75.0</ele><time>2026-04-09T08:29:15Z</time></trkpt><trkpt lat="45.026087404701606" lon="9.550093033432931"><ele>75.0</ele><time>2026-04-09T08:29:17Z</time></trkpt><trkpt lat="45.02597998118663" lon="9.550114589873356"><ele>75.0</ele><time>2026-04-09T08:29:19Z</time></trkpt><trkpt lat="45.02586922889357" lon="9.550048654646654"><ele>75.0</ele><time>2026-04-09T08:29:21Z</time></trkpt><trkpt lat="45.02581972347594" lon="9.549987243230056"><ele>75.0</ele><time>2026-04-09T08:29:22Z</time></trkpt><trkpt lat="45.025741968787976" lon="9.54986622706"><ele>75.0</ele><time>2026-04-09T08:29:24Z</time></trkpt><trkpt lat="45.02569961772715" lon="9.549799515931007"><ele>75.0</ele><time>2026-04-09T08:29:25Z</time></trkpt><trkpt lat="45.025643257837366" lon="9.549655303748162"><ele>75.0</ele><time>2026-04-09T08:29:27Z</time></trkpt><trkpt lat="45.025605396477644" lon="9.549514191228432"><ele>75.0</ele><time>2026-04-09T08:29:29Z</time></trkpt><trkpt lat="45.025581372521" lon="9.54936660947691"><ele>75.0</ele><time>2026-04-09T08:29:31Z</time></trkpt><trkpt lat="45.02553878059157" lon="9.549213514315916"><ele>75.0</ele><time>2026-04-09T08:29:33Z</time></trkpt><trkpt lat="45.025501430345" lon="9.549060990949569"><ele>75.0</ele><time>2026-04-09T08:29:35Z</time></trkpt><trkpt lat="45.025485662387624" lon="9.548896880701669"><ele>75.0</ele><time>2026-04-09T08:29:37Z</time></trkpt><trkpt lat="45.02545045799076" lon="9.548739441027005"><ele>75.0</ele><time>2026-04-09T08:29:39Z</time></trkpt><trkpt lat="45.025412900093414" lon="9.548581492884692"><ele>75.0</ele><time>2026-04-09T08:29:41Z</time></trkpt><trkpt lat="45.0253752921629" lon="9.548428439633641"><ele>75.0</ele><time>2026-04-09T08:29:43Z</time></trkpt><trkpt lat="45.025334283848274" lon="9.548276861696241"><ele>75.0</ele><time>2026-04-09T08:29:45Z</time></trkpt><trkpt lat="45.0252760000443" lon="9.548127519761021"><ele>75.0</ele><time>2026-04-09T08:29:47Z</time></trkpt><trkpt lat="45.025220257366556" lon="9.547982164968532"><ele>75.25</ele><time>2026-04-09T08:29:49Z</time></trkpt><trkpt lat="45.02515305491065" lon="9.547847426764699"><ele>75.5</ele><time>2026-04-09T08:29:51Z</time></trkpt><trkpt lat="45.02509400428791" lon="9.547698650317098"><ele>75.75</ele><time>2026-04-09T08:29:53Z</time></trkpt><trkpt lat="45.02503121208214" lon="9.547554204120914"><ele>76.0</ele><time>2026-04-09T08:29:55Z</time></trkpt><trkpt lat="45.02495809123264" lon="9.547416408151909"><ele>76.0</ele><time>2026-04-09T08:29:57Z</time></trkpt><trkpt lat="45.0248901062532" lon="9.54727891384284"><ele>76.0</ele><time>2026-04-09T08:29:59Z</time></trkpt><trkpt lat="45.02481830855666" lon="9.547142333987411"><ele>76.0</ele><time>2026-04-09T08:30:01Z</time></trkpt><trkpt lat="45.02474692811109" lon="9.547005855405848"><ele>76.0</ele><time>2026-04-09T08:30:03Z</time></trkpt><trkpt lat="45.02467870362462" lon="9.546871640522932"><ele>76.5</ele><time>2026-04-09T08:30:05Z</time></trkpt><trkpt lat="45.024608124769436" lon="9.546739426155858"><ele>77.0</ele><time>2026-04-09T08:30:07Z</time></trkpt><trkpt lat="45.02453983425563" lon="9.546607255817609"><ele>77.5</ele><time>2026-04-09T08:30:09Z</time></trkpt><trkpt lat="45.024468029058724" lon="9.54647775165105"><ele>78.0</ele><time>2026-04-09T08:30:11Z</time></trkpt><trkpt lat="45.024396585685395" lon="9.546343125746677"><ele>78.0</ele><time>2026-04-09T08:30:13Z</time></trkpt><trkpt lat="45.02431937376228" lon="9.546229849203687"><ele>78.0</ele><time>2026-04-09T08:30:15Z</time></trkpt><trkpt lat="45.024238528524705" lon="9.546104376129652"><ele>78.0</ele><time>2026-04-09T08:30:17Z</time></trkpt><trkpt lat="45.02415877692537" lon="9.545980728428525"><ele>78.0</ele><time>2026-04-09T08:30:19Z</time></trkpt><trkpt lat="45.02407630092881" lon="9.54586354041601"><ele>76.75</ele><time>2026-04-09T08:30:21Z</time></trkpt><trkpt lat="45.0239961019096" lon="9.545749665884658"><ele>75.5</ele><time>2026-04-09T08:30:23Z</time></trkpt><trkpt lat="45.023916811302705" lon="9.545626584796311"><ele>74.25</ele><time>2026-04-09T08:30:25Z</time></trkpt><trkpt lat="45.02383367945097" lon="9.545498910831988"><ele>73.0</ele><time>2026-04-09T08:30:27Z</time></trkpt><trkpt lat="45.02375447603674" lon="9.545389520191623"><ele>73.75</ele><time>2026-04-09T08:30:29Z</time></trkpt><trkpt lat="45.02366802219849" lon="9.545275695833114"><ele>74.5</ele><time>2026-04-09T08:30:31Z</time></trkpt><trkpt lat="45.023583773129545" lon="9.545147762065103"><ele>75.25</ele><time>2026-04-09T08:30:33Z</time></trkpt><trkpt lat="45.023502698593646" lon="9.545025098710486"><ele>76.0</ele><time>2026-04-09T08:30:35Z</time></trkpt><trkpt lat="45.02342426005811" lon="9.544898458888143"><ele>76.0</ele><time>2026-04-09T08:30:37Z</time></trkpt><trkpt lat="45.02334274620117" lon="9.544781958276262"><ele>76.0</ele><time>2026-04-09T08:30:39Z</time></trkpt><trkpt lat="45.02326776342966" lon="9.5446652861397"><ele>76.0</ele><time>2026-04-09T08:30:41Z</time></trkpt><trkpt lat="45.02319342921371" lon="9.544553439108507"><ele>76.0</ele><time>2026-04-09T08:30:43Z</time></trkpt><trkpt lat="45.02311124865439" lon="9.544440023799224"><ele>76.0</ele><time>2026-04-09T08:30:45Z</time></trkpt><trkpt lat="45.02303518780652" lon="9.544313862228584"><ele>76.0</ele><time>2026-04-09T08:30:47Z</time></trkpt><trkpt lat="45.022953443672094" lon="9.544196751002199"><ele>76.0</ele><time>2026-04-09T08:30:49Z</time></trkpt><trkpt lat="45.02286263873942" lon="9.544100221759244"><ele>76.0</ele><time>2026-04-09T08:30:51Z</time></trkpt><trkpt lat="45.022798699653066" lon="9.544096845544045"><ele>76.0</ele><time>2026-04-09T08:30:52Z</time></trkpt><trkpt lat="45.02269030343843" lon="9.54415744707894"><ele>76.0</ele><time>2026-04-09T08:30:54Z</time></trkpt><trkpt lat="45.02257633842306" lon="9.544221994562106"><ele>76.0</ele><time>2026-04-09T08:30:56Z</time></trkpt><trkpt lat="45.02247074709625" lon="9.544275374244613"><ele>76.0</ele><time>2026-04-09T08:30:58Z</time></trkpt><trkpt lat="45.02236545584417" lon="9.544330170211355"><ele>76.0</ele><time>2026-04-09T08:31:00Z</time></trkpt><trkpt lat="45.02225884928618" lon="9.544388827774664"><ele>76.0</ele><time>2026-04-09T08:31:02Z</time></trkpt><trkpt lat="45.0221530332615" lon="9.544443167806707"><ele>76.0</ele><time>2026-04-09T08:31:04Z</time></trkpt><trkpt lat="45.02204936195341" lon="9.544496148889927"><ele>76.0</ele><time>2026-04-09T08:31:06Z</time></trkpt><trkpt lat="45.02194231420928" lon="9.544552277719859"><ele>76.0</ele><time>2026-04-09T08:31:08Z</time></trkpt><trkpt lat="45.021839318387215" lon="9.544606824450241"><ele>76.0</ele><time>2026-04-09T08:31:10Z</time></trkpt><trkpt lat="45.021733860216536" lon="9.544665202804035"><ele>75.8</ele><time>2026-04-09T08:31:12Z</time></trkpt><trkpt lat="45.02162916343948" lon="9.544717854682116"><ele>75.6</ele><time>2026-04-09T08:31:14Z</time></trkpt><trkpt lat="45.021521895471736" lon="9.544770278518502"><ele>75.4</ele><time>2026-04-09T08:31:16Z</time></trkpt><trkpt lat="45.02141723218017" lon="9.54482767022822"><ele>75.2</ele><time>2026-04-09T08:31:18Z</time></trkpt><trkpt lat="45.02131348711658" lon="9.544884178808834"><ele>75.0</ele><time>2026-04-09T08:31:20Z</time></trkpt><trkpt lat="45.02121013445359" lon="9.54494116308221"><ele>75.0</ele><time>2026-04-09T08:31:22Z</time></trkpt><trkpt lat="45.02110184422165" lon="9.544995269386002"><ele>75.0</ele><time>2026-04-09T08:31:24Z</time></trkpt><trkpt lat="45.02099550847592" lon="9.545053756541316"><ele>75.0</ele><time>2026-04-09T08:31:26Z</time></trkpt><trkpt lat="45.02088735653332" lon="9.545108613491248"><ele>75.0</ele><time>2026-04-09T08:31:28Z</time></trkpt><trkpt lat="45.02078188293181" lon="9.545160831821732"><ele>74.75</ele><time>2026-04-09T08:31:30Z</time></trkpt><trkpt lat="45.02067911274989" lon="9.545219824566189"><ele>74.5</ele><time>2026-04-09T08:31:32Z</time></trkpt><trkpt lat="45.02056854899778" lon="9.545274661885816"><ele>74.25</ele><time>2026-04-09T08:31:34Z</time></trkpt><trkpt lat="45.0204624649274" lon="9.545328985489494"><ele>74.0</ele><time>2026-04-09T08:31:36Z</time></trkpt><trkpt lat="45.020358300783315" lon="9.545386517822685"><ele>74.0</ele><time>2026-04-09T08:31:38Z</time></trkpt><trkpt lat="45.02025473843201" lon="9.545438914345707"><ele>74.0</ele><time>2026-04-09T08:31:40Z</time></trkpt><trkpt lat="45.02015172280448" lon="9.545493384578416"><ele>74.0</ele><time>2026-04-09T08:31:42Z</time></trkpt><trkpt lat="45.02005184075031" lon="9.545547029186142"><ele>74.0</ele><time>2026-04-09T08:31:44Z</time></trkpt><trkpt lat="45.019956963794456" lon="9.545601438624695"><ele>74.0</ele><time>2026-04-09T08:31:46Z</time></trkpt><trkpt lat="45.019863123871666" lon="9.545645176830691"><ele>74.2</ele><time>2026-04-09T08:31:48Z</time></trkpt><trkpt lat="45.01977014650001" lon="9.545696093093516"><ele>74.4</ele><time>2026-04-09T08:31:50Z</time></trkpt><trkpt lat="45.019678843651974" lon="9.545745735758354"><ele>74.6</ele><time>2026-04-09T08:31:52Z</time></trkpt><trkpt lat="45.01958363546131" lon="9.545792821134317"><ele>74.8</ele><time>2026-04-09T08:31:54Z</time></trkpt><trkpt lat="45.01949200027368" lon="9.545839895437286"><ele>75.0</ele><time>2026-04-09T08:31:56Z</time></trkpt><trkpt lat="45.01940151409382" lon="9.545889080989598"><ele>75.0</ele><time>2026-04-09T08:31:58Z</time></trkpt><trkpt lat="45.01930897807095" lon="9.545937656207894"><ele>75.0</ele><time>2026-04-09T08:32:00Z</time></trkpt><trkpt lat="45.019221000580615" lon="9.545985034166781"><ele>75.0</ele><time>2026-04-09T08:32:02Z</time></trkpt><trkpt lat="45.01913332779528" lon="9.546029382313865"><ele>75.0</ele><time>2026-04-09T08:32:04Z</time></trkpt><trkpt lat="45.019048003713664" lon="9.546073209778523"><ele>75.0</ele><time>2026-04-09T08:32:06Z</time></trkpt><trkpt lat="45.01895732396784" lon="9.546120090302578"><ele>74.8</ele><time>2026-04-09T08:32:08Z</time></trkpt><trkpt lat="45.018867047411725" lon="9.546153249156179"><ele>74.6</ele><time>2026-04-09T08:32:10Z</time></trkpt><trkpt lat="45.01877389355138" lon="9.546171077011481"><ele>74.4</ele><time>2026-04-09T08:32:12Z</time></trkpt><trkpt lat="45.01867907882454" lon="9.546157314801881"><ele>74.2</ele><time>2026-04-09T08:32:14Z</time></trkpt><trkpt lat="45.018588486657734" lon="9.546122256516425"><ele>74.0</ele><time>2026-04-09T08:32:16Z</time></trkpt><trkpt lat="45.01850486681258" lon="9.546079239601179"><ele>74.0</ele><time>2026-04-09T08:32:18Z</time></trkpt><trkpt lat="45.01842061840273" lon="9.546041465986539"><ele>74.0</ele><time>2026-04-09T08:32:20Z</time></trkpt><trkpt lat="45.01833065089584" lon="9.546014579231462"><ele>74.0</ele><time>2026-04-09T08:32:22Z</time></trkpt><trkpt lat="45.018245540782196" lon="9.545995951618192"><ele>74.0</ele><time>2026-04-09T08:32:24Z</time></trkpt><trkpt lat="45.01815180307166" lon="9.545999557645404"><ele>74.0</ele><time>2026-04-09T08:32:26Z</time></trkpt><trkpt lat="45.018060115194196" lon="9.546014433323661"><ele>74.4</ele><time>2026-04-09T08:32:28Z</time></trkpt><trkpt lat="45.01796605985868" lon="9.545993466891813"><ele>74.80000000000001</ele><time>2026-04-09T08:32:30Z</time></trkpt><trkpt lat="45.01788135705962" lon="9.545924173377042"><ele>75.19999999999999</ele><time>2026-04-09T08:32:32Z</time></trkpt><trkpt lat="45.01778879863278" lon="9.545884873021432"><ele>75.6</ele><time>2026-04-09T08:32:34Z</time></trkpt><trkpt lat="45.017689576626154" lon="9.545882357680123"><ele>76.0</ele><time>2026-04-09T08:32:36Z</time></trkpt><trkpt lat="45.01759823996257" lon="9.545940478106212"><ele>76.0</ele><time>2026-04-09T08:32:38Z</time></trkpt><trkpt lat="45.017526023003875" lon="9.546036204314802"><ele>76.0</ele><time>2026-04-09T08:32:40Z</time></trkpt><trkpt lat="45.01745509983774" lon="9.546127974709806"><ele>76.0</ele><time>2026-04-09T08:32:42Z</time></trkpt><trkpt lat="45.017370034273476" lon="9.546202596911796"><ele>76.0</ele><time>2026-04-09T08:32:44Z</time></trkpt><trkpt lat="45.01728087296287" lon="9.54623963622345"><ele>76.0</ele><time>2026-04-09T08:32:46Z</time></trkpt><trkpt lat="45.01718279637632" lon="9.546249701774288"><ele>76.2</ele><time>2026-04-09T08:32:48Z</time></trkpt><trkpt lat="45.01708402220457" lon="9.546253164739673"><ele>76.39999999999999</ele><time>2026-04-09T08:32:50Z</time></trkpt><trkpt lat="45.016986011537405" lon="9.546256161654622"><ele>76.6</ele><time>2026-04-09T08:32:52Z</time></trkpt><trkpt lat="45.0168857056536" lon="9.546254722773318"><ele>76.8</ele><time>2026-04-09T08:32:54Z</time></trkpt><trkpt lat="45.01678857135683" lon="9.546259672077943"><ele>77.0</ele><time>2026-04-09T08:32:56Z</time></trkpt><trkpt lat="45.0166910480583" lon="9.54626097036719"><ele>77.0</ele><time>2026-04-09T08:32:58Z</time></trkpt><trkpt lat="45.01659196032906" lon="9.546261632209912"><ele>77.0</ele><time>2026-04-09T08:33:00Z</time></trkpt><trkpt lat="45.01649685990917" lon="9.54626427431163"><ele>77.0</ele><time>2026-04-09T08:33:02Z</time></trkpt><trkpt lat="45.0163979213852" lon="9.546266351623222"><ele>77.0</ele><time>2026-04-09T08:33:04Z</time></trkpt><trkpt lat="45.01629891622081" lon="9.546265611040736"><ele>77.0</ele><time>2026-04-09T08:33:06Z</time></trkpt><trkpt lat="45.01620376759572" lon="9.546266052591868"><ele>77.0</ele><time>2026-04-09T08:33:08Z</time></trkpt><trkpt lat="45.016110984177885" lon="9.546275230272956"><ele>77.0</ele><time>2026-04-09T08:33:10Z</time></trkpt><trkpt lat="45.016019265581846" lon="9.546288547995353"><ele>77.0</ele><time>2026-04-09T08:33:12Z</time></trkpt><trkpt lat="45.01592981594348" lon="9.546288138255797"><ele>77.0</ele><time>2026-04-09T08:33:14Z</time></trkpt><trkpt lat="45.015830536291645" lon="9.546292556716127"><ele>77.0</ele><time>2026-04-09T08:33:16Z</time></trkpt><trkpt lat="45.0157385762517" lon="9.546294662306208"><ele>76.8</ele><time>2026-04-09T08:33:18Z</time></trkpt><trkpt lat="45.01563707645387" lon="9.546297735511656"><ele>76.6</ele><time>2026-04-09T08:33:20Z</time></trkpt><trkpt lat="45.015538683263976" lon="9.546301727732057"><ele>76.39999999999999</ele><time>2026-04-09T08:33:22Z</time></trkpt><trkpt lat="45.01543920415411" lon="9.546302730331815"><ele>76.2</ele><time>2026-04-09T08:33:24Z</time></trkpt><trkpt lat="45.015339521166574" lon="9.54630645630487"><ele>76.0</ele><time>2026-04-09T08:33:26Z</time></trkpt><trkpt lat="45.015238115611695" lon="9.546307208844054"><ele>76.0</ele><time>2026-04-09T08:33:28Z</time></trkpt><trkpt lat="45.01513716306753" lon="9.546313595548627"><ele>76.0</ele><time>2026-04-09T08:33:30Z</time></trkpt><trkpt lat="45.015041374940694" lon="9.546317958248034"><ele>76.0</ele><time>2026-04-09T08:33:32Z</time></trkpt><trkpt lat="45.014938116640366" lon="9.54631868450414"><ele>76.0</ele><time>2026-04-09T08:33:34Z</time></trkpt><trkpt lat="45.01483824533664" lon="9.546319993411943"><ele>76.0</ele><time>2026-04-09T08:33:36Z</time></trkpt><trkpt lat="45.01474031488866" lon="9.546325952792655"><ele>76.2</ele><time>2026-04-09T08:33:38Z</time></trkpt><trkpt lat="45.01464412253237" lon="9.546325362203826"><ele>76.39999999999999</ele><time>2026-04-09T08:33:40Z</time></trkpt><trkpt lat="45.014546371527985" lon="9.54633646221377"><ele>76.6</ele><time>2026-04-09T08:33:42Z</time></trkpt><trkpt lat="45.01444505996829" lon="9.546328400779105"><ele>76.8</ele><time>2026-04-09T08:33:44Z</time></trkpt><trkpt lat="45.01434891071923" lon="9.546336412124655"><ele>77.0</ele><time>2026-04-09T08:33:46Z</time></trkpt><trkpt lat="45.01425414975402" lon="9.546340055220623"><ele>77.0</ele><time>2026-04-09T08:33:48Z</time></trkpt><trkpt lat="45.0141565838444" lon="9.54634663567971"><ele>77.0</ele><time>2026-04-09T08:33:50Z</time></trkpt><trkpt lat="45.01405884944212" lon="9.546349263658826"><ele>77.0</ele><time>2026-04-09T08:33:52Z</time></trkpt><trkpt lat="45.013961337623414" lon="9.546352611668032"><ele>77.0</ele><time>2026-04-09T08:33:54Z</time></trkpt><trkpt lat="45.01386124995681" lon="9.546355465068512"><ele>77.0</ele><time>2026-04-09T08:33:56Z</time></trkpt><trkpt lat="45.0137605835102" lon="9.546356283303007"><ele>77.2</ele><time>2026-04-09T08:33:58.004Z</time></trkpt><trkpt lat="45.01365922324896" lon="9.546359718186208"><ele>77.4</ele><time>2026-04-09T08:34:00.004Z</time></trkpt><trkpt lat="45.013556982385516" lon="9.546360736883454"><ele>77.6</ele><time>2026-04-09T08:34:02.004Z</time></trkpt><trkpt lat="45.01345461036668" lon="9.546366144085733"><ele>77.8</ele><time>2026-04-09T08:34:04.004Z</time></trkpt><trkpt lat="45.013354417976636" lon="9.546371714625089"><ele>78.0</ele><time>2026-04-09T08:34:06.004Z</time></trkpt><trkpt lat="45.013254744468064" lon="9.546367322788187"><ele>78.0</ele><time>2026-04-09T08:34:08.004Z</time></trkpt><trkpt lat="45.01315219177435" lon="9.546374650390405"><ele>78.0</ele><time>2026-04-09T08:34:10.004Z</time></trkpt><trkpt lat="45.01304852148541" lon="9.546375812225655"><ele>78.0</ele><time>2026-04-09T08:34:12.004Z</time></trkpt><trkpt lat="45.01294537783866" lon="9.546381130996487"><ele>78.0</ele><time>2026-04-09T08:34:14.004Z</time></trkpt><trkpt lat="45.012848314687766" lon="9.546382703588817"><ele>78.0</ele><time>2026-04-09T08:34:16.004Z</time></trkpt><trkpt lat="45.012750785221826" lon="9.546386382424185"><ele>78.0</ele><time>2026-04-09T08:34:18.004Z</time></trkpt><trkpt lat="45.01265366512412" lon="9.546390832088324"><ele>78.0</ele><time>2026-04-09T08:34:20.004Z</time></trkpt><trkpt lat="45.01255711203557" lon="9.546390772824074"><ele>78.0</ele><time>2026-04-09T08:34:22.004Z</time></trkpt><trkpt lat="45.01246634233336" lon="9.546393934540353"><ele>78.0</ele><time>2026-04-09T08:34:24.004Z</time></trkpt><trkpt lat="45.012374942644286" lon="9.546392359110063"><ele>78.0</ele><time>2026-04-09T08:34:26.004Z</time></trkpt><trkpt lat="45.012285191984866" lon="9.546387549069083"><ele>77.8</ele><time>2026-04-09T08:34:28.004Z</time></trkpt><trkpt lat="45.012190214401116" lon="9.546380735662046"><ele>77.6</ele><time>2026-04-09T08:34:30.004Z</time></trkpt><trkpt lat="45.01208866636951" lon="9.546371283503023"><ele>77.4</ele><time>2026-04-09T08:34:32.004Z</time></trkpt><trkpt lat="45.01199541417281" lon="9.546371115192729"><ele>77.2</ele><time>2026-04-09T08:34:34.004Z</time></trkpt><trkpt lat="45.01189975917373" lon="9.546367387747503"><ele>77.0</ele><time>2026-04-09T08:34:36.004Z</time></trkpt><trkpt lat="45.011802411970514" lon="9.546360665137495"><ele>77.0</ele><time>2026-04-09T08:34:38.004Z</time></trkpt><trkpt lat="45.01170490179304" lon="9.546351592641367"><ele>77.0</ele><time>2026-04-09T08:34:40.004Z</time></trkpt><trkpt lat="45.01160448289703" lon="9.54634646176947"><ele>77.0</ele><time>2026-04-09T08:34:42.006Z</time></trkpt><trkpt lat="45.011506612847654" lon="9.546340195044785"><ele>77.0</ele><time>2026-04-09T08:34:44.004Z</time></trkpt><trkpt lat="45.01140538384841" lon="9.546331538660143"><ele>77.0</ele><time>2026-04-09T08:34:46.005Z</time></trkpt><trkpt lat="45.01130465767949" lon="9.546328737003343"><ele>77.2</ele><time>2026-04-09T08:34:48.005Z</time></trkpt><trkpt lat="45.01120859153876" lon="9.54632380023203"><ele>77.4</ele><time>2026-04-09T08:34:50.005Z</time></trkpt><trkpt lat="45.01111003098128" lon="9.546320486971233"><ele>77.6</ele><time>2026-04-09T08:34:52.004Z</time></trkpt><trkpt lat="45.01100937106505" lon="9.546306756836227"><ele>77.8</ele><time>2026-04-09T08:34:54.005Z</time></trkpt><trkpt lat="45.01090877899086" lon="9.5463038433062"><ele>78.0</ele><time>2026-04-09T08:34:56.005Z</time></trkpt><trkpt lat="45.01080941509023" lon="9.546294546311534"><ele>78.0</ele><time>2026-04-09T08:34:58.005Z</time></trkpt><trkpt lat="45.01070955505863" lon="9.546294340102104"><ele>78.0</ele><time>2026-04-09T08:35:00.005Z</time></trkpt><trkpt lat="45.01060673494595" lon="9.546282137216062"><ele>78.0</ele><time>2026-04-09T08:35:02.005Z</time></trkpt><trkpt lat="45.01050854588934" lon="9.546276194233625"><ele>78.0</ele><time>2026-04-09T08:35:04.005Z</time></trkpt><trkpt lat="45.01040629463232" lon="9.546269849848066"><ele>78.0</ele><time>2026-04-09T08:35:06.005Z</time></trkpt><trkpt lat="45.01030779719719" lon="9.546261720784129"><ele>78.0</ele><time>2026-04-09T08:35:08.005Z</time></trkpt><trkpt lat="45.01020620040284" lon="9.546258436365703"><ele>78.0</ele><time>2026-04-09T08:35:10.005Z</time></trkpt><trkpt lat="45.010103671166455" lon="9.546248648543246"><ele>78.0</ele><time>2026-04-09T08:35:12.005Z</time></trkpt><trkpt lat="45.01000077907754" lon="9.546241643177463"><ele>78.0</ele><time>2026-04-09T08:35:14.005Z</time></trkpt><trkpt lat="45.009899919193494" lon="9.54624039624799"><ele>78.0</ele><time>2026-04-09T08:35:16.005Z</time></trkpt><trkpt lat="45.00979724297403" lon="9.546232962064195"><ele>78.4</ele><time>2026-04-09T08:35:18.005Z</time></trkpt><trkpt lat="45.00969722543163" lon="9.546221419694792"><ele>78.8</ele><time>2026-04-09T08:35:20.005Z</time></trkpt><trkpt lat="45.009588631802536" lon="9.546220701807401"><ele>79.2</ele><time>2026-04-09T08:35:22.005Z</time></trkpt><trkpt lat="45.009489665501846" lon="9.546211845451975"><ele>79.6</ele><time>2026-04-09T08:35:24.005Z</time></trkpt><trkpt lat="45.00938609960757" lon="9.546207861800054"><ele>80.0</ele><time>2026-04-09T08:35:26.005Z</time></trkpt><trkpt lat="45.00928484437992" lon="9.546200717185863"><ele>80.2</ele><time>2026-04-09T08:35:28.005Z</time></trkpt><trkpt lat="45.0091816722377" lon="9.546193911255989"><ele>80.4</ele><time>2026-04-09T08:35:30.005Z</time></trkpt><trkpt lat="45.00908151640507" lon="9.546188293293307"><ele>80.6</ele><time>2026-04-09T08:35:32.005Z</time></trkpt><trkpt lat="45.0089802319995" lon="9.54618238577497"><ele>80.8</ele><time>2026-04-09T08:35:34.005Z</time></trkpt><trkpt lat="45.008878451821765" lon="9.546176649976474"><ele>81.0</ele><time>2026-04-09T08:35:36.005Z</time></trkpt><trkpt lat="45.00878255611641" lon="9.546171001012718"><ele>81.0</ele><time>2026-04-09T08:35:38.005Z</time></trkpt><trkpt lat="45.00867970133476" lon="9.546167112583875"><ele>81.0</ele><time>2026-04-09T08:35:40.005Z</time></trkpt><trkpt lat="45.008580079887324" lon="9.546158321513621"><ele>81.0</ele><time>2026-04-09T08:35:42.005Z</time></trkpt><trkpt lat="45.00847815677866" lon="9.546155708193092"><ele>81.0</ele><time>2026-04-09T08:35:44.005Z</time></trkpt><trkpt lat="45.00837625449094" lon="9.546141451964075"><ele>81.0</ele><time>2026-04-09T08:35:46.005Z</time></trkpt><trkpt lat="45.008277815707814" lon="9.54613979743714"><ele>81.0</ele><time>2026-04-09T08:35:48.005Z</time></trkpt><trkpt lat="45.00817552921837" lon="9.546130326192607"><ele>81.0</ele><time>2026-04-09T08:35:50.005Z</time></trkpt><trkpt lat="45.00807575206556" lon="9.546127518049516"><ele>81.0</ele><time>2026-04-09T08:35:52.005Z</time></trkpt><trkpt lat="45.00798351906853" lon="9.546120692147694"><ele>81.0</ele><time>2026-04-09T08:35:54.005Z</time></trkpt><trkpt lat="45.00788456867534" lon="9.546109361807387"><ele>81.0</ele><time>2026-04-09T08:35:56.005Z</time></trkpt><trkpt lat="45.0077903217857" lon="9.54610488661687"><ele>81.0</ele><time>2026-04-09T08:35:58.005Z</time></trkpt><trkpt lat="45.0076940645465" lon="9.546100822078733"><ele>81.0</ele><time>2026-04-09T08:36:00.005Z</time></trkpt><trkpt lat="45.007599176121424" lon="9.546097454078005"><ele>81.0</ele><time>2026-04-09T08:36:02.005Z</time></trkpt><trkpt lat="45.00750108518258" lon="9.546097733561549"><ele>81.0</ele><time>2026-04-09T08:36:04.005Z</time></trkpt><trkpt lat="45.007403818712696" lon="9.546097100112885"><ele>81.0</ele><time>2026-04-09T08:36:06.005Z</time></trkpt><trkpt lat="45.00729953557347" lon="9.546098385570337"><ele>81.0</ele><time>2026-04-09T08:36:08.005Z</time></trkpt><trkpt lat="45.00719815090219" lon="9.546098961243048"><ele>81.0</ele><time>2026-04-09T08:36:10.005Z</time></trkpt><trkpt lat="45.0070938631865" lon="9.546095870463938"><ele>81.0</ele><time>2026-04-09T08:36:12.005Z</time></trkpt><trkpt lat="45.0069946256941" lon="9.546094617144101"><ele>81.0</ele><time>2026-04-09T08:36:14.005Z</time></trkpt><trkpt lat="45.0068912991143" lon="9.546095428262099"><ele>81.0</ele><time>2026-04-09T08:36:16.005Z</time></trkpt><trkpt lat="45.00678439092153" lon="9.546094515666914"><ele>81.0</ele><time>2026-04-09T08:36:18.005Z</time></trkpt><trkpt lat="45.006679980833475" lon="9.546090438736016"><ele>81.0</ele><time>2026-04-09T08:36:20.005Z</time></trkpt><trkpt lat="45.00658074503597" lon="9.546091959616703"><ele>81.0</ele><time>2026-04-09T08:36:22.005Z</time></trkpt><trkpt lat="45.00647271650661" lon="9.546091326175569"><ele>81.0</ele><time>2026-04-09T08:36:24.005Z</time></trkpt><trkpt lat="45.006366210557495" lon="9.546096403882732"><ele>81.0</ele><time>2026-04-09T08:36:26.005Z</time></trkpt><trkpt lat="45.00626238510929" lon="9.546094671359212"><ele>81.19999999999999</ele><time>2026-04-09T08:36:28.005Z</time></trkpt><trkpt lat="45.00615807459025" lon="9.546102704801669"><ele>81.39999999999999</ele><time>2026-04-09T08:36:30.005Z</time></trkpt><trkpt lat="45.00604796669505" lon="9.546100071350219"><ele>81.6</ele><time>2026-04-09T08:36:32.005Z</time></trkpt><trkpt lat="45.005941540199146" lon="9.5460984399838"><ele>81.8</ele><time>2026-04-09T08:36:34.005Z</time></trkpt><trkpt lat="45.005836205513575" lon="9.54610337214631"><ele>82.0</ele><time>2026-04-09T08:36:36.005Z</time></trkpt><trkpt lat="45.00573142157974" lon="9.546101529468995"><ele>82.0</ele><time>2026-04-09T08:36:38.005Z</time></trkpt><trkpt lat="45.00562719402319" lon="9.546103502908027"><ele>82.0</ele><time>2026-04-09T08:36:40.005Z</time></trkpt><trkpt lat="45.00552568074109" lon="9.546103883313034"><ele>82.0</ele><time>2026-04-09T08:36:42.005Z</time></trkpt><trkpt lat="45.00541974716453" lon="9.546108828313217"><ele>82.0</ele><time>2026-04-09T08:36:44.005Z</time></trkpt><trkpt lat="45.00531737055294" lon="9.546108082114936"><ele>82.0</ele><time>2026-04-09T08:36:46.005Z</time></trkpt><trkpt lat="45.00521491313398" lon="9.546108273499218"><ele>82.0</ele><time>2026-04-09T08:36:48.006Z</time></trkpt><trkpt lat="45.00511157309794" lon="9.546110656247642"><ele>82.0</ele><time>2026-04-09T08:36:50.005Z</time></trkpt><trkpt lat="45.00500671544021" lon="9.54611294287918"><ele>82.0</ele><time>2026-04-09T08:36:52.006Z</time></trkpt><trkpt lat="45.00490392134815" lon="9.546109262982682"><ele>82.0</ele><time>2026-04-09T08:36:54.006Z</time></trkpt><trkpt lat="45.004804356989396" lon="9.54611435392973"><ele>82.0</ele><time>2026-04-09T08:36:56.006Z</time></trkpt><trkpt lat="45.00469816936806" lon="9.546111816427143"><ele>82.19999999999999</ele><time>2026-04-09T08:36:58.006Z</time></trkpt><trkpt lat="45.00459836964894" lon="9.546107804243118"><ele>82.4</ele><time>2026-04-09T08:37:00.005Z</time></trkpt><trkpt lat="45.00449793094793" lon="9.546107552343262"><ele>82.6</ele><time>2026-04-09T08:37:02.005Z</time></trkpt><trkpt lat="45.00439666668797" lon="9.546114560756184"><ele>82.80000000000001</ele><time>2026-04-09T08:37:04.005Z</time></trkpt><trkpt lat="45.00429086789528" lon="9.546119835347225"><ele>83.0</ele><time>2026-04-09T08:37:06.005Z</time></trkpt><trkpt lat="45.00418570185422" lon="9.546118971617693"><ele>83.4</ele><time>2026-04-09T08:37:08.005Z</time></trkpt><trkpt lat="45.00408416698866" lon="9.546122470610475"><ele>83.80000000000001</ele><time>2026-04-09T08:37:10.005Z</time></trkpt><trkpt lat="45.003987548650116" lon="9.546124484417422"><ele>84.2</ele><time>2026-04-09T08:37:12.005Z</time></trkpt><trkpt lat="45.003892792207886" lon="9.546126132011464"><ele>84.6</ele><time>2026-04-09T08:37:14.005Z</time></trkpt><trkpt lat="45.00380365646686" lon="9.546124384492582"><ele>85.0</ele><time>2026-04-09T08:37:16.005Z</time></trkpt><trkpt lat="45.00370142193287" lon="9.546128057804221"><ele>85.0</ele><time>2026-04-09T08:37:18.005Z</time></trkpt><trkpt lat="45.003607267916394" lon="9.546127169046974"><ele>85.0</ele><time>2026-04-09T08:37:20.005Z</time></trkpt><trkpt lat="45.00350885791238" lon="9.546128693821"><ele>85.0</ele><time>2026-04-09T08:37:22.005Z</time></trkpt><trkpt lat="45.003415541048305" lon="9.546137620960522"><ele>85.0</ele><time>2026-04-09T08:37:24.005Z</time></trkpt><trkpt lat="45.003320209797515" lon="9.546133733119797"><ele>85.0</ele><time>2026-04-09T08:37:26.005Z</time></trkpt><trkpt lat="45.003226335151055" lon="9.546136946765978"><ele>85.2</ele><time>2026-04-09T08:37:28.005Z</time></trkpt><trkpt lat="45.00313561714565" lon="9.546133735250258"><ele>85.4</ele><time>2026-04-09T08:37:30.005Z</time></trkpt><trkpt lat="45.00305836580463" lon="9.546072096003012"><ele>85.6</ele><time>2026-04-09T08:37:32.005Z</time></trkpt><trkpt lat="45.003021173167724" lon="9.545934452664385"><ele>85.8</ele><time>2026-04-09T08:37:34.005Z</time></trkpt><trkpt lat="45.00297631934613" lon="9.545813835560956"><ele>86.0</ele><time>2026-04-09T08:37:36.005Z</time></trkpt><trkpt lat="45.00293441311164" lon="9.545684491333986"><ele>86.0</ele><time>2026-04-09T08:37:38.005Z</time></trkpt><trkpt lat="45.00288965182639" lon="9.545561308173307"><ele>86.0</ele><time>2026-04-09T08:37:40.005Z</time></trkpt><trkpt lat="45.002848664383166" lon="9.54543486815909"><ele>86.0</ele><time>2026-04-09T08:37:42.005Z</time></trkpt><trkpt lat="45.002799114398215" lon="9.545307245104812"><ele>86.0</ele><time>2026-04-09T08:37:44.005Z</time></trkpt><trkpt lat="45.00275510054429" lon="9.54517974956733"><ele>86.0</ele><time>2026-04-09T08:37:46.005Z</time></trkpt><trkpt lat="45.002708428261904" lon="9.545053372691655"><ele>86.0</ele><time>2026-04-09T08:37:48.005Z</time></trkpt><trkpt lat="45.00266476998055" lon="9.544924590482129"><ele>86.0</ele><time>2026-04-09T08:37:50.005Z</time></trkpt><trkpt lat="45.00262545059228" lon="9.544802003152945"><ele>86.0</ele><time>2026-04-09T08:37:52.005Z</time></trkpt><trkpt lat="45.00258038221759" lon="9.54467630672523"><ele>86.0</ele><time>2026-04-09T08:37:54.005Z</time></trkpt><trkpt lat="45.002539171512346" lon="9.544545522204501"><ele>86.0</ele><time>2026-04-09T08:37:56.005Z</time></trkpt><trkpt lat="45.00249392041991" lon="9.544418559808145"><ele>86.19999999999999</ele><time>2026-04-09T08:37:58.005Z</time></trkpt><trkpt lat="45.00244533092782" lon="9.54429026222991"><ele>86.39999999999999</ele><time>2026-04-09T08:38:00.005Z</time></trkpt><trkpt lat="45.00240125851052" lon="9.544151958438094"><ele>86.6</ele><time>2026-04-09T08:38:02.005Z</time></trkpt><trkpt lat="45.00235354279113" lon="9.544020582339144"><ele>86.8</ele><time>2026-04-09T08:38:04.005Z</time></trkpt><trkpt lat="45.00230522799147" lon="9.54388421685359"><ele>87.0</ele><time>2026-04-09T08:38:06.005Z</time></trkpt><trkpt lat="45.00225600482633" lon="9.543745072953206"><ele>86.6</ele><time>2026-04-09T08:38:08.005Z</time></trkpt><trkpt lat="45.00220489769708" lon="9.543607983547739"><ele>86.19999999999999</ele><time>2026-04-09T08:38:10.005Z</time></trkpt><trkpt lat="45.00215086045565" lon="9.543472430801508"><ele>85.8</ele><time>2026-04-09T08:38:12.005Z</time></trkpt><trkpt lat="45.002104545904515" lon="9.543333329001015"><ele>85.4</ele><time>2026-04-09T08:38:14.005Z</time></trkpt><trkpt lat="45.00205881276443" lon="9.543190467215664"><ele>85.0</ele><time>2026-04-09T08:38:16.005Z</time></trkpt><trkpt lat="45.002012574443214" lon="9.543048639018982"><ele>85.0</ele><time>2026-04-09T08:38:18.005Z</time></trkpt><trkpt lat="45.00196334232051" lon="9.54290396215666"><ele>85.0</ele><time>2026-04-09T08:38:20.005Z</time></trkpt><trkpt lat="45.00191200563795" lon="9.54276051717018"><ele>85.0</ele><time>2026-04-09T08:38:22.005Z</time></trkpt><trkpt lat="45.00186037961511" lon="9.542616988422905"><ele>85.0</ele><time>2026-04-09T08:38:24.005Z</time></trkpt><trkpt lat="45.00181051216008" lon="9.542471678249306"><ele>85.0</ele><time>2026-04-09T08:38:26.005Z</time></trkpt><trkpt lat="45.001760854226475" lon="9.54232792369353"><ele>85.0</ele><time>2026-04-09T08:38:28.005Z</time></trkpt><trkpt lat="45.0017097462565" lon="9.54218623312573"><ele>85.0</ele><time>2026-04-09T08:38:30.005Z</time></trkpt><trkpt lat="45.001660393574454" lon="9.542046981996702"><ele>85.0</ele><time>2026-04-09T08:38:32.005Z</time></trkpt><trkpt lat="45.001608881819564" lon="9.541905147990471"><ele>85.0</ele><time>2026-04-09T08:38:34.005Z</time></trkpt><trkpt lat="45.00156069725071" lon="9.541758807493194"><ele>85.6</ele><time>2026-04-09T08:38:36.005Z</time></trkpt><trkpt lat="45.001511893510234" lon="9.541619478318172"><ele>86.2</ele><time>2026-04-09T08:38:38.005Z</time></trkpt><trkpt lat="45.00146086009432" lon="9.541482504372581"><ele>86.80000000000001</ele><time>2026-04-09T08:38:40.005Z</time></trkpt><trkpt lat="45.0014135058775" lon="9.541336172774201"><ele>87.4</ele><time>2026-04-09T08:38:42.005Z</time></trkpt><trkpt lat="45.001365206960095" lon="9.541197662835367"><ele>88.0</ele><time>2026-04-09T08:38:44.005Z</time></trkpt><trkpt lat="45.001316934132376" lon="9.541053424237496"><ele>88.0</ele><time>2026-04-09T08:38:46.005Z</time></trkpt><trkpt lat="45.00126525515638" lon="9.540911677202805"><ele>88.0</ele><time>2026-04-09T08:38:48.005Z</time></trkpt><trkpt lat="45.001216041128956" lon="9.540766208738422"><ele>88.0</ele><time>2026-04-09T08:38:50.005Z</time></trkpt><trkpt lat="45.001165895685816" lon="9.540618128011449"><ele>88.0</ele><time>2026-04-09T08:38:52.005Z</time></trkpt><trkpt lat="45.00111699949566" lon="9.540477831248412"><ele>88.25</ele><time>2026-04-09T08:38:54.006Z</time></trkpt><trkpt lat="45.001064912710255" lon="9.540328810875705"><ele>88.5</ele><time>2026-04-09T08:38:56.007Z</time></trkpt><trkpt lat="45.00101330080994" lon="9.540188442826688"><ele>88.75</ele><time>2026-04-09T08:38:58.006Z</time></trkpt><trkpt lat="45.00095852314985" lon="9.540043061711167"><ele>89.0</ele><time>2026-04-09T08:39:00.006Z</time></trkpt><trkpt lat="45.00091337305549" lon="9.539898309806299"><ele>89.0</ele><time>2026-04-09T08:39:02.006Z</time></trkpt><trkpt lat="45.0008621404557" lon="9.539752943688661"><ele>89.0</ele><time>2026-04-09T08:39:04.006Z</time></trkpt><trkpt lat="45.0008117061825" lon="9.539607670092188"><ele>89.0</ele><time>2026-04-09T08:39:06.006Z</time></trkpt><trkpt lat="45.00075997637057" lon="9.539464940458283"><ele>89.0</ele><time>2026-04-09T08:39:08.006Z</time></trkpt><trkpt lat="45.00070706276622" lon="9.53932188334343"><ele>89.25</ele><time>2026-04-09T08:39:10.006Z</time></trkpt><trkpt lat="45.000654627509775" lon="9.539168469438115"><ele>89.5</ele><time>2026-04-09T08:39:12.006Z</time></trkpt><trkpt lat="45.00060464563849" lon="9.53902628366799"><ele>89.75</ele><time>2026-04-09T08:39:14.006Z</time></trkpt><trkpt lat="45.000550499288174" lon="9.53888263953047"><ele>90.0</ele><time>2026-04-09T08:39:16.006Z</time></trkpt><trkpt lat="45.00050129943223" lon="9.53873528345878"><ele>90.0</ele><time>2026-04-09T08:39:18.006Z</time></trkpt><trkpt lat="45.000446724618556" lon="9.538586857512287"><ele>90.0</ele><time>2026-04-09T08:39:20.006Z</time></trkpt><trkpt lat="45.00039880209073" lon="9.538451192935604"><ele>90.0</ele><time>2026-04-09T08:39:22.006Z</time></trkpt><trkpt lat="45.00035046025256" lon="9.538307354577228"><ele>90.0</ele><time>2026-04-09T08:39:24.006Z</time></trkpt><trkpt lat="45.00030267064261" lon="9.538175664282157"><ele>90.0</ele><time>2026-04-09T08:39:26.006Z</time></trkpt><trkpt lat="45.00025743710635" lon="9.538043574046716"><ele>90.0</ele><time>2026-04-09T08:39:28.006Z</time></trkpt><trkpt lat="45.000216140528316" lon="9.5379062094687"><ele>90.0</ele><time>2026-04-09T08:39:30.006Z</time></trkpt><trkpt lat="45.000178149804164" lon="9.537774716986391"><ele>90.0</ele><time>2026-04-09T08:39:32.006Z</time></trkpt><trkpt lat="45.000143764040104" lon="9.537652475826121"><ele>90.0</ele><time>2026-04-09T08:39:34.006Z</time></trkpt><trkpt lat="45.00010804038494" lon="9.537530658454607"><ele>90.0</ele><time>2026-04-09T08:39:36.006Z</time></trkpt><trkpt lat="45.00007637684686" lon="9.537410972359762"><ele>90.0</ele><time>2026-04-09T08:39:38.006Z</time></trkpt><trkpt lat="45.00003751644598" lon="9.537291137472277"><ele>90.0</ele><time>2026-04-09T08:39:40.006Z</time></trkpt><trkpt lat="45.00001407673365" lon="9.537171067534882"><ele>90.0</ele><time>2026-04-09T08:39:42.006Z</time></trkpt><trkpt lat="44.9999780111738" lon="9.5370586911781"><ele>90.0</ele><time>2026-04-09T08:39:44.006Z</time></trkpt><trkpt lat="44.99994890889464" lon="9.536948587038287"><ele>90.0</ele><time>2026-04-09T08:39:46.006Z</time></trkpt><trkpt lat="44.99991610583003" lon="9.536837513648255"><ele>90.0</ele><time>2026-04-09T08:39:48.006Z</time></trkpt><trkpt lat="44.9998915035019" lon="9.536721823235741"><ele>90.0</ele><time>2026-04-09T08:39:50.006Z</time></trkpt><trkpt lat="44.99986587226143" lon="9.536604609278928"><ele>90.0</ele><time>2026-04-09T08:39:52.006Z</time></trkpt><trkpt lat="44.99983365280182" lon="9.536490085091167"><ele>90.0</ele><time>2026-04-09T08:39:54.006Z</time></trkpt><trkpt lat="44.99979239745141" lon="9.536378427127177"><ele>90.0</ele><time>2026-04-09T08:39:56.006Z</time></trkpt><trkpt lat="44.999756006231756" lon="9.536256957068112"><ele>90.0</ele><time>2026-04-09T08:39:58.006Z</time></trkpt><trkpt lat="44.999722128839345" lon="9.536113328356153"><ele>89.75</ele><time>2026-04-09T08:40:00.006Z</time></trkpt><trkpt lat="44.99967947366363" lon="9.535977418960558"><ele>89.5</ele><time>2026-04-09T08:40:02.006Z</time></trkpt><trkpt lat="44.999634476974755" lon="9.53583963353161"><ele>89.25</ele><time>2026-04-09T08:40:04.006Z</time></trkpt><trkpt lat="44.999589837564166" lon="9.53568535040997"><ele>89.0</ele><time>2026-04-09T08:40:06.006Z</time></trkpt><trkpt lat="44.99953062029719" lon="9.53553420486204"><ele>89.0</ele><time>2026-04-09T08:40:08.006Z</time></trkpt><trkpt lat="44.99947868372954" lon="9.535384592346018"><ele>89.0</ele><time>2026-04-09T08:40:10.006Z</time></trkpt><trkpt lat="44.999448832105635" lon="9.535304971038924"><ele>89.0</ele><time>2026-04-09T08:40:11.006Z</time></trkpt><trkpt lat="44.9993834337313" lon="9.535175891042039"><ele>89.0</ele><time>2026-04-09T08:40:13.006Z</time></trkpt><trkpt lat="44.9993569991781" lon="9.535093306249177"><ele>89.0</ele><time>2026-04-09T08:40:14.006Z</time></trkpt><trkpt lat="44.99928720778519" lon="9.534966904127385"><ele>89.0</ele><time>2026-04-09T08:40:16.006Z</time></trkpt><trkpt lat="44.99921979965724" lon="9.534833101576156"><ele>89.0</ele><time>2026-04-09T08:40:18.006Z</time></trkpt><trkpt lat="44.99917536976223" lon="9.534767041977103"><ele>89.0</ele><time>2026-04-09T08:40:19.006Z</time></trkpt><trkpt lat="44.99911696177202" lon="9.534634529951438"><ele>89.0</ele><time>2026-04-09T08:40:21.006Z</time></trkpt><trkpt lat="44.99905908561121" lon="9.534494205629354"><ele>89.0</ele><time>2026-04-09T08:40:23.006Z</time></trkpt><trkpt lat="44.9989920422397" lon="9.534373986954975"><ele>89.5</ele><time>2026-04-09T08:40:25.006Z</time></trkpt><trkpt lat="44.99891710023724" lon="9.534247764276856"><ele>90.0</ele><time>2026-04-09T08:40:27.006Z</time></trkpt><trkpt lat="44.998856142318566" lon="9.534115108085718"><ele>90.5</ele><time>2026-04-09T08:40:29.006Z</time></trkpt><trkpt lat="44.99879222570414" lon="9.533974429874245"><ele>91.0</ele><time>2026-04-09T08:40:31.006Z</time></trkpt><trkpt lat="44.99871711848489" lon="9.533851260993185"><ele>91.0</ele><time>2026-04-09T08:40:33.006Z</time></trkpt><trkpt lat="44.99865225073711" lon="9.533714573535915"><ele>91.0</ele><time>2026-04-09T08:40:35.006Z</time></trkpt><trkpt lat="44.99861795670141" lon="9.533639753818488"><ele>91.0</ele><time>2026-04-09T08:40:36.006Z</time></trkpt><trkpt lat="44.99854829995272" lon="9.533495455150396"><ele>91.0</ele><time>2026-04-09T08:40:38.006Z</time></trkpt><trkpt lat="44.99848709752301" lon="9.533355921623027"><ele>91.0</ele><time>2026-04-09T08:40:40.006Z</time></trkpt><trkpt lat="44.9984371650095" lon="9.533197727817408"><ele>91.0</ele><time>2026-04-09T08:40:42.006Z</time></trkpt><trkpt lat="44.99839946100725" lon="9.533047616181966"><ele>91.0</ele><time>2026-04-09T08:40:44.006Z</time></trkpt><trkpt lat="44.998392722867216" lon="9.532878424520128"><ele>91.0</ele><time>2026-04-09T08:40:46.006Z</time></trkpt><trkpt lat="44.9983896876128" lon="9.532723345583667"><ele>91.0</ele><time>2026-04-09T08:40:48.006Z</time></trkpt><trkpt lat="44.99840608066049" lon="9.532565978058077"><ele>91.0</ele><time>2026-04-09T08:40:50.006Z</time></trkpt><trkpt lat="44.99841592414787" lon="9.5324268857594"><ele>91.0</ele><time>2026-04-09T08:40:52.006Z</time></trkpt><trkpt lat="44.998408142796535" lon="9.532262532640514"><ele>91.0</ele><time>2026-04-09T08:40:54.006Z</time></trkpt><trkpt lat="44.99840224695658" lon="9.532171937952631"><ele>91.0</ele><time>2026-04-09T08:40:55.006Z</time></trkpt><trkpt lat="44.998393981805336" lon="9.53202000392549"><ele>91.0</ele><time>2026-04-09T08:40:57.006Z</time></trkpt><trkpt lat="44.99838726567246" lon="9.53186411623282"><ele>91.0</ele><time>2026-04-09T08:40:59.006Z</time></trkpt><trkpt lat="44.998361181449944" lon="9.53177580662748"><ele>91.0</ele><time>2026-04-09T08:41:00.007Z</time></trkpt><trkpt lat="44.998290776654365" lon="9.531637866442287"><ele>91.0</ele><time>2026-04-09T08:41:02.006Z</time></trkpt><trkpt lat="44.99820421611303" lon="9.531526694695694"><ele>91.0</ele><time>2026-04-09T08:41:04.007Z</time></trkpt><trkpt lat="44.998124122018574" lon="9.531404231594442"><ele>91.0</ele><time>2026-04-09T08:41:06.007Z</time></trkpt><trkpt lat="44.99803716748562" lon="9.531284252660873"><ele>90.75</ele><time>2026-04-09T08:41:08.006Z</time></trkpt><trkpt lat="44.99795984153495" lon="9.531158263941578"><ele>90.5</ele><time>2026-04-09T08:41:10.006Z</time></trkpt><trkpt lat="44.997889551105345" lon="9.531038377687029"><ele>90.25</ele><time>2026-04-09T08:41:12.007Z</time></trkpt><trkpt lat="44.99780828775798" lon="9.530911494742973"><ele>90.0</ele><time>2026-04-09T08:41:14.006Z</time></trkpt><trkpt lat="44.99773085706003" lon="9.530783541961316"><ele>90.0</ele><time>2026-04-09T08:41:16.006Z</time></trkpt><trkpt lat="44.99766283923467" lon="9.530654077184687"><ele>90.0</ele><time>2026-04-09T08:41:18.006Z</time></trkpt><trkpt lat="44.997592858500745" lon="9.530533670438148"><ele>90.0</ele><time>2026-04-09T08:41:20.006Z</time></trkpt><trkpt lat="44.997508440133174" lon="9.530415427475269"><ele>90.0</ele><time>2026-04-09T08:41:22.006Z</time></trkpt><trkpt lat="44.99742907834383" lon="9.53028058747295"><ele>90.2</ele><time>2026-04-09T08:41:24.006Z</time></trkpt><trkpt lat="44.99737236953191" lon="9.530151704900302"><ele>90.4</ele><time>2026-04-09T08:41:26.006Z</time></trkpt><trkpt lat="44.997337381722694" lon="9.530077666365168"><ele>90.6</ele><time>2026-04-09T08:41:27.006Z</time></trkpt><trkpt lat="44.997267481527615" lon="9.529955228183058"><ele>90.8</ele><time>2026-04-09T08:41:29.006Z</time></trkpt><trkpt lat="44.997206313110595" lon="9.529827955399087"><ele>91.0</ele><time>2026-04-09T08:41:31.006Z</time></trkpt><trkpt lat="44.99714319947816" lon="9.52970639272768"><ele>91.0</ele><time>2026-04-09T08:41:33.006Z</time></trkpt><trkpt lat="44.997077498966895" lon="9.529584750996532"><ele>91.0</ele><time>2026-04-09T08:41:35.006Z</time></trkpt><trkpt lat="44.9970105646779" lon="9.52946995734704"><ele>91.0</ele><time>2026-04-09T08:41:37.006Z</time></trkpt><trkpt lat="44.99695302353953" lon="9.529340209846932"><ele>91.0</ele><time>2026-04-09T08:41:39.006Z</time></trkpt><trkpt lat="44.99688820653503" lon="9.529211449832657"><ele>91.0</ele><time>2026-04-09T08:41:41.006Z</time></trkpt><trkpt lat="44.996821715108254" lon="9.529089052256607"><ele>90.75</ele><time>2026-04-09T08:41:43.006Z</time></trkpt><trkpt lat="44.99676643263005" lon="9.528949829246402"><ele>90.5</ele><time>2026-04-09T08:41:45.006Z</time></trkpt><trkpt lat="44.996700949065314" lon="9.528814795304045"><ele>90.25</ele><time>2026-04-09T08:41:47.006Z</time></trkpt><trkpt lat="44.99663829545516" lon="9.528680946097126"><ele>90.0</ele><time>2026-04-09T08:41:49.006Z</time></trkpt><trkpt lat="44.996568712116265" lon="9.528546619418938"><ele>90.0</ele><time>2026-04-09T08:41:51.006Z</time></trkpt><trkpt lat="44.99650532670268" lon="9.528421412178087"><ele>90.0</ele><time>2026-04-09T08:41:53.006Z</time></trkpt><trkpt lat="44.99644186902854" lon="9.528290705256191"><ele>90.0</ele><time>2026-04-09T08:41:55.006Z</time></trkpt><trkpt lat="44.99637680704631" lon="9.528158904310805"><ele>90.0</ele><time>2026-04-09T08:41:57.006Z</time></trkpt><trkpt lat="44.99631436114083" lon="9.528030169039532"><ele>90.0</ele><time>2026-04-09T08:41:59.006Z</time></trkpt><trkpt lat="44.99625366299788" lon="9.527905353588233"><ele>90.0</ele><time>2026-04-09T08:42:01.006Z</time></trkpt><trkpt lat="44.996195708311845" lon="9.52777949353276"><ele>90.0</ele><time>2026-04-09T08:42:03.006Z</time></trkpt><trkpt lat="44.99612858337979" lon="9.527648191967463"><ele>90.0</ele><time>2026-04-09T08:42:05.006Z</time></trkpt><trkpt lat="44.99606783073696" lon="9.527519090196913"><ele>90.0</ele><time>2026-04-09T08:42:07.006Z</time></trkpt><trkpt lat="44.996004078052714" lon="9.527389039371382"><ele>90.0</ele><time>2026-04-09T08:42:09.006Z</time></trkpt><trkpt lat="44.9959436506324" lon="9.527261041005989"><ele>90.0</ele><time>2026-04-09T08:42:11.006Z</time></trkpt><trkpt lat="44.995881403526745" lon="9.527129704094948"><ele>90.0</ele><time>2026-04-09T08:42:13.006Z</time></trkpt><trkpt lat="44.995826802991395" lon="9.527006948827564"><ele>90.0</ele><time>2026-04-09T08:42:15.006Z</time></trkpt><trkpt lat="44.99575961238056" lon="9.52688425077461"><ele>90.0</ele><time>2026-04-09T08:42:17.006Z</time></trkpt><trkpt lat="44.99567504731127" lon="9.526787562970988"><ele>90.0</ele><time>2026-04-09T08:42:19.006Z</time></trkpt><trkpt lat="44.995576887099766" lon="9.52673759472583"><ele>90.4</ele><time>2026-04-09T08:42:21.006Z</time></trkpt><trkpt lat="44.99546472873984" lon="9.526728838515751"><ele>90.8</ele><time>2026-04-09T08:42:23.006Z</time></trkpt><trkpt lat="44.99535517329858" lon="9.526732904307039"><ele>91.19999999999999</ele><time>2026-04-09T08:42:25.006Z</time></trkpt><trkpt lat="44.99524499183204" lon="9.52673677676705"><ele>91.6</ele><time>2026-04-09T08:42:27.006Z</time></trkpt><trkpt lat="44.99513369555695" lon="9.526743824957023"><ele>92.0</ele><time>2026-04-09T08:42:29.006Z</time></trkpt><trkpt lat="44.995021562609" lon="9.52675039196872"><ele>92.19999999999999</ele><time>2026-04-09T08:42:31.006Z</time></trkpt><trkpt lat="44.99491301919973" lon="9.526757492356804"><ele>92.4</ele><time>2026-04-09T08:42:33.006Z</time></trkpt><trkpt lat="44.994801626165355" lon="9.52676135665291"><ele>92.6</ele><time>2026-04-09T08:42:35.006Z</time></trkpt><trkpt lat="44.99469336132071" lon="9.52676368659445"><ele>92.80000000000001</ele><time>2026-04-09T08:42:37.006Z</time></trkpt><trkpt lat="44.99458341903816" lon="9.526757714824912"><ele>93.0</ele><time>2026-04-09T08:42:39.006Z</time></trkpt><trkpt lat="44.99447695826059" lon="9.526745176980395"><ele>93.0</ele><time>2026-04-09T08:42:41.006Z</time></trkpt><trkpt lat="44.99436906366381" lon="9.526729684324568"><ele>93.0</ele><time>2026-04-09T08:42:43.006Z</time></trkpt><trkpt lat="44.994259574169185" lon="9.526714730837249"><ele>93.0</ele><time>2026-04-09T08:42:45.006Z</time></trkpt><trkpt lat="44.99415131255189" lon="9.526693641580572"><ele>93.0</ele><time>2026-04-09T08:42:47.006Z</time></trkpt><trkpt lat="44.99404418574577" lon="9.52668072307026"><ele>93.0</ele><time>2026-04-09T08:42:49.006Z</time></trkpt><trkpt lat="44.993935474750536" lon="9.526664075591164"><ele>93.4</ele><time>2026-04-09T08:42:51.006Z</time></trkpt><trkpt lat="44.99383146542504" lon="9.526640513748825"><ele>93.80000000000001</ele><time>2026-04-09T08:42:53.006Z</time></trkpt><trkpt lat="44.99372499364812" lon="9.526620697406777"><ele>94.2</ele><time>2026-04-09T08:42:55.006Z</time></trkpt><trkpt lat="44.99362140264575" lon="9.52660180310061"><ele>94.6</ele><time>2026-04-09T08:42:57.006Z</time></trkpt><trkpt lat="44.99351090461374" lon="9.526557454713531"><ele>95.0</ele><time>2026-04-09T08:42:59.006Z</time></trkpt><trkpt lat="44.993403965971076" lon="9.526530370295216"><ele>95.2</ele><time>2026-04-09T08:43:01.006Z</time></trkpt><trkpt lat="44.993297403179064" lon="9.526500616221439"><ele>95.4</ele><time>2026-04-09T08:43:03.006Z</time></trkpt><trkpt lat="44.99319174591223" lon="9.526463600204584"><ele>95.6</ele><time>2026-04-09T08:43:05.006Z</time></trkpt><trkpt lat="44.99308609241402" lon="9.526431433045392"><ele>95.8</ele><time>2026-04-09T08:43:07.007Z</time></trkpt><trkpt lat="44.99298304756508" lon="9.52639733700929"><ele>96.0</ele><time>2026-04-09T08:43:09.007Z</time></trkpt><trkpt lat="44.992874460071434" lon="9.52636353614366"><ele>96.0</ele><time>2026-04-09T08:43:11.006Z</time></trkpt><trkpt lat="44.99276908390327" lon="9.526330995447402"><ele>96.0</ele><time>2026-04-09T08:43:13.007Z</time></trkpt><trkpt lat="44.99266357435056" lon="9.5262998335862"><ele>96.0</ele><time>2026-04-09T08:43:15.007Z</time></trkpt><trkpt lat="44.99256211182106" lon="9.526267241400697"><ele>96.0</ele><time>2026-04-09T08:43:17.006Z</time></trkpt><trkpt lat="44.992454894802606" lon="9.52623088128682"><ele>96.0</ele><time>2026-04-09T08:43:19.007Z</time></trkpt><trkpt lat="44.99234751017038" lon="9.526196126463727"><ele>95.4</ele><time>2026-04-09T08:43:21.007Z</time></trkpt><trkpt lat="44.992242722469044" lon="9.526158046451162"><ele>94.8</ele><time>2026-04-09T08:43:23.007Z</time></trkpt><trkpt lat="44.992143926237475" lon="9.52609084357068"><ele>94.2</ele><time>2026-04-09T08:43:25.007Z</time></trkpt><trkpt lat="44.992052307249956" lon="9.526019058630327"><ele>93.60000000000001</ele><time>2026-04-09T08:43:27.007Z</time></trkpt><trkpt lat="44.99196984931899" lon="9.525928848648997"><ele>93.0</ele><time>2026-04-09T08:43:29.007Z</time></trkpt><trkpt lat="44.99189302639478" lon="9.525830265632685"><ele>93.0</ele><time>2026-04-09T08:43:31.007Z</time></trkpt><trkpt lat="44.99181887847589" lon="9.525730699413549"><ele>93.0</ele><time>2026-04-09T08:43:33.007Z</time></trkpt><trkpt lat="44.99174570928595" lon="9.525633021905199"><ele>93.0</ele><time>2026-04-09T08:43:35.007Z</time></trkpt><trkpt lat="44.9916777361196" lon="9.525533477064911"><ele>93.0</ele><time>2026-04-09T08:43:37.007Z</time></trkpt><trkpt lat="44.99160450890677" lon="9.525433914476324"><ele>93.0</ele><time>2026-04-09T08:43:39.007Z</time></trkpt><trkpt lat="44.99153214254285" lon="9.525329823651532"><ele>93.60000000000001</ele><time>2026-04-09T08:43:41.007Z</time></trkpt><trkpt lat="44.99145145262111" lon="9.525224414218812"><ele>94.2</ele><time>2026-04-09T08:43:43.007Z</time></trkpt><trkpt lat="44.991377339688405" lon="9.525109189110957"><ele>94.8</ele><time>2026-04-09T08:43:45.007Z</time></trkpt><trkpt lat="44.99129849623164" lon="9.525006273219459"><ele>95.4</ele><time>2026-04-09T08:43:47.007Z</time></trkpt><trkpt lat="44.99121440905555" lon="9.52489143130659"><ele>96.0</ele><time>2026-04-09T08:43:49.007Z</time></trkpt><trkpt lat="44.991144914794134" lon="9.524786952966354"><ele>96.0</ele><time>2026-04-09T08:43:51.007Z</time></trkpt><trkpt lat="44.991074364605026" lon="9.524684732331476"><ele>96.0</ele><time>2026-04-09T08:43:53.007Z</time></trkpt><trkpt lat="44.990997092866635" lon="9.524579060317745"><ele>96.0</ele><time>2026-04-09T08:43:55.007Z</time></trkpt><trkpt lat="44.990920485858915" lon="9.524474812579408"><ele>96.0</ele><time>2026-04-09T08:43:57.007Z</time></trkpt><trkpt lat="44.99084874457566" lon="9.524374089520197"><ele>96.0</ele><time>2026-04-09T08:43:59.007Z</time></trkpt><trkpt lat="44.990774429062036" lon="9.524276903415913"><ele>96.0</ele><time>2026-04-09T08:44:01.007Z</time></trkpt><trkpt lat="44.990715081133835" lon="9.524191506269025"><ele>96.0</ele><time>2026-04-09T08:44:03.007Z</time></trkpt><trkpt lat="44.99065118638101" lon="9.524098410844854"><ele>96.0</ele><time>2026-04-09T08:44:05.007Z</time></trkpt><trkpt lat="44.99057996882573" lon="9.524011782810591"><ele>96.0</ele><time>2026-04-09T08:44:07.007Z</time></trkpt><trkpt lat="44.9905115030948" lon="9.523916728832894"><ele>96.0</ele><time>2026-04-09T08:44:09.007Z</time></trkpt><trkpt lat="44.99044109982642" lon="9.52381466154009"><ele>96.4</ele><time>2026-04-09T08:44:11.007Z</time></trkpt><trkpt lat="44.990378736497114" lon="9.523718128124635"><ele>96.8</ele><time>2026-04-09T08:44:13.007Z</time></trkpt><trkpt lat="44.990303247046405" lon="9.523617343853651"><ele>97.2</ele><time>2026-04-09T08:44:15.007Z</time></trkpt><trkpt lat="44.99022634445543" lon="9.52353867746773"><ele>97.60000000000001</ele><time>2026-04-09T08:44:17.007Z</time></trkpt><trkpt lat="44.9901222734077" lon="9.52347510222288"><ele>98.0</ele><time>2026-04-09T08:44:19.007Z</time></trkpt><trkpt lat="44.990006993754875" lon="9.523416916339706"><ele>97.99999999999999</ele><time>2026-04-09T08:44:21.007Z</time></trkpt><trkpt lat="44.98988300920359" lon="9.523361773720735"><ele>98.0</ele><time>2026-04-09T08:44:23.007Z</time></trkpt><trkpt lat="44.9898186264703" lon="9.52334027753069"><ele>98.0</ele><time>2026-04-09T08:44:24.007Z</time></trkpt><trkpt lat="44.989755045333936" lon="9.523309881353482"><ele>98.0</ele><time>2026-04-09T08:44:25.007Z</time></trkpt><trkpt lat="44.989691833976885" lon="9.523281885197806"><ele>97.99999999999999</ele><time>2026-04-09T08:44:26.007Z</time></trkpt><trkpt lat="44.98962865325302" lon="9.523252635893709"><ele>98.0</ele><time>2026-04-09T08:44:27.007Z</time></trkpt><trkpt lat="44.989566787916004" lon="9.523226334698505"><ele>98.0</ele><time>2026-04-09T08:44:28.007Z</time></trkpt><trkpt lat="44.98950374739964" lon="9.52320250934296"><ele>98.0</ele><time>2026-04-09T08:44:29.007Z</time></trkpt><trkpt lat="44.98944068427996" lon="9.523173602712989"><ele>98.0</ele><time>2026-04-09T08:44:30.007Z</time></trkpt><trkpt lat="44.98937732451356" lon="9.523151581741201"><ele>98.0</ele><time>2026-04-09T08:44:31.007Z</time></trkpt><trkpt lat="44.98931394585427" lon="9.523124352394776"><ele>98.0</ele><time>2026-04-09T08:44:32.007Z</time></trkpt><trkpt lat="44.98925075874606" lon="9.52310118997326"><ele>98.0</ele><time>2026-04-09T08:44:33.007Z</time></trkpt><trkpt lat="44.98918725621905" lon="9.523073730860682"><ele>98.0</ele><time>2026-04-09T08:44:34.007Z</time></trkpt><trkpt lat="44.98912476566164" lon="9.523047949749696"><ele>97.80000000000001</ele><time>2026-04-09T08:44:35.007Z</time></trkpt><trkpt lat="44.98906224855501" lon="9.523023252267121"><ele>97.6</ele><time>2026-04-09T08:44:36.007Z</time></trkpt><trkpt lat="44.98894217784932" lon="9.52297796907575"><ele>97.4</ele><time>2026-04-09T08:44:38.007Z</time></trkpt><trkpt lat="44.988880993963676" lon="9.522954838392353"><ele>97.19999999999999</ele><time>2026-04-09T08:44:39.007Z</time></trkpt><trkpt lat="44.98877127079367" lon="9.522911658525668"><ele>97.0</ele><time>2026-04-09T08:44:41.007Z</time></trkpt><trkpt lat="44.988665421604594" lon="9.522868227311061"><ele>96.8</ele><time>2026-04-09T08:44:43.007Z</time></trkpt><trkpt lat="44.988558450271704" lon="9.522829295269226"><ele>96.6</ele><time>2026-04-09T08:44:45.007Z</time></trkpt><trkpt lat="44.98845980214853" lon="9.522789406117152"><ele>96.39999999999999</ele><time>2026-04-09T08:44:47.007Z</time></trkpt><trkpt lat="44.988353898862016" lon="9.522743121221406"><ele>96.19999999999999</ele><time>2026-04-09T08:44:49.007Z</time></trkpt><trkpt lat="44.98824595347281" lon="9.522700071220532"><ele>96.0</ele><time>2026-04-09T08:44:51.007Z</time></trkpt><trkpt lat="44.98814030501585" lon="9.522651383379555"><ele>96.6</ele><time>2026-04-09T08:44:53.007Z</time></trkpt><trkpt lat="44.98803590006412" lon="9.522610544482934"><ele>97.19999999999999</ele><time>2026-04-09T08:44:55.007Z</time></trkpt><trkpt lat="44.98792904050702" lon="9.522567806469612"><ele>97.80000000000001</ele><time>2026-04-09T08:44:57.007Z</time></trkpt><trkpt lat="44.987821739270665" lon="9.522526081920683"><ele>98.4</ele><time>2026-04-09T08:44:59.007Z</time></trkpt><trkpt lat="44.98771479450651" lon="9.522486772646648"><ele>99.0</ele><time>2026-04-09T08:45:01.007Z</time></trkpt><trkpt lat="44.98760717516769" lon="9.522453013209505"><ele>98.80000000000001</ele><time>2026-04-09T08:45:03.007Z</time></trkpt><trkpt lat="44.987500459833086" lon="9.522423735995913"><ele>98.60000000000001</ele><time>2026-04-09T08:45:05.007Z</time></trkpt><trkpt lat="44.98738767043659" lon="9.522402185379883"><ele>98.4</ele><time>2026-04-09T08:45:07.007Z</time></trkpt><trkpt lat="44.987281193448936" lon="9.522379456886995"><ele>98.2</ele><time>2026-04-09T08:45:09.007Z</time></trkpt><trkpt lat="44.987174406100124" lon="9.52236430720041"><ele>98.0</ele><time>2026-04-09T08:45:11.007Z</time></trkpt><trkpt lat="44.98706886122874" lon="9.522341486689662"><ele>98.0</ele><time>2026-04-09T08:45:13.007Z</time></trkpt><trkpt lat="44.98696569146634" lon="9.522313058891136"><ele>98.0</ele><time>2026-04-09T08:45:15.008Z</time></trkpt><trkpt lat="44.98686421094159" lon="9.522294549773566"><ele>98.0</ele><time>2026-04-09T08:45:17.008Z</time></trkpt><trkpt lat="44.98676242387579" lon="9.522279966910729"><ele>98.0</ele><time>2026-04-09T08:45:19.007Z</time></trkpt><trkpt lat="44.986666863275055" lon="9.522271872993542"><ele>98.0</ele><time>2026-04-09T08:45:21.008Z</time></trkpt><trkpt lat="44.9865774913071" lon="9.522262855630276"><ele>97.60000000000001</ele><time>2026-04-09T08:45:23.008Z</time></trkpt><trkpt lat="44.98649742755526" lon="9.522258997040781"><ele>97.2</ele><time>2026-04-09T08:45:25.007Z</time></trkpt><trkpt lat="44.98640338222322" lon="9.522248074124422"><ele>96.8</ele><time>2026-04-09T08:45:27.007Z</time></trkpt><trkpt lat="44.98630449009505" lon="9.52223204445193"><ele>96.4</ele><time>2026-04-09T08:45:29.007Z</time></trkpt><trkpt lat="44.986203172716564" lon="9.522218523060985"><ele>96.0</ele><time>2026-04-09T08:45:31.007Z</time></trkpt><trkpt lat="44.98609924583637" lon="9.522202844273462"><ele>96.0</ele><time>2026-04-09T08:45:33.007Z</time></trkpt><trkpt lat="44.98599598638335" lon="9.52219099490999"><ele>96.0</ele><time>2026-04-09T08:45:35.007Z</time></trkpt><trkpt lat="44.98589427273266" lon="9.522169457213295"><ele>96.0</ele><time>2026-04-09T08:45:37.007Z</time></trkpt><trkpt lat="44.98578828132798" lon="9.522155124906677"><ele>96.0</ele><time>2026-04-09T08:45:39.007Z</time></trkpt><trkpt lat="44.98567991630342" lon="9.52213406415427"><ele>96.0</ele><time>2026-04-09T08:45:41.007Z</time></trkpt><trkpt lat="44.98557681686342" lon="9.522114994116768"><ele>96.19999999999999</ele><time>2026-04-09T08:45:43.007Z</time></trkpt><trkpt lat="44.98546921638366" lon="9.52210427132184"><ele>96.39999999999999</ele><time>2026-04-09T08:45:45.007Z</time></trkpt><trkpt lat="44.985365042867805" lon="9.522084199826716"><ele>96.6</ele><time>2026-04-09T08:45:47.007Z</time></trkpt><trkpt lat="44.98526549919082" lon="9.522064781529282"><ele>96.8</ele><time>2026-04-09T08:45:49.007Z</time></trkpt><trkpt lat="44.985163966178426" lon="9.522049929776516"><ele>97.0</ele><time>2026-04-09T08:45:51.007Z</time></trkpt><trkpt lat="44.9850606751332" lon="9.522039205899773"><ele>96.8</ele><time>2026-04-09T08:45:53.007Z</time></trkpt><trkpt lat="44.98495543854479" lon="9.52203668080525"><ele>96.6</ele><time>2026-04-09T08:45:55.007Z</time></trkpt><trkpt lat="44.98485232610426" lon="9.522052778380983"><ele>96.39999999999999</ele><time>2026-04-09T08:45:57.007Z</time></trkpt><trkpt lat="44.98475086845519" lon="9.522077605555571"><ele>96.19999999999999</ele><time>2026-04-09T08:45:59.007Z</time></trkpt><trkpt lat="44.98465036177045" lon="9.522109012390926"><ele>96.0</ele><time>2026-04-09T08:46:01.007Z</time></trkpt><trkpt lat="44.98454942390491" lon="9.522144268375554"><ele>96.6</ele><time>2026-04-09T08:46:03.007Z</time></trkpt><trkpt lat="44.984448160646174" lon="9.522180970216512"><ele>97.19999999999999</ele><time>2026-04-09T08:46:05.007Z</time></trkpt><trkpt lat="44.98434577830865" lon="9.522214399100625"><ele>97.80000000000001</ele><time>2026-04-09T08:46:07.007Z</time></trkpt><trkpt lat="44.98423922329652" lon="9.522246257365174"><ele>98.4</ele><time>2026-04-09T08:46:09.007Z</time></trkpt><trkpt lat="44.984138957535684" lon="9.522281145675434"><ele>99.0</ele><time>2026-04-09T08:46:11.007Z</time></trkpt><trkpt lat="44.98403217991515" lon="9.522301016780332"><ele>99.2</ele><time>2026-04-09T08:46:13.007Z</time></trkpt><trkpt lat="44.98392857892641" lon="9.522325457533503"><ele>99.4</ele><time>2026-04-09T08:46:15.007Z</time></trkpt><trkpt lat="44.98382709743057" lon="9.522344225387704"><ele>99.6</ele><time>2026-04-09T08:46:17.007Z</time></trkpt><trkpt lat="44.98372315142204" lon="9.522358064235032"><ele>99.8</ele><time>2026-04-09T08:46:19.007Z</time></trkpt><trkpt lat="44.983624138122096" lon="9.522371743985175"><ele>100.0</ele><time>2026-04-09T08:46:21.007Z</time></trkpt><trkpt lat="44.98352534511091" lon="9.522387253835952"><ele>100.0</ele><time>2026-04-09T08:46:23.007Z</time></trkpt><trkpt lat="44.98342687158808" lon="9.522396800663937"><ele>100.0</ele><time>2026-04-09T08:46:25.007Z</time></trkpt><trkpt lat="44.983329694534916" lon="9.522408739237951"><ele>100.0</ele><time>2026-04-09T08:46:27.007Z</time></trkpt><trkpt lat="44.98323170872533" lon="9.52240769458731"><ele>100.0</ele><time>2026-04-09T08:46:29.007Z</time></trkpt><trkpt lat="44.98313923061851" lon="9.522403153074913"><ele>100.0</ele><time>2026-04-09T08:46:31.007Z</time></trkpt><trkpt lat="44.9830496591199" lon="9.52239271320013"><ele>99.83333333333334</ele><time>2026-04-09T08:46:33.007Z</time></trkpt><trkpt lat="44.98297094583691" lon="9.522382447577224"><ele>99.66666666666667</ele><time>2026-04-09T08:46:35.007Z</time></trkpt><trkpt lat="44.98288691891056" lon="9.522363501236896"><ele>99.5</ele><time>2026-04-09T08:46:37.007Z</time></trkpt><trkpt lat="44.98280463396739" lon="9.522346880676482"><ele>99.33333333333334</ele><time>2026-04-09T08:46:39.007Z</time></trkpt><trkpt lat="44.982720866278534" lon="9.522326085335397"><ele>99.16666666666667</ele><time>2026-04-09T08:46:41.007Z</time></trkpt><trkpt lat="44.98264067325422" lon="9.522301184765308"><ele>99.0</ele><time>2026-04-09T08:46:43.007Z</time></trkpt><trkpt lat="44.98256099499704" lon="9.522273507793592"><ele>99.0</ele><time>2026-04-09T08:46:45.007Z</time></trkpt><trkpt lat="44.98247910359823" lon="9.522241577361136"><ele>99.0</ele><time>2026-04-09T08:46:47.007Z</time></trkpt><trkpt lat="44.98239953720808" lon="9.522202870528089"><ele>99.0</ele><time>2026-04-09T08:46:49.007Z</time></trkpt><trkpt lat="44.982324401810914" lon="9.522170305805922"><ele>99.0</ele><time>2026-04-09T08:46:51.007Z</time></trkpt><trkpt lat="44.98224737117727" lon="9.52213137885148"><ele>99.0</ele><time>2026-04-09T08:46:53.007Z</time></trkpt><trkpt lat="44.982169391394756" lon="9.52207994248983"><ele>99.0</ele><time>2026-04-09T08:46:55.007Z</time></trkpt><trkpt lat="44.98208665741175" lon="9.522028803507679"><ele>99.0</ele><time>2026-04-09T08:46:57.007Z</time></trkpt><trkpt lat="44.981994287183156" lon="9.521963499434444"><ele>99.0</ele><time>2026-04-09T08:46:59.007Z</time></trkpt><trkpt lat="44.98189845620057" lon="9.521901519344937"><ele>99.0</ele><time>2026-04-09T08:47:01.007Z</time></trkpt><trkpt lat="44.98179718671945" lon="9.521834786181314"><ele>99.0</ele><time>2026-04-09T08:47:03.007Z</time></trkpt><trkpt lat="44.98169346340889" lon="9.521782140815766"><ele>99.0</ele><time>2026-04-09T08:47:05.007Z</time></trkpt><trkpt lat="44.98158434124679" lon="9.521730981517313"><ele>99.28571428571429</ele><time>2026-04-09T08:47:07.007Z</time></trkpt><trkpt lat="44.98152079817409" lon="9.521726654689653"><ele>99.57142857142857</ele><time>2026-04-09T08:47:08.007Z</time></trkpt><trkpt lat="44.98145825275622" lon="9.521713670849694"><ele>99.85714285714286</ele><time>2026-04-09T08:47:09.007Z</time></trkpt><trkpt lat="44.981392744247515" lon="9.521714657054652"><ele>100.14285714285714</ele><time>2026-04-09T08:47:10.007Z</time></trkpt><trkpt lat="44.98132664376142" lon="9.521715042814739"><ele>100.42857142857142</ele><time>2026-04-09T08:47:11.007Z</time></trkpt><trkpt lat="44.981261146537555" lon="9.52172534703983"><ele>100.71428571428571</ele><time>2026-04-09T08:47:12.007Z</time></trkpt><trkpt lat="44.98119859976059" lon="9.521738586449725"><ele>101.0</ele><time>2026-04-09T08:47:13.007Z</time></trkpt><trkpt lat="44.98113145259198" lon="9.521751232747366"><ele>100.99999999999999</ele><time>2026-04-09T08:47:14.007Z</time></trkpt><trkpt lat="44.98101746506816" lon="9.521776241792658"><ele>101.0</ele><time>2026-04-09T08:47:16.007Z</time></trkpt><trkpt lat="44.98095503875202" lon="9.521792484766639"><ele>101.0</ele><time>2026-04-09T08:47:17.008Z</time></trkpt><trkpt lat="44.980891661001806" lon="9.52180900314479"><ele>101.0</ele><time>2026-04-09T08:47:18.008Z</time></trkpt><trkpt lat="44.98076420770056" lon="9.521843605246744"><ele>100.99999999999999</ele><time>2026-04-09T08:47:20.008Z</time></trkpt><trkpt lat="44.98069547625971" lon="9.521862964939697"><ele>101.0</ele><time>2026-04-09T08:47:21.007Z</time></trkpt><trkpt lat="44.980625986544446" lon="9.521880315197135"><ele>100.85714285714286</ele><time>2026-04-09T08:47:22.007Z</time></trkpt><trkpt lat="44.98055733920366" lon="9.521897565871882"><ele>100.71428571428571</ele><time>2026-04-09T08:47:23.008Z</time></trkpt><trkpt lat="44.98049132634516" lon="9.521918527324535"><ele>100.57142857142858</ele><time>2026-04-09T08:47:24.008Z</time></trkpt><trkpt lat="44.98042725877952" lon="9.521938393043902"><ele>100.42857142857143</ele><time>2026-04-09T08:47:25.008Z</time></trkpt><trkpt lat="44.98035920223307" lon="9.521965316318779"><ele>100.28571428571429</ele><time>2026-04-09T08:47:26.008Z</time></trkpt><trkpt lat="44.980287348494734" lon="9.521998979762424"><ele>100.14285714285715</ele><time>2026-04-09T08:47:27.008Z</time></trkpt><trkpt lat="44.98022069434993" lon="9.522038766801225"><ele>100.0</ele><time>2026-04-09T08:47:28.008Z</time></trkpt><trkpt lat="44.9801551454926" lon="9.522086306427086"><ele>100.28571428571429</ele><time>2026-04-09T08:47:29.008Z</time></trkpt><trkpt lat="44.98009521845942" lon="9.522137641634291"><ele>100.57142857142857</ele><time>2026-04-09T08:47:30.008Z</time></trkpt><trkpt lat="44.980031994757994" lon="9.522190286968737"><ele>100.85714285714286</ele><time>2026-04-09T08:47:31.008Z</time></trkpt><trkpt lat="44.979967094536164" lon="9.522241828170245"><ele>101.14285714285714</ele><time>2026-04-09T08:47:32.008Z</time></trkpt><trkpt lat="44.979903681618154" lon="9.522289282766721"><ele>101.42857142857143</ele><time>2026-04-09T08:47:33.008Z</time></trkpt><trkpt lat="44.97983888604459" lon="9.522332585615839"><ele>101.71428571428572</ele><time>2026-04-09T08:47:34.008Z</time></trkpt><trkpt lat="44.97977431063408" lon="9.522359111451678"><ele>102.0</ele><time>2026-04-09T08:47:35.008Z</time></trkpt><trkpt lat="44.979703104308314" lon="9.522388764972039"><ele>102.0</ele><time>2026-04-09T08:47:36.008Z</time></trkpt><trkpt lat="44.97963295911108" lon="9.52241521205919"><ele>102.0</ele><time>2026-04-09T08:47:37.008Z</time></trkpt><trkpt lat="44.97956592004593" lon="9.522429886427888"><ele>102.0</ele><time>2026-04-09T08:47:38.008Z</time></trkpt><trkpt lat="44.97949543338623" lon="9.5224456686851"><ele>102.0</ele><time>2026-04-09T08:47:39.008Z</time></trkpt><trkpt lat="44.97942984651164" lon="9.522458242914254"><ele>102.0</ele><time>2026-04-09T08:47:40.008Z</time></trkpt><trkpt lat="44.97936297433816" lon="9.52247037118773"><ele>102.0</ele><time>2026-04-09T08:47:41.008Z</time></trkpt><trkpt lat="44.979293509017594" lon="9.522489981953248"><ele>102.0</ele><time>2026-04-09T08:47:42.008Z</time></trkpt><trkpt lat="44.97922250804865" lon="9.522501672091472"><ele>101.71428571428572</ele><time>2026-04-09T08:47:43.008Z</time></trkpt><trkpt lat="44.979152366916075" lon="9.522507081325406"><ele>101.42857142857143</ele><time>2026-04-09T08:47:44.008Z</time></trkpt><trkpt lat="44.97908249404734" lon="9.522525214526194"><ele>101.14285714285714</ele><time>2026-04-09T08:47:45.008Z</time></trkpt><trkpt lat="44.97901569472452" lon="9.52253383264232"><ele>100.85714285714286</ele><time>2026-04-09T08:47:46.008Z</time></trkpt><trkpt lat="44.978949156473305" lon="9.522551083170155"><ele>100.57142857142857</ele><time>2026-04-09T08:47:47.008Z</time></trkpt><trkpt lat="44.97888192002053" lon="9.522565828774978"><ele>100.28571428571429</ele><time>2026-04-09T08:47:48.008Z</time></trkpt><trkpt lat="44.978816346923736" lon="9.52258118443361"><ele>100.0</ele><time>2026-04-09T08:47:49.008Z</time></trkpt><trkpt lat="44.978751055979096" lon="9.522588699537089"><ele>100.00000000000001</ele><time>2026-04-09T08:47:50.008Z</time></trkpt><trkpt lat="44.978685773109724" lon="9.522595498837681"><ele>100.0</ele><time>2026-04-09T08:47:51.008Z</time></trkpt><trkpt lat="44.978560926150486" lon="9.522615261620254"><ele>100.0</ele><time>2026-04-09T08:47:53.008Z</time></trkpt><trkpt lat="44.978492559729965" lon="9.522616900787082"><ele>100.0</ele><time>2026-04-09T08:47:54.008Z</time></trkpt><trkpt lat="44.97842543588803" lon="9.522613224436345"><ele>100.00000000000001</ele><time>2026-04-09T08:47:55.008Z</time></trkpt><trkpt lat="44.97836069812389" lon="9.522597512493148"><ele>100.0</ele><time>2026-04-09T08:47:56.008Z</time></trkpt><trkpt lat="44.97829336851481" lon="9.52258213481587"><ele>100.28571428571429</ele><time>2026-04-09T08:47:57.008Z</time></trkpt><trkpt lat="44.97822723882032" lon="9.522566223839378"><ele>100.57142857142857</ele><time>2026-04-09T08:47:58.008Z</time></trkpt><trkpt lat="44.978161180868184" lon="9.522543219203362"><ele>100.85714285714286</ele><time>2026-04-09T08:47:59.008Z</time></trkpt><trkpt lat="44.97809830457205" lon="9.52252192287537"><ele>101.14285714285714</ele><time>2026-04-09T08:48:00.008Z</time></trkpt><trkpt lat="44.978032362689795" lon="9.522507161785775"><ele>101.42857142857143</ele><time>2026-04-09T08:48:01.008Z</time></trkpt><trkpt lat="44.97796990491949" lon="9.522484298889374"><ele>101.71428571428572</ele><time>2026-04-09T08:48:02.008Z</time></trkpt><trkpt lat="44.977907531538" lon="9.522461304429754"><ele>102.0</ele><time>2026-04-09T08:48:03.008Z</time></trkpt><trkpt lat="44.97778828727296" lon="9.5224301067789"><ele>102.0</ele><time>2026-04-09T08:48:05.008Z</time></trkpt><trkpt lat="44.97772632317488" lon="9.522406109771767"><ele>102.0</ele><time>2026-04-09T08:48:06.008Z</time></trkpt><trkpt lat="44.97760953899265" lon="9.522368982475815"><ele>102.0</ele><time>2026-04-09T08:48:08.008Z</time></trkpt><trkpt lat="44.97749500711798" lon="9.52233079729162"><ele>102.0</ele><time>2026-04-09T08:48:10.008Z</time></trkpt><trkpt lat="44.97738664775959" lon="9.522300847567424"><ele>102.0</ele><time>2026-04-09T08:48:12.008Z</time></trkpt><trkpt lat="44.9772786395461" lon="9.522269578157642"><ele>102.19999999999999</ele><time>2026-04-09T08:48:14.008Z</time></trkpt><trkpt lat="44.97717499755264" lon="9.522234612878608"><ele>102.4</ele><time>2026-04-09T08:48:16.008Z</time></trkpt><trkpt lat="44.97706600122794" lon="9.522204558892843"><ele>102.6</ele><time>2026-04-09T08:48:18.008Z</time></trkpt><trkpt lat="44.97696734565719" lon="9.522175172101399"><ele>102.80000000000001</ele><time>2026-04-09T08:48:20.008Z</time></trkpt><trkpt lat="44.976860684544235" lon="9.52213694942285"><ele>103.0</ele><time>2026-04-09T08:48:22.008Z</time></trkpt><trkpt lat="44.97675930273397" lon="9.522106916854911"><ele>103.2</ele><time>2026-04-09T08:48:24.008Z</time></trkpt><trkpt lat="44.97666349582008" lon="9.52208344435998"><ele>103.4</ele><time>2026-04-09T08:48:26.008Z</time></trkpt><trkpt lat="44.97656971490258" lon="9.522046277222211"><ele>103.60000000000001</ele><time>2026-04-09T08:48:28.008Z</time></trkpt><trkpt lat="44.97646750303934" lon="9.52201946345697"><ele>103.80000000000001</ele><time>2026-04-09T08:48:30.008Z</time></trkpt><trkpt lat="44.976373946147035" lon="9.521990171326966"><ele>104.0</ele><time>2026-04-09T08:48:32.008Z</time></trkpt><trkpt lat="44.97627732519079" lon="9.521959792440072"><ele>104.0</ele><time>2026-04-09T08:48:34.008Z</time></trkpt><trkpt lat="44.97618064559496" lon="9.521929446038259"><ele>104.0</ele><time>2026-04-09T08:48:36.008Z</time></trkpt><trkpt lat="44.976083093838895" lon="9.521902890333353"><ele>104.0</ele><time>2026-04-09T08:48:38.008Z</time></trkpt><trkpt lat="44.975988558292364" lon="9.52187188077913"><ele>104.0</ele><time>2026-04-09T08:48:40.008Z</time></trkpt><trkpt lat="44.97588927717868" lon="9.521842654923386"><ele>104.0</ele><time>2026-04-09T08:48:42.008Z</time></trkpt><trkpt lat="44.9757882190807" lon="9.521809624036498"><ele>104.2</ele><time>2026-04-09T08:48:44.008Z</time></trkpt><trkpt lat="44.975689550506516" lon="9.521779421437719"><ele>104.4</ele><time>2026-04-09T08:48:46.008Z</time></trkpt><trkpt lat="44.975591086626544" lon="9.521749649345201"><ele>104.6</ele><time>2026-04-09T08:48:48.008Z</time></trkpt><trkpt lat="44.975491216772326" lon="9.52171841173944"><ele>104.8</ele><time>2026-04-09T08:48:50.008Z</time></trkpt><trkpt lat="44.975390149473036" lon="9.521687242222631"><ele>105.0</ele><time>2026-04-09T08:48:52.008Z</time></trkpt><trkpt lat="44.97529027107089" lon="9.521656905187902"><ele>105.0</ele><time>2026-04-09T08:48:54.008Z</time></trkpt><trkpt lat="44.975191751521265" lon="9.521632154062443"><ele>105.0</ele><time>2026-04-09T08:48:56.008Z</time></trkpt><trkpt lat="44.97509944272" lon="9.521590959668172"><ele>105.0</ele><time>2026-04-09T08:48:58.008Z</time></trkpt><trkpt lat="44.97504961838882" lon="9.52147281237587"><ele>105.0</ele><time>2026-04-09T08:49:00.008Z</time></trkpt><trkpt lat="44.975079100639945" lon="9.52134247251921"><ele>105.0</ele><time>2026-04-09T08:49:02.008Z</time></trkpt><trkpt lat="44.97511248367468" lon="9.521216840069943"><ele>105.4</ele><time>2026-04-09T08:49:04.008Z</time></trkpt><trkpt lat="44.97513745428416" lon="9.521084680210391"><ele>105.8</ele><time>2026-04-09T08:49:06.008Z</time></trkpt><trkpt lat="44.97516647389195" lon="9.520948243179808"><ele>106.19999999999999</ele><time>2026-04-09T08:49:08.008Z</time></trkpt><trkpt lat="44.97519167803047" lon="9.5208136407121"><ele>106.6</ele><time>2026-04-09T08:49:10.008Z</time></trkpt><trkpt lat="44.97521612955459" lon="9.520689437178483"><ele>107.0</ele><time>2026-04-09T08:49:12.008Z</time></trkpt><trkpt lat="44.97523495237711" lon="9.520567246588623"><ele>107.0</ele><time>2026-04-09T08:49:14.008Z</time></trkpt><trkpt lat="44.97525374037129" lon="9.520437650446576"><ele>106.99999999999999</ele><time>2026-04-09T08:49:16.008Z</time></trkpt><trkpt lat="44.97526191075854" lon="9.520284195817217"><ele>106.99999999999999</ele><time>2026-04-09T08:49:18.008Z</time></trkpt><trkpt lat="44.97526900261479" lon="9.520109622174475"><ele>107.0</ele><time>2026-04-09T08:49:20.008Z</time></trkpt><trkpt lat="44.975269086962875" lon="9.520015468631431"><ele>107.0</ele><time>2026-04-09T08:49:21.008Z</time></trkpt><trkpt lat="44.9752698900274" lon="9.51992349800146"><ele>106.85714285714286</ele><time>2026-04-09T08:49:22.008Z</time></trkpt><trkpt lat="44.975267112529274" lon="9.519830515766305"><ele>106.71428571428572</ele><time>2026-04-09T08:49:23.008Z</time></trkpt><trkpt lat="44.97526542504462" lon="9.519735737667418"><ele>106.57142857142858</ele><time>2026-04-09T08:49:24.008Z</time></trkpt><trkpt lat="44.97526207826039" lon="9.519641023483647"><ele>106.42857142857143</ele><time>2026-04-09T08:49:25.008Z</time></trkpt><trkpt lat="44.9752599770953" lon="9.519540564337458"><ele>106.28571428571428</ele><time>2026-04-09T08:49:26.009Z</time></trkpt><trkpt lat="44.975257583617925" lon="9.519443567112912"><ele>106.14285714285715</ele><time>2026-04-09T08:49:27.008Z</time></trkpt><trkpt lat="44.97525322189953" lon="9.51934478428472"><ele>106.0</ele><time>2026-04-09T08:49:28.008Z</time></trkpt><trkpt lat="44.97525525991518" lon="9.519252556321147"><ele>106.0</ele><time>2026-04-09T08:49:29.008Z</time></trkpt><trkpt lat="44.97525366855278" lon="9.519151991259294"><ele>106.0</ele><time>2026-04-09T08:49:30.008Z</time></trkpt><trkpt lat="44.97525669040988" lon="9.519056568454898"><ele>106.0</ele><time>2026-04-09T08:49:31.008Z</time></trkpt><trkpt lat="44.97525878063077" lon="9.518957451031659"><ele>106.0</ele><time>2026-04-09T08:49:32.008Z</time></trkpt><trkpt lat="44.97526049113733" lon="9.518860945968397"><ele>106.0</ele><time>2026-04-09T08:49:33.008Z</time></trkpt><trkpt lat="44.97526268837804" lon="9.518764918308413"><ele>106.0</ele><time>2026-04-09T08:49:34.008Z</time></trkpt><trkpt lat="44.97526332768567" lon="9.518667691285195"><ele>106.0</ele><time>2026-04-09T08:49:35.008Z</time></trkpt><trkpt lat="44.975268376164536" lon="9.518570247831608"><ele>106.00000000000001</ele><time>2026-04-09T08:49:36.008Z</time></trkpt><trkpt lat="44.97527132309075" lon="9.518476641669727"><ele>106.0</ele><time>2026-04-09T08:49:37.008Z</time></trkpt><trkpt lat="44.975275661367604" lon="9.518382456942664"><ele>106.0</ele><time>2026-04-09T08:49:38.008Z</time></trkpt><trkpt lat="44.97528061789719" lon="9.51829116633956"><ele>106.0</ele><time>2026-04-09T08:49:39.008Z</time></trkpt><trkpt lat="44.975286731369565" lon="9.518118044504206"><ele>106.00000000000001</ele><time>2026-04-09T08:49:41.008Z</time></trkpt><trkpt lat="44.97530091710738" lon="9.517939488986794"><ele>106.0</ele><time>2026-04-09T08:49:43.008Z</time></trkpt><trkpt lat="44.97530814436347" lon="9.517844758299681"><ele>105.85714285714286</ele><time>2026-04-09T08:49:44.008Z</time></trkpt><trkpt lat="44.97530670226752" lon="9.51775490095733"><ele>105.71428571428571</ele><time>2026-04-09T08:49:45.008Z</time></trkpt><trkpt lat="44.97530864607237" lon="9.517660321653407"><ele>105.57142857142857</ele><time>2026-04-09T08:49:46.008Z</time></trkpt><trkpt lat="44.97531089315523" lon="9.517563450434098"><ele>105.42857142857143</ele><time>2026-04-09T08:49:47.008Z</time></trkpt><trkpt lat="44.97531015978342" lon="9.517473189666237"><ele>105.28571428571428</ele><time>2026-04-09T08:49:48.008Z</time></trkpt><trkpt lat="44.9753145371858" lon="9.517376201757546"><ele>105.14285714285714</ele><time>2026-04-09T08:49:49.008Z</time></trkpt><trkpt lat="44.97531721766477" lon="9.517281012120872"><ele>105.0</ele><time>2026-04-09T08:49:50.008Z</time></trkpt><trkpt lat="44.97531639663091" lon="9.517188420198496"><ele>105.0</ele><time>2026-04-09T08:49:51.008Z</time></trkpt><trkpt lat="44.975317791880116" lon="9.517096444302894"><ele>105.0</ele><time>2026-04-09T08:49:52.008Z</time></trkpt><trkpt lat="44.97531584741029" lon="9.516916070918104"><ele>105.0</ele><time>2026-04-09T08:49:54.008Z</time></trkpt><trkpt lat="44.97531494218954" lon="9.516748170480408"><ele>105.0</ele><time>2026-04-09T08:49:56.008Z</time></trkpt><trkpt lat="44.975311999245704" lon="9.516588323058745"><ele>105.0</ele><time>2026-04-09T08:49:58.008Z</time></trkpt><trkpt lat="44.97530769063461" lon="9.516436767381748"><ele>105.4</ele><time>2026-04-09T08:50:00.008Z</time></trkpt><trkpt lat="44.9752979286916" lon="9.516295437880256"><ele>105.8</ele><time>2026-04-09T08:50:02.008Z</time></trkpt><trkpt lat="44.97529319919768" lon="9.516157804020294"><ele>106.19999999999999</ele><time>2026-04-09T08:50:04.008Z</time></trkpt><trkpt lat="44.97528103295137" lon="9.516027256941939"><ele>106.6</ele><time>2026-04-09T08:50:06.008Z</time></trkpt><trkpt lat="44.975264519095084" lon="9.515895651273919"><ele>107.0</ele><time>2026-04-09T08:50:08.008Z</time></trkpt><trkpt lat="44.97524434634939" lon="9.515769909451121"><ele>107.39999999999999</ele><time>2026-04-09T08:50:10.008Z</time></trkpt><trkpt lat="44.97521004418091" lon="9.515652417565777"><ele>107.79999999999998</ele><time>2026-04-09T08:50:12.008Z</time></trkpt><trkpt lat="44.97516715615241" lon="9.515528079574755"><ele>108.2</ele><time>2026-04-09T08:50:14.008Z</time></trkpt><trkpt lat="44.975130111321434" lon="9.515406137291045"><ele>108.6</ele><time>2026-04-09T08:50:16.008Z</time></trkpt><trkpt lat="44.97508158207563" lon="9.515275618254547"><ele>109.0</ele><time>2026-04-09T08:50:18.008Z</time></trkpt><trkpt lat="44.97502717537979" lon="9.515145917941442"><ele>110.2</ele><time>2026-04-09T08:50:20.008Z</time></trkpt><trkpt lat="44.97498140315954" lon="9.515020208059582"><ele>111.4</ele><time>2026-04-09T08:50:22.008Z</time></trkpt><trkpt lat="44.974929797768745" lon="9.514889227128359"><ele>112.6</ele><time>2026-04-09T08:50:24.008Z</time></trkpt><trkpt lat="44.97488244962089" lon="9.514765480968185"><ele>113.8</ele><time>2026-04-09T08:50:26.008Z</time></trkpt><trkpt lat="44.9748323245923" lon="9.514647925435648"><ele>115.0</ele><time>2026-04-09T08:50:28.008Z</time></trkpt><trkpt lat="44.97478695440024" lon="9.51453111254266"><ele>116.00000000000001</ele><time>2026-04-09T08:50:30.008Z</time></trkpt><trkpt lat="44.97474510721669" lon="9.514394982348133"><ele>117.0</ele><time>2026-04-09T08:50:32.008Z</time></trkpt><trkpt lat="44.974688347930226" lon="9.514267450057302"><ele>118.0</ele><time>2026-04-09T08:50:34.008Z</time></trkpt><trkpt lat="44.97464888756546" lon="9.514170713281972"><ele>119.0</ele><time>2026-04-09T08:50:36.008Z</time></trkpt><trkpt lat="44.97462113075446" lon="9.514084292884064"><ele>120.00000000000001</ele><time>2026-04-09T08:50:38.008Z</time></trkpt><trkpt lat="44.974581926663376" lon="9.51396973915152"><ele>121.0</ele><time>2026-04-09T08:50:41.008Z</time></trkpt><trkpt lat="44.9745461258933" lon="9.513863714380772"><ele>121.0</ele><time>2026-04-09T08:50:44.008Z</time></trkpt><trkpt lat="44.97450099262698" lon="9.51376218331876"><ele>120.99999999999999</ele><time>2026-04-09T08:50:47.008Z</time></trkpt><trkpt lat="44.97447169357786" lon="9.513674459682301"><ele>121.0</ele><time>2026-04-09T08:50:50.008Z</time></trkpt><trkpt lat="44.97443572967637" lon="9.513585654944187"><ele>121.0</ele><time>2026-04-09T08:50:53.008Z</time></trkpt><trkpt lat="44.97440569803733" lon="9.513501677554682"><ele>120.99999999999999</ele><time>2026-04-09T08:50:56.008Z</time></trkpt><trkpt lat="44.97437617538027" lon="9.513417588019959"><ele>121.0</ele><time>2026-04-09T08:50:59.008Z</time></trkpt><trkpt lat="44.97434272123956" lon="9.513325210391079"><ele>121.0</ele><time>2026-04-09T08:51:02.008Z</time></trkpt><trkpt lat="44.97431597300403" lon="9.5132386333983"><ele>121.50000000000001</ele><time>2026-04-09T08:51:05.008Z</time></trkpt><trkpt lat="44.97428938742085" lon="9.513148386464147"><ele>122.0</ele><time>2026-04-09T08:51:08.008Z</time></trkpt><trkpt lat="44.97426709306733" lon="9.513043698992368"><ele>122.5</ele><time>2026-04-09T08:51:11.008Z</time></trkpt><trkpt lat="44.97424855554506" lon="9.51293187813395"><ele>123.0</ele><time>2026-04-09T08:51:14.008Z</time></trkpt><trkpt lat="44.97423236639497" lon="9.512812837686377"><ele>123.50000000000001</ele><time>2026-04-09T08:51:17.008Z</time></trkpt><trkpt lat="44.97421867032252" lon="9.512690059615132"><ele>124.0</ele><time>2026-04-09T08:51:20.008Z</time></trkpt><trkpt lat="44.97421171299196" lon="9.512570097212917"><ele>124.33333333333334</ele><time>2026-04-09T08:51:23.008Z</time></trkpt><trkpt lat="44.974208026810864" lon="9.512440851082605"><ele>124.66666666666667</ele><time>2026-04-09T08:51:26.008Z</time></trkpt><trkpt lat="44.97420747476549" lon="9.512317441442285"><ele>125.0</ele><time>2026-04-09T08:51:29.008Z</time></trkpt><trkpt lat="44.97420399288628" lon="9.512194364345014"><ele>125.33333333333334</ele><time>2026-04-09T08:51:32.009Z</time></trkpt><trkpt lat="44.97419444539104" lon="9.512082125184756"><ele>125.66666666666667</ele><time>2026-04-09T08:51:35.009Z</time></trkpt><trkpt lat="44.974196434716674" lon="9.511960887425097"><ele>126.0</ele><time>2026-04-09T08:51:38.009Z</time></trkpt><trkpt lat="44.97419836519986" lon="9.511828530164726"><ele>126.5</ele><time>2026-04-09T08:51:41.009Z</time></trkpt><trkpt lat="44.97419219607781" lon="9.511695577391997"><ele>127.0</ele><time>2026-04-09T08:51:44.009Z</time></trkpt><trkpt lat="44.97418631938673" lon="9.511596162351275"><ele>127.5</ele><time>2026-04-09T08:51:46.009Z</time></trkpt><trkpt lat="44.97418500362407" lon="9.51149671250853"><ele>128.0</ele><time>2026-04-09T08:51:48.009Z</time></trkpt><trkpt lat="44.97418343166737" lon="9.51139256964398"><ele>128.5</ele><time>2026-04-09T08:51:50.009Z</time></trkpt><trkpt lat="44.97418061553277" lon="9.511293884021805"><ele>129.0</ele><time>2026-04-09T08:51:52.009Z</time></trkpt><trkpt lat="44.97417589097349" lon="9.511191768798007"><ele>129.16666666666666</ele><time>2026-04-09T08:51:54.009Z</time></trkpt><trkpt lat="44.97417896359174" lon="9.511084308331858"><ele>129.33333333333334</ele><time>2026-04-09T08:51:56.009Z</time></trkpt><trkpt lat="44.97417603800476" lon="9.51096404960836"><ele>129.5</ele><time>2026-04-09T08:51:58.009Z</time></trkpt><trkpt lat="44.97417835973283" lon="9.51085127215796"><ele>129.66666666666669</ele><time>2026-04-09T08:52:00.009Z</time></trkpt><trkpt lat="44.97417911348802" lon="9.510731461786278"><ele>129.83333333333334</ele><time>2026-04-09T08:52:02.009Z</time></trkpt><trkpt lat="44.97417779218884" lon="9.510613945575509"><ele>130.0</ele><time>2026-04-09T08:52:04.009Z</time></trkpt><trkpt lat="44.974168884445106" lon="9.51051479715062"><ele>130.5</ele><time>2026-04-09T08:52:06.009Z</time></trkpt><trkpt lat="44.97416803492895" lon="9.510407901912178"><ele>131.0</ele><time>2026-04-09T08:52:08.009Z</time></trkpt><trkpt lat="44.97415847745669" lon="9.51030633588124"><ele>131.5</ele><time>2026-04-09T08:52:10.009Z</time></trkpt><trkpt lat="44.97415208467098" lon="9.510216555189912"><ele>132.0</ele><time>2026-04-09T08:52:12.009Z</time></trkpt><trkpt lat="44.974148419847154" lon="9.51009477203328"><ele>132.5</ele><time>2026-04-09T08:52:14.009Z</time></trkpt><trkpt lat="44.974149586074276" lon="9.509990346237547"><ele>133.0</ele><time>2026-04-09T08:52:16.009Z</time></trkpt><trkpt lat="44.97415535685556" lon="9.509864905279542"><ele>133.0</ele><time>2026-04-09T08:52:18.009Z</time></trkpt><trkpt lat="44.974156275275625" lon="9.509755267529034"><ele>133.0</ele><time>2026-04-09T08:52:20.009Z</time></trkpt><trkpt lat="44.97414434241721" lon="9.509617702173625"><ele>133.0</ele><time>2026-04-09T08:52:22.009Z</time></trkpt><trkpt lat="44.97415044821805" lon="9.509502398225706"><ele>133.0</ele><time>2026-04-09T08:52:24.009Z</time></trkpt><trkpt lat="44.974158077060956" lon="9.50937064326361"><ele>133.0</ele><time>2026-04-09T08:52:26.009Z</time></trkpt><trkpt lat="44.97416264231493" lon="9.509234555409412"><ele>133.0</ele><time>2026-04-09T08:52:28.009Z</time></trkpt><trkpt lat="44.97415929338929" lon="9.509102800438702"><ele>133.0</ele><time>2026-04-09T08:52:30.009Z</time></trkpt><trkpt lat="44.974160513817885" lon="9.50898337458424"><ele>133.0</ele><time>2026-04-09T08:52:32.009Z</time></trkpt><trkpt lat="44.974174548004065" lon="9.508877326365637"><ele>133.0</ele><time>2026-04-09T08:52:34.009Z</time></trkpt><trkpt lat="44.97418116249854" lon="9.508739987800848"><ele>133.0</ele><time>2026-04-09T08:52:37.009Z</time></trkpt><trkpt lat="44.97425443574162" lon="9.508682980762273"><ele>133.0</ele><time>2026-04-09T08:52:39.009Z</time></trkpt><trkpt lat="44.974328229502916" lon="9.508626540206487"><ele>133.0</ele><time>2026-04-09T08:52:41.009Z</time></trkpt><trkpt lat="44.974405609433425" lon="9.508540806920438"><ele>133.0</ele><time>2026-04-09T08:52:43.009Z</time></trkpt><trkpt lat="44.97450119198666" lon="9.508473351745254"><ele>133.0</ele><time>2026-04-09T08:52:45.009Z</time></trkpt><trkpt lat="44.974563156097425" lon="9.508454076653862"><ele>133.0</ele><time>2026-04-09T08:52:46.009Z</time></trkpt><trkpt lat="44.9746723296805" lon="9.508428639434408"><ele>133.0</ele><time>2026-04-09T08:52:48.009Z</time></trkpt><trkpt lat="44.97478551801637" lon="9.508414517598617"><ele>133.0</ele><time>2026-04-09T08:52:50.009Z</time></trkpt><trkpt lat="44.97484956295734" lon="9.508410211801047"><ele>133.0</ele><time>2026-04-09T08:52:51.009Z</time></trkpt><trkpt lat="44.97491379063267" lon="9.508408871495075"><ele>133.0</ele><time>2026-04-09T08:52:52.009Z</time></trkpt><trkpt lat="44.974984673202506" lon="9.508396486154137"><ele>133.0</ele><time>2026-04-09T08:52:53.009Z</time></trkpt><trkpt lat="44.975067841842865" lon="9.508418757099367"><ele>133.0</ele><time>2026-04-09T08:52:54.009Z</time></trkpt><trkpt lat="44.975198422697595" lon="9.5084478734386"><ele>133.0</ele><time>2026-04-09T08:52:56.009Z</time></trkpt><trkpt lat="44.975273056526234" lon="9.508475301866843"><ele>133.0</ele><time>2026-04-09T08:52:57.009Z</time></trkpt><trkpt lat="44.97533725968791" lon="9.508497806374546"><ele>132.5</ele><time>2026-04-09T08:52:58.009Z</time></trkpt><trkpt lat="44.97539888838289" lon="9.508520440973074"><ele>132.0</ele><time>2026-04-09T08:52:59.009Z</time></trkpt><trkpt lat="44.97547071295876" lon="9.508552831662913"><ele>131.5</ele><time>2026-04-09T08:53:00.009Z</time></trkpt><trkpt lat="44.97553620911097" lon="9.508572559743437"><ele>131.0</ele><time>2026-04-09T08:53:01.009Z</time></trkpt><trkpt lat="44.975666445361036" lon="9.508631679122985"><ele>130.5</ele><time>2026-04-09T08:53:03.009Z</time></trkpt><trkpt lat="44.975727948176214" lon="9.50866264370092"><ele>130.0</ele><time>2026-04-09T08:53:04.009Z</time></trkpt><trkpt lat="44.97583949114732" lon="9.508744557628924"><ele>129.66666666666669</ele><time>2026-04-09T08:53:06.009Z</time></trkpt><trkpt lat="44.975956619518065" lon="9.508818074295476"><ele>129.33333333333334</ele><time>2026-04-09T08:53:08.009Z</time></trkpt><trkpt lat="44.97601976301516" lon="9.508849467456232"><ele>129.0</ele><time>2026-04-09T08:53:09.009Z</time></trkpt><trkpt lat="44.97607523698335" lon="9.508897592730216"><ele>128.66666666666666</ele><time>2026-04-09T08:53:10.009Z</time></trkpt><trkpt lat="44.976139989371205" lon="9.508934302076208"><ele>128.33333333333331</ele><time>2026-04-09T08:53:11.009Z</time></trkpt><trkpt lat="44.97619880382091" lon="9.508997688780969"><ele>128.0</ele><time>2026-04-09T08:53:12.009Z</time></trkpt><trkpt lat="44.97626866595997" lon="9.509052270529674"><ele>127.99999999999999</ele><time>2026-04-09T08:53:13.009Z</time></trkpt><trkpt lat="44.97633939445339" lon="9.509093219468113"><ele>128.0</ele><time>2026-04-09T08:53:14.009Z</time></trkpt><trkpt lat="44.97641250412615" lon="9.50913590682787"><ele>128.0</ele><time>2026-04-09T08:53:15.009Z</time></trkpt><trkpt lat="44.97647798820895" lon="9.509193396223777"><ele>128.0</ele><time>2026-04-09T08:53:16.009Z</time></trkpt><trkpt lat="44.976546569340755" lon="9.509229834747757"><ele>127.99999999999999</ele><time>2026-04-09T08:53:17.009Z</time></trkpt><trkpt lat="44.97661700514279" lon="9.509276304542086"><ele>128.0</ele><time>2026-04-09T08:53:18.009Z</time></trkpt><trkpt lat="44.97668674691697" lon="9.509326571016606"><ele>127.66666666666666</ele><time>2026-04-09T08:53:19.009Z</time></trkpt><trkpt lat="44.97675934367096" lon="9.509381363171242"><ele>127.33333333333333</ele><time>2026-04-09T08:53:20.009Z</time></trkpt><trkpt lat="44.97683255292191" lon="9.509423021078502"><ele>127.0</ele><time>2026-04-09T08:53:21.009Z</time></trkpt><trkpt lat="44.97691152067618" lon="9.509460922746557"><ele>126.66666666666666</ele><time>2026-04-09T08:53:22.009Z</time></trkpt><trkpt lat="44.976985207619336" lon="9.50949826556775"><ele>126.33333333333333</ele><time>2026-04-09T08:53:23.009Z</time></trkpt><trkpt lat="44.977060550025605" lon="9.50953970937298"><ele>126.0</ele><time>2026-04-09T08:53:24.009Z</time></trkpt><trkpt lat="44.97713740758964" lon="9.509582898826942"><ele>125.5</ele><time>2026-04-09T08:53:25.009Z</time></trkpt><trkpt lat="44.97720407348046" lon="9.509634681666476"><ele>125.0</ele><time>2026-04-09T08:53:26.009Z</time></trkpt><trkpt lat="44.97727491754916" lon="9.509670879379716"><ele>124.5</ele><time>2026-04-09T08:53:27.009Z</time></trkpt><trkpt lat="44.97735152825293" lon="9.509714982597034"><ele>124.0</ele><time>2026-04-09T08:53:28.009Z</time></trkpt><trkpt lat="44.97742469383732" lon="9.50974975845279"><ele>123.5</ele><time>2026-04-09T08:53:29.009Z</time></trkpt><trkpt lat="44.97749937907237" lon="9.509791713620968"><ele>123.0</ele><time>2026-04-09T08:53:30.009Z</time></trkpt><trkpt lat="44.97757500023629" lon="9.509833879131785"><ele>123.0</ele><time>2026-04-09T08:53:31.009Z</time></trkpt><trkpt lat="44.977646418969044" lon="9.509868717278627"><ele>123.0</ele><time>2026-04-09T08:53:32.009Z</time></trkpt><trkpt lat="44.977722894008984" lon="9.5099066570373"><ele>123.0</ele><time>2026-04-09T08:53:33.009Z</time></trkpt><trkpt lat="44.97780366248272" lon="9.509942986507848"><ele>123.0</ele><time>2026-04-09T08:53:34.009Z</time></trkpt><trkpt lat="44.977879170543815" lon="9.509971464255855"><ele>123.0</ele><time>2026-04-09T08:53:35.009Z</time></trkpt><trkpt lat="44.97795916603382" lon="9.509998960305373"><ele>123.0</ele><time>2026-04-09T08:53:36.009Z</time></trkpt><trkpt lat="44.978033695761425" lon="9.510023127158632"><ele>123.00000000000001</ele><time>2026-04-09T08:53:37.009Z</time></trkpt><trkpt lat="44.978106494590456" lon="9.510049701019446"><ele>123.0</ele><time>2026-04-09T08:53:38.01Z</time></trkpt><trkpt lat="44.978179195774" lon="9.510080881311849"><ele>123.00000000000001</ele><time>2026-04-09T08:53:39.009Z</time></trkpt><trkpt lat="44.97825152733347" lon="9.510110264919236"><ele>123.00000000000001</ele><time>2026-04-09T08:53:40.009Z</time></trkpt><trkpt lat="44.978320001429594" lon="9.510132867488183"><ele>123.0</ele><time>2026-04-09T08:53:41.01Z</time></trkpt><trkpt lat="44.978389777525024" lon="9.51015752139337"><ele>123.00000000000001</ele><time>2026-04-09T08:53:42.009Z</time></trkpt><trkpt lat="44.97846172878644" lon="9.51017490949538"><ele>123.00000000000001</ele><time>2026-04-09T08:53:43.009Z</time></trkpt><trkpt lat="44.978526696076855" lon="9.510201636435463"><ele>122.83333333333333</ele><time>2026-04-09T08:53:44.009Z</time></trkpt><trkpt lat="44.97859670091793" lon="9.510217575835828"><ele>122.66666666666666</ele><time>2026-04-09T08:53:45.009Z</time></trkpt><trkpt lat="44.978648574827616" lon="9.510160365071002"><ele>122.5</ele><time>2026-04-09T08:53:46.009Z</time></trkpt><trkpt lat="44.97867654813863" lon="9.510070739219726"><ele>122.33333333333333</ele><time>2026-04-09T08:53:47.01Z</time></trkpt><trkpt lat="44.97868986370813" lon="9.509973259595215"><ele>122.16666666666666</ele><time>2026-04-09T08:53:48.009Z</time></trkpt><trkpt lat="44.97869949507037" lon="9.509882426851592"><ele>122.0</ele><time>2026-04-09T08:53:49.009Z</time></trkpt><trkpt lat="44.97874475698926" lon="9.50971775534069"><ele>121.99999999999999</ele><time>2026-04-09T08:53:51.009Z</time></trkpt><trkpt lat="44.97877169516779" lon="9.509634955966591"><ele>122.0</ele><time>2026-04-09T08:53:52.009Z</time></trkpt><trkpt lat="44.97881384578073" lon="9.509469671240272"><ele>122.0</ele><time>2026-04-09T08:53:54.009Z</time></trkpt><trkpt lat="44.97884061439573" lon="9.509374048098628"><ele>122.0</ele><time>2026-04-09T08:53:55.009Z</time></trkpt><trkpt lat="44.97886656338036" lon="9.509277078357002"><ele>121.99999999999999</ele><time>2026-04-09T08:53:56.009Z</time></trkpt><trkpt lat="44.97890272415505" lon="9.509186800857327"><ele>122.0</ele><time>2026-04-09T08:53:57.009Z</time></trkpt><trkpt lat="44.97896483270073" lon="9.5091176103095"><ele>121.83333333333333</ele><time>2026-04-09T08:53:58.009Z</time></trkpt><trkpt lat="44.97904281410422" lon="9.509095784283028"><ele>121.66666666666666</ele><time>2026-04-09T08:53:59.009Z</time></trkpt><trkpt lat="44.979120855777346" lon="9.509100666766413"><ele>121.5</ele><time>2026-04-09T08:54:00.009Z</time></trkpt><trkpt lat="44.97919102526949" lon="9.509126573347825"><ele>121.33333333333334</ele><time>2026-04-09T08:54:01.009Z</time></trkpt><trkpt lat="44.979270795138966" lon="9.50913930473277"><ele>121.16666666666667</ele><time>2026-04-09T08:54:02.009Z</time></trkpt><trkpt lat="44.97934956416364" lon="9.509151182542096"><ele>121.0</ele><time>2026-04-09T08:54:03.009Z</time></trkpt><trkpt lat="44.97942699534776" lon="9.509167004486526"><ele>120.66666666666667</ele><time>2026-04-09T08:54:04.009Z</time></trkpt><trkpt lat="44.979506157107764" lon="9.509184269808442"><ele>120.33333333333334</ele><time>2026-04-09T08:54:05.009Z</time></trkpt><trkpt lat="44.979587998426105" lon="9.50920123413973"><ele>120.0</ele><time>2026-04-09T08:54:06.009Z</time></trkpt><trkpt lat="44.97966535996068" lon="9.509218442607127"><ele>119.66666666666666</ele><time>2026-04-09T08:54:07.009Z</time></trkpt><trkpt lat="44.97974536791722" lon="9.5092318932198"><ele>119.33333333333333</ele><time>2026-04-09T08:54:08.009Z</time></trkpt><trkpt lat="44.97982879003328" lon="9.509244010053283"><ele>119.0</ele><time>2026-04-09T08:54:09.009Z</time></trkpt><trkpt lat="44.97990586078575" lon="9.509253644737054"><ele>118.99999999999999</ele><time>2026-04-09T08:54:10.009Z</time></trkpt><trkpt lat="44.97998709002165" lon="9.50926669039012"><ele>119.0</ele><time>2026-04-09T08:54:11.009Z</time></trkpt><trkpt lat="44.98006455040584" lon="9.509280366303908"><ele>119.0</ele><time>2026-04-09T08:54:12.009Z</time></trkpt><trkpt lat="44.98014561379338" lon="9.509292801897477"><ele>119.0</ele><time>2026-04-09T08:54:13.009Z</time></trkpt><trkpt lat="44.98022627747944" lon="9.509303242998953"><ele>118.99999999999999</ele><time>2026-04-09T08:54:14.009Z</time></trkpt><trkpt lat="44.980312716254055" lon="9.50931126807332"><ele>119.0</ele><time>2026-04-09T08:54:15.009Z</time></trkpt><trkpt lat="44.98038870181103" lon="9.509321312465987"><ele>118.83333333333333</ele><time>2026-04-09T08:54:16.009Z</time></trkpt><trkpt lat="44.98047388233534" lon="9.509318017096822"><ele>118.66666666666666</ele><time>2026-04-09T08:54:17.009Z</time></trkpt><trkpt lat="44.98055181459961" lon="9.509335328453425"><ele>118.5</ele><time>2026-04-09T08:54:18.009Z</time></trkpt><trkpt lat="44.98062587002218" lon="9.509354884438995"><ele>118.33333333333334</ele><time>2026-04-09T08:54:19.009Z</time></trkpt><trkpt lat="44.98070997307235" lon="9.509376939551062"><ele>118.16666666666667</ele><time>2026-04-09T08:54:20.009Z</time></trkpt><trkpt lat="44.98079215209742" lon="9.509400083339758"><ele>118.0</ele><time>2026-04-09T08:54:21.009Z</time></trkpt><trkpt lat="44.980874970966354" lon="9.509424519002906"><ele>117.66666666666667</ele><time>2026-04-09T08:54:22.009Z</time></trkpt><trkpt lat="44.98095680213873" lon="9.50944741883562"><ele>117.33333333333334</ele><time>2026-04-09T08:54:23.009Z</time></trkpt><trkpt lat="44.98104026759722" lon="9.509472715018047"><ele>117.0</ele><time>2026-04-09T08:54:24.009Z</time></trkpt><trkpt lat="44.98111942086873" lon="9.509489702530047"><ele>116.66666666666666</ele><time>2026-04-09T08:54:25.009Z</time></trkpt><trkpt lat="44.98120220935877" lon="9.509514895530875"><ele>116.33333333333333</ele><time>2026-04-09T08:54:26.009Z</time></trkpt><trkpt lat="44.98128555595762" lon="9.509536876211708"><ele>116.0</ele><time>2026-04-09T08:54:27.009Z</time></trkpt><trkpt lat="44.9813661515887" lon="9.5095567994688"><ele>115.99999999999999</ele><time>2026-04-09T08:54:28.009Z</time></trkpt><trkpt lat="44.98145247443573" lon="9.509580396886026"><ele>116.0</ele><time>2026-04-09T08:54:29.009Z</time></trkpt><trkpt lat="44.98153717182763" lon="9.509601458438606"><ele>116.0</ele><time>2026-04-09T08:54:30.009Z</time></trkpt><trkpt lat="44.98161945396191" lon="9.509615845937239"><ele>116.0</ele><time>2026-04-09T08:54:31.009Z</time></trkpt><trkpt lat="44.98170521296662" lon="9.509625282626486"><ele>115.99999999999999</ele><time>2026-04-09T08:54:32.009Z</time></trkpt><trkpt lat="44.98179040824395" lon="9.509637430701861"><ele>116.0</ele><time>2026-04-09T08:54:33.009Z</time></trkpt><trkpt lat="44.98187473546883" lon="9.509656936150094"><ele>115.99999999999999</ele><time>2026-04-09T08:54:34.009Z</time></trkpt><trkpt lat="44.981959412461194" lon="9.509664733696326"><ele>116.0</ele><time>2026-04-09T08:54:35.009Z</time></trkpt><trkpt lat="44.98204193021239" lon="9.509688450830016"><ele>116.0</ele><time>2026-04-09T08:54:36.009Z</time></trkpt><trkpt lat="44.98212926407837" lon="9.509700227220558"><ele>116.0</ele><time>2026-04-09T08:54:37.009Z</time></trkpt><trkpt lat="44.982207882328574" lon="9.50970608163125"><ele>115.99999999999999</ele><time>2026-04-09T08:54:38.009Z</time></trkpt><trkpt lat="44.9822886306611" lon="9.509720831617587"><ele>116.0</ele><time>2026-04-09T08:54:39.009Z</time></trkpt><trkpt lat="44.98236352595011" lon="9.509723291036053"><ele>116.00000000000001</ele><time>2026-04-09T08:54:40.009Z</time></trkpt><trkpt lat="44.9824418426237" lon="9.509718454137998"><ele>116.0</ele><time>2026-04-09T08:54:41.009Z</time></trkpt><trkpt lat="44.98252115082115" lon="9.50971423272183"><ele>116.00000000000001</ele><time>2026-04-09T08:54:42.009Z</time></trkpt><trkpt lat="44.9825897002524" lon="9.509710513861595"><ele>116.00000000000001</ele><time>2026-04-09T08:54:43.009Z</time></trkpt><trkpt lat="44.9826692868232" lon="9.5097117181106"><ele>116.0</ele><time>2026-04-09T08:54:44.009Z</time></trkpt><trkpt lat="44.98274134647509" lon="9.509704182177328"><ele>116.00000000000001</ele><time>2026-04-09T08:54:45.009Z</time></trkpt><trkpt lat="44.98280912388539" lon="9.509694163436285"><ele>116.00000000000001</ele><time>2026-04-09T08:54:46.009Z</time></trkpt><trkpt lat="44.982889171293756" lon="9.50969411770138"><ele>115.33333333333333</ele><time>2026-04-09T08:54:47.009Z</time></trkpt><trkpt lat="44.982967084663564" lon="9.509698486173825"><ele>114.66666666666666</ele><time>2026-04-09T08:54:48.009Z</time></trkpt><trkpt lat="44.98304906047893" lon="9.509715547822083"><ele>114.0</ele><time>2026-04-09T08:54:49.009Z</time></trkpt><trkpt lat="44.983114449375364" lon="9.509742923145366"><ele>113.33333333333334</ele><time>2026-04-09T08:54:50.009Z</time></trkpt><trkpt lat="44.98318960896067" lon="9.509763708611958"><ele>112.66666666666667</ele><time>2026-04-09T08:54:51.009Z</time></trkpt><trkpt lat="44.98326824714554" lon="9.50978960407158"><ele>112.0</ele><time>2026-04-09T08:54:52.009Z</time></trkpt><trkpt lat="44.983348039110744" lon="9.509815631138233"><ele>111.83333333333334</ele><time>2026-04-09T08:54:53.009Z</time></trkpt><trkpt lat="44.98343038449379" lon="9.50983936582003"><ele>111.66666666666667</ele><time>2026-04-09T08:54:54.009Z</time></trkpt><trkpt lat="44.98350505574653" lon="9.509866360890745"><ele>111.5</ele><time>2026-04-09T08:54:55.009Z</time></trkpt><trkpt lat="44.98358609878078" lon="9.509892084343939"><ele>111.33333333333334</ele><time>2026-04-09T08:54:56.009Z</time></trkpt><trkpt lat="44.9836632527618" lon="9.50991730724551"><ele>111.16666666666667</ele><time>2026-04-09T08:54:57.009Z</time></trkpt><trkpt lat="44.983743080005645" lon="9.50993492772651"><ele>111.0</ele><time>2026-04-09T08:54:58.009Z</time></trkpt><trkpt lat="44.983828860091684" lon="9.509964220623058"><ele>111.0</ele><time>2026-04-09T08:54:59.009Z</time></trkpt><trkpt lat="44.983903500027424" lon="9.50999416938087"><ele>111.0</ele><time>2026-04-09T08:55:00.009Z</time></trkpt><trkpt lat="44.983986541538215" lon="9.510018887836967"><ele>111.0</ele><time>2026-04-09T08:55:01.009Z</time></trkpt><trkpt lat="44.98406978618482" lon="9.510047474268722"><ele>111.0</ele><time>2026-04-09T08:55:02.009Z</time></trkpt><trkpt lat="44.98415060446389" lon="9.510071184429977"><ele>111.0</ele><time>2026-04-09T08:55:03.009Z</time></trkpt><trkpt lat="44.9842356887856" lon="9.510096740464839"><ele>111.0</ele><time>2026-04-09T08:55:04.009Z</time></trkpt><trkpt lat="44.984318266266456" lon="9.510123213423993"><ele>110.5</ele><time>2026-04-09T08:55:05.009Z</time></trkpt><trkpt lat="44.984400512852204" lon="9.510151450683558"><ele>110.0</ele><time>2026-04-09T08:55:06.009Z</time></trkpt><trkpt lat="44.984486908482054" lon="9.510171929064397"><ele>109.5</ele><time>2026-04-09T08:55:07.009Z</time></trkpt><trkpt lat="44.98457244413412" lon="9.510201228901463"><ele>109.0</ele><time>2026-04-09T08:55:08.009Z</time></trkpt><trkpt lat="44.98465606511456" lon="9.510227941933746"><ele>108.5</ele><time>2026-04-09T08:55:09.009Z</time></trkpt><trkpt lat="44.98474212552408" lon="9.510254299829063"><ele>108.0</ele><time>2026-04-09T08:55:10.009Z</time></trkpt><trkpt lat="44.984827497080424" lon="9.510284948004706"><ele>108.0</ele><time>2026-04-09T08:55:11.009Z</time></trkpt><trkpt lat="44.98491081097546" lon="9.510310939234873"><ele>108.0</ele><time>2026-04-09T08:55:12.009Z</time></trkpt><trkpt lat="44.98499586120497" lon="9.510337844014076"><ele>108.0</ele><time>2026-04-09T08:55:13.009Z</time></trkpt><trkpt lat="44.98508156616406" lon="9.510361966055429"><ele>108.0</ele><time>2026-04-09T08:55:14.009Z</time></trkpt><trkpt lat="44.98516648528514" lon="9.510391015214605"><ele>108.0</ele><time>2026-04-09T08:55:15.009Z</time></trkpt><trkpt lat="44.98525405735198" lon="9.510430500661354"><ele>108.0</ele><time>2026-04-09T08:55:16.009Z</time></trkpt><trkpt lat="44.98533615020001" lon="9.510466154509952"><ele>108.2</ele><time>2026-04-09T08:55:17.009Z</time></trkpt><trkpt lat="44.985425187892425" lon="9.510510384200836"><ele>108.4</ele><time>2026-04-09T08:55:18.009Z</time></trkpt><trkpt lat="44.985513815943605" lon="9.510554031866645"><ele>108.60000000000001</ele><time>2026-04-09T08:55:19.009Z</time></trkpt><trkpt lat="44.98560452230059" lon="9.510593689063956"><ele>108.80000000000001</ele><time>2026-04-09T08:55:20.009Z</time></trkpt><trkpt lat="44.98569207402439" lon="9.510634242958417"><ele>109.0</ele><time>2026-04-09T08:55:21.009Z</time></trkpt><trkpt lat="44.98577580687168" lon="9.510679306789584"><ele>108.4</ele><time>2026-04-09T08:55:22.009Z</time></trkpt><trkpt lat="44.98585924275471" lon="9.510722380089453"><ele>107.80000000000001</ele><time>2026-04-09T08:55:23.009Z</time></trkpt><trkpt lat="44.985942462778695" lon="9.510767879905766"><ele>107.19999999999999</ele><time>2026-04-09T08:55:24.009Z</time></trkpt><trkpt lat="44.98602557216482" lon="9.51080810004496"><ele>106.6</ele><time>2026-04-09T08:55:25.009Z</time></trkpt><trkpt lat="44.986108440531154" lon="9.510850041099244"><ele>106.0</ele><time>2026-04-09T08:55:26.009Z</time></trkpt><trkpt lat="44.98619921618996" lon="9.510894402492708"><ele>106.0</ele><time>2026-04-09T08:55:27.009Z</time></trkpt><trkpt lat="44.98628205747779" lon="9.510939979831585"><ele>106.0</ele><time>2026-04-09T08:55:28.009Z</time></trkpt><trkpt lat="44.986369548673416" lon="9.510983080331293"><ele>106.0</ele><time>2026-04-09T08:55:29.009Z</time></trkpt><trkpt lat="44.98645382614898" lon="9.51102792190198"><ele>106.0</ele><time>2026-04-09T08:55:30.009Z</time></trkpt><trkpt lat="44.98653686843381" lon="9.51106828596072"><ele>106.0</ele><time>2026-04-09T08:55:31.009Z</time></trkpt><trkpt lat="44.98662267873533" lon="9.51110953709028"><ele>106.00000000000001</ele><time>2026-04-09T08:55:32.009Z</time></trkpt><trkpt lat="44.986710443430184" lon="9.511157249852506"><ele>106.0</ele><time>2026-04-09T08:55:33.009Z</time></trkpt><trkpt lat="44.986789994119" lon="9.511193643666088"><ele>106.0</ele><time>2026-04-09T08:55:34.009Z</time></trkpt><trkpt lat="44.98686828400628" lon="9.51123933987553"><ele>106.0</ele><time>2026-04-09T08:55:35.009Z</time></trkpt><trkpt lat="44.98694901721024" lon="9.51128134991764"><ele>106.00000000000001</ele><time>2026-04-09T08:55:36.009Z</time></trkpt><trkpt lat="44.987033660772546" lon="9.511323751625472"><ele>106.0</ele><time>2026-04-09T08:55:37.009Z</time></trkpt><trkpt lat="44.98711613650895" lon="9.511354329180545"><ele>106.00000000000001</ele><time>2026-04-09T08:55:38.009Z</time></trkpt><trkpt lat="44.987191627994235" lon="9.511391291452162"><ele>106.0</ele><time>2026-04-09T08:55:39.009Z</time></trkpt><trkpt lat="44.98726293104092" lon="9.511430958892118"><ele>106.0</ele><time>2026-04-09T08:55:40.009Z</time></trkpt><trkpt lat="44.987337381891464" lon="9.511471432059848"><ele>106.0</ele><time>2026-04-09T08:55:41.01Z</time></trkpt><trkpt lat="44.98740640042799" lon="9.511503997530085"><ele>106.00000000000001</ele><time>2026-04-09T08:55:42.01Z</time></trkpt><trkpt lat="44.98747749278028" lon="9.511535113951373"><ele>106.0</ele><time>2026-04-09T08:55:43.01Z</time></trkpt><trkpt lat="44.98755026520767" lon="9.51157254479461"><ele>105.42857142857143</ele><time>2026-04-09T08:55:44.009Z</time></trkpt><trkpt lat="44.98762557692427" lon="9.511609509760232"><ele>104.85714285714285</ele><time>2026-04-09T08:55:45.009Z</time></trkpt><trkpt lat="44.98769651040965" lon="9.511647668720098"><ele>104.28571428571428</ele><time>2026-04-09T08:55:46.009Z</time></trkpt><trkpt lat="44.98776303658708" lon="9.511682239429556"><ele>103.71428571428572</ele><time>2026-04-09T08:55:47.009Z</time></trkpt><trkpt lat="44.98783072988848" lon="9.511709580558621"><ele>103.14285714285714</ele><time>2026-04-09T08:55:48.01Z</time></trkpt><trkpt lat="44.98790136515598" lon="9.511742032781582"><ele>102.57142857142857</ele><time>2026-04-09T08:55:49.01Z</time></trkpt><trkpt lat="44.98797292361716" lon="9.511778301291805"><ele>102.0</ele><time>2026-04-09T08:55:50.01Z</time></trkpt><trkpt lat="44.98804771955956" lon="9.511817632972923"><ele>102.0</ele><time>2026-04-09T08:55:51.01Z</time></trkpt><trkpt lat="44.98812337424188" lon="9.511861920381543"><ele>102.0</ele><time>2026-04-09T08:55:52.01Z</time></trkpt><trkpt lat="44.9882041854055" lon="9.511894180712913"><ele>102.0</ele><time>2026-04-09T08:55:53.01Z</time></trkpt><trkpt lat="44.98828679842693" lon="9.5119287710194"><ele>102.0</ele><time>2026-04-09T08:55:54.009Z</time></trkpt><trkpt lat="44.988362326067126" lon="9.511960827449782"><ele>102.0</ele><time>2026-04-09T08:55:55.009Z</time></trkpt><trkpt lat="44.988440242275736" lon="9.511996101723133"><ele>102.0</ele><time>2026-04-09T08:55:56.009Z</time></trkpt><trkpt lat="44.988518557977045" lon="9.512031300961352"><ele>101.83333333333333</ele><time>2026-04-09T08:55:57.009Z</time></trkpt><trkpt lat="44.98859952903595" lon="9.512068859672407"><ele>101.66666666666666</ele><time>2026-04-09T08:55:58.009Z</time></trkpt><trkpt lat="44.98868295836388" lon="9.512099292562763"><ele>101.5</ele><time>2026-04-09T08:55:59.009Z</time></trkpt><trkpt lat="44.988760905024435" lon="9.512134908953525"><ele>101.33333333333333</ele><time>2026-04-09T08:56:00.009Z</time></trkpt><trkpt lat="44.98884427852368" lon="9.512168872653733"><ele>101.16666666666666</ele><time>2026-04-09T08:56:01.009Z</time></trkpt><trkpt lat="44.98892060088832" lon="9.512192770258395"><ele>101.0</ele><time>2026-04-09T08:56:02.009Z</time></trkpt><trkpt lat="44.98900076992776" lon="9.512226542966289"><ele>100.99999999999999</ele><time>2026-04-09T08:56:03.009Z</time></trkpt><trkpt lat="44.98908350600893" lon="9.512261972719486"><ele>101.0</ele><time>2026-04-09T08:56:04.009Z</time></trkpt><trkpt lat="44.98916478749" lon="9.512297595816525"><ele>101.0</ele><time>2026-04-09T08:56:05.009Z</time></trkpt><trkpt lat="44.98925001081963" lon="9.512325507630536"><ele>101.0</ele><time>2026-04-09T08:56:06.009Z</time></trkpt><trkpt lat="44.989333340712754" lon="9.512351424907061"><ele>100.99999999999999</ele><time>2026-04-09T08:56:07.009Z</time></trkpt><trkpt lat="44.98941799664904" lon="9.512379612164287"><ele>101.0</ele><time>2026-04-09T08:56:08.009Z</time></trkpt><trkpt lat="44.989498341751286" lon="9.512415398381712"><ele>100.99999999999999</ele><time>2026-04-09T08:56:09.009Z</time></trkpt><trkpt lat="44.989580911755034" lon="9.512452525024758"><ele>101.0</ele><time>2026-04-09T08:56:10.009Z</time></trkpt><trkpt lat="44.9896654683067" lon="9.51248536772232"><ele>101.0</ele><time>2026-04-09T08:56:11.009Z</time></trkpt><trkpt lat="44.989750354479355" lon="9.512520273743313"><ele>101.0</ele><time>2026-04-09T08:56:12.009Z</time></trkpt><trkpt lat="44.9898346473854" lon="9.512556830139173"><ele>100.99999999999999</ele><time>2026-04-09T08:56:13.009Z</time></trkpt><trkpt lat="44.989918552003665" lon="9.512590288761116"><ele>101.0</ele><time>2026-04-09T08:56:14.009Z</time></trkpt><trkpt lat="44.990004204059325" lon="9.512633303503502"><ele>100.6</ele><time>2026-04-09T08:56:15.009Z</time></trkpt><trkpt lat="44.990090068519606" lon="9.51267055540144"><ele>100.19999999999999</ele><time>2026-04-09T08:56:16.009Z</time></trkpt><trkpt lat="44.990179883326945" lon="9.512700846529691"><ele>99.80000000000001</ele><time>2026-04-09T08:56:17.009Z</time></trkpt><trkpt lat="44.99026874691998" lon="9.512732193110647"><ele>99.4</ele><time>2026-04-09T08:56:18.009Z</time></trkpt><trkpt lat="44.990357532459484" lon="9.51277184945201"><ele>99.0</ele><time>2026-04-09T08:56:19.009Z</time></trkpt><trkpt lat="44.99044631918909" lon="9.512805315829713"><ele>99.0</ele><time>2026-04-09T08:56:20.009Z</time></trkpt><trkpt lat="44.99052969193909" lon="9.512843697962252"><ele>99.0</ele><time>2026-04-09T08:56:21.009Z</time></trkpt><trkpt lat="44.99061377490509" lon="9.512880222555905"><ele>99.0</ele><time>2026-04-09T08:56:22.009Z</time></trkpt><trkpt lat="44.9906969055658" lon="9.512913144219228"><ele>99.0</ele><time>2026-04-09T08:56:23.009Z</time></trkpt><trkpt lat="44.99077884665896" lon="9.512946899222696"><ele>99.0</ele><time>2026-04-09T08:56:24.009Z</time></trkpt><trkpt lat="44.990860698105436" lon="9.512982200147826"><ele>99.0</ele><time>2026-04-09T08:56:25.009Z</time></trkpt><trkpt lat="44.990938290034315" lon="9.51301414817314"><ele>98.0</ele><time>2026-04-09T08:56:26.009Z</time></trkpt><trkpt lat="44.99101273396722" lon="9.51304393503847"><ele>97.0</ele><time>2026-04-09T08:56:27.009Z</time></trkpt><trkpt lat="44.991088863840474" lon="9.513074314660845"><ele>96.0</ele><time>2026-04-09T08:56:28.009Z</time></trkpt><trkpt lat="44.99117087460862" lon="9.513105461644473"><ele>95.0</ele><time>2026-04-09T08:56:29.009Z</time></trkpt><trkpt lat="44.99125218576004" lon="9.513128686934094"><ele>94.0</ele><time>2026-04-09T08:56:30.009Z</time></trkpt><trkpt lat="44.9913336853349" lon="9.513169952864958"><ele>93.0</ele><time>2026-04-09T08:56:31.009Z</time></trkpt><trkpt lat="44.99142401395881" lon="9.513176368220677"><ele>93.0</ele><time>2026-04-09T08:56:32.009Z</time></trkpt><trkpt lat="44.99151407309189" lon="9.513166168727569"><ele>93.0</ele><time>2026-04-09T08:56:33.009Z</time></trkpt><trkpt lat="44.991607657270926" lon="9.513141309043613"><ele>93.0</ele><time>2026-04-09T08:56:34.009Z</time></trkpt><trkpt lat="44.99168965652531" lon="9.513098658959466"><ele>93.0</ele><time>2026-04-09T08:56:35.009Z</time></trkpt><trkpt lat="44.99177040349721" lon="9.513055144169636"><ele>93.0</ele><time>2026-04-09T08:56:36.009Z</time></trkpt><trkpt lat="44.99184977054361" lon="9.513012564309058"><ele>93.0</ele><time>2026-04-09T08:56:37.009Z</time></trkpt><trkpt lat="44.99192973150187" lon="9.51297333483982"><ele>93.0</ele><time>2026-04-09T08:56:38.009Z</time></trkpt><trkpt lat="44.99200949629086" lon="9.512932472554006"><ele>93.0</ele><time>2026-04-09T08:56:39.009Z</time></trkpt><trkpt lat="44.99208347062474" lon="9.512887444735686"><ele>93.0</ele><time>2026-04-09T08:56:40.009Z</time></trkpt><trkpt lat="44.99217090245478" lon="9.512856069482924"><ele>93.0</ele><time>2026-04-09T08:56:41.009Z</time></trkpt><trkpt lat="44.992249504287436" lon="9.512807822662735"><ele>93.0</ele><time>2026-04-09T08:56:42.009Z</time></trkpt><trkpt lat="44.9923232294136" lon="9.512754482984151"><ele>93.0</ele><time>2026-04-09T08:56:43.009Z</time></trkpt><trkpt lat="44.99239619551201" lon="9.51270279011221"><ele>93.16666666666667</ele><time>2026-04-09T08:56:44.009Z</time></trkpt><trkpt lat="44.992467869710914" lon="9.51265046192457"><ele>93.33333333333333</ele><time>2026-04-09T08:56:45.009Z</time></trkpt><trkpt lat="44.99254341304231" lon="9.512598083997885"><ele>93.5</ele><time>2026-04-09T08:56:46.009Z</time></trkpt><trkpt lat="44.992616305095076" lon="9.512547016318349"><ele>93.66666666666666</ele><time>2026-04-09T08:56:47.009Z</time></trkpt><trkpt lat="44.992687747238556" lon="9.512495618673286"><ele>93.83333333333333</ele><time>2026-04-09T08:56:48.009Z</time></trkpt><trkpt lat="44.99276042857122" lon="9.512447614118706"><ele>94.0</ele><time>2026-04-09T08:56:49.009Z</time></trkpt><trkpt lat="44.99283278267693" lon="9.512398967672329"><ele>94.16666666666666</ele><time>2026-04-09T08:56:50.009Z</time></trkpt><trkpt lat="44.9929037837662" lon="9.512348850236283"><ele>94.33333333333333</ele><time>2026-04-09T08:56:51.009Z</time></trkpt><trkpt lat="44.99297730603315" lon="9.512304045965754"><ele>94.5</ele><time>2026-04-09T08:56:52.009Z</time></trkpt><trkpt lat="44.99304648035475" lon="9.5122538289066"><ele>94.66666666666667</ele><time>2026-04-09T08:56:53.009Z</time></trkpt><trkpt lat="44.99311392292607" lon="9.512203233918314"><ele>94.83333333333334</ele><time>2026-04-09T08:56:54.009Z</time></trkpt><trkpt lat="44.99318478579379" lon="9.51215459643816"><ele>95.0</ele><time>2026-04-09T08:56:55.009Z</time></trkpt><trkpt lat="44.99325464281252" lon="9.512106456371546"><ele>95.0</ele><time>2026-04-09T08:56:56.009Z</time></trkpt><trkpt lat="44.99332080413872" lon="9.51205916749875"><ele>95.0</ele><time>2026-04-09T08:56:57.009Z</time></trkpt><trkpt lat="44.99339041544603" lon="9.512014377544329"><ele>95.0</ele><time>2026-04-09T08:56:58.009Z</time></trkpt><trkpt lat="44.993457750751816" lon="9.51197168217191"><ele>95.0</ele><time>2026-04-09T08:56:59.009Z</time></trkpt><trkpt lat="44.99352680310695" lon="9.511924235941985"><ele>95.0</ele><time>2026-04-09T08:57:00.009Z</time></trkpt><trkpt lat="44.99359296283251" lon="9.511878062457056"><ele>95.0</ele><time>2026-04-09T08:57:01.009Z</time></trkpt><trkpt lat="44.99366259240346" lon="9.511830345714735"><ele>95.14285714285714</ele><time>2026-04-09T08:57:02.009Z</time></trkpt><trkpt lat="44.99373127848125" lon="9.511782999467549"><ele>95.28571428571429</ele><time>2026-04-09T08:57:03.009Z</time></trkpt><trkpt lat="44.993798469950505" lon="9.511734812898318"><ele>95.42857142857142</ele><time>2026-04-09T08:57:04.009Z</time></trkpt><trkpt lat="44.993866418921705" lon="9.511688638338189"><ele>95.57142857142857</ele><time>2026-04-09T08:57:05.009Z</time></trkpt><trkpt lat="44.9939347313215" lon="9.51164448042114"><ele>95.71428571428571</ele><time>2026-04-09T08:57:06.009Z</time></trkpt><trkpt lat="44.99400062452362" lon="9.511597144956948"><ele>95.85714285714285</ele><time>2026-04-09T08:57:07.009Z</time></trkpt><trkpt lat="44.99406482946621" lon="9.51155004793187"><ele>96.0</ele><time>2026-04-09T08:57:08.009Z</time></trkpt><trkpt lat="44.99413340225033" lon="9.511505142304202"><ele>95.57142857142857</ele><time>2026-04-09T08:57:09.009Z</time></trkpt><trkpt lat="44.99419828265578" lon="9.511458008282768"><ele>95.14285714285714</ele><time>2026-04-09T08:57:10.009Z</time></trkpt><trkpt lat="44.99426385847124" lon="9.511413834710538"><ele>94.71428571428572</ele><time>2026-04-09T08:57:11.009Z</time></trkpt><trkpt lat="44.994332274559675" lon="9.511367587575497"><ele>94.28571428571428</ele><time>2026-04-09T08:57:12.009Z</time></trkpt><trkpt lat="44.99440125574753" lon="9.511324310963401"><ele>93.85714285714286</ele><time>2026-04-09T08:57:13.009Z</time></trkpt><trkpt lat="44.99447133125059" lon="9.51128110946764"><ele>93.42857142857143</ele><time>2026-04-09T08:57:14.009Z</time></trkpt><trkpt lat="44.994536525432366" lon="9.511237827300082"><ele>93.0</ele><time>2026-04-09T08:57:15.009Z</time></trkpt><trkpt lat="44.99459642249877" lon="9.511189469465686"><ele>93.00000000000001</ele><time>2026-04-09T08:57:16.009Z</time></trkpt><trkpt lat="44.994668879289165" lon="9.511170843456773"><ele>93.0</ele><time>2026-04-09T08:57:17.009Z</time></trkpt><trkpt lat="44.994735408726015" lon="9.511136255531536"><ele>93.0</ele><time>2026-04-09T08:57:18.009Z</time></trkpt><trkpt lat="44.99480210440337" lon="9.511106935377837"><ele>93.0</ele><time>2026-04-09T08:57:19.009Z</time></trkpt><trkpt lat="44.99486596766129" lon="9.511067511591298"><ele>93.0</ele><time>2026-04-09T08:57:20.009Z</time></trkpt><trkpt lat="44.9949347282612" lon="9.511055745365269"><ele>93.00000000000001</ele><time>2026-04-09T08:57:21.009Z</time></trkpt><trkpt lat="44.99500041743183" lon="9.511050122906864"><ele>93.0</ele><time>2026-04-09T08:57:22.009Z</time></trkpt><trkpt lat="44.99506470152729" lon="9.511049213723284"><ele>93.00000000000001</ele><time>2026-04-09T08:57:23.009Z</time></trkpt><trkpt lat="44.99513324878683" lon="9.511050479178465"><ele>93.0</ele><time>2026-04-09T08:57:24.009Z</time></trkpt><trkpt lat="44.99520016130487" lon="9.511044794647018"><ele>93.0</ele><time>2026-04-09T08:57:25.009Z</time></trkpt><trkpt lat="44.99526636285689" lon="9.511045554094737"><ele>93.0</ele><time>2026-04-09T08:57:26.009Z</time></trkpt><trkpt lat="44.995330562960895" lon="9.511042351635332"><ele>93.0</ele><time>2026-04-09T08:57:27.009Z</time></trkpt><trkpt lat="44.99539488757288" lon="9.511034294811948"><ele>93.00000000000001</ele><time>2026-04-09T08:57:28.009Z</time></trkpt><trkpt lat="44.995460326583945" lon="9.511034184881055"><ele>93.0</ele><time>2026-04-09T08:57:29.009Z</time></trkpt><trkpt lat="44.995524478849866" lon="9.511033784954638"><ele>93.0</ele><time>2026-04-09T08:57:30.009Z</time></trkpt><trkpt lat="44.9955883201044" lon="9.511032356134002"><ele>93.0</ele><time>2026-04-09T08:57:31.009Z</time></trkpt><trkpt lat="44.995657842433715" lon="9.511032453456407"><ele>93.0</ele><time>2026-04-09T08:57:32.009Z</time></trkpt><trkpt lat="44.99572663716752" lon="9.51102906143247"><ele>93.0</ele><time>2026-04-09T08:57:33.009Z</time></trkpt><trkpt lat="44.99585343527816" lon="9.511032784839571"><ele>93.0</ele><time>2026-04-09T08:57:35.009Z</time></trkpt><trkpt lat="44.99591893467597" lon="9.511037884121132"><ele>93.0</ele><time>2026-04-09T08:57:36.009Z</time></trkpt><trkpt lat="44.995985406327854" lon="9.511044937955155"><ele>93.0</ele><time>2026-04-09T08:57:37.009Z</time></trkpt><trkpt lat="44.99605134000032" lon="9.511049819204832"><ele>93.0</ele><time>2026-04-09T08:57:38.009Z</time></trkpt><trkpt lat="44.99611590128643" lon="9.511052218650734"><ele>93.0</ele><time>2026-04-09T08:57:39.009Z</time></trkpt><trkpt lat="44.99618216611117" lon="9.511058290932182"><ele>93.0</ele><time>2026-04-09T08:57:40.009Z</time></trkpt><trkpt lat="44.996306225454454" lon="9.511073629677895"><ele>93.0</ele><time>2026-04-09T08:57:42.009Z</time></trkpt><trkpt lat="44.996372457030354" lon="9.511085145312975"><ele>93.0</ele><time>2026-04-09T08:57:43.009Z</time></trkpt><trkpt lat="44.99643633528238" lon="9.51109612322707"><ele>93.0</ele><time>2026-04-09T08:57:44.009Z</time></trkpt><trkpt lat="44.99650053546263" lon="9.511108185272416"><ele>93.0</ele><time>2026-04-09T08:57:45.009Z</time></trkpt><trkpt lat="44.996626576490804" lon="9.511125897684162"><ele>93.0</ele><time>2026-04-09T08:57:47.01Z</time></trkpt><trkpt lat="44.99669125079818" lon="9.511133822924137"><ele>93.0</ele><time>2026-04-09T08:57:48.01Z</time></trkpt><trkpt lat="44.99675525685921" lon="9.511143438170837"><ele>93.0</ele><time>2026-04-09T08:57:49.01Z</time></trkpt><trkpt lat="44.99682069620625" lon="9.51115132496884"><ele>93.0</ele><time>2026-04-09T08:57:50.011Z</time></trkpt><trkpt lat="44.99688712321833" lon="9.511155980238687"><ele>93.00000000000001</ele><time>2026-04-09T08:57:51.01Z</time></trkpt><trkpt lat="44.99695159546481" lon="9.511167919248534"><ele>93.0</ele><time>2026-04-09T08:57:52.01Z</time></trkpt><trkpt lat="44.997015426245305" lon="9.51117618746839"><ele>93.0</ele><time>2026-04-09T08:57:53.01Z</time></trkpt><trkpt lat="44.99707857737419" lon="9.51117994238049"><ele>93.0</ele><time>2026-04-09T08:57:54.01Z</time></trkpt><trkpt lat="44.997144151909794" lon="9.511186040895202"><ele>93.0</ele><time>2026-04-09T08:57:55.01Z</time></trkpt><trkpt lat="44.997207620986714" lon="9.511190310164512"><ele>93.00000000000001</ele><time>2026-04-09T08:57:56.01Z</time></trkpt><trkpt lat="44.99727159276018" lon="9.511198561444974"><ele>93.0</ele><time>2026-04-09T08:57:57.01Z</time></trkpt><trkpt lat="44.99733569303685" lon="9.511205478358326"><ele>93.00000000000001</ele><time>2026-04-09T08:57:58.01Z</time></trkpt><trkpt lat="44.99740123922227" lon="9.511215392036828"><ele>93.0</ele><time>2026-04-09T08:57:59.01Z</time></trkpt><trkpt lat="44.99746901965542" lon="9.511222679512123"><ele>93.0</ele><time>2026-04-09T08:58:00.01Z</time></trkpt><trkpt lat="44.99753719896263" lon="9.511235883700792"><ele>93.0</ele><time>2026-04-09T08:58:01.01Z</time></trkpt><trkpt lat="44.99760313326794" lon="9.511245758842506"><ele>93.0</ele><time>2026-04-09T08:58:02.01Z</time></trkpt><trkpt lat="44.99767174672247" lon="9.511257600456293"><ele>93.00000000000001</ele><time>2026-04-09T08:58:03.01Z</time></trkpt><trkpt lat="44.99774186840257" lon="9.51126527085175"><ele>93.0</ele><time>2026-04-09T08:58:04.01Z</time></trkpt><trkpt lat="44.997805305028464" lon="9.511273993073585"><ele>92.85714285714286</ele><time>2026-04-09T08:58:05.01Z</time></trkpt><trkpt lat="44.9978721719062" lon="9.511276495631375"><ele>92.71428571428572</ele><time>2026-04-09T08:58:06.01Z</time></trkpt><trkpt lat="44.99793683373416" lon="9.511284886196579"><ele>92.57142857142858</ele><time>2026-04-09T08:58:07.01Z</time></trkpt><trkpt lat="44.99800209706586" lon="9.511295467090829"><ele>92.42857142857143</ele><time>2026-04-09T08:58:08.01Z</time></trkpt><trkpt lat="44.9980695112297" lon="9.511300854032248"><ele>92.28571428571428</ele><time>2026-04-09T08:58:09.01Z</time></trkpt><trkpt lat="44.99813731765709" lon="9.511307689036174"><ele>92.14285714285715</ele><time>2026-04-09T08:58:10.01Z</time></trkpt><trkpt lat="44.998206586059325" lon="9.511313794490846"><ele>92.0</ele><time>2026-04-09T08:58:11.01Z</time></trkpt><trkpt lat="44.99827178011812" lon="9.511319358683698"><ele>92.14285714285715</ele><time>2026-04-09T08:58:12.01Z</time></trkpt><trkpt lat="44.998336445418985" lon="9.511322418347289"><ele>92.28571428571428</ele><time>2026-04-09T08:58:13.01Z</time></trkpt><trkpt lat="44.9984027157154" lon="9.511326935431066"><ele>92.42857142857143</ele><time>2026-04-09T08:58:14.01Z</time></trkpt><trkpt lat="44.99846911080632" lon="9.511326975625192"><ele>92.57142857142858</ele><time>2026-04-09T08:58:15.01Z</time></trkpt><trkpt lat="44.9985341104277" lon="9.51132723536908"><ele>92.71428571428572</ele><time>2026-04-09T08:58:16.01Z</time></trkpt><trkpt lat="44.99860298270418" lon="9.511331079721408"><ele>92.85714285714286</ele><time>2026-04-09T08:58:17.01Z</time></trkpt><trkpt lat="44.998673943147665" lon="9.511337093016888"><ele>93.0</ele><time>2026-04-09T08:58:18.01Z</time></trkpt><trkpt lat="44.99874090835141" lon="9.511339485942912"><ele>93.00000000000001</ele><time>2026-04-09T08:58:19.01Z</time></trkpt><trkpt lat="44.99881024363169" lon="9.51134762521367"><ele>93.0</ele><time>2026-04-09T08:58:20.01Z</time></trkpt><trkpt lat="44.99887717244043" lon="9.5113539569155"><ele>93.0</ele><time>2026-04-09T08:58:21.01Z</time></trkpt><trkpt lat="44.99894328471643" lon="9.511358241100996"><ele>93.0</ele><time>2026-04-09T08:58:22.01Z</time></trkpt><trkpt lat="44.99900752213257" lon="9.511363409994747"><ele>93.0</ele><time>2026-04-09T08:58:23.01Z</time></trkpt><trkpt lat="44.99907486746072" lon="9.511384083268396"><ele>93.00000000000001</ele><time>2026-04-09T08:58:24.01Z</time></trkpt><trkpt lat="44.999142268535806" lon="9.51138838113804"><ele>93.0</ele><time>2026-04-09T08:58:25.01Z</time></trkpt><trkpt lat="44.99920870327662" lon="9.5113942287776"><ele>93.28571428571429</ele><time>2026-04-09T08:58:26.01Z</time></trkpt><trkpt lat="44.999274757531644" lon="9.511400416050348"><ele>93.57142857142857</ele><time>2026-04-09T08:58:27.01Z</time></trkpt><trkpt lat="44.999343061496155" lon="9.51140699522862"><ele>93.85714285714286</ele><time>2026-04-09T08:58:28.01Z</time></trkpt><trkpt lat="44.999411863987504" lon="9.511416008473226"><ele>94.14285714285714</ele><time>2026-04-09T08:58:29.01Z</time></trkpt><trkpt lat="44.99947973965604" lon="9.511423530725617"><ele>94.42857142857143</ele><time>2026-04-09T08:58:30.01Z</time></trkpt><trkpt lat="44.9995487505951" lon="9.511431893818434"><ele>94.71428571428572</ele><time>2026-04-09T08:58:31.01Z</time></trkpt><trkpt lat="44.999616233880275" lon="9.511436911249818"><ele>95.0</ele><time>2026-04-09T08:58:32.01Z</time></trkpt><trkpt lat="44.9996833050878" lon="9.511445934846666"><ele>95.0</ele><time>2026-04-09T08:58:33.01Z</time></trkpt><trkpt lat="44.99974830277643" lon="9.511472595574975"><ele>95.0</ele><time>2026-04-09T08:58:34.01Z</time></trkpt><trkpt lat="44.99981828285289" lon="9.511481319654585"><ele>95.0</ele><time>2026-04-09T08:58:35.01Z</time></trkpt><trkpt lat="44.999888597851864" lon="9.511489808170612"><ele>95.0</ele><time>2026-04-09T08:58:36.01Z</time></trkpt><trkpt lat="44.999957583264035" lon="9.511497455754194"><ele>95.0</ele><time>2026-04-09T08:58:37.01Z</time></trkpt><trkpt lat="45.00002539653987" lon="9.511504973420106"><ele>95.0</ele><time>2026-04-09T08:58:38.01Z</time></trkpt><trkpt lat="45.00009322496576" lon="9.51151249267497"><ele>95.0</ele><time>2026-04-09T08:58:39.01Z</time></trkpt><trkpt lat="45.00016200796673" lon="9.511520117814712"><ele>95.0</ele><time>2026-04-09T08:58:40.01Z</time></trkpt><trkpt lat="45.00023079557433" lon="9.511527619772997"><ele>95.0</ele><time>2026-04-09T08:58:41.01Z</time></trkpt><trkpt lat="45.00029496066083" lon="9.511534026754074"><ele>95.0</ele><time>2026-04-09T08:58:42.01Z</time></trkpt><trkpt lat="45.00036172523644" lon="9.511540693285987"><ele>95.0</ele><time>2026-04-09T08:58:43.01Z</time></trkpt><trkpt lat="45.00042894809757" lon="9.511547405522165"><ele>95.0</ele><time>2026-04-09T08:58:44.01Z</time></trkpt><trkpt lat="45.000497141636146" lon="9.511531059948071"><ele>95.0</ele><time>2026-04-09T08:58:45.01Z</time></trkpt><trkpt lat="45.00056257294287" lon="9.511542459619548"><ele>95.0</ele><time>2026-04-09T08:58:46.01Z</time></trkpt><trkpt lat="45.000630532172515" lon="9.511567861915257"><ele>95.0</ele><time>2026-04-09T08:58:47.01Z</time></trkpt><trkpt lat="45.0006998407644" lon="9.511575927825854"><ele>95.0</ele><time>2026-04-09T08:58:48.01Z</time></trkpt><trkpt lat="45.00076518827593" lon="9.51157803728497"><ele>95.0</ele><time>2026-04-09T08:58:49.01Z</time></trkpt><trkpt lat="45.00083241221754" lon="9.511580704831108"><ele>95.0</ele><time>2026-04-09T08:58:50.01Z</time></trkpt><trkpt lat="45.000900151923126" lon="9.511582725977803"><ele>95.0</ele><time>2026-04-09T08:58:51.01Z</time></trkpt><trkpt lat="45.000967527712326" lon="9.511590629259887"><ele>95.0</ele><time>2026-04-09T08:58:52.01Z</time></trkpt><trkpt lat="45.00103496307407" lon="9.51159626621395"><ele>95.0</ele><time>2026-04-09T08:58:53.009Z</time></trkpt><trkpt lat="45.00110369908683" lon="9.511603762739998"><ele>94.85714285714286</ele><time>2026-04-09T08:58:54.009Z</time></trkpt><trkpt lat="45.00117350117471" lon="9.511610639672481"><ele>94.71428571428572</ele><time>2026-04-09T08:58:55.008Z</time></trkpt><trkpt lat="45.00124254058313" lon="9.51161784816026"><ele>94.57142857142857</ele><time>2026-04-09T08:58:56.007Z</time></trkpt><trkpt lat="45.00131422304191" lon="9.511625367393563"><ele>94.42857142857143</ele><time>2026-04-09T08:58:57.007Z</time></trkpt><trkpt lat="45.00138492487789" lon="9.511634778903867"><ele>94.28571428571428</ele><time>2026-04-09T08:58:58.006Z</time></trkpt><trkpt lat="45.00145996346778" lon="9.511642817566488"><ele>94.14285714285714</ele><time>2026-04-09T08:58:59.006Z</time></trkpt><trkpt lat="45.00153206856185" lon="9.511649917703286"><ele>94.0</ele><time>2026-04-09T08:59:00.005Z</time></trkpt><trkpt lat="45.00160422901716" lon="9.511657875364342"><ele>93.57142857142857</ele><time>2026-04-09T08:59:01.005Z</time></trkpt><trkpt lat="45.00167909067662" lon="9.511665658653772"><ele>93.14285714285714</ele><time>2026-04-09T08:59:02.005Z</time></trkpt><trkpt lat="45.00175201605163" lon="9.511672296856629"><ele>92.71428571428572</ele><time>2026-04-09T08:59:03.004Z</time></trkpt><trkpt lat="45.001824759589084" lon="9.511693474688576"><ele>92.28571428571428</ele><time>2026-04-09T08:59:04.004Z</time></trkpt><trkpt lat="45.00189559881214" lon="9.51170003582755"><ele>91.85714285714286</ele><time>2026-04-09T08:59:05.004Z</time></trkpt><trkpt lat="45.00196794305605" lon="9.511708091352515"><ele>91.42857142857143</ele><time>2026-04-09T08:59:06.003Z</time></trkpt><trkpt lat="45.00204407508745" lon="9.511726821143558"><ele>91.0</ele><time>2026-04-09T08:59:07.003Z</time></trkpt><trkpt lat="45.002112925375464" lon="9.51171111730444"><ele>91.0</ele><time>2026-04-09T08:59:08.003Z</time></trkpt><trkpt lat="45.00217805058937" lon="9.511672113878593"><ele>91.0</ele><time>2026-04-09T08:59:09.002Z</time></trkpt><trkpt lat="45.002218246077256" lon="9.51156286998297"><ele>91.0</ele><time>2026-04-09T08:59:10.002Z</time></trkpt><trkpt lat="45.00221434188833" lon="9.511450151306699"><ele>91.0</ele><time>2026-04-09T08:59:11.002Z</time></trkpt><trkpt lat="45.00221710647783" lon="9.511358352126342"><ele>91.0</ele><time>2026-04-09T08:59:12.002Z</time></trkpt><trkpt lat="45.00220793154937" lon="9.511191666741393"><ele>91.0</ele><time>2026-04-09T08:59:14.001Z</time></trkpt><trkpt lat="45.00221134191109" lon="9.511097985709277"><ele>91.25</ele><time>2026-04-09T08:59:15.001Z</time></trkpt><trkpt lat="45.00221135960488" lon="9.51092826201916"><ele>91.5</ele><time>2026-04-09T08:59:17.001Z</time></trkpt><trkpt lat="45.002229606436494" lon="9.510762956059276"><ele>91.75</ele><time>2026-04-09T08:59:19.001Z</time></trkpt><trkpt lat="45.002237622178775" lon="9.510588624009982"><ele>92.0</ele><time>2026-04-09T08:59:21Z</time></trkpt><trkpt lat="45.00223319738551" lon="9.510422939996182"><ele>92.19999999999999</ele><time>2026-04-09T08:59:23Z</time></trkpt><trkpt lat="45.00224768115759" lon="9.510258321540032"><ele>92.4</ele><time>2026-04-09T08:59:25Z</time></trkpt><trkpt lat="45.002245856982285" lon="9.510101473541432"><ele>92.6</ele><time>2026-04-09T08:59:27Z</time></trkpt><trkpt lat="45.002255430373786" lon="9.50995770704559"><ele>92.80000000000001</ele><time>2026-04-09T08:59:29Z</time></trkpt><trkpt lat="45.00227043385912" lon="9.509813742317077"><ele>93.0</ele><time>2026-04-09T08:59:30.999Z</time></trkpt><trkpt lat="45.00233877973194" lon="9.509745443511893"><ele>93.0</ele><time>2026-04-09T08:59:32.999Z</time></trkpt><trkpt lat="45.002428092876755" lon="9.509891321088999"><ele>93.0</ele><time>2026-04-09T08:59:34.999Z</time></trkpt><trkpt lat="45.00248629340221" lon="9.510009630567001"><ele>93.0</ele><time>2026-04-09T08:59:36.999Z</time></trkpt><trkpt lat="45.00255511388084" lon="9.510115541578745"><ele>93.0</ele><time>2026-04-09T08:59:38.999Z</time></trkpt><trkpt lat="45.002608755297224" lon="9.510248377953811"><ele>93.0</ele><time>2026-04-09T08:59:40.999Z</time></trkpt><trkpt lat="45.00267308381364" lon="9.510361186178933"><ele>92.2</ele><time>2026-04-09T08:59:42.999Z</time></trkpt><trkpt lat="45.00273844518377" lon="9.510481947166364"><ele>91.4</ele><time>2026-04-09T08:59:44.999Z</time></trkpt><trkpt lat="45.00281158213536" lon="9.510594509223635"><ele>90.60000000000001</ele><time>2026-04-09T08:59:46.999Z</time></trkpt><trkpt lat="45.00288280365112" lon="9.51070147868405"><ele>89.80000000000001</ele><time>2026-04-09T08:59:48.999Z</time></trkpt><trkpt lat="45.00294104569395" lon="9.510836317512803"><ele>89.0</ele><time>2026-04-09T08:59:50.999Z</time></trkpt><trkpt lat="45.00301350204025" lon="9.510961687265956"><ele>89.0</ele><time>2026-04-09T08:59:52.999Z</time></trkpt><trkpt lat="45.00306741501076" lon="9.511079531029583"><ele>89.0</ele><time>2026-04-09T08:59:54.999Z</time></trkpt><trkpt lat="45.00313904895796" lon="9.511201616267778"><ele>89.0</ele><time>2026-04-09T08:59:56.999Z</time></trkpt><trkpt lat="45.003197125820805" lon="9.511312946519864"><ele>89.0</ele><time>2026-04-09T08:59:58.999Z</time></trkpt><trkpt lat="45.00326908627835" lon="9.511429440917206"><ele>89.0</ele><time>2026-04-09T09:00:00.999Z</time></trkpt><trkpt lat="45.00333263181759" lon="9.511544970109801"><ele>89.4</ele><time>2026-04-09T09:00:02.998Z</time></trkpt><trkpt lat="45.00340041255316" lon="9.51167029842415"><ele>89.80000000000001</ele><time>2026-04-09T09:00:04.999Z</time></trkpt><trkpt lat="45.003476908829704" lon="9.511788899245216"><ele>90.19999999999999</ele><time>2026-04-09T09:00:06.999Z</time></trkpt><trkpt lat="45.003532871539306" lon="9.511909223271681"><ele>90.6</ele><time>2026-04-09T09:00:08.999Z</time></trkpt><trkpt lat="45.00360086941392" lon="9.512028012513461"><ele>91.0</ele><time>2026-04-09T09:00:10.999Z</time></trkpt><trkpt lat="45.00366739632638" lon="9.51214510244446"><ele>91.0</ele><time>2026-04-09T09:00:12.999Z</time></trkpt><trkpt lat="45.0037344793473" lon="9.51226763073282"><ele>91.0</ele><time>2026-04-09T09:00:14.999Z</time></trkpt><trkpt lat="45.00380744384206" lon="9.512389623824482"><ele>91.0</ele><time>2026-04-09T09:00:16.999Z</time></trkpt><trkpt lat="45.00388199377368" lon="9.51251742790491"><ele>91.0</ele><time>2026-04-09T09:00:18.999Z</time></trkpt><trkpt lat="45.003950734354326" lon="9.512648767313339"><ele>91.0</ele><time>2026-04-09T09:00:20.999Z</time></trkpt><trkpt lat="45.00402716447746" lon="9.51278459813531"><ele>91.0</ele><time>2026-04-09T09:00:22.999Z</time></trkpt><trkpt lat="45.00410197466242" lon="9.512908223273671"><ele>91.0</ele><time>2026-04-09T09:00:24.999Z</time></trkpt><trkpt lat="45.004173977027726" lon="9.513037527662133"><ele>91.0</ele><time>2026-04-09T09:00:26.999Z</time></trkpt><trkpt lat="45.00425070976237" lon="9.513161313738578"><ele>90.75</ele><time>2026-04-09T09:00:28.999Z</time></trkpt><trkpt lat="45.00432697805261" lon="9.513287092558196"><ele>90.5</ele><time>2026-04-09T09:00:30.999Z</time></trkpt><trkpt lat="45.00440145757161" lon="9.51341094993918"><ele>90.25</ele><time>2026-04-09T09:00:32.999Z</time></trkpt><trkpt lat="45.004480645799006" lon="9.51353576164402"><ele>90.0</ele><time>2026-04-09T09:00:34.999Z</time></trkpt><trkpt lat="45.00455413758391" lon="9.51366057086051"><ele>90.2</ele><time>2026-04-09T09:00:36.999Z</time></trkpt><trkpt lat="45.00463314919882" lon="9.513773526430866"><ele>90.4</ele><time>2026-04-09T09:00:38.999Z</time></trkpt><trkpt lat="45.00470142893745" lon="9.513905647485718"><ele>90.6</ele><time>2026-04-09T09:00:40.999Z</time></trkpt><trkpt lat="45.004754974531295" lon="9.514035264547973"><ele>90.8</ele><time>2026-04-09T09:00:42.999Z</time></trkpt><trkpt lat="45.00481359901164" lon="9.514168783739965"><ele>91.0</ele><time>2026-04-09T09:00:44.999Z</time></trkpt><trkpt lat="45.004883393781554" lon="9.514289878957252"><ele>91.0</ele><time>2026-04-09T09:00:46.999Z</time></trkpt><trkpt lat="45.004934661628894" lon="9.514428482983114"><ele>91.0</ele><time>2026-04-09T09:00:48.999Z</time></trkpt><trkpt lat="45.004993364742305" lon="9.514558356581848"><ele>91.0</ele><time>2026-04-09T09:00:50.999Z</time></trkpt><trkpt lat="45.00505402228852" lon="9.514691648846966"><ele>91.0</ele><time>2026-04-09T09:00:52.999Z</time></trkpt><trkpt lat="45.00511809178111" lon="9.514827272028588"><ele>91.0</ele><time>2026-04-09T09:00:54.999Z</time></trkpt><trkpt lat="45.005178856479766" lon="9.514965316132672"><ele>91.0</ele><time>2026-04-09T09:00:56.999Z</time></trkpt><trkpt lat="45.00524399025922" lon="9.515099864651308"><ele>91.0</ele><time>2026-04-09T09:00:58.999Z</time></trkpt><trkpt lat="45.00530619804195" lon="9.515242347678692"><ele>91.0</ele><time>2026-04-09T09:01:00.999Z</time></trkpt><trkpt lat="45.00536803981423" lon="9.515378551839273"><ele>91.0</ele><time>2026-04-09T09:01:02.999Z</time></trkpt><trkpt lat="45.00543001236675" lon="9.515516680249863"><ele>91.0</ele><time>2026-04-09T09:01:04.999Z</time></trkpt><trkpt lat="45.00549309008387" lon="9.515647275095029"><ele>91.0</ele><time>2026-04-09T09:01:06.999Z</time></trkpt><trkpt lat="45.00555873717957" lon="9.515785711934786"><ele>91.0</ele><time>2026-04-09T09:01:08.999Z</time></trkpt><trkpt lat="45.005623447465986" lon="9.515926395225122"><ele>91.0</ele><time>2026-04-09T09:01:10.999Z</time></trkpt><trkpt lat="45.00568749701197" lon="9.516073230299511"><ele>91.0</ele><time>2026-04-09T09:01:12.999Z</time></trkpt><trkpt lat="45.00575357483599" lon="9.516217466067719"><ele>91.0</ele><time>2026-04-09T09:01:14.999Z</time></trkpt><trkpt lat="45.00582417244644" lon="9.516346600012369"><ele>91.0</ele><time>2026-04-09T09:01:16.999Z</time></trkpt><trkpt lat="45.00587756603591" lon="9.516474308606648"><ele>91.0</ele><time>2026-04-09T09:01:18.999Z</time></trkpt><trkpt lat="45.005944040361676" lon="9.516604715490292"><ele>91.0</ele><time>2026-04-09T09:01:20.999Z</time></trkpt><trkpt lat="45.0059855958249" lon="9.516681412751339"><ele>91.0</ele><time>2026-04-09T09:01:21.999Z</time></trkpt><trkpt lat="45.00604348298858" lon="9.516833965389447"><ele>91.0</ele><time>2026-04-09T09:01:23.998Z</time></trkpt><trkpt lat="45.00607978936116" lon="9.516908565672257"><ele>91.0</ele><time>2026-04-09T09:01:24.998Z</time></trkpt><trkpt lat="45.00611538919841" lon="9.51698959462396"><ele>91.0</ele><time>2026-04-09T09:01:25.998Z</time></trkpt><trkpt lat="45.006187773344195" lon="9.517136141681679"><ele>91.0</ele><time>2026-04-09T09:01:27.998Z</time></trkpt><trkpt lat="45.00624971580101" lon="9.517266938030668"><ele>91.0</ele><time>2026-04-09T09:01:29.998Z</time></trkpt><trkpt lat="45.00631762476223" lon="9.51740587107334"><ele>91.0</ele><time>2026-04-09T09:01:31.998Z</time></trkpt><trkpt lat="45.00635648231114" lon="9.517482754808537"><ele>91.0</ele><time>2026-04-09T09:01:32.998Z</time></trkpt><trkpt lat="45.00639265287327" lon="9.517566315871795"><ele>91.0</ele><time>2026-04-09T09:01:33.998Z</time></trkpt><trkpt lat="45.0064308698538" lon="9.517641289566638"><ele>91.0</ele><time>2026-04-09T09:01:34.998Z</time></trkpt><trkpt lat="45.00646916800887" lon="9.51772051312856"><ele>91.0</ele><time>2026-04-09T09:01:35.998Z</time></trkpt><trkpt lat="45.00653580142533" lon="9.517871701398041"><ele>90.8</ele><time>2026-04-09T09:01:37.998Z</time></trkpt><trkpt lat="45.00657629111939" lon="9.517948135137905"><ele>90.6</ele><time>2026-04-09T09:01:38.998Z</time></trkpt><trkpt lat="45.006639780098084" lon="9.51809832227402"><ele>90.4</ele><time>2026-04-09T09:01:40.998Z</time></trkpt><trkpt lat="45.00670565937452" lon="9.518237693207992"><ele>90.2</ele><time>2026-04-09T09:01:42.998Z</time></trkpt><trkpt lat="45.00677079356237" lon="9.518378931295262"><ele>90.0</ele><time>2026-04-09T09:01:44.998Z</time></trkpt><trkpt lat="45.00680931137034" lon="9.518461386745406"><ele>89.75</ele><time>2026-04-09T09:01:45.998Z</time></trkpt><trkpt lat="45.00687187176924" lon="9.518595823492088"><ele>89.5</ele><time>2026-04-09T09:01:47.998Z</time></trkpt><trkpt lat="45.00693585377346" lon="9.518736183897607"><ele>89.25</ele><time>2026-04-09T09:01:49.998Z</time></trkpt><trkpt lat="45.007004404226905" lon="9.518871150291357"><ele>89.0</ele><time>2026-04-09T09:01:51.998Z</time></trkpt><trkpt lat="45.00706240497131" lon="9.519011778174999"><ele>88.5</ele><time>2026-04-09T09:01:53.998Z</time></trkpt><trkpt lat="45.00712992171022" lon="9.51915085082758"><ele>88.0</ele><time>2026-04-09T09:01:55.998Z</time></trkpt><trkpt lat="45.00719849146615" lon="9.519297854349091"><ele>87.5</ele><time>2026-04-09T09:01:57.998Z</time></trkpt><trkpt lat="45.007272062428676" lon="9.519442004900672"><ele>87.0</ele><time>2026-04-09T09:01:59.998Z</time></trkpt><trkpt lat="45.00733112582054" lon="9.519589042716186"><ele>87.0</ele><time>2026-04-09T09:02:01.998Z</time></trkpt><trkpt lat="45.007398062376225" lon="9.519736079684355"><ele>87.0</ele><time>2026-04-09T09:02:03.999Z</time></trkpt><trkpt lat="45.00746739218735" lon="9.519880811624637"><ele>87.0</ele><time>2026-04-09T09:02:05.998Z</time></trkpt><trkpt lat="45.00753470636181" lon="9.520030783848009"><ele>87.0</ele><time>2026-04-09T09:02:07.998Z</time></trkpt><trkpt lat="45.00759692978463" lon="9.5201750530547"><ele>87.0</ele><time>2026-04-09T09:02:09.998Z</time></trkpt><trkpt lat="45.007660999980004" lon="9.52030381396059"><ele>87.0</ele><time>2026-04-09T09:02:11.999Z</time></trkpt><trkpt lat="45.00772093165721" lon="9.520435095202291"><ele>87.0</ele><time>2026-04-09T09:02:13.999Z</time></trkpt><trkpt lat="45.00777999104278" lon="9.52055714364193"><ele>87.0</ele><time>2026-04-09T09:02:15.999Z</time></trkpt><trkpt lat="45.0078318456692" lon="9.520674959996573"><ele>87.0</ele><time>2026-04-09T09:02:17.999Z</time></trkpt><trkpt lat="45.00787685785028" lon="9.520770395989311"><ele>86.8</ele><time>2026-04-09T09:02:19.999Z</time></trkpt><trkpt lat="45.00782147963905" lon="9.520855912792934"><ele>86.6</ele><time>2026-04-09T09:02:22.999Z</time></trkpt><trkpt lat="45.00773326409114" lon="9.520879696507368"><ele>86.39999999999999</ele><time>2026-04-09T09:02:24.999Z</time></trkpt><trkpt lat="45.007641266434696" lon="9.520925274135386"><ele>86.19999999999999</ele><time>2026-04-09T09:02:26.999Z</time></trkpt><trkpt lat="45.007546777890205" lon="9.520963972406573"><ele>86.0</ele><time>2026-04-09T09:02:28.999Z</time></trkpt><trkpt lat="45.00746105709206" lon="9.521025500377014"><ele>86.0</ele><time>2026-04-09T09:02:30.999Z</time></trkpt><trkpt lat="45.007371009928036" lon="9.521091276662322"><ele>86.0</ele><time>2026-04-09T09:02:32.999Z</time></trkpt><trkpt lat="45.00728614858057" lon="9.521170491167883"><ele>86.0</ele><time>2026-04-09T09:02:34.999Z</time></trkpt><trkpt lat="45.007202373393625" lon="9.521265963796719"><ele>86.0</ele><time>2026-04-09T09:02:36.999Z</time></trkpt><trkpt lat="45.00713613932392" lon="9.521353854410165"><ele>86.0</ele><time>2026-04-09T09:02:38.999Z</time></trkpt><trkpt lat="45.0070683336228" lon="9.521446371812695"><ele>86.0</ele><time>2026-04-09T09:02:40.999Z</time></trkpt><trkpt lat="45.007001887236314" lon="9.521546263322694"><ele>86.0</ele><time>2026-04-09T09:02:42.999Z</time></trkpt><trkpt lat="45.00693457456167" lon="9.521631091371082"><ele>86.0</ele><time>2026-04-09T09:02:44.999Z</time></trkpt><trkpt lat="45.00686012998448" lon="9.521732964142373"><ele>86.0</ele><time>2026-04-09T09:02:46.999Z</time></trkpt><trkpt lat="45.00678277918446" lon="9.521826542982206"><ele>86.0</ele><time>2026-04-09T09:02:48.999Z</time></trkpt><trkpt lat="45.00671846827635" lon="9.521924966819611"><ele>85.8</ele><time>2026-04-09T09:02:50.999Z</time></trkpt><trkpt lat="45.00664339588655" lon="9.522020771294878"><ele>85.6</ele><time>2026-04-09T09:02:52.999Z</time></trkpt><trkpt lat="45.00657045637085" lon="9.5221210133955"><ele>85.4</ele><time>2026-04-09T09:02:54.999Z</time></trkpt><trkpt lat="45.00649114897742" lon="9.522206959575993"><ele>85.2</ele><time>2026-04-09T09:02:56.999Z</time></trkpt><trkpt lat="45.00642369532196" lon="9.522315842357935"><ele>85.0</ele><time>2026-04-09T09:02:58.999Z</time></trkpt><trkpt lat="45.00634195059181" lon="9.522414472871581"><ele>85.4</ele><time>2026-04-09T09:03:00.999Z</time></trkpt><trkpt lat="45.00627015809416" lon="9.522519641319432"><ele>85.8</ele><time>2026-04-09T09:03:02.999Z</time></trkpt><trkpt lat="45.00619024422598" lon="9.522615683350507"><ele>86.19999999999999</ele><time>2026-04-09T09:03:04.999Z</time></trkpt><trkpt lat="45.006118247134204" lon="9.522717779478544"><ele>86.6</ele><time>2026-04-09T09:03:06.999Z</time></trkpt><trkpt lat="45.0060373583713" lon="9.52282334947482"><ele>87.0</ele><time>2026-04-09T09:03:08.999Z</time></trkpt><trkpt lat="45.00596461059807" lon="9.522922713770006"><ele>87.0</ele><time>2026-04-09T09:03:10.999Z</time></trkpt><trkpt lat="45.00588310911088" lon="9.52303566362363"><ele>87.0</ele><time>2026-04-09T09:03:12.999Z</time></trkpt><trkpt lat="45.00581324205812" lon="9.523139467595879"><ele>87.0</ele><time>2026-04-09T09:03:14.998Z</time></trkpt><trkpt lat="45.005727105415794" lon="9.523233788953481"><ele>87.0</ele><time>2026-04-09T09:03:16.998Z</time></trkpt><trkpt lat="45.00566066439886" lon="9.523326850657927"><ele>87.0</ele><time>2026-04-09T09:03:18.998Z</time></trkpt><trkpt lat="45.00559511459421" lon="9.523420892359228"><ele>87.16666666666667</ele><time>2026-04-09T09:03:20.998Z</time></trkpt><trkpt lat="45.00552278644372" lon="9.523508212051153"><ele>87.33333333333333</ele><time>2026-04-09T09:03:22.998Z</time></trkpt><trkpt lat="45.00546664409044" lon="9.52359396459132"><ele>87.5</ele><time>2026-04-09T09:03:24.998Z</time></trkpt><trkpt lat="45.0053985100527" lon="9.523672320902675"><ele>87.66666666666666</ele><time>2026-04-09T09:03:26.998Z</time></trkpt><trkpt lat="45.00533264159744" lon="9.523761246831302"><ele>87.83333333333333</ele><time>2026-04-09T09:03:28.998Z</time></trkpt><trkpt lat="45.00526882224138" lon="9.523841784206011"><ele>88.0</ele><time>2026-04-09T09:03:30.998Z</time></trkpt><trkpt lat="45.00520344777623" lon="9.52393101863951"><ele>88.2</ele><time>2026-04-09T09:03:32.998Z</time></trkpt><trkpt lat="45.00513651528233" lon="9.524018673724026"><ele>88.4</ele><time>2026-04-09T09:03:34.998Z</time></trkpt><trkpt lat="45.005068985710906" lon="9.524107873658268"><ele>88.60000000000001</ele><time>2026-04-09T09:03:36.998Z</time></trkpt><trkpt lat="45.00500196218516" lon="9.524197104331241"><ele>88.80000000000001</ele><time>2026-04-09T09:03:38.998Z</time></trkpt><trkpt lat="45.00494121537062" lon="9.524289794245213"><ele>89.0</ele><time>2026-04-09T09:03:40.998Z</time></trkpt><trkpt lat="45.004870987920164" lon="9.524370202392406"><ele>88.80000000000001</ele><time>2026-04-09T09:03:42.998Z</time></trkpt><trkpt lat="45.00481065255503" lon="9.524442982012594"><ele>88.60000000000001</ele><time>2026-04-09T09:03:44.998Z</time></trkpt><trkpt lat="45.00473956466495" lon="9.524543348223407"><ele>88.4</ele><time>2026-04-09T09:03:46.998Z</time></trkpt><trkpt lat="45.00467116672526" lon="9.524630706673639"><ele>88.2</ele><time>2026-04-09T09:03:48.998Z</time></trkpt><trkpt lat="45.00460301062917" lon="9.524721915538805"><ele>88.0</ele><time>2026-04-09T09:03:50.998Z</time></trkpt><trkpt lat="45.004528596657835" lon="9.524813719859731"><ele>88.0</ele><time>2026-04-09T09:03:52.998Z</time></trkpt><trkpt lat="45.004463634173796" lon="9.524906025794127"><ele>88.0</ele><time>2026-04-09T09:03:54.998Z</time></trkpt><trkpt lat="45.00439303912536" lon="9.524994075276645"><ele>88.0</ele><time>2026-04-09T09:03:56.998Z</time></trkpt><trkpt lat="45.00432897445939" lon="9.525091715796734"><ele>88.0</ele><time>2026-04-09T09:03:58.998Z</time></trkpt><trkpt lat="45.004257080248145" lon="9.52518992471431"><ele>88.0</ele><time>2026-04-09T09:04:00.998Z</time></trkpt><trkpt lat="45.00418368826343" lon="9.525276050510183"><ele>88.0</ele><time>2026-04-09T09:04:02.998Z</time></trkpt><trkpt lat="45.004116870387314" lon="9.525377247317317"><ele>88.0</ele><time>2026-04-09T09:04:04.999Z</time></trkpt><trkpt lat="45.00404398965328" lon="9.525459978752485"><ele>88.0</ele><time>2026-04-09T09:04:06.998Z</time></trkpt><trkpt lat="45.003978113697656" lon="9.525550999860721"><ele>88.0</ele><time>2026-04-09T09:04:08.998Z</time></trkpt><trkpt lat="45.00390662706909" lon="9.525639632021631"><ele>88.0</ele><time>2026-04-09T09:04:10.999Z</time></trkpt><trkpt lat="45.00383948383007" lon="9.52572820899339"><ele>88.0</ele><time>2026-04-09T09:04:12.998Z</time></trkpt><trkpt lat="45.00377627514844" lon="9.525816427505031"><ele>88.0</ele><time>2026-04-09T09:04:14.998Z</time></trkpt><trkpt lat="45.00370677484417" lon="9.525907934704724"><ele>88.0</ele><time>2026-04-09T09:04:16.998Z</time></trkpt><trkpt lat="45.00363583218353" lon="9.525997208573504"><ele>88.0</ele><time>2026-04-09T09:04:18.998Z</time></trkpt><trkpt lat="45.00357569707591" lon="9.526091106112505"><ele>88.0</ele><time>2026-04-09T09:04:20.998Z</time></trkpt><trkpt lat="45.00350637575538" lon="9.5261772700359"><ele>87.80000000000001</ele><time>2026-04-09T09:04:22.998Z</time></trkpt><trkpt lat="45.00343623541459" lon="9.526267325260708"><ele>87.6</ele><time>2026-04-09T09:04:24.998Z</time></trkpt><trkpt lat="45.00336617629737" lon="9.526360823008577"><ele>87.4</ele><time>2026-04-09T09:04:26.998Z</time></trkpt><trkpt lat="45.003300826574765" lon="9.526449474968024"><ele>87.19999999999999</ele><time>2026-04-09T09:04:28.998Z</time></trkpt><trkpt lat="45.0032284262601" lon="9.526536216560668"><ele>87.0</ele><time>2026-04-09T09:04:30.998Z</time></trkpt><trkpt lat="45.00316220872194" lon="9.526633146806635"><ele>86.8</ele><time>2026-04-09T09:04:32.998Z</time></trkpt><trkpt lat="45.003090622642354" lon="9.52672337388395"><ele>86.6</ele><time>2026-04-09T09:04:34.998Z</time></trkpt><trkpt lat="45.0030237593474" lon="9.526816499863061"><ele>86.39999999999999</ele><time>2026-04-09T09:04:36.998Z</time></trkpt><trkpt lat="45.0029556011795" lon="9.526907051246507"><ele>86.19999999999999</ele><time>2026-04-09T09:04:38.998Z</time></trkpt><trkpt lat="45.00288379356914" lon="9.527004303251847"><ele>86.0</ele><time>2026-04-09T09:04:40.998Z</time></trkpt><trkpt lat="45.00281507798803" lon="9.527094246736732"><ele>86.0</ele><time>2026-04-09T09:04:42.998Z</time></trkpt><trkpt lat="45.00274621888253" lon="9.527184833392052"><ele>86.0</ele><time>2026-04-09T09:04:44.998Z</time></trkpt><trkpt lat="45.002679887304055" lon="9.527285026685416"><ele>86.0</ele><time>2026-04-09T09:04:46.998Z</time></trkpt><trkpt lat="45.002607369013965" lon="9.527377089386341"><ele>86.0</ele><time>2026-04-09T09:04:48.998Z</time></trkpt><trkpt lat="45.002539984200084" lon="9.527467975575801"><ele>86.0</ele><time>2026-04-09T09:04:50.998Z</time></trkpt><trkpt lat="45.00246682869589" lon="9.527562173806473"><ele>86.19999999999999</ele><time>2026-04-09T09:04:52.998Z</time></trkpt><trkpt lat="45.002396291853564" lon="9.527651881219521"><ele>86.39999999999999</ele><time>2026-04-09T09:04:54.998Z</time></trkpt><trkpt lat="45.00232689954586" lon="9.527742981217349"><ele>86.6</ele><time>2026-04-09T09:04:56.998Z</time></trkpt><trkpt lat="45.002254999760254" lon="9.527834391122262"><ele>86.8</ele><time>2026-04-09T09:04:58.998Z</time></trkpt><trkpt lat="45.0021886181886" lon="9.527925934129124"><ele>87.0</ele><time>2026-04-09T09:05:00.998Z</time></trkpt><trkpt lat="45.002125233395894" lon="9.52801678814156"><ele>87.19999999999999</ele><time>2026-04-09T09:05:02.998Z</time></trkpt><trkpt lat="45.00204765661836" lon="9.528109155382456"><ele>87.4</ele><time>2026-04-09T09:05:04.998Z</time></trkpt><trkpt lat="45.00198335694521" lon="9.528206066896477"><ele>87.6</ele><time>2026-04-09T09:05:06.998Z</time></trkpt><trkpt lat="45.001912745994964" lon="9.528296415374772"><ele>87.80000000000001</ele><time>2026-04-09T09:05:08.998Z</time></trkpt><trkpt lat="45.00183766864259" lon="9.52838947498059"><ele>88.0</ele><time>2026-04-09T09:05:10.998Z</time></trkpt><trkpt lat="45.0017657054756" lon="9.52848945383394"><ele>88.0</ele><time>2026-04-09T09:05:12.998Z</time></trkpt><trkpt lat="45.001691605238896" lon="9.52858353920413"><ele>88.0</ele><time>2026-04-09T09:05:14.998Z</time></trkpt><trkpt lat="45.001617816608174" lon="9.528687776008999"><ele>88.0</ele><time>2026-04-09T09:05:16.998Z</time></trkpt><trkpt lat="45.00154461843422" lon="9.528785635732552"><ele>88.0</ele><time>2026-04-09T09:05:18.998Z</time></trkpt><trkpt lat="45.001469980050274" lon="9.528885690284724"><ele>88.0</ele><time>2026-04-09T09:05:20.998Z</time></trkpt><trkpt lat="45.00139124677438" lon="9.528986564216662"><ele>87.4</ele><time>2026-04-09T09:05:22.998Z</time></trkpt><trkpt lat="45.001312198504486" lon="9.529089998383732"><ele>86.80000000000001</ele><time>2026-04-09T09:05:24.998Z</time></trkpt><trkpt lat="45.001235441642635" lon="9.52919420761906"><ele>86.2</ele><time>2026-04-09T09:05:26.998Z</time></trkpt><trkpt lat="45.00115419953939" lon="9.529300794439889"><ele>85.6</ele><time>2026-04-09T09:05:28.998Z</time></trkpt><trkpt lat="45.00107405555721" lon="9.529408818654197"><ele>85.0</ele><time>2026-04-09T09:05:30.998Z</time></trkpt><trkpt lat="45.00099408185398" lon="9.52951606980548"><ele>85.2</ele><time>2026-04-09T09:05:32.998Z</time></trkpt><trkpt lat="45.00091700689839" lon="9.529623923274759"><ele>85.4</ele><time>2026-04-09T09:05:34.998Z</time></trkpt><trkpt lat="45.000835820791785" lon="9.529731634469664"><ele>85.6</ele><time>2026-04-09T09:05:36.998Z</time></trkpt><trkpt lat="45.00075670717227" lon="9.529839390356747"><ele>85.8</ele><time>2026-04-09T09:05:38.998Z</time></trkpt><trkpt lat="45.00067246270522" lon="9.529943946507379"><ele>86.0</ele><time>2026-04-09T09:05:40.998Z</time></trkpt><trkpt lat="45.000589484143696" lon="9.53005366192808"><ele>86.6</ele><time>2026-04-09T09:05:42.998Z</time></trkpt><trkpt lat="45.0005065429001" lon="9.53015520619904"><ele>87.19999999999999</ele><time>2026-04-09T09:05:44.998Z</time></trkpt><trkpt lat="45.000432170922195" lon="9.530261330818803"><ele>87.80000000000001</ele><time>2026-04-09T09:05:46.998Z</time></trkpt><trkpt lat="45.00035206861759" lon="9.530370455979305"><ele>88.4</ele><time>2026-04-09T09:05:48.998Z</time></trkpt><trkpt lat="45.00027152005309" lon="9.530483907697292"><ele>89.0</ele><time>2026-04-09T09:05:50.998Z</time></trkpt><trkpt lat="45.00019772367549" lon="9.530591324690365"><ele>89.0</ele><time>2026-04-09T09:05:52.998Z</time></trkpt><trkpt lat="45.00011615529843" lon="9.530693986697672"><ele>89.0</ele><time>2026-04-09T09:05:54.998Z</time></trkpt><trkpt lat="45.000019959466236" lon="9.53078860476698"><ele>89.0</ele><time>2026-04-09T09:05:56.998Z</time></trkpt><trkpt lat="44.9999170388218" lon="9.530853499950545"><ele>89.0</ele><time>2026-04-09T09:05:58.998Z</time></trkpt><trkpt lat="44.99981413772583" lon="9.530903579187123"><ele>89.0</ele><time>2026-04-09T09:06:00.998Z</time></trkpt><trkpt lat="44.99971010577296" lon="9.530957107186023"><ele>89.0</ele><time>2026-04-09T09:06:02.998Z</time></trkpt><trkpt lat="44.99961125307102" lon="9.531000173820985"><ele>89.0</ele><time>2026-04-09T09:06:04.998Z</time></trkpt><trkpt lat="44.99951002013661" lon="9.531045764589985"><ele>89.0</ele><time>2026-04-09T09:06:06.998Z</time></trkpt><trkpt lat="44.99942340812095" lon="9.531081296380313"><ele>89.0</ele><time>2026-04-09T09:06:08.997Z</time></trkpt><trkpt lat="44.999339593472634" lon="9.531119563104763"><ele>89.0</ele><time>2026-04-09T09:06:10.999Z</time></trkpt><trkpt lat="44.99925898787399" lon="9.53116038501221"><ele>89.0</ele><time>2026-04-09T09:06:12.998Z</time></trkpt><trkpt lat="44.99918315462691" lon="9.531215838350395"><ele>89.0</ele><time>2026-04-09T09:06:14.998Z</time></trkpt><trkpt lat="44.99910165888743" lon="9.531291253740521"><ele>89.0</ele><time>2026-04-09T09:06:16.998Z</time></trkpt><trkpt lat="44.99902214919698" lon="9.531360805669866"><ele>89.0</ele><time>2026-04-09T09:06:18.998Z</time></trkpt><trkpt lat="44.99894109577187" lon="9.531429970251756"><ele>89.0</ele><time>2026-04-09T09:06:20.998Z</time></trkpt><trkpt lat="44.99885885073905" lon="9.531507706691357"><ele>89.6</ele><time>2026-04-09T09:06:22.999Z</time></trkpt><trkpt lat="44.998776881266174" lon="9.531588196605327"><ele>90.2</ele><time>2026-04-09T09:06:24.998Z</time></trkpt><trkpt lat="44.998698421267925" lon="9.531660479427616"><ele>90.8</ele><time>2026-04-09T09:06:26.998Z</time></trkpt><trkpt lat="44.998604592552105" lon="9.53170609502404"><ele>91.39999999999999</ele><time>2026-04-09T09:06:28.998Z</time></trkpt><trkpt lat="44.99851192116082" lon="9.531730401155745"><ele>92.0</ele><time>2026-04-09T09:06:30.998Z</time></trkpt><trkpt lat="44.9984358572392" lon="9.531738085248245"><ele>92.0</ele><time>2026-04-09T09:06:32.998Z</time></trkpt><trkpt lat="44.9983726257669" lon="9.53178001237526"><ele>92.0</ele><time>2026-04-09T09:06:35.998Z</time></trkpt><trkpt lat="44.99835094929962" lon="9.531908708278667"><ele>92.0</ele><time>2026-04-09T09:06:38.998Z</time></trkpt><trkpt lat="44.998350832098744" lon="9.53203214815515"><ele>92.0</ele><time>2026-04-09T09:06:40.998Z</time></trkpt><trkpt lat="44.99835629622127" lon="9.53213745783619"><ele>92.0</ele><time>2026-04-09T09:06:42.998Z</time></trkpt><trkpt lat="44.99836744437204" lon="9.532236349423433"><ele>92.0</ele><time>2026-04-09T09:06:44.998Z</time></trkpt><trkpt lat="44.998375517665664" lon="9.532355112879063"><ele>91.8</ele><time>2026-04-09T09:06:46.998Z</time></trkpt><trkpt lat="44.99837722700109" lon="9.5324742906227"><ele>91.6</ele><time>2026-04-09T09:06:48.998Z</time></trkpt><trkpt lat="44.99837440749945" lon="9.532600981417685"><ele>91.39999999999999</ele><time>2026-04-09T09:06:50.998Z</time></trkpt><trkpt lat="44.998372481954796" lon="9.532749855510724"><ele>91.19999999999999</ele><time>2026-04-09T09:06:52.998Z</time></trkpt><trkpt lat="44.99837728269716" lon="9.532894130012242"><ele>91.0</ele><time>2026-04-09T09:06:54.998Z</time></trkpt><trkpt lat="44.99838515369178" lon="9.533050185414098"><ele>91.0</ele><time>2026-04-09T09:06:56.998Z</time></trkpt><trkpt lat="44.99840690061451" lon="9.533188975055248"><ele>91.0</ele><time>2026-04-09T09:06:58.998Z</time></trkpt><trkpt lat="44.99843898326643" lon="9.533316410008943"><ele>91.0</ele><time>2026-04-09T09:07:00.998Z</time></trkpt><trkpt lat="44.99847644899153" lon="9.533428121794856"><ele>91.0</ele><time>2026-04-09T09:07:02.998Z</time></trkpt><trkpt lat="44.99852992712096" lon="9.533518334425105"><ele>91.0</ele><time>2026-04-09T09:07:04.998Z</time></trkpt><trkpt lat="44.998572577168375" lon="9.5336169301653"><ele>91.0</ele><time>2026-04-09T09:07:06.998Z</time></trkpt><trkpt lat="44.998627265211425" lon="9.533722914388134"><ele>91.0</ele><time>2026-04-09T09:07:08.998Z</time></trkpt><trkpt lat="44.99868845913449" lon="9.533832539636776"><ele>91.0</ele><time>2026-04-09T09:07:10.998Z</time></trkpt><trkpt lat="44.9987431811466" lon="9.533939811408448"><ele>91.0</ele><time>2026-04-09T09:07:12.998Z</time></trkpt><trkpt lat="44.998804075555604" lon="9.53404736574126"><ele>91.0</ele><time>2026-04-09T09:07:14.998Z</time></trkpt><trkpt lat="44.99887002625562" lon="9.534162742580618"><ele>91.0</ele><time>2026-04-09T09:07:16.998Z</time></trkpt><trkpt lat="44.99892312097347" lon="9.534272277172287"><ele>91.0</ele><time>2026-04-09T09:07:18.998Z</time></trkpt><trkpt lat="44.998987342094196" lon="9.534385009988423"><ele>91.0</ele><time>2026-04-09T09:07:20.998Z</time></trkpt><trkpt lat="44.99905160297501" lon="9.534498521560053"><ele>91.0</ele><time>2026-04-09T09:07:22.998Z</time></trkpt><trkpt lat="44.99911606125575" lon="9.534607428654773"><ele>91.0</ele><time>2026-04-09T09:07:24.998Z</time></trkpt><trkpt lat="44.999172544112454" lon="9.534732264245896"><ele>91.0</ele><time>2026-04-09T09:07:26.998Z</time></trkpt><trkpt lat="44.99922282704825" lon="9.534856279695923"><ele>90.6</ele><time>2026-04-09T09:07:28.998Z</time></trkpt><trkpt lat="44.99928525251024" lon="9.53498721643463"><ele>90.19999999999999</ele><time>2026-04-09T09:07:30.998Z</time></trkpt><trkpt lat="44.999357019377904" lon="9.535106895740958"><ele>89.80000000000001</ele><time>2026-04-09T09:07:32.998Z</time></trkpt><trkpt lat="44.99938580588571" lon="9.535187612174678"><ele>89.4</ele><time>2026-04-09T09:07:33.998Z</time></trkpt><trkpt lat="44.999439826221476" lon="9.535327330445947"><ele>89.0</ele><time>2026-04-09T09:07:35.998Z</time></trkpt><trkpt lat="44.99949656805435" lon="9.535474608951741"><ele>89.0</ele><time>2026-04-09T09:07:37.998Z</time></trkpt><trkpt lat="44.9995389488361" lon="9.535619855905354"><ele>89.0</ele><time>2026-04-09T09:07:39.998Z</time></trkpt><trkpt lat="44.99958470594821" lon="9.535755644393587"><ele>89.0</ele><time>2026-04-09T09:07:41.998Z</time></trkpt><trkpt lat="44.99962689304995" lon="9.535889695386553"><ele>89.0</ele><time>2026-04-09T09:07:43.998Z</time></trkpt><trkpt lat="44.99967225317372" lon="9.536030967157869"><ele>89.0</ele><time>2026-04-09T09:07:45.998Z</time></trkpt><trkpt lat="44.99971518550871" lon="9.53616902987002"><ele>89.2</ele><time>2026-04-09T09:07:47.998Z</time></trkpt><trkpt lat="44.99975192646503" lon="9.53630785982472"><ele>89.4</ele><time>2026-04-09T09:07:49.998Z</time></trkpt><trkpt lat="44.99978757183264" lon="9.536443032603621"><ele>89.6</ele><time>2026-04-09T09:07:51.998Z</time></trkpt><trkpt lat="44.999823741107946" lon="9.536578122246263"><ele>89.8</ele><time>2026-04-09T09:07:53.998Z</time></trkpt><trkpt lat="44.99985766310245" lon="9.53670601984074"><ele>90.0</ele><time>2026-04-09T09:07:55.998Z</time></trkpt><trkpt lat="44.99989207433389" lon="9.536833387973044"><ele>90.0</ele><time>2026-04-09T09:07:57.998Z</time></trkpt><trkpt lat="44.999927318001845" lon="9.536961767204405"><ele>90.0</ele><time>2026-04-09T09:07:59.998Z</time></trkpt><trkpt lat="44.99995608580739" lon="9.537089275554127"><ele>90.0</ele><time>2026-04-09T09:08:01.998Z</time></trkpt><trkpt lat="44.999991810589705" lon="9.537212177161562"><ele>90.0</ele><time>2026-04-09T09:08:03.998Z</time></trkpt><trkpt lat="45.00002418468794" lon="9.5373386635392"><ele>90.0</ele><time>2026-04-09T09:08:05.998Z</time></trkpt><trkpt lat="45.00005731383993" lon="9.537470336978632"><ele>90.0</ele><time>2026-04-09T09:08:07.998Z</time></trkpt><trkpt lat="45.00008886813457" lon="9.537602217841126"><ele>90.0</ele><time>2026-04-09T09:08:09.998Z</time></trkpt><trkpt lat="45.00012896915661" lon="9.537732063645185"><ele>90.0</ele><time>2026-04-09T09:08:11.998Z</time></trkpt><trkpt lat="45.000166864089714" lon="9.53786254729355"><ele>90.0</ele><time>2026-04-09T09:08:13.998Z</time></trkpt><trkpt lat="45.00021075389022" lon="9.538007572620776"><ele>90.0</ele><time>2026-04-09T09:08:15.998Z</time></trkpt><trkpt lat="45.000251270262396" lon="9.538141257924638"><ele>90.0</ele><time>2026-04-09T09:08:17.998Z</time></trkpt><trkpt lat="45.00030548341721" lon="9.538292641866091"><ele>90.0</ele><time>2026-04-09T09:08:19.998Z</time></trkpt><trkpt lat="45.00035684845491" lon="9.538433462798045"><ele>90.0</ele><time>2026-04-09T09:08:21.998Z</time></trkpt><trkpt lat="45.00040858805804" lon="9.538590644957091"><ele>90.0</ele><time>2026-04-09T09:08:23.998Z</time></trkpt><trkpt lat="45.00047044273709" lon="9.538735671456214"><ele>90.0</ele><time>2026-04-09T09:08:25.999Z</time></trkpt><trkpt lat="45.00051845801512" lon="9.538895114018139"><ele>90.0</ele><time>2026-04-09T09:08:27.998Z</time></trkpt><trkpt lat="45.00054137126948" lon="9.538981273739823"><ele>90.0</ele><time>2026-04-09T09:08:28.998Z</time></trkpt><trkpt lat="45.000602536319846" lon="9.53913861822995"><ele>90.0</ele><time>2026-04-09T09:08:30.998Z</time></trkpt><trkpt lat="45.00063088800016" lon="9.539222156721907"><ele>90.0</ele><time>2026-04-09T09:08:31.998Z</time></trkpt><trkpt lat="45.00066016394445" lon="9.53930324820469"><ele>90.0</ele><time>2026-04-09T09:08:32.998Z</time></trkpt><trkpt lat="45.00070876981205" lon="9.53946365246942"><ele>90.0</ele><time>2026-04-09T09:08:34.998Z</time></trkpt><trkpt lat="45.00073591107408" lon="9.53954589466782"><ele>90.0</ele><time>2026-04-09T09:08:35.998Z</time></trkpt><trkpt lat="45.00076390553686" lon="9.539626467739357"><ele>90.0</ele><time>2026-04-09T09:08:36.998Z</time></trkpt><trkpt lat="45.000813017421976" lon="9.539777129198148"><ele>90.0</ele><time>2026-04-09T09:08:38.998Z</time></trkpt><trkpt lat="45.00086206475797" lon="9.539938688447672"><ele>90.0</ele><time>2026-04-09T09:08:40.998Z</time></trkpt><trkpt lat="45.00091677034864" lon="9.540097752711974"><ele>89.8</ele><time>2026-04-09T09:08:42.998Z</time></trkpt><trkpt lat="45.000967114914545" lon="9.540249151274079"><ele>89.6</ele><time>2026-04-09T09:08:44.998Z</time></trkpt><trkpt lat="45.00100736570245" lon="9.540326652175239"><ele>89.4</ele><time>2026-04-09T09:08:45.998Z</time></trkpt><trkpt lat="45.001051912226266" lon="9.540476530246154"><ele>89.2</ele><time>2026-04-09T09:08:47.998Z</time></trkpt><trkpt lat="45.001104697175926" lon="9.540625651393167"><ele>89.0</ele><time>2026-04-09T09:08:49.998Z</time></trkpt><trkpt lat="45.00115407681815" lon="9.540771341083262"><ele>88.80000000000001</ele><time>2026-04-09T09:08:51.998Z</time></trkpt><trkpt lat="45.00120550312127" lon="9.540906670906365"><ele>88.60000000000001</ele><time>2026-04-09T09:08:53.998Z</time></trkpt><trkpt lat="45.001255217948554" lon="9.54104097347978"><ele>88.4</ele><time>2026-04-09T09:08:55.998Z</time></trkpt><trkpt lat="45.00129905708248" lon="9.541174375191588"><ele>88.2</ele><time>2026-04-09T09:08:57.998Z</time></trkpt><trkpt lat="45.001350550278204" lon="9.54133059604531"><ele>88.0</ele><time>2026-04-09T09:08:59.998Z</time></trkpt><trkpt lat="45.00140367883251" lon="9.541482209012289"><ele>88.0</ele><time>2026-04-09T09:09:01.998Z</time></trkpt><trkpt lat="45.001454687949256" lon="9.541638539384536"><ele>88.0</ele><time>2026-04-09T09:09:03.998Z</time></trkpt><trkpt lat="45.001509951655535" lon="9.5417832337275"><ele>88.0</ele><time>2026-04-09T09:09:05.998Z</time></trkpt><trkpt lat="45.00156389702356" lon="9.54193258206663"><ele>88.0</ele><time>2026-04-09T09:09:07.998Z</time></trkpt><trkpt lat="45.001613245433845" lon="9.542077182381075"><ele>87.75</ele><time>2026-04-09T09:09:09.998Z</time></trkpt><trkpt lat="45.00165692981994" lon="9.542217577226703"><ele>87.5</ele><time>2026-04-09T09:09:11.998Z</time></trkpt><trkpt lat="45.00171447858122" lon="9.5423642598437"><ele>87.25</ele><time>2026-04-09T09:09:13.998Z</time></trkpt><trkpt lat="45.00176313089661" lon="9.542512970386706"><ele>87.0</ele><time>2026-04-09T09:09:15.998Z</time></trkpt><trkpt lat="45.00181602104313" lon="9.542658585548123"><ele>86.5</ele><time>2026-04-09T09:09:17.998Z</time></trkpt><trkpt lat="45.00186415523354" lon="9.542805261356063"><ele>86.0</ele><time>2026-04-09T09:09:19.998Z</time></trkpt><trkpt lat="45.00191714573826" lon="9.542949713944017"><ele>85.5</ele><time>2026-04-09T09:09:21.998Z</time></trkpt><trkpt lat="45.00196685409668" lon="9.543098366756931"><ele>85.0</ele><time>2026-04-09T09:09:23.998Z</time></trkpt><trkpt lat="45.002019634891774" lon="9.543242452824947"><ele>85.0</ele><time>2026-04-09T09:09:25.998Z</time></trkpt><trkpt lat="45.002071773172375" lon="9.543381539747875"><ele>85.0</ele><time>2026-04-09T09:09:27.998Z</time></trkpt><trkpt lat="45.00211643428532" lon="9.54352383523244"><ele>85.0</ele><time>2026-04-09T09:09:29.998Z</time></trkpt><trkpt lat="45.002169101933646" lon="9.5436657696318"><ele>85.0</ele><time>2026-04-09T09:09:31.998Z</time></trkpt><trkpt lat="45.002220251847085" lon="9.543806036001833"><ele>85.0</ele><time>2026-04-09T09:09:33.998Z</time></trkpt><trkpt lat="45.00227198002441" lon="9.543947290078611"><ele>85.5</ele><time>2026-04-09T09:09:35.998Z</time></trkpt><trkpt lat="45.0023234476651" lon="9.54409183364313"><ele>86.0</ele><time>2026-04-09T09:09:37.998Z</time></trkpt><trkpt lat="45.00237326930905" lon="9.544235935764302"><ele>86.5</ele><time>2026-04-09T09:09:39.998Z</time></trkpt><trkpt lat="45.00242218358215" lon="9.544378560317817"><ele>87.0</ele><time>2026-04-09T09:09:41.998Z</time></trkpt><trkpt lat="45.002475717646355" lon="9.544514207390774"><ele>87.0</ele><time>2026-04-09T09:09:43.998Z</time></trkpt><trkpt lat="45.00252617238997" lon="9.544651059269004"><ele>87.0</ele><time>2026-04-09T09:09:45.997Z</time></trkpt><trkpt lat="45.00257331167864" lon="9.54478961484422"><ele>87.0</ele><time>2026-04-09T09:09:47.997Z</time></trkpt><trkpt lat="45.00262295681281" lon="9.544929919790285"><ele>87.0</ele><time>2026-04-09T09:09:49.997Z</time></trkpt><trkpt lat="45.002669701657204" lon="9.545080664129753"><ele>87.0</ele><time>2026-04-09T09:09:51.997Z</time></trkpt><trkpt lat="45.0027199643714" lon="9.54522953699451"><ele>87.0</ele><time>2026-04-09T09:09:53.997Z</time></trkpt><trkpt lat="45.002771413757735" lon="9.545377349310428"><ele>87.0</ele><time>2026-04-09T09:09:55.997Z</time></trkpt><trkpt lat="45.002820771573155" lon="9.545520435595977"><ele>87.0</ele><time>2026-04-09T09:09:57.997Z</time></trkpt><trkpt lat="45.00287623689443" lon="9.545670110808398"><ele>87.0</ele><time>2026-04-09T09:09:59.997Z</time></trkpt><trkpt lat="45.0029330910942" lon="9.545799361943493"><ele>86.75</ele><time>2026-04-09T09:10:01.997Z</time></trkpt><trkpt lat="45.002982963616276" lon="9.545946918498943"><ele>86.5</ele><time>2026-04-09T09:10:03.997Z</time></trkpt><trkpt lat="45.0030340055431" lon="9.546089466777694"><ele>86.25</ele><time>2026-04-09T09:10:05.997Z</time></trkpt><trkpt lat="45.003120880581754" lon="9.54618178347455"><ele>86.0</ele><time>2026-04-09T09:10:07.997Z</time></trkpt><trkpt lat="45.00324353114724" lon="9.546190607854365"><ele>86.0</ele><time>2026-04-09T09:10:09.997Z</time></trkpt><trkpt lat="45.00331707658725" lon="9.546178884897266"><ele>86.0</ele><time>2026-04-09T09:10:10.997Z</time></trkpt><trkpt lat="45.00343968852676" lon="9.546175172054573"><ele>86.0</ele><time>2026-04-09T09:10:12.997Z</time></trkpt><trkpt lat="45.003510756497974" lon="9.546163653131462"><ele>86.0</ele><time>2026-04-09T09:10:13.997Z</time></trkpt><trkpt lat="45.00357554419928" lon="9.546170373729195"><ele>86.0</ele><time>2026-04-09T09:10:14.997Z</time></trkpt><trkpt lat="45.00370646567642" lon="9.54616950413149"><ele>85.85714285714286</ele><time>2026-04-09T09:10:16.997Z</time></trkpt><trkpt lat="45.00377194461486" lon="9.54616357377738"><ele>85.71428571428572</ele><time>2026-04-09T09:10:17.997Z</time></trkpt><trkpt lat="45.0038411759706" lon="9.546162678711218"><ele>85.57142857142858</ele><time>2026-04-09T09:10:18.997Z</time></trkpt><trkpt lat="45.00390706677974" lon="9.54616428023079"><ele>85.42857142857143</ele><time>2026-04-09T09:10:19.997Z</time></trkpt><trkpt lat="45.0039739652189" lon="9.546167530362549"><ele>85.28571428571428</ele><time>2026-04-09T09:10:20.997Z</time></trkpt><trkpt lat="45.004044046014016" lon="9.54616513691175"><ele>85.14285714285715</ele><time>2026-04-09T09:10:21.997Z</time></trkpt><trkpt lat="45.00411291156403" lon="9.546166298798704"><ele>85.0</ele><time>2026-04-09T09:10:22.998Z</time></trkpt><trkpt lat="45.004184935235585" lon="9.546168418206392"><ele>84.71428571428572</ele><time>2026-04-09T09:10:23.998Z</time></trkpt><trkpt lat="45.00425600521216" lon="9.546164560133365"><ele>84.42857142857142</ele><time>2026-04-09T09:10:24.998Z</time></trkpt><trkpt lat="45.00432439263855" lon="9.546162917252412"><ele>84.14285714285714</ele><time>2026-04-09T09:10:25.998Z</time></trkpt><trkpt lat="45.0043930417007" lon="9.546158175422578"><ele>83.85714285714286</ele><time>2026-04-09T09:10:26.997Z</time></trkpt><trkpt lat="45.00446248975981" lon="9.54615968111331"><ele>83.57142857142858</ele><time>2026-04-09T09:10:27.997Z</time></trkpt><trkpt lat="45.00452836927583" lon="9.5461724233573"><ele>83.28571428571428</ele><time>2026-04-09T09:10:28.998Z</time></trkpt><trkpt lat="45.00460584537741" lon="9.546161112960156"><ele>83.0</ele><time>2026-04-09T09:10:29.998Z</time></trkpt><trkpt lat="45.0046764307893" lon="9.546165588925215"><ele>83.0</ele><time>2026-04-09T09:10:30.998Z</time></trkpt><trkpt lat="45.00474628951786" lon="9.546161595684925"><ele>83.0</ele><time>2026-04-09T09:10:31.998Z</time></trkpt><trkpt lat="45.00481758961632" lon="9.54616181887141"><ele>83.0</ele><time>2026-04-09T09:10:32.998Z</time></trkpt><trkpt lat="45.00489256966381" lon="9.546157275563468"><ele>83.0</ele><time>2026-04-09T09:10:33.998Z</time></trkpt><trkpt lat="45.00496111941729" lon="9.546156507039063"><ele>83.0</ele><time>2026-04-09T09:10:34.998Z</time></trkpt><trkpt lat="45.0050382071505" lon="9.54615941606551"><ele>83.0</ele><time>2026-04-09T09:10:35.998Z</time></trkpt><trkpt lat="45.005110071439304" lon="9.546158626385338"><ele>83.0</ele><time>2026-04-09T09:10:36.998Z</time></trkpt><trkpt lat="45.00518441126901" lon="9.546158009224301"><ele>82.83333333333334</ele><time>2026-04-09T09:10:37.998Z</time></trkpt><trkpt lat="45.005256557559306" lon="9.54615846561638"><ele>82.66666666666667</ele><time>2026-04-09T09:10:38.998Z</time></trkpt><trkpt lat="45.00533320891499" lon="9.546150411445813"><ele>82.5</ele><time>2026-04-09T09:10:39.998Z</time></trkpt><trkpt lat="45.005407703922785" lon="9.546155261020951"><ele>82.33333333333333</ele><time>2026-04-09T09:10:40.998Z</time></trkpt><trkpt lat="45.005480110917624" lon="9.546155913450699"><ele>82.16666666666666</ele><time>2026-04-09T09:10:41.998Z</time></trkpt><trkpt lat="45.005560223488274" lon="9.546154299063504"><ele>82.0</ele><time>2026-04-09T09:10:42.998Z</time></trkpt><trkpt lat="45.00563579216125" lon="9.546152699443907"><ele>82.0</ele><time>2026-04-09T09:10:43.998Z</time></trkpt><trkpt lat="45.00570981369002" lon="9.546151772119687"><ele>82.0</ele><time>2026-04-09T09:10:44.998Z</time></trkpt><trkpt lat="45.00578574607307" lon="9.546152181156414"><ele>82.0</ele><time>2026-04-09T09:10:45.998Z</time></trkpt><trkpt lat="45.005864487887344" lon="9.546146819361333"><ele>82.0</ele><time>2026-04-09T09:10:46.998Z</time></trkpt><trkpt lat="45.00593791922343" lon="9.54614940123749"><ele>82.0</ele><time>2026-04-09T09:10:47.998Z</time></trkpt><trkpt lat="45.00601367838006" lon="9.546144200323381"><ele>82.0</ele><time>2026-04-09T09:10:48.998Z</time></trkpt><trkpt lat="45.00609025081323" lon="9.546149770345203"><ele>82.33333333333333</ele><time>2026-04-09T09:10:49.998Z</time></trkpt><trkpt lat="45.00616854194295" lon="9.546146673202369"><ele>82.66666666666666</ele><time>2026-04-09T09:10:50.998Z</time></trkpt><trkpt lat="45.00624711673261" lon="9.546147027429036"><ele>83.0</ele><time>2026-04-09T09:10:51.998Z</time></trkpt><trkpt lat="45.006322712821515" lon="9.546144925372204"><ele>83.33333333333333</ele><time>2026-04-09T09:10:52.998Z</time></trkpt><trkpt lat="45.00639679760209" lon="9.546141994080438"><ele>83.66666666666667</ele><time>2026-04-09T09:10:53.998Z</time></trkpt><trkpt lat="45.006468905624914" lon="9.546140482723427"><ele>84.0</ele><time>2026-04-09T09:10:54.998Z</time></trkpt><trkpt lat="45.00654559571147" lon="9.546143462469217"><ele>84.0</ele><time>2026-04-09T09:10:55.998Z</time></trkpt><trkpt lat="45.00661992757977" lon="9.546139642975795"><ele>84.0</ele><time>2026-04-09T09:10:56.998Z</time></trkpt><trkpt lat="45.00669335134963" lon="9.546142476441137"><ele>84.0</ele><time>2026-04-09T09:10:57.998Z</time></trkpt><trkpt lat="45.006765458856975" lon="9.546141668871497"><ele>84.0</ele><time>2026-04-09T09:10:58.998Z</time></trkpt><trkpt lat="45.00684095137516" lon="9.54614092993022"><ele>84.0</ele><time>2026-04-09T09:10:59.998Z</time></trkpt><trkpt lat="45.006913831989024" lon="9.54614264685551"><ele>84.0</ele><time>2026-04-09T09:11:00.998Z</time></trkpt><trkpt lat="45.00699135516508" lon="9.546144010977024"><ele>84.0</ele><time>2026-04-09T09:11:01.998Z</time></trkpt><trkpt lat="45.007064817704624" lon="9.54614165654017"><ele>83.57142857142857</ele><time>2026-04-09T09:11:02.998Z</time></trkpt><trkpt lat="45.00713724972724" lon="9.546142672636801"><ele>83.14285714285714</ele><time>2026-04-09T09:11:03.998Z</time></trkpt><trkpt lat="45.00721044512954" lon="9.546140841621842"><ele>82.71428571428572</ele><time>2026-04-09T09:11:04.998Z</time></trkpt><trkpt lat="45.00728473969048" lon="9.546138224445695"><ele>82.28571428571428</ele><time>2026-04-09T09:11:05.998Z</time></trkpt><trkpt lat="45.00735924932375" lon="9.546138976967429"><ele>81.85714285714286</ele><time>2026-04-09T09:11:06.998Z</time></trkpt><trkpt lat="45.00743297033684" lon="9.54613837009247"><ele>81.42857142857143</ele><time>2026-04-09T09:11:07.998Z</time></trkpt><trkpt lat="45.007506232685586" lon="9.546137127012233"><ele>81.0</ele><time>2026-04-09T09:11:08.998Z</time></trkpt><trkpt lat="45.00758003207267" lon="9.546138482219117"><ele>81.0</ele><time>2026-04-09T09:11:09.998Z</time></trkpt><trkpt lat="45.007652943326356" lon="9.546138769970536"><ele>81.0</ele><time>2026-04-09T09:11:10.998Z</time></trkpt><trkpt lat="45.00772830350983" lon="9.546141274183471"><ele>81.0</ele><time>2026-04-09T09:11:11.998Z</time></trkpt><trkpt lat="45.007800972707" lon="9.546153060267999"><ele>81.0</ele><time>2026-04-09T09:11:12.998Z</time></trkpt><trkpt lat="45.007876534786114" lon="9.54615655169859"><ele>81.0</ele><time>2026-04-09T09:11:13.998Z</time></trkpt><trkpt lat="45.00795362297812" lon="9.546150640345706"><ele>81.0</ele><time>2026-04-09T09:11:14.998Z</time></trkpt><trkpt lat="45.00802326246974" lon="9.54615568670494"><ele>81.0</ele><time>2026-04-09T09:11:15.998Z</time></trkpt><trkpt lat="45.00810167027721" lon="9.546161116494812"><ele>81.0</ele><time>2026-04-09T09:11:16.998Z</time></trkpt><trkpt lat="45.00817817814247" lon="9.54617028999079"><ele>81.0</ele><time>2026-04-09T09:11:17.998Z</time></trkpt><trkpt lat="45.00825527290733" lon="9.546176296064324"><ele>81.0</ele><time>2026-04-09T09:11:18.998Z</time></trkpt><trkpt lat="45.0083295295325" lon="9.546180851834356"><ele>81.0</ele><time>2026-04-09T09:11:19.998Z</time></trkpt><trkpt lat="45.00840668400448" lon="9.546185147074887"><ele>81.0</ele><time>2026-04-09T09:11:20.998Z</time></trkpt><trkpt lat="45.00848392288786" lon="9.546187385152878"><ele>81.0</ele><time>2026-04-09T09:11:21.998Z</time></trkpt><trkpt lat="45.00856086758812" lon="9.546193775084257"><ele>81.0</ele><time>2026-04-09T09:11:22.998Z</time></trkpt><trkpt lat="45.008639970231755" lon="9.546197890129667"><ele>81.0</ele><time>2026-04-09T09:11:23.998Z</time></trkpt><trkpt lat="45.00871809394851" lon="9.546203396992349"><ele>81.0</ele><time>2026-04-09T09:11:24.998Z</time></trkpt><trkpt lat="45.008794667708806" lon="9.546208416278702"><ele>81.0</ele><time>2026-04-09T09:11:25.998Z</time></trkpt><trkpt lat="45.0088752029471" lon="9.546214909825592"><ele>81.0</ele><time>2026-04-09T09:11:26.998Z</time></trkpt><trkpt lat="45.00895450074392" lon="9.546220995903404"><ele>81.0</ele><time>2026-04-09T09:11:27.998Z</time></trkpt><trkpt lat="45.00903664913686" lon="9.54622871495672"><ele>80.83333333333333</ele><time>2026-04-09T09:11:28.998Z</time></trkpt><trkpt lat="45.009120617891426" lon="9.546225877662689"><ele>80.66666666666667</ele><time>2026-04-09T09:11:29.998Z</time></trkpt><trkpt lat="45.00919929617673" lon="9.546237745675027"><ele>80.5</ele><time>2026-04-09T09:11:30.998Z</time></trkpt><trkpt lat="45.00927848716511" lon="9.546244782392817"><ele>80.33333333333334</ele><time>2026-04-09T09:11:31.998Z</time></trkpt><trkpt lat="45.00935975468843" lon="9.546246777455304"><ele>80.16666666666667</ele><time>2026-04-09T09:11:32.998Z</time></trkpt><trkpt lat="45.009440247768225" lon="9.546250480796829"><ele>80.0</ele><time>2026-04-09T09:11:33.998Z</time></trkpt><trkpt lat="45.00951877419924" lon="9.546255068579248"><ele>80.0</ele><time>2026-04-09T09:11:34.998Z</time></trkpt><trkpt lat="45.00959863029587" lon="9.546260477241809"><ele>80.0</ele><time>2026-04-09T09:11:35.998Z</time></trkpt><trkpt lat="45.00967642637654" lon="9.546268613769653"><ele>80.0</ele><time>2026-04-09T09:11:36.998Z</time></trkpt><trkpt lat="45.009756148593354" lon="9.546272983480273"><ele>80.0</ele><time>2026-04-09T09:11:37.998Z</time></trkpt><trkpt lat="45.00983500016417" lon="9.546277258850749"><ele>80.0</ele><time>2026-04-09T09:11:38.998Z</time></trkpt><trkpt lat="45.00991382054511" lon="9.54628534880982"><ele>80.0</ele><time>2026-04-09T09:11:39.998Z</time></trkpt><trkpt lat="45.0099952233227" lon="9.546286930308542"><ele>79.66666666666667</ele><time>2026-04-09T09:11:40.998Z</time></trkpt><trkpt lat="45.01007221683496" lon="9.546290041485413"><ele>79.33333333333334</ele><time>2026-04-09T09:11:41.998Z</time></trkpt><trkpt lat="45.01015122067337" lon="9.546298539677476"><ele>79.0</ele><time>2026-04-09T09:11:42.998Z</time></trkpt><trkpt lat="45.01022869518279" lon="9.546302858229556"><ele>78.66666666666667</ele><time>2026-04-09T09:11:43.998Z</time></trkpt><trkpt lat="45.010303345190586" lon="9.54630796200156"><ele>78.33333333333333</ele><time>2026-04-09T09:11:44.998Z</time></trkpt><trkpt lat="45.01037727276561" lon="9.546310792802025"><ele>78.0</ele><time>2026-04-09T09:11:45.998Z</time></trkpt><trkpt lat="45.0104529942723" lon="9.546321308899493"><ele>78.0</ele><time>2026-04-09T09:11:46.998Z</time></trkpt><trkpt lat="45.01052885989839" lon="9.546316348243824"><ele>78.0</ele><time>2026-04-09T09:11:47.998Z</time></trkpt><trkpt lat="45.010605393911945" lon="9.546327436013138"><ele>78.0</ele><time>2026-04-09T09:11:48.998Z</time></trkpt><trkpt lat="45.01068075226624" lon="9.546336370055975"><ele>78.0</ele><time>2026-04-09T09:11:49.998Z</time></trkpt><trkpt lat="45.01075117941505" lon="9.546336848514477"><ele>78.0</ele><time>2026-04-09T09:11:50.998Z</time></trkpt><trkpt lat="45.01082536868389" lon="9.546341863887733"><ele>78.0</ele><time>2026-04-09T09:11:51.998Z</time></trkpt><trkpt lat="45.010895727218355" lon="9.54634968811886"><ele>78.0</ele><time>2026-04-09T09:11:52.998Z</time></trkpt><trkpt lat="45.01096684493984" lon="9.546349633334618"><ele>78.14285714285715</ele><time>2026-04-09T09:11:53.998Z</time></trkpt><trkpt lat="45.01103839746388" lon="9.546353248098871"><ele>78.28571428571428</ele><time>2026-04-09T09:11:54.998Z</time></trkpt><trkpt lat="45.0111094152373" lon="9.54635804216906"><ele>78.42857142857143</ele><time>2026-04-09T09:11:55.998Z</time></trkpt><trkpt lat="45.01117497545558" lon="9.54636533621635"><ele>78.57142857142858</ele><time>2026-04-09T09:11:56.998Z</time></trkpt><trkpt lat="45.01124566165555" lon="9.546368126711009"><ele>78.71428571428572</ele><time>2026-04-09T09:11:57.998Z</time></trkpt><trkpt lat="45.011311580854326" lon="9.546374375782309"><ele>78.85714285714286</ele><time>2026-04-09T09:11:58.998Z</time></trkpt><trkpt lat="45.01138366112018" lon="9.546374081390006"><ele>79.0</ele><time>2026-04-09T09:11:59.998Z</time></trkpt><trkpt lat="45.011517188065646" lon="9.546386115235167"><ele>79.0</ele><time>2026-04-09T09:12:01.998Z</time></trkpt><trkpt lat="45.0115828639822" lon="9.54638732012393"><ele>79.0</ele><time>2026-04-09T09:12:02.998Z</time></trkpt><trkpt lat="45.01165267623252" lon="9.546392258979951"><ele>79.0</ele><time>2026-04-09T09:12:03.998Z</time></trkpt><trkpt lat="45.01177665267036" lon="9.546399304036514"><ele>79.0</ele><time>2026-04-09T09:12:05.998Z</time></trkpt><trkpt lat="45.011843973548615" lon="9.546406168831625"><ele>79.0</ele><time>2026-04-09T09:12:06.998Z</time></trkpt><trkpt lat="45.0119086304258" lon="9.546410418273693"><ele>79.0</ele><time>2026-04-09T09:12:07.998Z</time></trkpt><trkpt lat="45.01197347019901" lon="9.546413808094636"><ele>78.66666666666666</ele><time>2026-04-09T09:12:08.998Z</time></trkpt><trkpt lat="45.01203867469368" lon="9.546412688360139"><ele>78.33333333333333</ele><time>2026-04-09T09:12:09.998Z</time></trkpt><trkpt lat="45.01216125351418" lon="9.546422825094368"><ele>78.0</ele><time>2026-04-09T09:12:11.998Z</time></trkpt><trkpt lat="45.012225304150505" lon="9.546426823227128"><ele>77.66666666666667</ele><time>2026-04-09T09:12:12.998Z</time></trkpt><trkpt lat="45.01228908978311" lon="9.54642694352663"><ele>77.33333333333334</ele><time>2026-04-09T09:12:13.998Z</time></trkpt><trkpt lat="45.01241057430603" lon="9.54643856669673"><ele>77.0</ele><time>2026-04-09T09:12:15.998Z</time></trkpt><trkpt lat="45.01247648453466" lon="9.546442574641521"><ele>77.14285714285714</ele><time>2026-04-09T09:12:16.998Z</time></trkpt><trkpt lat="45.01253944630687" lon="9.54644456262683"><ele>77.28571428571428</ele><time>2026-04-09T09:12:17.998Z</time></trkpt><trkpt lat="45.012603337818476" lon="9.546440315717364"><ele>77.42857142857143</ele><time>2026-04-09T09:12:18.998Z</time></trkpt><trkpt lat="45.01266627907344" lon="9.54643611258698"><ele>77.57142857142857</ele><time>2026-04-09T09:12:19.998Z</time></trkpt><trkpt lat="45.01273199384305" lon="9.546432963219534"><ele>77.71428571428571</ele><time>2026-04-09T09:12:20.998Z</time></trkpt><trkpt lat="45.01279680275349" lon="9.546429817160888"><ele>77.85714285714286</ele><time>2026-04-09T09:12:21.998Z</time></trkpt><trkpt lat="45.01286189897367" lon="9.546428293590857"><ele>78.0</ele><time>2026-04-09T09:12:22.998Z</time></trkpt><trkpt lat="45.01293000707818" lon="9.546422018375287"><ele>78.0</ele><time>2026-04-09T09:12:23.998Z</time></trkpt><trkpt lat="45.01299450568354" lon="9.546419180482449"><ele>78.0</ele><time>2026-04-09T09:12:24.998Z</time></trkpt><trkpt lat="45.01306015633635" lon="9.546417424345744"><ele>78.0</ele><time>2026-04-09T09:12:25.998Z</time></trkpt><trkpt lat="45.01312944785806" lon="9.546419769359648"><ele>78.0</ele><time>2026-04-09T09:12:26.998Z</time></trkpt><trkpt lat="45.01319645149634" lon="9.546417047574565"><ele>78.0</ele><time>2026-04-09T09:12:27.998Z</time></trkpt><trkpt lat="45.013263045722084" lon="9.54641069820212"><ele>78.0</ele><time>2026-04-09T09:12:28.998Z</time></trkpt><trkpt lat="45.01332889084138" lon="9.546412957757036"><ele>78.0</ele><time>2026-04-09T09:12:29.998Z</time></trkpt><trkpt lat="45.01339775457527" lon="9.546406284560506"><ele>78.14285714285715</ele><time>2026-04-09T09:12:30.998Z</time></trkpt><trkpt lat="45.013463660689816" lon="9.546413608971454"><ele>78.28571428571428</ele><time>2026-04-09T09:12:31.998Z</time></trkpt><trkpt lat="45.01353197976725" lon="9.546409438620554"><ele>78.42857142857143</ele><time>2026-04-09T09:12:32.998Z</time></trkpt><trkpt lat="45.01360024654831" lon="9.54640402431099"><ele>78.57142857142858</ele><time>2026-04-09T09:12:33.998Z</time></trkpt><trkpt lat="45.01366927284946" lon="9.546405263091637"><ele>78.71428571428572</ele><time>2026-04-09T09:12:34.998Z</time></trkpt><trkpt lat="45.01373743080116" lon="9.54639870346251"><ele>78.85714285714286</ele><time>2026-04-09T09:12:35.998Z</time></trkpt><trkpt lat="45.01380482775698" lon="9.546400673376194"><ele>79.0</ele><time>2026-04-09T09:12:36.998Z</time></trkpt><trkpt lat="45.01387227294023" lon="9.546393777718809"><ele>79.00000000000001</ele><time>2026-04-09T09:12:37.998Z</time></trkpt><trkpt lat="45.013944827390105" lon="9.546396931914273"><ele>79.0</ele><time>2026-04-09T09:12:38.998Z</time></trkpt><trkpt lat="45.014013852205395" lon="9.54639179940611"><ele>79.0</ele><time>2026-04-09T09:12:39.998Z</time></trkpt><trkpt lat="45.01408231154053" lon="9.546389583348063"><ele>79.0</ele><time>2026-04-09T09:12:40.997Z</time></trkpt><trkpt lat="45.014154956478556" lon="9.546387484275465"><ele>79.0</ele><time>2026-04-09T09:12:41.998Z</time></trkpt><trkpt lat="45.014225618868316" lon="9.546386440873045"><ele>79.00000000000001</ele><time>2026-04-09T09:12:42.998Z</time></trkpt><trkpt lat="45.01429485832757" lon="9.546385930334848"><ele>79.0</ele><time>2026-04-09T09:12:43.998Z</time></trkpt><trkpt lat="45.01436355498832" lon="9.54638497338845"><ele>78.71428571428572</ele><time>2026-04-09T09:12:44.998Z</time></trkpt><trkpt lat="45.014436012386376" lon="9.54637913673883"><ele>78.42857142857143</ele><time>2026-04-09T09:12:45.998Z</time></trkpt><trkpt lat="45.0145043059658" lon="9.546375455820895"><ele>78.14285714285714</ele><time>2026-04-09T09:12:46.998Z</time></trkpt><trkpt lat="45.0145787333822" lon="9.546374819584639"><ele>77.85714285714286</ele><time>2026-04-09T09:12:47.998Z</time></trkpt><trkpt lat="45.01465185313354" lon="9.546372739473808"><ele>77.57142857142857</ele><time>2026-04-09T09:12:48.998Z</time></trkpt><trkpt lat="45.01472136671396" lon="9.54636865395927"><ele>77.28571428571429</ele><time>2026-04-09T09:12:49.998Z</time></trkpt><trkpt lat="45.01479592613853" lon="9.546363785045486"><ele>77.0</ele><time>2026-04-09T09:12:50.998Z</time></trkpt><trkpt lat="45.014868754344015" lon="9.546360740662967"><ele>77.0</ele><time>2026-04-09T09:12:51.998Z</time></trkpt><trkpt lat="45.014940846898185" lon="9.546360639452176"><ele>77.0</ele><time>2026-04-09T09:12:52.998Z</time></trkpt><trkpt lat="45.0150099949397" lon="9.54635856237408"><ele>77.0</ele><time>2026-04-09T09:12:53.998Z</time></trkpt><trkpt lat="45.01507855506418" lon="9.546354702873916"><ele>77.0</ele><time>2026-04-09T09:12:54.998Z</time></trkpt><trkpt lat="45.015143010450025" lon="9.546352092552015"><ele>77.0</ele><time>2026-04-09T09:12:55.998Z</time></trkpt><trkpt lat="45.01520920355094" lon="9.546350914856024"><ele>77.0</ele><time>2026-04-09T09:12:56.998Z</time></trkpt><trkpt lat="45.015273574026615" lon="9.5463458808667"><ele>77.0</ele><time>2026-04-09T09:12:57.998Z</time></trkpt><trkpt lat="45.01538987310926" lon="9.546343551477348"><ele>77.0</ele><time>2026-04-09T09:12:59.998Z</time></trkpt><trkpt lat="45.0155077339599" lon="9.546341358115354"><ele>77.0</ele><time>2026-04-09T09:13:01.998Z</time></trkpt><trkpt lat="45.0156277103021" lon="9.546332862115259"><ele>77.0</ele><time>2026-04-09T09:13:03.998Z</time></trkpt><trkpt lat="45.01569803000259" lon="9.546331822933789"><ele>77.0</ele><time>2026-04-09T09:13:04.998Z</time></trkpt><trkpt lat="45.01576790244391" lon="9.546332191309633"><ele>77.0</ele><time>2026-04-09T09:13:05.998Z</time></trkpt><trkpt lat="45.015834956740186" lon="9.546331979149912"><ele>77.0</ele><time>2026-04-09T09:13:06.998Z</time></trkpt><trkpt lat="45.015902897402626" lon="9.546327335537088"><ele>77.0</ele><time>2026-04-09T09:13:07.998Z</time></trkpt><trkpt lat="45.01596966809851" lon="9.546327314427192"><ele>77.0</ele><time>2026-04-09T09:13:08.998Z</time></trkpt><trkpt lat="45.0160356225966" lon="9.546331698003197"><ele>77.0</ele><time>2026-04-09T09:13:09.998Z</time></trkpt><trkpt lat="45.01610385084064" lon="9.546330063932803"><ele>77.0</ele><time>2026-04-09T09:13:10.998Z</time></trkpt><trkpt lat="45.016170479793836" lon="9.546326775341551"><ele>77.0</ele><time>2026-04-09T09:13:11.998Z</time></trkpt><trkpt lat="45.01623889641696" lon="9.546321103845182"><ele>77.0</ele><time>2026-04-09T09:13:12.998Z</time></trkpt><trkpt lat="45.01631258831841" lon="9.546320576930516"><ele>77.0</ele><time>2026-04-09T09:13:13.998Z</time></trkpt><trkpt lat="45.0163762401102" lon="9.54633127036466"><ele>77.0</ele><time>2026-04-09T09:13:14.998Z</time></trkpt><trkpt lat="45.01644740939452" lon="9.546328290818206"><ele>77.0</ele><time>2026-04-09T09:13:15.998Z</time></trkpt><trkpt lat="45.0165193186034" lon="9.546327639345236"><ele>77.0</ele><time>2026-04-09T09:13:16.998Z</time></trkpt><trkpt lat="45.01658590494892" lon="9.546329402445464"><ele>77.0</ele><time>2026-04-09T09:13:17.998Z</time></trkpt><trkpt lat="45.01665477712118" lon="9.546322403916461"><ele>77.0</ele><time>2026-04-09T09:13:18.998Z</time></trkpt><trkpt lat="45.01672736932812" lon="9.546322548848046"><ele>77.0</ele><time>2026-04-09T09:13:19.998Z</time></trkpt><trkpt lat="45.01679679973701" lon="9.54632909867004"><ele>77.0</ele><time>2026-04-09T09:13:20.998Z</time></trkpt><trkpt lat="45.01686349015427" lon="9.546321731041038"><ele>77.0</ele><time>2026-04-09T09:13:21.998Z</time></trkpt><trkpt lat="45.01693548705494" lon="9.54631822601975"><ele>77.0</ele><time>2026-04-09T09:13:22.998Z</time></trkpt><trkpt lat="45.01700320798342" lon="9.546316458832598"><ele>77.0</ele><time>2026-04-09T09:13:23.998Z</time></trkpt><trkpt lat="45.01707668149991" lon="9.54631608572842"><ele>77.0</ele><time>2026-04-09T09:13:24.998Z</time></trkpt><trkpt lat="45.017152856749995" lon="9.546312913892812"><ele>77.0</ele><time>2026-04-09T09:13:25.998Z</time></trkpt><trkpt lat="45.01722558741475" lon="9.546311162296428"><ele>77.0</ele><time>2026-04-09T09:13:26.998Z</time></trkpt><trkpt lat="45.01729711486751" lon="9.54630750073051"><ele>77.0</ele><time>2026-04-09T09:13:27.998Z</time></trkpt><trkpt lat="45.01737589738635" lon="9.546302669202435"><ele>77.0</ele><time>2026-04-09T09:13:28.998Z</time></trkpt><trkpt lat="45.0174534314415" lon="9.546306431432093"><ele>77.0</ele><time>2026-04-09T09:13:29.998Z</time></trkpt><trkpt lat="45.0175258651288" lon="9.546323888871289"><ele>77.0</ele><time>2026-04-09T09:13:30.998Z</time></trkpt><trkpt lat="45.01759185023019" lon="9.546361389705737"><ele>77.0</ele><time>2026-04-09T09:13:31.998Z</time></trkpt><trkpt lat="45.01765372844151" lon="9.546412722727796"><ele>77.0</ele><time>2026-04-09T09:13:32.998Z</time></trkpt><trkpt lat="45.017724846802395" lon="9.546451601439676"><ele>77.0</ele><time>2026-04-09T09:13:33.998Z</time></trkpt><trkpt lat="45.017795871428305" lon="9.546449201464908"><ele>77.0</ele><time>2026-04-09T09:13:34.998Z</time></trkpt><trkpt lat="45.0178708774165" lon="9.546420965197607"><ele>77.0</ele><time>2026-04-09T09:13:35.998Z</time></trkpt><trkpt lat="45.0179285426578" lon="9.546355720227192"><ele>77.0</ele><time>2026-04-09T09:13:36.997Z</time></trkpt><trkpt lat="45.01797696873691" lon="9.546283539914779"><ele>77.0</ele><time>2026-04-09T09:13:37.997Z</time></trkpt><trkpt lat="45.01801934079791" lon="9.546203991436194"><ele>77.0</ele><time>2026-04-09T09:13:38.997Z</time></trkpt><trkpt lat="45.01807112572692" lon="9.546141997964536"><ele>77.0</ele><time>2026-04-09T09:13:39.997Z</time></trkpt><trkpt lat="45.01813805075217" lon="9.54608860563958"><ele>77.0</ele><time>2026-04-09T09:13:40.997Z</time></trkpt><trkpt lat="45.01822308880523" lon="9.5460684487971"><ele>77.0</ele><time>2026-04-09T09:13:41.997Z</time></trkpt><trkpt lat="45.01830628111467" lon="9.546070747740332"><ele>76.83333333333334</ele><time>2026-04-09T09:13:42.997Z</time></trkpt><trkpt lat="45.0183877002558" lon="9.546097239235042"><ele>76.66666666666667</ele><time>2026-04-09T09:13:43.997Z</time></trkpt><trkpt lat="45.018466124548304" lon="9.546136585207288"><ele>76.5</ele><time>2026-04-09T09:13:44.997Z</time></trkpt><trkpt lat="45.01853201896986" lon="9.546172539671183"><ele>76.33333333333333</ele><time>2026-04-09T09:13:45.997Z</time></trkpt><trkpt lat="45.018613582052275" lon="9.5462166006773"><ele>76.16666666666666</ele><time>2026-04-09T09:13:46.997Z</time></trkpt><trkpt lat="45.01869336914902" lon="9.546248325185735"><ele>76.0</ele><time>2026-04-09T09:13:47.997Z</time></trkpt><trkpt lat="45.01877112472328" lon="9.546247600333043"><ele>76.0</ele><time>2026-04-09T09:13:48.997Z</time></trkpt><trkpt lat="45.018850045341615" lon="9.546236311939946"><ele>76.0</ele><time>2026-04-09T09:13:49.997Z</time></trkpt><trkpt lat="45.01892577640511" lon="9.546196896412555"><ele>76.0</ele><time>2026-04-09T09:13:50.997Z</time></trkpt><trkpt lat="45.019001263672976" lon="9.546151567543836"><ele>76.0</ele><time>2026-04-09T09:13:51.997Z</time></trkpt><trkpt lat="45.01907563313408" lon="9.5461131395062"><ele>76.0</ele><time>2026-04-09T09:13:52.997Z</time></trkpt><trkpt lat="45.019150190199376" lon="9.546070771048436"><ele>76.0</ele><time>2026-04-09T09:13:53.997Z</time></trkpt><trkpt lat="45.01922408670807" lon="9.546032160936157"><ele>75.83333333333333</ele><time>2026-04-09T09:13:54.997Z</time></trkpt><trkpt lat="45.019302318200594" lon="9.545995312724335"><ele>75.66666666666666</ele><time>2026-04-09T09:13:55.997Z</time></trkpt><trkpt lat="45.01937726433744" lon="9.54595499646994"><ele>75.5</ele><time>2026-04-09T09:13:56.997Z</time></trkpt><trkpt lat="45.01945366243147" lon="9.545915339769346"><ele>75.33333333333333</ele><time>2026-04-09T09:13:57.997Z</time></trkpt><trkpt lat="45.01953324631945" lon="9.545870731426806"><ele>75.16666666666667</ele><time>2026-04-09T09:13:58.997Z</time></trkpt><trkpt lat="45.01960994177228" lon="9.545828939339438"><ele>75.0</ele><time>2026-04-09T09:13:59.997Z</time></trkpt><trkpt lat="45.0196869402941" lon="9.545788931594439"><ele>75.0</ele><time>2026-04-09T09:14:00.997Z</time></trkpt><trkpt lat="45.01976163432056" lon="9.545748684664757"><ele>75.0</ele><time>2026-04-09T09:14:01.997Z</time></trkpt><trkpt lat="45.01984132795311" lon="9.545708383336152"><ele>75.0</ele><time>2026-04-09T09:14:02.997Z</time></trkpt><trkpt lat="45.019917897449794" lon="9.545658486158482"><ele>75.0</ele><time>2026-04-09T09:14:03.997Z</time></trkpt><trkpt lat="45.019993918593656" lon="9.545618599829675"><ele>75.0</ele><time>2026-04-09T09:14:04.997Z</time></trkpt><trkpt lat="45.02007004953759" lon="9.545582033284372"><ele>75.0</ele><time>2026-04-09T09:14:05.997Z</time></trkpt><trkpt lat="45.020149409607455" lon="9.545539575341573"><ele>74.83333333333333</ele><time>2026-04-09T09:14:06.997Z</time></trkpt><trkpt lat="45.02022534865724" lon="9.545497146842377"><ele>74.66666666666667</ele><time>2026-04-09T09:14:07.997Z</time></trkpt><trkpt lat="45.0203044272621" lon="9.545453221624454"><ele>74.5</ele><time>2026-04-09T09:14:08.997Z</time></trkpt><trkpt lat="45.02038390149352" lon="9.545416245744692"><ele>74.33333333333334</ele><time>2026-04-09T09:14:09.997Z</time></trkpt><trkpt lat="45.02046236494101" lon="9.545374527999462"><ele>74.16666666666667</ele><time>2026-04-09T09:14:10.997Z</time></trkpt><trkpt lat="45.0205387680541" lon="9.545328790799804"><ele>74.0</ele><time>2026-04-09T09:14:11.997Z</time></trkpt><trkpt lat="45.020620855988824" lon="9.54528923800655"><ele>74.0</ele><time>2026-04-09T09:14:12.997Z</time></trkpt><trkpt lat="45.02069987410091" lon="9.545245286704732"><ele>74.0</ele><time>2026-04-09T09:14:13.997Z</time></trkpt><trkpt lat="45.02078903277383" lon="9.545204597833386"><ele>74.0</ele><time>2026-04-09T09:14:14.997Z</time></trkpt><trkpt lat="45.020867272782475" lon="9.545159770477749"><ele>74.0</ele><time>2026-04-09T09:14:15.997Z</time></trkpt><trkpt lat="45.0209511418317" lon="9.54511701186569"><ele>74.0</ele><time>2026-04-09T09:14:16.997Z</time></trkpt><trkpt lat="45.021028047438364" lon="9.54507654450004"><ele>74.0</ele><time>2026-04-09T09:14:17.997Z</time></trkpt><trkpt lat="45.02110605777933" lon="9.54503526436839"><ele>74.16666666666667</ele><time>2026-04-09T09:14:18.997Z</time></trkpt><trkpt lat="45.02118615412819" lon="9.54499216083228"><ele>74.33333333333334</ele><time>2026-04-09T09:14:19.997Z</time></trkpt><trkpt lat="45.02126431772883" lon="9.544948184793748"><ele>74.5</ele><time>2026-04-09T09:14:20.997Z</time></trkpt><trkpt lat="45.021341939050245" lon="9.54490936913257"><ele>74.66666666666667</ele><time>2026-04-09T09:14:21.997Z</time></trkpt><trkpt lat="45.02142252808342" lon="9.544865001073772"><ele>74.83333333333333</ele><time>2026-04-09T09:14:22.997Z</time></trkpt><trkpt lat="45.021501576146925" lon="9.544823422978943"><ele>75.0</ele><time>2026-04-09T09:14:23.997Z</time></trkpt><trkpt lat="45.02157603121754" lon="9.544785257502111"><ele>75.16666666666667</ele><time>2026-04-09T09:14:24.997Z</time></trkpt><trkpt lat="45.02165187344831" lon="9.544743167310754"><ele>75.33333333333333</ele><time>2026-04-09T09:14:25.997Z</time></trkpt><trkpt lat="45.02173067709234" lon="9.544704612845578"><ele>75.5</ele><time>2026-04-09T09:14:26.997Z</time></trkpt><trkpt lat="45.02180475971317" lon="9.54466861322739"><ele>75.66666666666666</ele><time>2026-04-09T09:14:27.997Z</time></trkpt><trkpt lat="45.021884715462" lon="9.544628218725013"><ele>75.83333333333333</ele><time>2026-04-09T09:14:28.997Z</time></trkpt><trkpt lat="45.02196218061479" lon="9.544587956361523"><ele>76.0</ele><time>2026-04-09T09:14:29.997Z</time></trkpt><trkpt lat="45.022040141093605" lon="9.544547502765033"><ele>76.0</ele><time>2026-04-09T09:14:30.997Z</time></trkpt><trkpt lat="45.02211471053636" lon="9.544503460135333"><ele>76.0</ele><time>2026-04-09T09:14:31.997Z</time></trkpt><trkpt lat="45.022189855468845" lon="9.544462654813566"><ele>76.0</ele><time>2026-04-09T09:14:32.997Z</time></trkpt><trkpt lat="45.02226361692164" lon="9.544421306575789"><ele>76.0</ele><time>2026-04-09T09:14:33.997Z</time></trkpt><trkpt lat="45.02234068443006" lon="9.544384889171363"><ele>76.0</ele><time>2026-04-09T09:14:34.997Z</time></trkpt><trkpt lat="45.022412610200554" lon="9.54434708451533"><ele>76.0</ele><time>2026-04-09T09:14:35.997Z</time></trkpt><trkpt lat="45.02248431729175" lon="9.544311896157087"><ele>76.0</ele><time>2026-04-09T09:14:36.997Z</time></trkpt><trkpt lat="45.022552244847674" lon="9.544272326899518"><ele>76.0</ele><time>2026-04-09T09:14:37.997Z</time></trkpt><trkpt lat="45.02261852644528" lon="9.544232697104666"><ele>76.0</ele><time>2026-04-09T09:14:38.998Z</time></trkpt><trkpt lat="45.02268394085577" lon="9.54419442703395"><ele>76.0</ele><time>2026-04-09T09:14:39.998Z</time></trkpt><trkpt lat="45.02274697303003" lon="9.544157589529688"><ele>76.0</ele><time>2026-04-09T09:14:40.998Z</time></trkpt><trkpt lat="45.02281235810853" lon="9.544132787063795"><ele>76.0</ele><time>2026-04-09T09:14:41.997Z</time></trkpt><trkpt lat="45.02287817483002" lon="9.544140894198357"><ele>76.0</ele><time>2026-04-09T09:14:42.997Z</time></trkpt><trkpt lat="45.02293005954336" lon="9.544202890269414"><ele>76.0</ele><time>2026-04-09T09:14:43.997Z</time></trkpt><trkpt lat="45.022970045196324" lon="9.544278716862726"><ele>76.0</ele><time>2026-04-09T09:14:44.998Z</time></trkpt><trkpt lat="45.02303787261653" lon="9.544418766346606"><ele>76.0</ele><time>2026-04-09T09:14:46.998Z</time></trkpt><trkpt lat="45.02308530714143" lon="9.544482611774155"><ele>76.0</ele><time>2026-04-09T09:14:47.997Z</time></trkpt><trkpt lat="45.023130684831145" lon="9.54454700855609"><ele>76.0</ele><time>2026-04-09T09:14:48.997Z</time></trkpt><trkpt lat="45.02321009260998" lon="9.544679082715197"><ele>76.0</ele><time>2026-04-09T09:14:50.997Z</time></trkpt><trkpt lat="45.02325290901231" lon="9.54474616639505"><ele>76.0</ele><time>2026-04-09T09:14:51.997Z</time></trkpt><trkpt lat="45.02333803768232" lon="9.544876998108057"><ele>76.0</ele><time>2026-04-09T09:14:53.997Z</time></trkpt><trkpt lat="45.02342702996903" lon="9.54499991773817"><ele>76.0</ele><time>2026-04-09T09:14:55.997Z</time></trkpt><trkpt lat="45.02346722145589" lon="9.545069703740525"><ele>76.0</ele><time>2026-04-09T09:14:56.997Z</time></trkpt><trkpt lat="45.02355285996648" lon="9.545195856285991"><ele>76.0</ele><time>2026-04-09T09:14:58.997Z</time></trkpt><trkpt lat="45.023595980944805" lon="9.545268850290645"><ele>75.39999999999999</ele><time>2026-04-09T09:14:59.997Z</time></trkpt><trkpt lat="45.02369007386251" lon="9.545393010779385"><ele>74.8</ele><time>2026-04-09T09:15:01.997Z</time></trkpt><trkpt lat="45.02373316435819" lon="9.5454581915688"><ele>74.19999999999999</ele><time>2026-04-09T09:15:02.997Z</time></trkpt><trkpt lat="45.02382068850943" lon="9.545578142343127"><ele>73.6</ele><time>2026-04-09T09:15:04.997Z</time></trkpt><trkpt lat="45.02389478736938" lon="9.545701480286722"><ele>73.0</ele><time>2026-04-09T09:15:06.997Z</time></trkpt><trkpt lat="45.023938086663016" lon="9.54576966613921"><ele>73.0</ele><time>2026-04-09T09:15:07.997Z</time></trkpt><trkpt lat="45.024022449443706" lon="9.545891210353647"><ele>73.0</ele><time>2026-04-09T09:15:09.997Z</time></trkpt><trkpt lat="45.024104790619376" lon="9.546013235965043"><ele>73.0</ele><time>2026-04-09T09:15:11.997Z</time></trkpt><trkpt lat="45.0241531954844" lon="9.54607463184664"><ele>73.0</ele><time>2026-04-09T09:15:12.997Z</time></trkpt><trkpt lat="45.02424025603956" lon="9.54621166806059"><ele>73.0</ele><time>2026-04-09T09:15:14.997Z</time></trkpt><trkpt lat="45.02428209267658" lon="9.546279278190498"><ele>73.83333333333333</ele><time>2026-04-09T09:15:15.997Z</time></trkpt><trkpt lat="45.02432775831405" lon="9.54634163399226"><ele>74.66666666666666</ele><time>2026-04-09T09:15:16.997Z</time></trkpt><trkpt lat="45.02437010751148" lon="9.546408981605005"><ele>75.5</ele><time>2026-04-09T09:15:17.997Z</time></trkpt><trkpt lat="45.02444815010025" lon="9.546552255043212"><ele>76.33333333333333</ele><time>2026-04-09T09:15:19.997Z</time></trkpt><trkpt lat="45.02449147610152" lon="9.546620837630337"><ele>77.16666666666667</ele><time>2026-04-09T09:15:20.997Z</time></trkpt><trkpt lat="45.02453474587206" lon="9.546699086813957"><ele>78.0</ele><time>2026-04-09T09:15:21.997Z</time></trkpt><trkpt lat="45.02460968032022" lon="9.54683932671827"><ele>78.0</ele><time>2026-04-09T09:15:23.997Z</time></trkpt><trkpt lat="45.02464709482145" lon="9.546912445147514"><ele>78.0</ele><time>2026-04-09T09:15:24.997Z</time></trkpt><trkpt lat="45.02472220645118" lon="9.547062147625082"><ele>78.0</ele><time>2026-04-09T09:15:26.997Z</time></trkpt><trkpt lat="45.02476146006788" lon="9.547139822483704"><ele>78.0</ele><time>2026-04-09T09:15:27.997Z</time></trkpt><trkpt lat="45.02479881679062" lon="9.547213219719259"><ele>78.0</ele><time>2026-04-09T09:15:28.997Z</time></trkpt><trkpt lat="45.0248402406435" lon="9.547284102307673"><ele>78.0</ele><time>2026-04-09T09:15:29.997Z</time></trkpt><trkpt lat="45.02487408054543" lon="9.54736080544494"><ele>77.6</ele><time>2026-04-09T09:15:30.997Z</time></trkpt><trkpt lat="45.02494503808236" lon="9.547502156957401"><ele>77.19999999999999</ele><time>2026-04-09T09:15:32.997Z</time></trkpt><trkpt lat="45.024982036088474" lon="9.547577569430295"><ele>76.8</ele><time>2026-04-09T09:15:33.997Z</time></trkpt><trkpt lat="45.025053602893585" lon="9.547724554185741"><ele>76.39999999999999</ele><time>2026-04-09T09:15:35.997Z</time></trkpt><trkpt lat="45.02508752369467" lon="9.547800050102888"><ele>76.0</ele><time>2026-04-09T09:15:36.997Z</time></trkpt><trkpt lat="45.02515103996603" lon="9.547947015101128"><ele>75.75</ele><time>2026-04-09T09:15:38.997Z</time></trkpt><trkpt lat="45.02521177808418" lon="9.548092766150855"><ele>75.5</ele><time>2026-04-09T09:15:40.997Z</time></trkpt><trkpt lat="45.0252661327245" lon="9.548232707778679"><ele>75.25</ele><time>2026-04-09T09:15:42.997Z</time></trkpt><trkpt lat="45.02531504255908" lon="9.548385101720536"><ele>75.0</ele><time>2026-04-09T09:15:44.997Z</time></trkpt><trkpt lat="45.02535483445453" lon="9.548533753274"><ele>75.0</ele><time>2026-04-09T09:15:46.997Z</time></trkpt><trkpt lat="45.02538874997833" lon="9.548680171959363"><ele>75.0</ele><time>2026-04-09T09:15:48.997Z</time></trkpt><trkpt lat="45.02541792186761" lon="9.548827444207042"><ele>75.0</ele><time>2026-04-09T09:15:50.997Z</time></trkpt><trkpt lat="45.025452314335666" lon="9.548977923948081"><ele>75.0</ele><time>2026-04-09T09:15:52.997Z</time></trkpt><trkpt lat="45.025484748767425" lon="9.549132306927048"><ele>75.0</ele><time>2026-04-09T09:15:54.997Z</time></trkpt><trkpt lat="45.025519494409814" lon="9.549279823398976"><ele>75.0</ele><time>2026-04-09T09:15:56.997Z</time></trkpt><trkpt lat="45.02555588810006" lon="9.54943972460665"><ele>75.0</ele><time>2026-04-09T09:15:58.997Z</time></trkpt><trkpt lat="45.02558163342885" lon="9.549588001695914"><ele>75.0</ele><time>2026-04-09T09:16:00.997Z</time></trkpt><trkpt lat="45.02563039945226" lon="9.549744186506107"><ele>75.0</ele><time>2026-04-09T09:16:02.997Z</time></trkpt><trkpt lat="45.0256534589856" lon="9.549828594289739"><ele>75.0</ele><time>2026-04-09T09:16:03.997Z</time></trkpt><trkpt lat="45.025714299704845" lon="9.549971264071273"><ele>75.0</ele><time>2026-04-09T09:16:05.997Z</time></trkpt><trkpt lat="45.02580166285575" lon="9.550072063985052"><ele>75.0</ele><time>2026-04-09T09:16:07.997Z</time></trkpt><trkpt lat="45.02588738840603" lon="9.550157428979267"><ele>75.0</ele><time>2026-04-09T09:16:09.997Z</time></trkpt><trkpt lat="45.025973461746496" lon="9.55018105439705"><ele>75.0</ele><time>2026-04-09T09:16:11.997Z</time></trkpt><trkpt lat="45.026101135575736" lon="9.55014811882362"><ele>75.0</ele><time>2026-04-09T09:16:13.997Z</time></trkpt><trkpt lat="45.02620205728397" lon="9.55010972540481"><ele>75.0</ele><time>2026-04-09T09:16:15.997Z</time></trkpt><trkpt lat="45.026264335300674" lon="9.550084019375591"><ele>75.0</ele><time>2026-04-09T09:16:16.997Z</time></trkpt><trkpt lat="45.0263698300889" lon="9.550036934768142"><ele>75.0</ele><time>2026-04-09T09:16:18.997Z</time></trkpt><trkpt lat="45.0264671261468" lon="9.549977159381505"><ele>75.0</ele><time>2026-04-09T09:16:20.997Z</time></trkpt><trkpt lat="45.026566587574116" lon="9.549955610712876"><ele>75.0</ele><time>2026-04-09T09:16:22.997Z</time></trkpt><trkpt lat="45.026679316303465" lon="9.549934034514045"><ele>75.2</ele><time>2026-04-09T09:16:24.997Z</time></trkpt><trkpt lat="45.02678728801902" lon="9.54990425742691"><ele>75.4</ele><time>2026-04-09T09:16:26.997Z</time></trkpt><trkpt lat="45.02690069010659" lon="9.549891587096255"><ele>75.6</ele><time>2026-04-09T09:16:28.997Z</time></trkpt><trkpt lat="45.026962212230124" lon="9.549870513306585"><ele>75.8</ele><time>2026-04-09T09:16:29.997Z</time></trkpt><trkpt lat="45.02707764953652" lon="9.549847650496783"><ele>76.0</ele><time>2026-04-09T09:16:31.997Z</time></trkpt><trkpt lat="45.02720159791749" lon="9.549822094719472"><ele>76.0</ele><time>2026-04-09T09:16:33.997Z</time></trkpt><trkpt lat="45.02733023394043" lon="9.54979735482282"><ele>76.0</ele><time>2026-04-09T09:16:35.997Z</time></trkpt><trkpt lat="45.02739592293198" lon="9.54978241078827"><ele>76.0</ele><time>2026-04-09T09:16:36.997Z</time></trkpt><trkpt lat="45.02746350006182" lon="9.549766792005535"><ele>76.0</ele><time>2026-04-09T09:16:37.997Z</time></trkpt><trkpt lat="45.02753350562417" lon="9.549745956231021"><ele>76.0</ele><time>2026-04-09T09:16:38.997Z</time></trkpt><trkpt lat="45.0276035938509" lon="9.549736270897093"><ele>76.0</ele><time>2026-04-09T09:16:39.997Z</time></trkpt><trkpt lat="45.02767756361062" lon="9.549719164560882"><ele>75.42857142857143</ele><time>2026-04-09T09:16:40.998Z</time></trkpt><trkpt lat="45.02774930608985" lon="9.549700972443162"><ele>74.85714285714286</ele><time>2026-04-09T09:16:41.998Z</time></trkpt><trkpt lat="45.02781975066897" lon="9.549684773727382"><ele>74.28571428571429</ele><time>2026-04-09T09:16:42.998Z</time></trkpt><trkpt lat="45.027891694064905" lon="9.549670477300236"><ele>73.71428571428572</ele><time>2026-04-09T09:16:43.998Z</time></trkpt><trkpt lat="45.02796172162966" lon="9.54964977559337"><ele>73.14285714285714</ele><time>2026-04-09T09:16:44.997Z</time></trkpt><trkpt lat="45.02803435314056" lon="9.549635461330222"><ele>72.57142857142858</ele><time>2026-04-09T09:16:45.997Z</time></trkpt><trkpt lat="45.02810904521376" lon="9.549622268422489"><ele>72.0</ele><time>2026-04-09T09:16:46.998Z</time></trkpt><trkpt lat="45.02818389593982" lon="9.549604230730516"><ele>72.0</ele><time>2026-04-09T09:16:47.998Z</time></trkpt><trkpt lat="45.02826044053949" lon="9.54958317673532"><ele>72.0</ele><time>2026-04-09T09:16:48.998Z</time></trkpt><trkpt lat="45.028337020748715" lon="9.549565992661382"><ele>72.0</ele><time>2026-04-09T09:16:49.998Z</time></trkpt><trkpt lat="45.02841392087504" lon="9.549549673010366"><ele>72.0</ele><time>2026-04-09T09:16:50.997Z</time></trkpt><trkpt lat="45.028492300638845" lon="9.549529805260452"><ele>72.0</ele><time>2026-04-09T09:16:51.997Z</time></trkpt><trkpt lat="45.028567921811515" lon="9.54951139031863"><ele>72.0</ele><time>2026-04-09T09:16:52.998Z</time></trkpt><trkpt lat="45.02864506540242" lon="9.54949482961941"><ele>71.83333333333333</ele><time>2026-04-09T09:16:53.997Z</time></trkpt><trkpt lat="45.02872223911264" lon="9.54947487730565"><ele>71.66666666666667</ele><time>2026-04-09T09:16:54.997Z</time></trkpt><trkpt lat="45.02879893077687" lon="9.549456623445943"><ele>71.5</ele><time>2026-04-09T09:16:55.997Z</time></trkpt><trkpt lat="45.02887888721064" lon="9.549435547662695"><ele>71.33333333333334</ele><time>2026-04-09T09:16:56.997Z</time></trkpt><trkpt lat="45.02895462093354" lon="9.549418158167121"><ele>71.16666666666667</ele><time>2026-04-09T09:16:57.997Z</time></trkpt><trkpt lat="45.02903460001434" lon="9.549401278032363"><ele>71.0</ele><time>2026-04-09T09:16:58.997Z</time></trkpt><trkpt lat="45.029110145497654" lon="9.54937909693785"><ele>71.16666666666667</ele><time>2026-04-09T09:16:59.997Z</time></trkpt><trkpt lat="45.029185003542324" lon="9.549354768845628"><ele>71.33333333333334</ele><time>2026-04-09T09:17:00.997Z</time></trkpt><trkpt lat="45.029263394222305" lon="9.549335735707567"><ele>71.5</ele><time>2026-04-09T09:17:01.997Z</time></trkpt><trkpt lat="45.02934378470402" lon="9.549318627225926"><ele>71.66666666666667</ele><time>2026-04-09T09:17:02.997Z</time></trkpt><trkpt lat="45.029422802515974" lon="9.549301789988819"><ele>71.83333333333333</ele><time>2026-04-09T09:17:03.997Z</time></trkpt><trkpt lat="45.029505155555704" lon="9.549281989028238"><ele>72.0</ele><time>2026-04-09T09:17:04.997Z</time></trkpt><trkpt lat="45.029585699940554" lon="9.549264077467695"><ele>72.0</ele><time>2026-04-09T09:17:05.997Z</time></trkpt><trkpt lat="45.02966529072133" lon="9.549240655099458"><ele>72.0</ele><time>2026-04-09T09:17:06.997Z</time></trkpt><trkpt lat="45.02974579117471" lon="9.549221859436063"><ele>72.0</ele><time>2026-04-09T09:17:07.997Z</time></trkpt><trkpt lat="45.02982801864473" lon="9.54920346490544"><ele>72.0</ele><time>2026-04-09T09:17:08.997Z</time></trkpt><trkpt lat="45.029909347801905" lon="9.549182901520965"><ele>72.0</ele><time>2026-04-09T09:17:09.997Z</time></trkpt><trkpt lat="45.02999216075752" lon="9.549163834461107"><ele>72.0</ele><time>2026-04-09T09:17:10.997Z</time></trkpt><trkpt lat="45.030071720560855" lon="9.54914412018513"><ele>71.83333333333333</ele><time>2026-04-09T09:17:11.997Z</time></trkpt><trkpt lat="45.03015262907445" lon="9.54912908255486"><ele>71.66666666666667</ele><time>2026-04-09T09:17:12.997Z</time></trkpt><trkpt lat="45.03023443224339" lon="9.54911098530499"><ele>71.5</ele><time>2026-04-09T09:17:13.997Z</time></trkpt><trkpt lat="45.03031244050775" lon="9.54908569061167"><ele>71.33333333333334</ele><time>2026-04-09T09:17:14.997Z</time></trkpt><trkpt lat="45.030394732084865" lon="9.54906784915351"><ele>71.16666666666667</ele><time>2026-04-09T09:17:15.997Z</time></trkpt><trkpt lat="45.03047809300712" lon="9.549049646115932"><ele>71.0</ele><time>2026-04-09T09:17:16.997Z</time></trkpt><trkpt lat="45.03055837676423" lon="9.549029282817711"><ele>71.0</ele><time>2026-04-09T09:17:17.997Z</time></trkpt><trkpt lat="45.030640250712814" lon="9.549005962039574"><ele>71.0</ele><time>2026-04-09T09:17:18.997Z</time></trkpt><trkpt lat="45.03072378282423" lon="9.548988503588602"><ele>71.0</ele><time>2026-04-09T09:17:19.997Z</time></trkpt><trkpt lat="45.03080730964168" lon="9.548966183581875"><ele>71.0</ele><time>2026-04-09T09:17:20.997Z</time></trkpt><trkpt lat="45.03088730221553" lon="9.548944356390106"><ele>71.0</ele><time>2026-04-09T09:17:21.997Z</time></trkpt><trkpt lat="45.03097130860602" lon="9.548925917024185"><ele>71.0</ele><time>2026-04-09T09:17:22.997Z</time></trkpt><trkpt lat="45.03105815918971" lon="9.548909870764026"><ele>71.0</ele><time>2026-04-09T09:17:23.997Z</time></trkpt><trkpt lat="45.031141241517986" lon="9.548884758107013"><ele>71.0</ele><time>2026-04-09T09:17:24.997Z</time></trkpt><trkpt lat="45.03122433843148" lon="9.548863429247332"><ele>71.0</ele><time>2026-04-09T09:17:25.997Z</time></trkpt><trkpt lat="45.03130680654671" lon="9.54884162664732"><ele>71.0</ele><time>2026-04-09T09:17:26.997Z</time></trkpt><trkpt lat="45.031387889078516" lon="9.548823586170476"><ele>71.0</ele><time>2026-04-09T09:17:27.997Z</time></trkpt><trkpt lat="45.03147306788984" lon="9.548804021486504"><ele>71.0</ele><time>2026-04-09T09:17:28.997Z</time></trkpt><trkpt lat="45.0315540168436" lon="9.548782007916707"><ele>71.0</ele><time>2026-04-09T09:17:29.997Z</time></trkpt><trkpt lat="45.031639276026006" lon="9.54876567404075"><ele>71.0</ele><time>2026-04-09T09:17:30.997Z</time></trkpt><trkpt lat="45.03172069909528" lon="9.548747337778071"><ele>71.0</ele><time>2026-04-09T09:17:31.997Z</time></trkpt><trkpt lat="45.03180282269875" lon="9.548723377070889"><ele>71.0</ele><time>2026-04-09T09:17:32.997Z</time></trkpt><trkpt lat="45.03188525131153" lon="9.548701595766016"><ele>71.0</ele><time>2026-04-09T09:17:33.997Z</time></trkpt><trkpt lat="45.03197010068982" lon="9.548683562906826"><ele>71.0</ele><time>2026-04-09T09:17:34.997Z</time></trkpt><trkpt lat="45.03205216473436" lon="9.548663520199709"><ele>71.0</ele><time>2026-04-09T09:17:35.997Z</time></trkpt><trkpt lat="45.032135114203086" lon="9.548644292505845"><ele>71.0</ele><time>2026-04-09T09:17:36.997Z</time></trkpt><trkpt lat="45.032218506585814" lon="9.548625812615931"><ele>71.0</ele><time>2026-04-09T09:17:37.997Z</time></trkpt><trkpt lat="45.0323002530042" lon="9.548601978313537"><ele>71.0</ele><time>2026-04-09T09:17:38.997Z</time></trkpt><trkpt lat="45.03238341326363" lon="9.548583985664896"><ele>71.0</ele><time>2026-04-09T09:17:39.997Z</time></trkpt><trkpt lat="45.03246326545911" lon="9.548568014744559"><ele>71.0</ele><time>2026-04-09T09:17:40.997Z</time></trkpt><trkpt lat="45.03254489375489" lon="9.548546104471816"><ele>70.83333333333334</ele><time>2026-04-09T09:17:41.997Z</time></trkpt><trkpt lat="45.03262443650094" lon="9.548523956411815"><ele>70.66666666666667</ele><time>2026-04-09T09:17:42.997Z</time></trkpt><trkpt lat="45.032703220821446" lon="9.54850494853647"><ele>70.5</ele><time>2026-04-09T09:17:43.997Z</time></trkpt><trkpt lat="45.03277939852307" lon="9.548484968747303"><ele>70.33333333333333</ele><time>2026-04-09T09:17:44.997Z</time></trkpt><trkpt lat="45.03285705517715" lon="9.548472248635512"><ele>70.16666666666666</ele><time>2026-04-09T09:17:45.997Z</time></trkpt><trkpt lat="45.03293557655395" lon="9.548450190159663"><ele>70.0</ele><time>2026-04-09T09:17:46.997Z</time></trkpt><trkpt lat="45.03301213055304" lon="9.548428233868494"><ele>70.0</ele><time>2026-04-09T09:17:47.997Z</time></trkpt><trkpt lat="45.03308916824555" lon="9.5484098446303"><ele>70.0</ele><time>2026-04-09T09:17:48.997Z</time></trkpt><trkpt lat="45.03316531346286" lon="9.548390911116826"><ele>70.0</ele><time>2026-04-09T09:17:49.997Z</time></trkpt><trkpt lat="45.03324219600712" lon="9.548375428160718"><ele>70.0</ele><time>2026-04-09T09:17:50.997Z</time></trkpt><trkpt lat="45.03331790818583" lon="9.54835942183855"><ele>70.0</ele><time>2026-04-09T09:17:51.997Z</time></trkpt><trkpt lat="45.03339238938746" lon="9.548332977326469"><ele>70.0</ele><time>2026-04-09T09:17:52.997Z</time></trkpt><trkpt lat="45.03347409019371" lon="9.548316694938695"><ele>70.0</ele><time>2026-04-09T09:17:53.997Z</time></trkpt><trkpt lat="45.03354657483881" lon="9.548300918512064"><ele>70.0</ele><time>2026-04-09T09:17:54.997Z</time></trkpt><trkpt lat="45.03362028359912" lon="9.548285955039072"><ele>70.0</ele><time>2026-04-09T09:17:55.997Z</time></trkpt><trkpt lat="45.03369037319537" lon="9.548266016099324"><ele>70.0</ele><time>2026-04-09T09:17:56.997Z</time></trkpt><trkpt lat="45.033766681856086" lon="9.548251023849309"><ele>70.0</ele><time>2026-04-09T09:17:57.997Z</time></trkpt><trkpt lat="45.03383806823779" lon="9.548235475675645"><ele>70.0</ele><time>2026-04-09T09:17:58.997Z</time></trkpt><trkpt lat="45.0339093639113" lon="9.54822868687575"><ele>70.0</ele><time>2026-04-09T09:17:59.997Z</time></trkpt><trkpt lat="45.03398516212989" lon="9.548219503356112"><ele>70.0</ele><time>2026-04-09T09:18:00.997Z</time></trkpt><trkpt lat="45.03405886356354" lon="9.548212005289605"><ele>70.0</ele><time>2026-04-09T09:18:01.997Z</time></trkpt><trkpt lat="45.03413233628223" lon="9.548211144403048"><ele>70.0</ele><time>2026-04-09T09:18:02.997Z</time></trkpt><trkpt lat="45.034209322228335" lon="9.548214789151604"><ele>70.0</ele><time>2026-04-09T09:18:03.997Z</time></trkpt><trkpt lat="45.03428620704127" lon="9.548220243521278"><ele>70.0</ele><time>2026-04-09T09:18:04.997Z</time></trkpt><trkpt lat="45.034358614800105" lon="9.548217469100592"><ele>70.0</ele><time>2026-04-09T09:18:05.997Z</time></trkpt><trkpt lat="45.034436400695455" lon="9.5482195515257"><ele>70.0</ele><time>2026-04-09T09:18:06.997Z</time></trkpt><trkpt lat="45.034513316759956" lon="9.548219518700272"><ele>70.0</ele><time>2026-04-09T09:18:07.997Z</time></trkpt><trkpt lat="45.03458915894112" lon="9.548223677163723"><ele>70.0</ele><time>2026-04-09T09:18:08.997Z</time></trkpt><trkpt lat="45.03466795800038" lon="9.548220135632889"><ele>70.0</ele><time>2026-04-09T09:18:09.997Z</time></trkpt><trkpt lat="45.034742622515246" lon="9.548221206408206"><ele>70.0</ele><time>2026-04-09T09:18:10.997Z</time></trkpt><trkpt lat="45.03481654766834" lon="9.548220773502408"><ele>70.0</ele><time>2026-04-09T09:18:11.997Z</time></trkpt><trkpt lat="45.03488806659723" lon="9.548223784616475"><ele>70.0</ele><time>2026-04-09T09:18:12.997Z</time></trkpt><trkpt lat="45.03496008593477" lon="9.548222777889718"><ele>70.0</ele><time>2026-04-09T09:18:13.997Z</time></trkpt><trkpt lat="45.035033658336765" lon="9.548224002796319"><ele>70.0</ele><time>2026-04-09T09:18:14.997Z</time></trkpt><trkpt lat="45.03510604416971" lon="9.548225964697203"><ele>70.0</ele><time>2026-04-09T09:18:15.997Z</time></trkpt><trkpt lat="45.035176286517746" lon="9.548225014359494"><ele>70.0</ele><time>2026-04-09T09:18:16.997Z</time></trkpt><trkpt lat="45.035249772493984" lon="9.548232704439354"><ele>70.0</ele><time>2026-04-09T09:18:17.997Z</time></trkpt><trkpt lat="45.03531931758686" lon="9.548227027985547"><ele>70.0</ele><time>2026-04-09T09:18:18.997Z</time></trkpt><trkpt lat="45.03539057707189" lon="9.548227344635466"><ele>70.0</ele><time>2026-04-09T09:18:19.997Z</time></trkpt><trkpt lat="45.03546050034362" lon="9.548227711570927"><ele>70.0</ele><time>2026-04-09T09:18:20.997Z</time></trkpt><trkpt lat="45.03552928609468" lon="9.548228199399528"><ele>70.0</ele><time>2026-04-09T09:18:21.997Z</time></trkpt><trkpt lat="45.03559516579763" lon="9.548229106729686"><ele>70.0</ele><time>2026-04-09T09:18:22.997Z</time></trkpt><trkpt lat="45.035664578079775" lon="9.548232462806075"><ele>70.0</ele><time>2026-04-09T09:18:23.997Z</time></trkpt><trkpt lat="45.03573188454545" lon="9.548233365048103"><ele>70.0</ele><time>2026-04-09T09:18:24.997Z</time></trkpt><trkpt lat="45.03580141405638" lon="9.548232646705234"><ele>70.0</ele><time>2026-04-09T09:18:25.997Z</time></trkpt><trkpt lat="45.035865941088524" lon="9.548231207110655"><ele>70.0</ele><time>2026-04-09T09:18:26.997Z</time></trkpt><trkpt lat="45.03593343116927" lon="9.54823064847121"><ele>70.0</ele><time>2026-04-09T09:18:27.997Z</time></trkpt><trkpt lat="45.03606545383265" lon="9.54823667949031"><ele>70.0</ele><time>2026-04-09T09:18:29.997Z</time></trkpt><trkpt lat="45.036134445543105" lon="9.54823812916473"><ele>70.0</ele><time>2026-04-09T09:18:30.997Z</time></trkpt><trkpt lat="45.03620299996945" lon="9.548235037492498"><ele>70.0</ele><time>2026-04-09T09:18:31.997Z</time></trkpt><trkpt lat="45.03627240735895" lon="9.548235779048387"><ele>70.0</ele><time>2026-04-09T09:18:32.997Z</time></trkpt><trkpt lat="45.03633907403916" lon="9.5482332390477"><ele>70.0</ele><time>2026-04-09T09:18:33.997Z</time></trkpt><trkpt lat="45.03641030260233" lon="9.548237720248906"><ele>70.0</ele><time>2026-04-09T09:18:34.997Z</time></trkpt><trkpt lat="45.03647872646956" lon="9.548239821499479"><ele>70.0</ele><time>2026-04-09T09:18:35.997Z</time></trkpt><trkpt lat="45.03655124814748" lon="9.548236606087215"><ele>70.0</ele><time>2026-04-09T09:18:36.997Z</time></trkpt><trkpt lat="45.036628467561506" lon="9.548233448755257"><ele>70.0</ele><time>2026-04-09T09:18:37.997Z</time></trkpt><trkpt lat="45.036699345125804" lon="9.548236211635007"><ele>70.0</ele><time>2026-04-09T09:18:38.997Z</time></trkpt><trkpt lat="45.03676923898779" lon="9.548238978865347"><ele>70.0</ele><time>2026-04-09T09:18:39.997Z</time></trkpt><trkpt lat="45.03683980038795" lon="9.548237952340392"><ele>70.0</ele><time>2026-04-09T09:18:40.997Z</time></trkpt><trkpt lat="45.03691114778758" lon="9.54823484264609"><ele>70.0</ele><time>2026-04-09T09:18:41.997Z</time></trkpt><trkpt lat="45.03698152237961" lon="9.548241888841893"><ele>70.0</ele><time>2026-04-09T09:18:42.997Z</time></trkpt><trkpt lat="45.03704956045896" lon="9.548239812429586"><ele>70.0</ele><time>2026-04-09T09:18:43.997Z</time></trkpt><trkpt lat="45.03712046865617" lon="9.548241404548046"><ele>70.0</ele><time>2026-04-09T09:18:44.997Z</time></trkpt><trkpt lat="45.037191207478486" lon="9.548241529892474"><ele>70.0</ele><time>2026-04-09T09:18:45.997Z</time></trkpt><trkpt lat="45.037260173563304" lon="9.548245013891002"><ele>70.0</ele><time>2026-04-09T09:18:46.997Z</time></trkpt><trkpt lat="45.037330815732794" lon="9.548246760547714"><ele>70.0</ele><time>2026-04-09T09:18:47.998Z</time></trkpt><trkpt lat="45.03740158532391" lon="9.5482438108581"><ele>70.0</ele><time>2026-04-09T09:18:48.998Z</time></trkpt><trkpt lat="45.03747640507926" lon="9.548245013247529"><ele>70.0</ele><time>2026-04-09T09:18:49.997Z</time></trkpt><trkpt lat="45.037541403815105" lon="9.548242355537631"><ele>70.0</ele><time>2026-04-09T09:18:50.998Z</time></trkpt><trkpt lat="45.03761430748372" lon="9.548245277250532"><ele>70.0</ele><time>2026-04-09T09:18:51.998Z</time></trkpt><trkpt lat="45.03768736902263" lon="9.548250448239106"><ele>70.0</ele><time>2026-04-09T09:18:52.998Z</time></trkpt><trkpt lat="45.037755907904256" lon="9.548244238666319"><ele>70.0</ele><time>2026-04-09T09:18:53.997Z</time></trkpt><trkpt lat="45.03782973932703" lon="9.548246478723176"><ele>70.16666666666666</ele><time>2026-04-09T09:18:54.997Z</time></trkpt><trkpt lat="45.03790400256699" lon="9.548249540294526"><ele>70.33333333333333</ele><time>2026-04-09T09:18:55.998Z</time></trkpt><trkpt lat="45.03798049891176" lon="9.54824874396517"><ele>70.5</ele><time>2026-04-09T09:18:56.997Z</time></trkpt><trkpt lat="45.038056086945666" lon="9.548248539829972"><ele>70.66666666666667</ele><time>2026-04-09T09:18:57.997Z</time></trkpt><trkpt lat="45.03813921436384" lon="9.54825206845797"><ele>70.83333333333334</ele><time>2026-04-09T09:18:58.997Z</time></trkpt><trkpt lat="45.038205070106294" lon="9.548255282237859"><ele>71.0</ele><time>2026-04-09T09:18:59.997Z</time></trkpt><trkpt lat="45.03827999422974" lon="9.548256910648368"><ele>70.71428571428571</ele><time>2026-04-09T09:19:00.997Z</time></trkpt><trkpt lat="45.03835497162573" lon="9.5482550796629"><ele>70.42857142857142</ele><time>2026-04-09T09:19:01.997Z</time></trkpt><trkpt lat="45.03842860679004" lon="9.548249396797594"><ele>70.14285714285714</ele><time>2026-04-09T09:19:02.997Z</time></trkpt><trkpt lat="45.03850244547859" lon="9.548255374745422"><ele>69.85714285714286</ele><time>2026-04-09T09:19:03.997Z</time></trkpt><trkpt lat="45.03857666415507" lon="9.548253750117583"><ele>69.57142857142858</ele><time>2026-04-09T09:19:04.997Z</time></trkpt><trkpt lat="45.03864903209737" lon="9.548254037152027"><ele>69.28571428571429</ele><time>2026-04-09T09:19:05.997Z</time></trkpt><trkpt lat="45.03872269194973" lon="9.548257754764446"><ele>69.0</ele><time>2026-04-09T09:19:06.997Z</time></trkpt><trkpt lat="45.03879995750388" lon="9.548257212228359"><ele>69.0</ele><time>2026-04-09T09:19:07.997Z</time></trkpt><trkpt lat="45.038867607852296" lon="9.548256256391234"><ele>69.0</ele><time>2026-04-09T09:19:08.997Z</time></trkpt><trkpt lat="45.03894499012688" lon="9.548255324316473"><ele>69.0</ele><time>2026-04-09T09:19:09.997Z</time></trkpt><trkpt lat="45.03902195074137" lon="9.548256572128365"><ele>69.0</ele><time>2026-04-09T09:19:10.997Z</time></trkpt><trkpt lat="45.03909427334832" lon="9.548255407644822"><ele>69.0</ele><time>2026-04-09T09:19:11.997Z</time></trkpt><trkpt lat="45.03916854163335" lon="9.548255075488779"><ele>69.0</ele><time>2026-04-09T09:19:12.997Z</time></trkpt><trkpt lat="45.03924730031343" lon="9.548256887562628"><ele>69.0</ele><time>2026-04-09T09:19:13.997Z</time></trkpt><trkpt lat="45.03931980982137" lon="9.548250881885826"><ele>68.71428571428572</ele><time>2026-04-09T09:19:14.997Z</time></trkpt><trkpt lat="45.03939246716667" lon="9.548264754342325"><ele>68.42857142857143</ele><time>2026-04-09T09:19:15.997Z</time></trkpt><trkpt lat="45.039462010962126" lon="9.548302368780275"><ele>68.14285714285714</ele><time>2026-04-09T09:19:16.997Z</time></trkpt><trkpt lat="45.03951971492823" lon="9.548372570628736"><ele>67.85714285714286</ele><time>2026-04-09T09:19:17.997Z</time></trkpt><trkpt lat="45.03956440992454" lon="9.548461218641071"><ele>67.57142857142857</ele><time>2026-04-09T09:19:18.997Z</time></trkpt><trkpt lat="45.03960273218621" lon="9.548542011141887"><ele>67.28571428571429</ele><time>2026-04-09T09:19:19.997Z</time></trkpt><trkpt lat="45.03964308386651" lon="9.548621865290082"><ele>67.0</ele><time>2026-04-09T09:19:20.997Z</time></trkpt><trkpt lat="45.03968740236134" lon="9.548699752441868"><ele>67.42857142857143</ele><time>2026-04-09T09:19:21.997Z</time></trkpt><trkpt lat="45.03973416170372" lon="9.5487837874767"><ele>67.85714285714286</ele><time>2026-04-09T09:19:22.997Z</time></trkpt><trkpt lat="45.0397783869654" lon="9.5488720016158"><ele>68.28571428571428</ele><time>2026-04-09T09:19:23.997Z</time></trkpt><trkpt lat="45.03981958374577" lon="9.548953807710484"><ele>68.71428571428572</ele><time>2026-04-09T09:19:24.997Z</time></trkpt><trkpt lat="45.03986430443012" lon="9.549033491589755"><ele>69.14285714285714</ele><time>2026-04-09T09:19:25.997Z</time></trkpt><trkpt lat="45.03990820885646" lon="9.549114175278328"><ele>69.57142857142857</ele><time>2026-04-09T09:19:26.997Z</time></trkpt><trkpt lat="45.03994729481279" lon="9.549198338123237"><ele>70.0</ele><time>2026-04-09T09:19:27.997Z</time></trkpt><trkpt lat="45.03998405841616" lon="9.549279344520388"><ele>70.0</ele><time>2026-04-09T09:19:28.997Z</time></trkpt><trkpt lat="45.040017528369916" lon="9.549358931881848"><ele>70.0</ele><time>2026-04-09T09:19:29.997Z</time></trkpt><trkpt lat="45.040071595120374" lon="9.549498328118123"><ele>70.0</ele><time>2026-04-09T09:19:31.997Z</time></trkpt><trkpt lat="45.040094775290456" lon="9.549670906842186"><ele>70.0</ele><time>2026-04-09T09:19:33.997Z</time></trkpt><trkpt lat="45.04011431338795" lon="9.54976866001962"><ele>70.0</ele><time>2026-04-09T09:19:34.997Z</time></trkpt><trkpt lat="45.04013528137782" lon="9.549879177702525"><ele>70.0</ele><time>2026-04-09T09:19:35.997Z</time></trkpt><trkpt lat="45.040152965562626" lon="9.549984099769548"><ele>70.0</ele><time>2026-04-09T09:19:36.997Z</time></trkpt><trkpt lat="45.040181359883036" lon="9.550092751928393"><ele>70.0</ele><time>2026-04-09T09:19:37.997Z</time></trkpt><trkpt lat="45.0401917806068" lon="9.550197480252438"><ele>70.0</ele><time>2026-04-09T09:19:38.997Z</time></trkpt><trkpt lat="45.040203787091535" lon="9.550299286794017"><ele>70.0</ele><time>2026-04-09T09:19:39.997Z</time></trkpt><trkpt lat="45.0402169146169" lon="9.550396898356677"><ele>70.0</ele><time>2026-04-09T09:19:40.997Z</time></trkpt><trkpt lat="45.040235146575625" lon="9.550500644115687"><ele>70.0</ele><time>2026-04-09T09:19:41.997Z</time></trkpt><trkpt lat="45.040240673163396" lon="9.550596510706194"><ele>70.0</ele><time>2026-04-09T09:19:42.997Z</time></trkpt><trkpt lat="45.04026225260257" lon="9.550694799630328"><ele>70.0</ele><time>2026-04-09T09:19:43.997Z</time></trkpt><trkpt lat="45.04027173365385" lon="9.550794011651497"><ele>70.0</ele><time>2026-04-09T09:19:44.997Z</time></trkpt><trkpt lat="45.0402891189496" lon="9.55088150377407"><ele>70.0</ele><time>2026-04-09T09:19:45.997Z</time></trkpt><trkpt lat="45.0403033133556" lon="9.550979890959963"><ele>70.0</ele><time>2026-04-09T09:19:46.997Z</time></trkpt><trkpt lat="45.04032336203662" lon="9.551067953486756"><ele>70.0</ele><time>2026-04-09T09:19:47.997Z</time></trkpt><trkpt lat="45.04033646727739" lon="9.551179456698165"><ele>69.85714285714286</ele><time>2026-04-09T09:19:48.997Z</time></trkpt><trkpt lat="45.040346853775375" lon="9.551268882999869"><ele>69.71428571428572</ele><time>2026-04-09T09:19:49.997Z</time></trkpt><trkpt lat="45.04036180854751" lon="9.551366186297562"><ele>69.57142857142857</ele><time>2026-04-09T09:19:50.997Z</time></trkpt><trkpt lat="45.040380696286796" lon="9.551466523730834"><ele>69.42857142857143</ele><time>2026-04-09T09:19:51.997Z</time></trkpt><trkpt lat="45.040395463187124" lon="9.55155966374465"><ele>69.28571428571429</ele><time>2026-04-09T09:19:52.997Z</time></trkpt><trkpt lat="45.04041216543652" lon="9.551660344295804"><ele>69.14285714285714</ele><time>2026-04-09T09:19:53.997Z</time></trkpt><trkpt lat="45.04043062704457" lon="9.551763413484816"><ele>69.0</ele><time>2026-04-09T09:19:54.997Z</time></trkpt><trkpt lat="45.04044932758312" lon="9.551864287929746"><ele>69.0</ele><time>2026-04-09T09:19:55.997Z</time></trkpt><trkpt lat="45.040471853379714" lon="9.551962041918495"><ele>69.0</ele><time>2026-04-09T09:19:56.997Z</time></trkpt><trkpt lat="45.040486518715284" lon="9.552066663986162"><ele>69.0</ele><time>2026-04-09T09:19:57.997Z</time></trkpt><trkpt lat="45.040505910144155" lon="9.552163992194691"><ele>69.0</ele><time>2026-04-09T09:19:58.997Z</time></trkpt><trkpt lat="45.04052396043156" lon="9.552269003407433"><ele>69.0</ele><time>2026-04-09T09:19:59.997Z</time></trkpt><trkpt lat="45.040540828428725" lon="9.552369047776104"><ele>69.0</ele><time>2026-04-09T09:20:00.997Z</time></trkpt><trkpt lat="45.040554501210885" lon="9.552478298862791"><ele>69.0</ele><time>2026-04-09T09:20:01.997Z</time></trkpt><trkpt lat="45.04056728515325" lon="9.55257630733601"><ele>69.0</ele><time>2026-04-09T09:20:02.997Z</time></trkpt><trkpt lat="45.040590294880666" lon="9.552675323297054"><ele>69.0</ele><time>2026-04-09T09:20:03.997Z</time></trkpt><trkpt lat="45.04060546872757" lon="9.552781333111621"><ele>69.0</ele><time>2026-04-09T09:20:04.997Z</time></trkpt><trkpt lat="45.04062174504336" lon="9.552890532890398"><ele>69.0</ele><time>2026-04-09T09:20:05.997Z</time></trkpt><trkpt lat="45.04064535685896" lon="9.552984331346805"><ele>69.0</ele><time>2026-04-09T09:20:06.997Z</time></trkpt><trkpt lat="45.04067635366256" lon="9.553074779360115"><ele>69.0</ele><time>2026-04-09T09:20:07.997Z</time></trkpt><trkpt lat="45.04070695465623" lon="9.553179407251001"><ele>69.0</ele><time>2026-04-09T09:20:08.997Z</time></trkpt><trkpt lat="45.040723464919964" lon="9.553285757026902"><ele>69.0</ele><time>2026-04-09T09:20:09.997Z</time></trkpt><trkpt lat="45.04073604139892" lon="9.55338523015388"><ele>69.0</ele><time>2026-04-09T09:20:10.997Z</time></trkpt><trkpt lat="45.04077649751759" lon="9.553488677982237"><ele>69.0</ele><time>2026-04-09T09:20:11.996Z</time></trkpt><trkpt lat="45.04079649284618" lon="9.553601320188529"><ele>69.0</ele><time>2026-04-09T09:20:12.996Z</time></trkpt><trkpt lat="45.040817078029654" lon="9.553709419503525"><ele>69.0</ele><time>2026-04-09T09:20:13.996Z</time></trkpt><trkpt lat="45.040841363483544" lon="9.553811799967665"><ele>69.14285714285714</ele><time>2026-04-09T09:20:14.995Z</time></trkpt><trkpt lat="45.04086181002945" lon="9.553914600584195"><ele>69.28571428571429</ele><time>2026-04-09T09:20:15.995Z</time></trkpt><trkpt lat="45.0408755412043" lon="9.554019646037123"><ele>69.42857142857143</ele><time>2026-04-09T09:20:16.994Z</time></trkpt><trkpt lat="45.04089410479803" lon="9.554120551503495"><ele>69.57142857142857</ele><time>2026-04-09T09:20:17.994Z</time></trkpt><trkpt lat="45.04091047319603" lon="9.554229886940542"><ele>69.71428571428572</ele><time>2026-04-09T09:20:18.994Z</time></trkpt><trkpt lat="45.0409196536506" lon="9.554318421190525"><ele>69.85714285714286</ele><time>2026-04-09T09:20:19.994Z</time></trkpt><trkpt lat="45.040932816936376" lon="9.554422411606682"><ele>70.0</ele><time>2026-04-09T09:20:20.993Z</time></trkpt><trkpt lat="45.04094907186223" lon="9.554523770310336"><ele>69.83333333333333</ele><time>2026-04-09T09:20:21.993Z</time></trkpt><trkpt lat="45.040958988776715" lon="9.554642219205334"><ele>69.66666666666666</ele><time>2026-04-09T09:20:22.993Z</time></trkpt><trkpt lat="45.040968847985205" lon="9.5547512533985"><ele>69.5</ele><time>2026-04-09T09:20:23.993Z</time></trkpt><trkpt lat="45.0409611893927" lon="9.554860945838325"><ele>69.33333333333333</ele><time>2026-04-09T09:20:24.992Z</time></trkpt><trkpt lat="45.040959646108284" lon="9.55496465525508"><ele>69.16666666666667</ele><time>2026-04-09T09:20:25.992Z</time></trkpt><trkpt lat="45.04095285579249" lon="9.555065136330839"><ele>69.0</ele><time>2026-04-09T09:20:26.992Z</time></trkpt><trkpt lat="45.04094686750859" lon="9.555168770361163"><ele>69.0</ele><time>2026-04-09T09:20:27.992Z</time></trkpt><trkpt lat="45.040941699635304" lon="9.555271755785702"><ele>69.0</ele><time>2026-04-09T09:20:28.992Z</time></trkpt><trkpt lat="45.040934731859856" lon="9.555365696853585"><ele>69.0</ele><time>2026-04-09T09:20:29.991Z</time></trkpt><trkpt lat="45.04092824719998" lon="9.555463685121591"><ele>69.0</ele><time>2026-04-09T09:20:30.991Z</time></trkpt><trkpt lat="45.040922266983706" lon="9.555559535544464"><ele>69.0</ele><time>2026-04-09T09:20:31.991Z</time></trkpt><trkpt lat="45.04091430402812" lon="9.555653378554808"><ele>69.0</ele><time>2026-04-09T09:20:32.991Z</time></trkpt><trkpt lat="45.04090673009719" lon="9.55574578752685"><ele>69.0</ele><time>2026-04-09T09:20:33.991Z</time></trkpt><trkpt lat="45.04090296764462" lon="9.555843096119625"><ele>68.85714285714286</ele><time>2026-04-09T09:20:34.991Z</time></trkpt><trkpt lat="45.04089684931366" lon="9.555938622691503"><ele>68.71428571428572</ele><time>2026-04-09T09:20:35.991Z</time></trkpt><trkpt lat="45.040887885910806" lon="9.556034599009267"><ele>68.57142857142857</ele><time>2026-04-09T09:20:36.991Z</time></trkpt><trkpt lat="45.0408778523014" lon="9.556129995716626"><ele>68.42857142857143</ele><time>2026-04-09T09:20:37.991Z</time></trkpt><trkpt lat="45.040870620278966" lon="9.556221222551397"><ele>68.28571428571428</ele><time>2026-04-09T09:20:38.99Z</time></trkpt><trkpt lat="45.04086523376355" lon="9.556310713381933"><ele>68.14285714285714</ele><time>2026-04-09T09:20:39.99Z</time></trkpt><trkpt lat="45.040857301832794" lon="9.556401750379345"><ele>68.0</ele><time>2026-04-09T09:20:40.99Z</time></trkpt><trkpt lat="45.040847361738784" lon="9.556491262679787"><ele>67.66666666666667</ele><time>2026-04-09T09:20:41.99Z</time></trkpt><trkpt lat="45.04083058696929" lon="9.556581038187266"><ele>67.33333333333334</ele><time>2026-04-09T09:20:42.99Z</time></trkpt><trkpt lat="45.04082063630851" lon="9.556756527340792"><ele>67.0</ele><time>2026-04-09T09:20:44.99Z</time></trkpt><trkpt lat="45.040810000976265" lon="9.556845588141158"><ele>66.66666666666667</ele><time>2026-04-09T09:20:45.99Z</time></trkpt><trkpt lat="45.040794097634425" lon="9.556932949454833"><ele>66.33333333333333</ele><time>2026-04-09T09:20:46.99Z</time></trkpt><trkpt lat="45.040782101127775" lon="9.557020673183187"><ele>66.0</ele><time>2026-04-09T09:20:47.99Z</time></trkpt><trkpt lat="45.04075712941783" lon="9.557197406824578"><ele>66.0</ele><time>2026-04-09T09:20:49.99Z</time></trkpt><trkpt lat="45.04073362665707" lon="9.557372099167889"><ele>66.0</ele><time>2026-04-09T09:20:51.99Z</time></trkpt><trkpt lat="45.040724232177354" lon="9.557462787888475"><ele>66.0</ele><time>2026-04-09T09:20:52.99Z</time></trkpt><trkpt lat="45.04070464366756" lon="9.55763240235274"><ele>66.0</ele><time>2026-04-09T09:20:54.99Z</time></trkpt><trkpt lat="45.04068245008235" lon="9.557803709158987"><ele>66.0</ele><time>2026-04-09T09:20:56.989Z</time></trkpt><trkpt lat="45.040657925052585" lon="9.557969359418243"><ele>65.8</ele><time>2026-04-09T09:20:58.99Z</time></trkpt><trkpt lat="45.04063436914061" lon="9.558134084230165"><ele>65.6</ele><time>2026-04-09T09:21:00.989Z</time></trkpt><trkpt lat="45.04062440863883" lon="9.558222079510044"><ele>65.4</ele><time>2026-04-09T09:21:01.99Z</time></trkpt><trkpt lat="45.04060451109531" lon="9.558387556229865"><ele>65.2</ele><time>2026-04-09T09:21:03.99Z</time></trkpt><trkpt lat="45.040582663043196" lon="9.558556953778817"><ele>65.0</ele><time>2026-04-09T09:21:05.989Z</time></trkpt><trkpt lat="45.04055598422202" lon="9.558726238203233"><ele>65.6</ele><time>2026-04-09T09:21:07.989Z</time></trkpt><trkpt lat="45.040546087056256" lon="9.558815625498127"><ele>66.2</ele><time>2026-04-09T09:21:08.989Z</time></trkpt><trkpt lat="45.040519600538076" lon="9.558981082684848"><ele>66.8</ele><time>2026-04-09T09:21:10.989Z</time></trkpt><trkpt lat="45.04050474127256" lon="9.559148010480433"><ele>67.4</ele><time>2026-04-09T09:21:12.989Z</time></trkpt><trkpt lat="45.04049405160418" lon="9.559312535152625"><ele>68.0</ele><time>2026-04-09T09:21:14.989Z</time></trkpt><trkpt lat="45.04052033515964" lon="9.559473572498549"><ele>67.75</ele><time>2026-04-09T09:21:16.989Z</time></trkpt><trkpt lat="45.04056649289024" lon="9.559626203934464"><ele>67.5</ele><time>2026-04-09T09:21:18.989Z</time></trkpt><trkpt lat="45.04060544606257" lon="9.55978269213479"><ele>67.25</ele><time>2026-04-09T09:21:20.989Z</time></trkpt><trkpt lat="45.040647044546695" lon="9.55993495550405"><ele>67.0</ele><time>2026-04-09T09:21:22.989Z</time></trkpt><trkpt lat="45.04068325157585" lon="9.560087564363817"><ele>67.0</ele><time>2026-04-09T09:21:24.989Z</time></trkpt><trkpt lat="45.040728966454004" lon="9.560228300747644"><ele>67.0</ele><time>2026-04-09T09:21:26.989Z</time></trkpt><trkpt lat="45.04076080868194" lon="9.560370820560614"><ele>67.0</ele><time>2026-04-09T09:21:28.989Z</time></trkpt><trkpt lat="45.040804176413126" lon="9.560522417687736"><ele>67.0</ele><time>2026-04-09T09:21:30.989Z</time></trkpt><trkpt lat="45.040844831474445" lon="9.560659201908091"><ele>67.0</ele><time>2026-04-09T09:21:32.989Z</time></trkpt><trkpt lat="45.04087196089947" lon="9.560798737767186"><ele>66.6</ele><time>2026-04-09T09:21:34.989Z</time></trkpt><trkpt lat="45.04090826615434" lon="9.56094260424492"><ele>66.2</ele><time>2026-04-09T09:21:36.989Z</time></trkpt><trkpt lat="45.040944387287034" lon="9.561079334088813"><ele>65.8</ele><time>2026-04-09T09:21:38.989Z</time></trkpt><trkpt lat="45.04097844287602" lon="9.561217095206487"><ele>65.4</ele><time>2026-04-09T09:21:40.989Z</time></trkpt><trkpt lat="45.041013467203584" lon="9.561355547151331"><ele>65.0</ele><time>2026-04-09T09:21:42.989Z</time></trkpt><trkpt lat="45.0410426875137" lon="9.561493262494855"><ele>65.0</ele><time>2026-04-09T09:21:44.989Z</time></trkpt><trkpt lat="45.04107978035913" lon="9.561631497629923"><ele>65.0</ele><time>2026-04-09T09:21:46.989Z</time></trkpt><trkpt lat="45.04111777490612" lon="9.561769222739226"><ele>65.0</ele><time>2026-04-09T09:21:48.989Z</time></trkpt><trkpt lat="45.041147980133076" lon="9.561907568814828"><ele>65.0</ele><time>2026-04-09T09:21:50.989Z</time></trkpt><trkpt lat="45.041183425711985" lon="9.562057816827432"><ele>65.0</ele><time>2026-04-09T09:21:52.989Z</time></trkpt><trkpt lat="45.04121578243727" lon="9.562209395248649"><ele>64.8</ele><time>2026-04-09T09:21:54.989Z</time></trkpt><trkpt lat="45.041249388914885" lon="9.562351572683657"><ele>64.6</ele><time>2026-04-09T09:21:56.989Z</time></trkpt><trkpt lat="45.04127723093849" lon="9.562499105636263"><ele>64.4</ele><time>2026-04-09T09:21:58.989Z</time></trkpt><trkpt lat="45.041312093586455" lon="9.562638069784386"><ele>64.2</ele><time>2026-04-09T09:22:00.989Z</time></trkpt><trkpt lat="45.0413430202998" lon="9.562777697763863"><ele>64.0</ele><time>2026-04-09T09:22:02.989Z</time></trkpt><trkpt lat="45.04137437426637" lon="9.56291493453254"><ele>64.0</ele><time>2026-04-09T09:22:04.989Z</time></trkpt><trkpt lat="45.041408733549666" lon="9.56305934242239"><ele>64.0</ele><time>2026-04-09T09:22:06.989Z</time></trkpt><trkpt lat="45.041432806840774" lon="9.56318423146137"><ele>64.0</ele><time>2026-04-09T09:22:08.989Z</time></trkpt><trkpt lat="45.04146505141798" lon="9.563322304019703"><ele>64.0</ele><time>2026-04-09T09:22:10.989Z</time></trkpt><trkpt lat="45.04149315382992" lon="9.563454830012715"><ele>64.0</ele><time>2026-04-09T09:22:12.989Z</time></trkpt><trkpt lat="45.04152317031737" lon="9.563595193456642"><ele>64.2</ele><time>2026-04-09T09:22:14.989Z</time></trkpt><trkpt lat="45.0415528328842" lon="9.563733811142715"><ele>64.4</ele><time>2026-04-09T09:22:16.989Z</time></trkpt><trkpt lat="45.04157986852124" lon="9.563874121596198"><ele>64.6</ele><time>2026-04-09T09:22:18.989Z</time></trkpt><trkpt lat="45.041613366859224" lon="9.564008436038105"><ele>64.8</ele><time>2026-04-09T09:22:20.989Z</time></trkpt><trkpt lat="45.0416439576679" lon="9.564143516425814"><ele>65.0</ele><time>2026-04-09T09:22:22.989Z</time></trkpt><trkpt lat="45.041672423437596" lon="9.564277055678229"><ele>65.0</ele><time>2026-04-09T09:22:24.989Z</time></trkpt><trkpt lat="45.041702056644525" lon="9.564411241140315"><ele>65.0</ele><time>2026-04-09T09:22:26.989Z</time></trkpt><trkpt lat="45.04173739865876" lon="9.564546576590924"><ele>65.0</ele><time>2026-04-09T09:22:28.989Z</time></trkpt><trkpt lat="45.04176746293161" lon="9.564691720572185"><ele>65.0</ele><time>2026-04-09T09:22:30.989Z</time></trkpt><trkpt lat="45.04179690142684" lon="9.564832833733183"><ele>65.0</ele><time>2026-04-09T09:22:32.989Z</time></trkpt><trkpt lat="45.04184088184992" lon="9.56496625338904"><ele>65.2</ele><time>2026-04-09T09:22:34.989Z</time></trkpt><trkpt lat="45.04188373995502" lon="9.565094011532041"><ele>65.4</ele><time>2026-04-09T09:22:36.989Z</time></trkpt><trkpt lat="45.04193522811616" lon="9.56521242399912"><ele>65.6</ele><time>2026-04-09T09:22:38.989Z</time></trkpt><trkpt lat="45.041988367237614" lon="9.565346714860814"><ele>65.8</ele><time>2026-04-09T09:22:40.989Z</time></trkpt><trkpt lat="45.04204468126483" lon="9.565489158929049"><ele>66.0</ele><time>2026-04-09T09:22:42.989Z</time></trkpt><trkpt lat="45.04210528149567" lon="9.565638872069972"><ele>66.0</ele><time>2026-04-09T09:22:44.989Z</time></trkpt><trkpt lat="45.042166953176604" lon="9.565779503146945"><ele>66.0</ele><time>2026-04-09T09:22:46.989Z</time></trkpt><trkpt lat="45.04221953862704" lon="9.565919880235361"><ele>66.0</ele><time>2026-04-09T09:22:48.988Z</time></trkpt><trkpt lat="45.042282694981736" lon="9.566064688639962"><ele>66.0</ele><time>2026-04-09T09:22:50.988Z</time></trkpt><trkpt lat="45.042336850158925" lon="9.56620869701968"><ele>65.6</ele><time>2026-04-09T09:22:52.988Z</time></trkpt><trkpt lat="45.042367710471275" lon="9.566286480837158"><ele>65.19999999999999</ele><time>2026-04-09T09:22:53.988Z</time></trkpt><trkpt lat="45.04242391937915" lon="9.566423380159112"><ele>64.80000000000001</ele><time>2026-04-09T09:22:55.988Z</time></trkpt><trkpt lat="45.04247954329344" lon="9.566568614627496"><ele>64.4</ele><time>2026-04-09T09:22:57.988Z</time></trkpt><trkpt lat="45.0425393830311" lon="9.566710042281183"><ele>64.0</ele><time>2026-04-09T09:22:59.989Z</time></trkpt><trkpt lat="45.04259340259399" lon="9.566850468323098"><ele>64.0</ele><time>2026-04-09T09:23:01.989Z</time></trkpt><trkpt lat="45.042653253023715" lon="9.566986522145166"><ele>64.0</ele><time>2026-04-09T09:23:03.989Z</time></trkpt><trkpt lat="45.04271529038072" lon="9.567124768936848"><ele>64.0</ele><time>2026-04-09T09:23:05.989Z</time></trkpt><trkpt lat="45.04278054641513" lon="9.567261045354897"><ele>64.0</ele><time>2026-04-09T09:23:07.989Z</time></trkpt><trkpt lat="45.042850153272965" lon="9.567399460787133"><ele>64.0</ele><time>2026-04-09T09:23:09.989Z</time></trkpt><trkpt lat="45.04291850197723" lon="9.567540221284794"><ele>64.0</ele><time>2026-04-09T09:23:11.989Z</time></trkpt><trkpt lat="45.04299080496297" lon="9.5676759752027"><ele>64.0</ele><time>2026-04-09T09:23:13.989Z</time></trkpt><trkpt lat="45.04305745154707" lon="9.56781898605439"><ele>64.0</ele><time>2026-04-09T09:23:15.989Z</time></trkpt><trkpt lat="45.043130515672125" lon="9.567961681964352"><ele>64.0</ele><time>2026-04-09T09:23:17.989Z</time></trkpt><trkpt lat="45.0432066917191" lon="9.56809747367357"><ele>64.0</ele><time>2026-04-09T09:23:19.989Z</time></trkpt><trkpt lat="45.04327037996936" lon="9.568232979095283"><ele>64.0</ele><time>2026-04-09T09:23:21.989Z</time></trkpt><trkpt lat="45.04334097190022" lon="9.56837167946119"><ele>64.0</ele><time>2026-04-09T09:23:23.989Z</time></trkpt><trkpt lat="45.04340489871989" lon="9.568505791372832"><ele>64.2</ele><time>2026-04-09T09:23:25.989Z</time></trkpt><trkpt lat="45.04346736886588" lon="9.568633149229694"><ele>64.4</ele><time>2026-04-09T09:23:27.989Z</time></trkpt><trkpt lat="45.043529473815006" lon="9.568764289246843"><ele>64.6</ele><time>2026-04-09T09:23:29.989Z</time></trkpt><trkpt lat="45.043590765915475" lon="9.56889893628767"><ele>64.8</ele><time>2026-04-09T09:23:31.989Z</time></trkpt><trkpt lat="45.043652741959136" lon="9.569031164335296"><ele>65.0</ele><time>2026-04-09T09:23:33.989Z</time></trkpt><trkpt lat="45.04371588544594" lon="9.569164590190674"><ele>64.5</ele><time>2026-04-09T09:23:35.989Z</time></trkpt><trkpt lat="45.04378010009676" lon="9.569301764934867"><ele>64.0</ele><time>2026-04-09T09:23:37.989Z</time></trkpt><trkpt lat="45.04384141799707" lon="9.569439362933995"><ele>63.5</ele><time>2026-04-09T09:23:39.989Z</time></trkpt><trkpt lat="45.043906334052195" lon="9.569572636521986"><ele>63.0</ele><time>2026-04-09T09:23:41.989Z</time></trkpt><trkpt lat="45.043965505447844" lon="9.569705085052743"><ele>63.25</ele><time>2026-04-09T09:23:43.989Z</time></trkpt><trkpt lat="45.0440266091002" lon="9.569825743692114"><ele>63.5</ele><time>2026-04-09T09:23:45.989Z</time></trkpt><trkpt lat="45.04408780761358" lon="9.569959116114847"><ele>63.75</ele><time>2026-04-09T09:23:47.989Z</time></trkpt><trkpt lat="45.04415889030964" lon="9.570087169628403"><ele>64.0</ele><time>2026-04-09T09:23:49.989Z</time></trkpt><trkpt lat="45.04423081390574" lon="9.570223302177164"><ele>64.0</ele><time>2026-04-09T09:23:51.989Z</time></trkpt><trkpt lat="45.0442995603231" lon="9.570362255082399"><ele>64.0</ele><time>2026-04-09T09:23:53.988Z</time></trkpt><trkpt lat="45.04437492399676" lon="9.570495280885266"><ele>64.0</ele><time>2026-04-09T09:23:55.988Z</time></trkpt><trkpt lat="45.0444415955374" lon="9.570625551294603"><ele>64.0</ele><time>2026-04-09T09:23:57.988Z</time></trkpt><trkpt lat="45.044514023259644" lon="9.570761178650336"><ele>64.0</ele><time>2026-04-09T09:23:59.988Z</time></trkpt><trkpt lat="45.04458140227971" lon="9.570887132268444"><ele>64.0</ele><time>2026-04-09T09:24:01.988Z</time></trkpt><trkpt lat="45.04464390534596" lon="9.571019962809086"><ele>64.0</ele><time>2026-04-09T09:24:03.988Z</time></trkpt><trkpt lat="45.044704107477045" lon="9.571148241016376"><ele>64.0</ele><time>2026-04-09T09:24:05.988Z</time></trkpt><trkpt lat="45.0447529758836" lon="9.571290863527826"><ele>64.0</ele><time>2026-04-09T09:24:07.988Z</time></trkpt><trkpt lat="45.04477226316175" lon="9.571451249286765"><ele>63.800000000000004</ele><time>2026-04-09T09:24:09.988Z</time></trkpt><trkpt lat="45.04476712280522" lon="9.571617577388137"><ele>63.60000000000001</ele><time>2026-04-09T09:24:11.988Z</time></trkpt><trkpt lat="45.04474949720296" lon="9.571770343659574"><ele>63.4</ele><time>2026-04-09T09:24:13.988Z</time></trkpt><trkpt lat="45.04473484036052" lon="9.571928533693779"><ele>63.2</ele><time>2026-04-09T09:24:15.988Z</time></trkpt><trkpt lat="45.04472109076405" lon="9.5720824070801"><ele>63.0</ele><time>2026-04-09T09:24:17.988Z</time></trkpt><trkpt lat="45.04470334897676" lon="9.572237179862872"><ele>63.0</ele><time>2026-04-09T09:24:19.988Z</time></trkpt><trkpt lat="45.04468713971517" lon="9.572389265419638"><ele>63.0</ele><time>2026-04-09T09:24:21.988Z</time></trkpt><trkpt lat="45.044667215399976" lon="9.57254073584557"><ele>63.0</ele><time>2026-04-09T09:24:23.988Z</time></trkpt><trkpt lat="45.044657898497846" lon="9.57268934275264"><ele>63.0</ele><time>2026-04-09T09:24:25.988Z</time></trkpt><trkpt lat="45.0446779655175" lon="9.572838597722786"><ele>63.0</ele><time>2026-04-09T09:24:27.988Z</time></trkpt><trkpt lat="45.04471851920964" lon="9.572977391381047"><ele>63.0</ele><time>2026-04-09T09:24:29.988Z</time></trkpt><trkpt lat="45.04476559754452" lon="9.573123907778905"><ele>63.0</ele><time>2026-04-09T09:24:31.988Z</time></trkpt><trkpt lat="45.04480809648354" lon="9.573265145847092"><ele>63.0</ele><time>2026-04-09T09:24:33.988Z</time></trkpt><trkpt lat="45.04486134276342" lon="9.573412441981505"><ele>63.0</ele><time>2026-04-09T09:24:35.988Z</time></trkpt><trkpt lat="45.044909406799135" lon="9.573566468159276"><ele>62.8</ele><time>2026-04-09T09:24:37.988Z</time></trkpt><trkpt lat="45.04496005060399" lon="9.573724073583973"><ele>62.599999999999994</ele><time>2026-04-09T09:24:39.988Z</time></trkpt><trkpt lat="45.04501223460494" lon="9.573881691771712"><ele>62.400000000000006</ele><time>2026-04-09T09:24:41.988Z</time></trkpt><trkpt lat="45.0450598428778" lon="9.574041533223076"><ele>62.2</ele><time>2026-04-09T09:24:43.988Z</time></trkpt><trkpt lat="45.04508410638547" lon="9.574126100634068"><ele>62.0</ele><time>2026-04-09T09:24:44.988Z</time></trkpt><trkpt lat="45.04513992515395" lon="9.57428836464445"><ele>62.333333333333336</ele><time>2026-04-09T09:24:46.988Z</time></trkpt><trkpt lat="45.045170457204065" lon="9.574369267477076"><ele>62.66666666666667</ele><time>2026-04-09T09:24:47.988Z</time></trkpt><trkpt lat="45.04519573512759" lon="9.574451401034564"><ele>63.0</ele><time>2026-04-09T09:24:48.988Z</time></trkpt><trkpt lat="45.04522036907051" lon="9.57453500239593"><ele>63.33333333333333</ele><time>2026-04-09T09:24:49.988Z</time></trkpt><trkpt lat="45.04527313868496" lon="9.574697978970617"><ele>63.666666666666664</ele><time>2026-04-09T09:24:51.988Z</time></trkpt><trkpt lat="45.04530062126803" lon="9.574783118259461"><ele>64.0</ele><time>2026-04-09T09:24:52.988Z</time></trkpt><trkpt lat="45.045355703952445" lon="9.57494434260159"><ele>64.0</ele><time>2026-04-09T09:24:54.988Z</time></trkpt><trkpt lat="45.0453837684152" lon="9.575026542006112"><ele>64.0</ele><time>2026-04-09T09:24:55.988Z</time></trkpt><trkpt lat="45.04543356179548" lon="9.57518997523257"><ele>64.0</ele><time>2026-04-09T09:24:57.988Z</time></trkpt><trkpt lat="45.045488458801444" lon="9.575341228436944"><ele>64.0</ele><time>2026-04-09T09:24:59.988Z</time></trkpt><trkpt lat="45.04554257744534" lon="9.575501959826909"><ele>64.0</ele><time>2026-04-09T09:25:01.988Z</time></trkpt><trkpt lat="45.04559329973591" lon="9.575653070739031"><ele>63.75</ele><time>2026-04-09T09:25:03.988Z</time></trkpt><trkpt lat="45.04564385730759" lon="9.575808791351873"><ele>63.5</ele><time>2026-04-09T09:25:05.989Z</time></trkpt><trkpt lat="45.04569529801209" lon="9.575964154002381"><ele>63.25</ele><time>2026-04-09T09:25:07.988Z</time></trkpt><trkpt lat="45.04574550202449" lon="9.57612518815043"><ele>63.0</ele><time>2026-04-09T09:25:09.988Z</time></trkpt><trkpt lat="45.045795653051584" lon="9.576287622898484"><ele>62.8</ele><time>2026-04-09T09:25:11.989Z</time></trkpt><trkpt lat="45.04584716796366" lon="9.576446587410963"><ele>62.599999999999994</ele><time>2026-04-09T09:25:13.989Z</time></trkpt><trkpt lat="45.04587630174278" lon="9.576526786004933"><ele>62.400000000000006</ele><time>2026-04-09T09:25:14.988Z</time></trkpt><trkpt lat="45.04590243584217" lon="9.576614894541736"><ele>62.2</ele><time>2026-04-09T09:25:15.988Z</time></trkpt><trkpt lat="45.045954901166475" lon="9.576774000906015"><ele>62.0</ele><time>2026-04-09T09:25:17.988Z</time></trkpt><trkpt lat="45.046008713394535" lon="9.576936290889238"><ele>61.833333333333336</ele><time>2026-04-09T09:25:19.988Z</time></trkpt><trkpt lat="45.04603382097754" lon="9.577019721657978"><ele>61.66666666666667</ele><time>2026-04-09T09:25:20.988Z</time></trkpt><trkpt lat="45.04606114831317" lon="9.577103753398614"><ele>61.5</ele><time>2026-04-09T09:25:21.988Z</time></trkpt><trkpt lat="45.046118693418045" lon="9.577264540503055"><ele>61.33333333333333</ele><time>2026-04-09T09:25:23.988Z</time></trkpt><trkpt lat="45.04614365115839" lon="9.577348350723312"><ele>61.166666666666664</ele><time>2026-04-09T09:25:24.988Z</time></trkpt><trkpt lat="45.04617234715522" lon="9.577431882715844"><ele>61.0</ele><time>2026-04-09T09:25:25.988Z</time></trkpt><trkpt lat="45.04620104703474" lon="9.577518642168794"><ele>60.99999999999999</ele><time>2026-04-09T09:25:26.988Z</time></trkpt><trkpt lat="45.04622473140087" lon="9.57760406939191"><ele>61.0</ele><time>2026-04-09T09:25:27.988Z</time></trkpt><trkpt lat="45.04625633775264" lon="9.577687128536036"><ele>60.99999999999999</ele><time>2026-04-09T09:25:28.988Z</time></trkpt><trkpt lat="45.046283843396225" lon="9.577773290713674"><ele>60.99999999999999</ele><time>2026-04-09T09:25:29.988Z</time></trkpt><trkpt lat="45.046312119257806" lon="9.577858135944286"><ele>61.0</ele><time>2026-04-09T09:25:30.988Z</time></trkpt><trkpt lat="45.046339606175344" lon="9.577941054010175"><ele>60.99999999999999</ele><time>2026-04-09T09:25:31.988Z</time></trkpt><trkpt lat="45.04636480528449" lon="9.578025133274798"><ele>60.99999999999999</ele><time>2026-04-09T09:25:32.988Z</time></trkpt><trkpt lat="45.046391531693786" lon="9.5781128954935"><ele>61.14285714285714</ele><time>2026-04-09T09:25:33.988Z</time></trkpt><trkpt lat="45.046418728944275" lon="9.578199866048795"><ele>61.285714285714285</ele><time>2026-04-09T09:25:34.988Z</time></trkpt><trkpt lat="45.046441022359005" lon="9.57829020407762"><ele>61.42857142857143</ele><time>2026-04-09T09:25:35.988Z</time></trkpt><trkpt lat="45.04646535113548" lon="9.57837472486439"><ele>61.57142857142857</ele><time>2026-04-09T09:25:36.988Z</time></trkpt><trkpt lat="45.046489339087344" lon="9.578459061035913"><ele>61.71428571428572</ele><time>2026-04-09T09:25:37.988Z</time></trkpt><trkpt lat="45.04651622731725" lon="9.578550587224331"><ele>61.85714285714286</ele><time>2026-04-09T09:25:38.988Z</time></trkpt><trkpt lat="45.04654319211679" lon="9.578633886358448"><ele>62.0</ele><time>2026-04-09T09:25:39.988Z</time></trkpt><trkpt lat="45.04657531626763" lon="9.578716083466482"><ele>62.0</ele><time>2026-04-09T09:25:40.988Z</time></trkpt><trkpt lat="45.04660003897449" lon="9.578798423119096"><ele>62.0</ele><time>2026-04-09T09:25:41.988Z</time></trkpt><trkpt lat="45.04665137721826" lon="9.578961841964444"><ele>62.0</ele><time>2026-04-09T09:25:43.988Z</time></trkpt><trkpt lat="45.04671031482553" lon="9.579113458546393"><ele>62.0</ele><time>2026-04-09T09:25:45.988Z</time></trkpt><trkpt lat="45.04677855747511" lon="9.579267909830596"><ele>62.0</ele><time>2026-04-09T09:25:47.988Z</time></trkpt><trkpt lat="45.04683589473184" lon="9.579417379875919"><ele>62.00000000000001</ele><time>2026-04-09T09:25:49.988Z</time></trkpt><trkpt lat="45.04686759702678" lon="9.579495726099063"><ele>62.0</ele><time>2026-04-09T09:25:50.988Z</time></trkpt><trkpt lat="45.046897489935304" lon="9.57957630529672"><ele>62.0</ele><time>2026-04-09T09:25:51.988Z</time></trkpt><trkpt lat="45.04693118296952" lon="9.579655735411766"><ele>62.0</ele><time>2026-04-09T09:25:52.988Z</time></trkpt><trkpt lat="45.04696656307849" lon="9.579733069193255"><ele>62.00000000000001</ele><time>2026-04-09T09:25:53.988Z</time></trkpt><trkpt lat="45.04703081773604" lon="9.579888551445208"><ele>62.0</ele><time>2026-04-09T09:25:55.988Z</time></trkpt><trkpt lat="45.04709585060142" lon="9.580042263990268"><ele>62.0</ele><time>2026-04-09T09:25:57.988Z</time></trkpt><trkpt lat="45.04712646812594" lon="9.580122408727984"><ele>62.00000000000001</ele><time>2026-04-09T09:25:58.988Z</time></trkpt><trkpt lat="45.047161481138026" lon="9.580196510537903"><ele>62.0</ele><time>2026-04-09T09:25:59.988Z</time></trkpt><trkpt lat="45.04719153989033" lon="9.580276291921052"><ele>62.0</ele><time>2026-04-09T09:26:00.988Z</time></trkpt><trkpt lat="45.047224183423374" lon="9.580355857400658"><ele>62.00000000000001</ele><time>2026-04-09T09:26:01.988Z</time></trkpt><trkpt lat="45.04726062567889" lon="9.580432987661094"><ele>62.0</ele><time>2026-04-09T09:26:02.988Z</time></trkpt><trkpt lat="45.047292044366124" lon="9.580513466076978"><ele>62.0</ele><time>2026-04-09T09:26:03.988Z</time></trkpt><trkpt lat="45.04732288282023" lon="9.58059509470573"><ele>62.00000000000001</ele><time>2026-04-09T09:26:04.988Z</time></trkpt><trkpt lat="45.047359122430585" lon="9.580674211396044"><ele>62.0</ele><time>2026-04-09T09:26:05.988Z</time></trkpt><trkpt lat="45.04739249357456" lon="9.580756004069105"><ele>62.0</ele><time>2026-04-09T09:26:06.988Z</time></trkpt><trkpt lat="45.04745375047828" lon="9.580915853136782"><ele>62.0</ele><time>2026-04-09T09:26:08.988Z</time></trkpt><trkpt lat="45.04748885981926" lon="9.580992821529998"><ele>62.00000000000001</ele><time>2026-04-09T09:26:09.988Z</time></trkpt><trkpt lat="45.04755136516573" lon="9.581141973794887"><ele>62.0</ele><time>2026-04-09T09:26:11.988Z</time></trkpt><trkpt lat="45.047619831451826" lon="9.581288206786624"><ele>62.25</ele><time>2026-04-09T09:26:13.988Z</time></trkpt><trkpt lat="45.047678768152444" lon="9.581441961452267"><ele>62.5</ele><time>2026-04-09T09:26:15.988Z</time></trkpt><trkpt lat="45.047739738386475" lon="9.581600095993196"><ele>62.75</ele><time>2026-04-09T09:26:17.988Z</time></trkpt><trkpt lat="45.04780899373868" lon="9.581749477020857"><ele>63.0</ele><time>2026-04-09T09:26:19.988Z</time></trkpt><trkpt lat="45.04787450203269" lon="9.581907533422362"><ele>63.0</ele><time>2026-04-09T09:26:21.988Z</time></trkpt><trkpt lat="45.047908838909116" lon="9.581987152313317"><ele>63.0</ele><time>2026-04-09T09:26:22.988Z</time></trkpt><trkpt lat="45.04794014692193" lon="9.58206976521312"><ele>63.0</ele><time>2026-04-09T09:26:23.988Z</time></trkpt><trkpt lat="45.04797715892254" lon="9.582144849801393"><ele>63.0</ele><time>2026-04-09T09:26:24.988Z</time></trkpt><trkpt lat="45.04803904392784" lon="9.58229260231445"><ele>63.0</ele><time>2026-04-09T09:26:26.988Z</time></trkpt><trkpt lat="45.04807417648249" lon="9.582373022655005"><ele>63.0</ele><time>2026-04-09T09:26:27.988Z</time></trkpt><trkpt lat="45.04810982021141" lon="9.582452374131108"><ele>63.0</ele><time>2026-04-09T09:26:28.988Z</time></trkpt><trkpt lat="45.04816041403632" lon="9.582598212778834"><ele>63.0</ele><time>2026-04-09T09:26:30.988Z</time></trkpt><trkpt lat="45.048188815726014" lon="9.58267779455197"><ele>63.0</ele><time>2026-04-09T09:26:31.988Z</time></trkpt><trkpt lat="45.048219214166544" lon="9.58275873465754"><ele>63.0</ele><time>2026-04-09T09:26:32.988Z</time></trkpt><trkpt lat="45.04825417365746" lon="9.582837577064518"><ele>63.0</ele><time>2026-04-09T09:26:33.988Z</time></trkpt><trkpt lat="45.0482913675399" lon="9.582921168972485"><ele>63.0</ele><time>2026-04-09T09:26:34.988Z</time></trkpt><trkpt lat="45.04832115440699" lon="9.583001877956791"><ele>63.0</ele><time>2026-04-09T09:26:35.987Z</time></trkpt><trkpt lat="45.04834696629039" lon="9.583083467343954"><ele>62.833333333333336</ele><time>2026-04-09T09:26:36.987Z</time></trkpt><trkpt lat="45.048377628116164" lon="9.583163965269616"><ele>62.66666666666667</ele><time>2026-04-09T09:26:37.987Z</time></trkpt><trkpt lat="45.048412975814806" lon="9.583241208907323"><ele>62.5</ele><time>2026-04-09T09:26:38.987Z</time></trkpt><trkpt lat="45.04844656354518" lon="9.583318601933604"><ele>62.333333333333336</ele><time>2026-04-09T09:26:39.987Z</time></trkpt><trkpt lat="45.04851257054646" lon="9.583459274130574"><ele>62.16666666666667</ele><time>2026-04-09T09:26:41.987Z</time></trkpt><trkpt lat="45.0485735946815" lon="9.58359949270514"><ele>62.0</ele><time>2026-04-09T09:26:43.987Z</time></trkpt><trkpt lat="45.04862949925161" lon="9.583728400652934"><ele>62.0</ele><time>2026-04-09T09:26:45.987Z</time></trkpt><trkpt lat="45.0486792125714" lon="9.583872003689606"><ele>62.0</ele><time>2026-04-09T09:26:47.987Z</time></trkpt><trkpt lat="45.0487173793942" lon="9.583948795399646"><ele>62.0</ele><time>2026-04-09T09:26:48.987Z</time></trkpt><trkpt lat="45.04878396094721" lon="9.584100552597274"><ele>62.0</ele><time>2026-04-09T09:26:50.987Z</time></trkpt><trkpt lat="45.048843396407484" lon="9.584254866339185"><ele>62.0</ele><time>2026-04-09T09:26:52.987Z</time></trkpt><trkpt lat="45.04890798528092" lon="9.584407825212333"><ele>62.2</ele><time>2026-04-09T09:26:54.987Z</time></trkpt><trkpt lat="45.04896815068982" lon="9.584563257045412"><ele>62.400000000000006</ele><time>2026-04-09T09:26:56.987Z</time></trkpt><trkpt lat="45.049037466478744" lon="9.584715648426169"><ele>62.599999999999994</ele><time>2026-04-09T09:26:58.987Z</time></trkpt><trkpt lat="45.04907199471027" lon="9.584795745003083"><ele>62.8</ele><time>2026-04-09T09:26:59.987Z</time></trkpt><trkpt lat="45.04912938009657" lon="9.584952488827385"><ele>63.0</ele><time>2026-04-09T09:27:01.987Z</time></trkpt><trkpt lat="45.04916366745943" lon="9.585029600390667"><ele>62.85714285714286</ele><time>2026-04-09T09:27:02.987Z</time></trkpt><trkpt lat="45.0491952311616" lon="9.585110893465083"><ele>62.714285714285715</ele><time>2026-04-09T09:27:03.987Z</time></trkpt><trkpt lat="45.04922965266633" lon="9.585187978794018"><ele>62.57142857142857</ele><time>2026-04-09T09:27:04.987Z</time></trkpt><trkpt lat="45.04926278183488" lon="9.585264179008826"><ele>62.42857142857143</ele><time>2026-04-09T09:27:05.987Z</time></trkpt><trkpt lat="45.04929580477782" lon="9.585345484927108"><ele>62.28571428571429</ele><time>2026-04-09T09:27:06.987Z</time></trkpt><trkpt lat="45.04932895486127" lon="9.585424107807677"><ele>62.142857142857146</ele><time>2026-04-09T09:27:07.987Z</time></trkpt><trkpt lat="45.04936766627605" lon="9.585508921087298"><ele>62.0</ele><time>2026-04-09T09:27:08.987Z</time></trkpt><trkpt lat="45.04940227792686" lon="9.585589315131225"><ele>62.00000000000001</ele><time>2026-04-09T09:27:09.987Z</time></trkpt><trkpt lat="45.04943977100114" lon="9.58566296546786"><ele>62.0</ele><time>2026-04-09T09:27:10.988Z</time></trkpt><trkpt lat="45.04947145273934" lon="9.585747787103585"><ele>62.0</ele><time>2026-04-09T09:27:11.988Z</time></trkpt><trkpt lat="45.04950956889" lon="9.585821749551204"><ele>62.0</ele><time>2026-04-09T09:27:12.988Z</time></trkpt><trkpt lat="45.049544086594224" lon="9.585896892036756"><ele>62.00000000000001</ele><time>2026-04-09T09:27:13.988Z</time></trkpt><trkpt lat="45.04961073787724" lon="9.586036672330783"><ele>62.0</ele><time>2026-04-09T09:27:15.988Z</time></trkpt><trkpt lat="45.04969242231478" lon="9.58615559731501"><ele>61.8</ele><time>2026-04-09T09:27:17.988Z</time></trkpt><trkpt lat="45.049741075889855" lon="9.586212533917658"><ele>61.6</ele><time>2026-04-09T09:27:18.988Z</time></trkpt><trkpt lat="45.049821010188" lon="9.586340306763661"><ele>61.39999999999999</ele><time>2026-04-09T09:27:20.988Z</time></trkpt><trkpt lat="45.04987303884895" lon="9.586396964498528"><ele>61.199999999999996</ele><time>2026-04-09T09:27:21.988Z</time></trkpt><trkpt lat="45.049965103686226" lon="9.586515033201326"><ele>61.0</ele><time>2026-04-09T09:27:23.988Z</time></trkpt><trkpt lat="45.050056939178" lon="9.586635748666794"><ele>60.8</ele><time>2026-04-09T09:27:25.988Z</time></trkpt><trkpt lat="45.050146131598574" lon="9.586756491710863"><ele>60.599999999999994</ele><time>2026-04-09T09:27:27.988Z</time></trkpt><trkpt lat="45.05023204216208" lon="9.586881411620803"><ele>60.4</ele><time>2026-04-09T09:27:29.988Z</time></trkpt><trkpt lat="45.050322915749575" lon="9.586998268303148"><ele>60.2</ele><time>2026-04-09T09:27:31.988Z</time></trkpt><trkpt lat="45.05037257396027" lon="9.58705393105451"><ele>60.0</ele><time>2026-04-09T09:27:32.988Z</time></trkpt><trkpt lat="45.05041980961768" lon="9.587113524623053"><ele>60.4</ele><time>2026-04-09T09:27:33.988Z</time></trkpt><trkpt lat="45.05050861968604" lon="9.587233925407098"><ele>60.8</ele><time>2026-04-09T09:27:35.988Z</time></trkpt><trkpt lat="45.05055655023182" lon="9.587296232467372"><ele>61.2</ele><time>2026-04-09T09:27:36.988Z</time></trkpt><trkpt lat="45.05064393050087" lon="9.587421069517895"><ele>61.6</ele><time>2026-04-09T09:27:38.988Z</time></trkpt><trkpt lat="45.05069279986906" lon="9.587480866943215"><ele>62.0</ele><time>2026-04-09T09:27:39.988Z</time></trkpt><trkpt lat="45.0507855972362" lon="9.587605241516465"><ele>61.833333333333336</ele><time>2026-04-09T09:27:41.988Z</time></trkpt><trkpt lat="45.050834320394" lon="9.587666982791477"><ele>61.66666666666667</ele><time>2026-04-09T09:27:42.988Z</time></trkpt><trkpt lat="45.05088383010684" lon="9.58772936061687"><ele>61.5</ele><time>2026-04-09T09:27:43.988Z</time></trkpt><trkpt lat="45.0509365271053" lon="9.587792818964811"><ele>61.33333333333333</ele><time>2026-04-09T09:27:44.988Z</time></trkpt><trkpt lat="45.051034264513014" lon="9.587909617554983"><ele>61.166666666666664</ele><time>2026-04-09T09:27:46.988Z</time></trkpt><trkpt lat="45.051084307040206" lon="9.587975184008076"><ele>61.0</ele><time>2026-04-09T09:27:47.988Z</time></trkpt><trkpt lat="45.051132305919765" lon="9.588042064892658"><ele>61.28571428571428</ele><time>2026-04-09T09:27:48.988Z</time></trkpt><trkpt lat="45.05118079251763" lon="9.588113622733827"><ele>61.57142857142857</ele><time>2026-04-09T09:27:49.988Z</time></trkpt><trkpt lat="45.0512311688416" lon="9.588183014659135"><ele>61.857142857142854</ele><time>2026-04-09T09:27:50.988Z</time></trkpt><trkpt lat="45.05128142814632" lon="9.58824974640285"><ele>62.14285714285714</ele><time>2026-04-09T09:27:51.988Z</time></trkpt><trkpt lat="45.051329230032785" lon="9.588317375482658"><ele>62.42857142857143</ele><time>2026-04-09T09:27:52.988Z</time></trkpt><trkpt lat="45.051376525582036" lon="9.588381218796702"><ele>62.714285714285715</ele><time>2026-04-09T09:27:53.988Z</time></trkpt><trkpt lat="45.05142819710219" lon="9.588446921761657"><ele>63.0</ele><time>2026-04-09T09:27:54.988Z</time></trkpt><trkpt lat="45.05147577427785" lon="9.588514051026765"><ele>63.0</ele><time>2026-04-09T09:27:55.988Z</time></trkpt><trkpt lat="45.05152661939246" lon="9.588584278374501"><ele>63.0</ele><time>2026-04-09T09:27:56.988Z</time></trkpt><trkpt lat="45.05157654919311" lon="9.588654635975871"><ele>63.0</ele><time>2026-04-09T09:27:57.988Z</time></trkpt><trkpt lat="45.05161970206514" lon="9.588728123059536"><ele>61.0</ele><time>2026-04-09T09:27:58.988Z</time></trkpt><trkpt lat="45.05165135451743" lon="9.588820729019908"><ele>61.0</ele><time>2026-04-09T09:27:59.988Z</time></trkpt></trkseg></trk></gpx>